<?xml version="1.0" encoding="UTF-8" standalone="no" ?>
<gpx xmlns="http://www.topografix.com/GPX/1/1" xmlns:xsi="http://www.w3.org/2001/XMLSchema-instance" xsi:schemaLocation="http://www.topografix.com/GPX/1/1 http://www.topografix.com/GPX/1/1/gpx.xsd" version="1.1" creator="VisuGPX - https://www.visugpx.com">
  <metadata>
    <name>Lago della Rossa, Colle Altare </name>
    <desc><![CDATA[Lago della Rossa, Colle Altare ]]></desc>
  </metadata>
  <wpt lat="45.25543" lon="7.15067">
    <ele>2905.4</ele>
    <name><![CDATA[colle Altare]]></name>
    <desc><![CDATA[Felsboden]]></desc>
    <cmt><![CDATA[Felsboden]]></cmt>
  </wpt>
  <wpt lat="45.23027" lon="7.18832">
    <ele>1804.7</ele>
    <name><![CDATA[fine decaville]]></name>
    <desc><![CDATA[Pfad]]></desc>
    <cmt><![CDATA[Pfad]]></cmt>
  </wpt>
  <wpt lat="45.2571" lon="7.17102">
    <ele>2373.4</ele>
    <name><![CDATA[galleria]]></name>
    <desc><![CDATA[Höhenlinie]]></desc>
    <cmt><![CDATA[Höhenlinie]]></cmt>
  </wpt>
  <wpt lat="45.23663" lon="7.17799">
    <ele>1849.5264</ele>
    <name><![CDATA[inizio decaville]]></name>
    <desc><![CDATA[1850 m altezza]]></desc>
    <cmt><![CDATA[1850 m altezza]]></cmt>
  </wpt>
  <wpt lat="45.2669" lon="7.14674">
    <ele>2705</ele>
    <name><![CDATA[lago della rossa]]></name>
    <desc><![CDATA[Lago Della Rossa]]></desc>
    <cmt><![CDATA[Lago Della Rossa]]></cmt>
  </wpt>
  <wpt lat="45.24944" lon="7.14393">
    <ele>2743</ele>
    <name><![CDATA[lago pera Ciaval]]></name>
    <desc><![CDATA[See]]></desc>
    <cmt><![CDATA[See]]></cmt>
  </wpt>
  <wpt lat="45.26089" lon="7.16761">
    <ele>2365.1</ele>
    <name><![CDATA[lago sotto la torre]]></name>
    <desc><![CDATA[Höhenlinie]]></desc>
    <cmt><![CDATA[Höhenlinie]]></cmt>
  </wpt>
  <wpt lat="45.23202" lon="7.1913">
    <ele>1808.2</ele>
    <name><![CDATA[monte Bassa]]></name>
    <desc><![CDATA[Wald]]></desc>
    <cmt><![CDATA[Wald]]></cmt>
  </wpt>
  <wpt lat="45.24622" lon="7.14686">
    <ele>2615.4</ele>
    <name><![CDATA[rif.Cibriario]]></name>
    <desc><![CDATA[Höhenlinie]]></desc>
    <cmt><![CDATA[Höhenlinie]]></cmt>
  </wpt>
  <wpt lat="45.23154" lon="7.19182">
    <ele>1807.7</ele>
    <name><![CDATA[teleferica]]></name>
    <desc><![CDATA[Hintergrund]]></desc>
    <cmt><![CDATA[Hintergrund]]></cmt>
  </wpt>
  <trk>
    <name><![CDATA[Traccia corrente: 17 AGO 2015 08:01]]></name>
    <trkseg>
      <trkpt lat="45.23199" lon="7.20831">
        <ele>1288.25</ele>
        <time>2015-08-17T06:01:25Z</time>
      </trkpt>
      <trkpt lat="45.23197" lon="7.20835">
        <ele>1288.4</ele>
        <time>2015-08-17T06:01:47Z</time>
      </trkpt>
      <trkpt lat="45.23197" lon="7.20834">
        <ele>1288.34</ele>
        <time>2015-08-17T06:02:25Z</time>
      </trkpt>
      <trkpt lat="45.23198" lon="7.20836">
        <ele>1288.4</ele>
        <time>2015-08-17T06:02:41Z</time>
      </trkpt>
      <trkpt lat="45.23202" lon="7.20836">
        <ele>1288.4</ele>
        <time>2015-08-17T06:02:44Z</time>
      </trkpt>
      <trkpt lat="45.23218" lon="7.20837">
        <ele>1288.67</ele>
        <time>2015-08-17T06:02:55Z</time>
      </trkpt>
      <trkpt lat="45.23219" lon="7.20837">
        <ele>1289.01</ele>
        <time>2015-08-17T06:03:08Z</time>
      </trkpt>
      <trkpt lat="45.23217" lon="7.20839">
        <ele>1289.05</ele>
        <time>2015-08-17T06:03:28Z</time>
      </trkpt>
      <trkpt lat="45.23211" lon="7.20836">
        <ele>1289.15</ele>
        <time>2015-08-17T06:04:02Z</time>
      </trkpt>
      <trkpt lat="45.23211" lon="7.20835">
        <ele>1289.32</ele>
        <time>2015-08-17T06:04:33Z</time>
      </trkpt>
      <trkpt lat="45.23209" lon="7.20833">
        <ele>1289.8</ele>
        <time>2015-08-17T06:05:00Z</time>
      </trkpt>
      <trkpt lat="45.23205" lon="7.20832">
        <ele>1290.05</ele>
        <time>2015-08-17T06:05:31Z</time>
      </trkpt>
      <trkpt lat="45.23207" lon="7.20835">
        <ele>1290.2</ele>
        <time>2015-08-17T06:05:58Z</time>
      </trkpt>
      <trkpt lat="45.23208" lon="7.20837">
        <ele>1290.18</ele>
        <time>2015-08-17T06:06:33Z</time>
      </trkpt>
      <trkpt lat="45.23208" lon="7.20837">
        <ele>1290.93</ele>
        <time>2015-08-17T06:07:09Z</time>
      </trkpt>
      <trkpt lat="45.23208" lon="7.20837">
        <ele>1291.34</ele>
        <time>2015-08-17T06:07:43Z</time>
      </trkpt>
      <trkpt lat="45.23207" lon="7.2084">
        <ele>1291.61</ele>
        <time>2015-08-17T06:08:01Z</time>
      </trkpt>
      <trkpt lat="45.2321" lon="7.20842">
        <ele>1291.74</ele>
        <time>2015-08-17T06:08:24Z</time>
      </trkpt>
      <trkpt lat="45.23204" lon="7.20842">
        <ele>1291.68</ele>
        <time>2015-08-17T06:08:31Z</time>
      </trkpt>
      <trkpt lat="45.23194" lon="7.20838">
        <ele>1292.06</ele>
        <time>2015-08-17T06:08:54Z</time>
      </trkpt>
      <trkpt lat="45.2319" lon="7.20835">
        <ele>1292.55</ele>
        <time>2015-08-17T06:09:17Z</time>
      </trkpt>
      <trkpt lat="45.23189" lon="7.20834">
        <ele>1292.54</ele>
        <time>2015-08-17T06:09:45Z</time>
      </trkpt>
      <trkpt lat="45.23187" lon="7.20835">
        <ele>1292.59</ele>
        <time>2015-08-17T06:09:47Z</time>
      </trkpt>
      <trkpt lat="45.23185" lon="7.20843">
        <ele>1292.77</ele>
        <time>2015-08-17T06:09:51Z</time>
      </trkpt>
      <trkpt lat="45.23196" lon="7.20859">
        <ele>1292.59</ele>
        <time>2015-08-17T06:09:57Z</time>
      </trkpt>
      <trkpt lat="45.23206" lon="7.20858">
        <ele>1293.08</ele>
        <time>2015-08-17T06:10:02Z</time>
      </trkpt>
      <trkpt lat="45.23213" lon="7.2086">
        <ele>1293.48</ele>
        <time>2015-08-17T06:10:13Z</time>
      </trkpt>
      <trkpt lat="45.23217" lon="7.20861">
        <ele>1293.4</ele>
        <time>2015-08-17T06:10:18Z</time>
      </trkpt>
      <trkpt lat="45.23231" lon="7.2086">
        <ele>1293.63</ele>
        <time>2015-08-17T06:10:26Z</time>
      </trkpt>
      <trkpt lat="45.23244" lon="7.20859">
        <ele>1294.68</ele>
        <time>2015-08-17T06:10:33Z</time>
      </trkpt>
      <trkpt lat="45.23256" lon="7.20856">
        <ele>1295.75</ele>
        <time>2015-08-17T06:10:40Z</time>
      </trkpt>
      <trkpt lat="45.23265" lon="7.2085">
        <ele>1296.91</ele>
        <time>2015-08-17T06:10:46Z</time>
      </trkpt>
      <trkpt lat="45.23265" lon="7.20852">
        <ele>1298.35</ele>
        <time>2015-08-17T06:10:59Z</time>
      </trkpt>
      <trkpt lat="45.23265" lon="7.20859">
        <ele>1298.2</ele>
        <time>2015-08-17T06:11:15Z</time>
      </trkpt>
      <trkpt lat="45.23264" lon="7.2086">
        <ele>1298.35</ele>
        <time>2015-08-17T06:11:31Z</time>
      </trkpt>
      <trkpt lat="45.2327" lon="7.20859">
        <ele>1298.57</ele>
        <time>2015-08-17T06:11:42Z</time>
      </trkpt>
      <trkpt lat="45.23275" lon="7.20857">
        <ele>1298.74</ele>
        <time>2015-08-17T06:11:45Z</time>
      </trkpt>
      <trkpt lat="45.23281" lon="7.20847">
        <ele>1299.39</ele>
        <time>2015-08-17T06:11:50Z</time>
      </trkpt>
      <trkpt lat="45.23282" lon="7.20845">
        <ele>1299.56</ele>
        <time>2015-08-17T06:11:51Z</time>
      </trkpt>
      <trkpt lat="45.23283" lon="7.20843">
        <ele>1299.74</ele>
        <time>2015-08-17T06:11:52Z</time>
      </trkpt>
      <trkpt lat="45.23284" lon="7.2084">
        <ele>1299.95</ele>
        <time>2015-08-17T06:11:53Z</time>
      </trkpt>
      <trkpt lat="45.23286" lon="7.20838">
        <ele>1300.14</ele>
        <time>2015-08-17T06:11:54Z</time>
      </trkpt>
      <trkpt lat="45.23287" lon="7.20837">
        <ele>1300.34</ele>
        <time>2015-08-17T06:11:55Z</time>
      </trkpt>
      <trkpt lat="45.23289" lon="7.20835">
        <ele>1300.58</ele>
        <time>2015-08-17T06:11:56Z</time>
      </trkpt>
      <trkpt lat="45.2329" lon="7.20833">
        <ele>1300.85</ele>
        <time>2015-08-17T06:11:57Z</time>
      </trkpt>
      <trkpt lat="45.23292" lon="7.20831">
        <ele>1301.11</ele>
        <time>2015-08-17T06:11:58Z</time>
      </trkpt>
      <trkpt lat="45.23293" lon="7.20829">
        <ele>1301.36</ele>
        <time>2015-08-17T06:11:59Z</time>
      </trkpt>
      <trkpt lat="45.23295" lon="7.20827">
        <ele>1301.58</ele>
        <time>2015-08-17T06:12:00Z</time>
      </trkpt>
      <trkpt lat="45.23296" lon="7.20825">
        <ele>1301.79</ele>
        <time>2015-08-17T06:12:01Z</time>
      </trkpt>
      <trkpt lat="45.23296" lon="7.20824">
        <ele>1301.99</ele>
        <time>2015-08-17T06:12:02Z</time>
      </trkpt>
      <trkpt lat="45.23297" lon="7.20823">
        <ele>1302.21</ele>
        <time>2015-08-17T06:12:03Z</time>
      </trkpt>
      <trkpt lat="45.23298" lon="7.20821">
        <ele>1302.42</ele>
        <time>2015-08-17T06:12:04Z</time>
      </trkpt>
      <trkpt lat="45.23299" lon="7.20819">
        <ele>1302.82</ele>
        <time>2015-08-17T06:12:05Z</time>
      </trkpt>
      <trkpt lat="45.233" lon="7.20817">
        <ele>1303</ele>
        <time>2015-08-17T06:12:06Z</time>
      </trkpt>
      <trkpt lat="45.23301" lon="7.20815">
        <ele>1303.19</ele>
        <time>2015-08-17T06:12:07Z</time>
      </trkpt>
      <trkpt lat="45.23302" lon="7.20812">
        <ele>1303.46</ele>
        <time>2015-08-17T06:12:08Z</time>
      </trkpt>
      <trkpt lat="45.23303" lon="7.2081">
        <ele>1303.75</ele>
        <time>2015-08-17T06:12:09Z</time>
      </trkpt>
      <trkpt lat="45.23304" lon="7.20808">
        <ele>1304.04</ele>
        <time>2015-08-17T06:12:10Z</time>
      </trkpt>
      <trkpt lat="45.23306" lon="7.20806">
        <ele>1304.31</ele>
        <time>2015-08-17T06:12:11Z</time>
      </trkpt>
      <trkpt lat="45.23307" lon="7.20803">
        <ele>1304.57</ele>
        <time>2015-08-17T06:12:12Z</time>
      </trkpt>
      <trkpt lat="45.23312" lon="7.20788">
        <ele>1306.24</ele>
        <time>2015-08-17T06:12:19Z</time>
      </trkpt>
      <trkpt lat="45.23312" lon="7.20786">
        <ele>1306.45</ele>
        <time>2015-08-17T06:12:20Z</time>
      </trkpt>
      <trkpt lat="45.23313" lon="7.20784">
        <ele>1306.66</ele>
        <time>2015-08-17T06:12:21Z</time>
      </trkpt>
      <trkpt lat="45.23314" lon="7.20781">
        <ele>1307.2</ele>
        <time>2015-08-17T06:12:23Z</time>
      </trkpt>
      <trkpt lat="45.23315" lon="7.2078">
        <ele>1307.49</ele>
        <time>2015-08-17T06:12:24Z</time>
      </trkpt>
      <trkpt lat="45.23315" lon="7.20778">
        <ele>1307.76</ele>
        <time>2015-08-17T06:12:25Z</time>
      </trkpt>
      <trkpt lat="45.23316" lon="7.20776">
        <ele>1308.05</ele>
        <time>2015-08-17T06:12:26Z</time>
      </trkpt>
      <trkpt lat="45.23317" lon="7.20773">
        <ele>1308.37</ele>
        <time>2015-08-17T06:12:27Z</time>
      </trkpt>
      <trkpt lat="45.23318" lon="7.20771">
        <ele>1308.69</ele>
        <time>2015-08-17T06:12:28Z</time>
      </trkpt>
      <trkpt lat="45.23319" lon="7.20769">
        <ele>1308.95</ele>
        <time>2015-08-17T06:12:29Z</time>
      </trkpt>
      <trkpt lat="45.23319" lon="7.20768">
        <ele>1309.39</ele>
        <time>2015-08-17T06:12:30Z</time>
      </trkpt>
      <trkpt lat="45.23321" lon="7.20759">
        <ele>1310.65</ele>
        <time>2015-08-17T06:12:36Z</time>
      </trkpt>
      <trkpt lat="45.2332" lon="7.20747">
        <ele>1312.24</ele>
        <time>2015-08-17T06:12:44Z</time>
      </trkpt>
      <trkpt lat="45.2332" lon="7.20747">
        <ele>1312.4</ele>
        <time>2015-08-17T06:12:45Z</time>
      </trkpt>
      <trkpt lat="45.23318" lon="7.20747">
        <ele>1312.56</ele>
        <time>2015-08-17T06:12:46Z</time>
      </trkpt>
      <trkpt lat="45.23317" lon="7.20747">
        <ele>1312.73</ele>
        <time>2015-08-17T06:12:47Z</time>
      </trkpt>
      <trkpt lat="45.23316" lon="7.20747">
        <ele>1312.89</ele>
        <time>2015-08-17T06:12:48Z</time>
      </trkpt>
      <trkpt lat="45.23315" lon="7.20747">
        <ele>1313.04</ele>
        <time>2015-08-17T06:12:49Z</time>
      </trkpt>
      <trkpt lat="45.2331" lon="7.20749">
        <ele>1314.06</ele>
        <time>2015-08-17T06:12:55Z</time>
      </trkpt>
      <trkpt lat="45.23305" lon="7.2075">
        <ele>1314.89</ele>
        <time>2015-08-17T06:13:01Z</time>
      </trkpt>
      <trkpt lat="45.233" lon="7.20749">
        <ele>1315.95</ele>
        <time>2015-08-17T06:13:08Z</time>
      </trkpt>
      <trkpt lat="45.23293" lon="7.20741">
        <ele>1316.84</ele>
        <time>2015-08-17T06:13:15Z</time>
      </trkpt>
      <trkpt lat="45.23286" lon="7.20735">
        <ele>1318.16</ele>
        <time>2015-08-17T06:13:23Z</time>
      </trkpt>
      <trkpt lat="45.23286" lon="7.20725">
        <ele>1318.85</ele>
        <time>2015-08-17T06:13:27Z</time>
      </trkpt>
      <trkpt lat="45.23287" lon="7.20724">
        <ele>1318.97</ele>
        <time>2015-08-17T06:13:28Z</time>
      </trkpt>
      <trkpt lat="45.23287" lon="7.20723">
        <ele>1319.08</ele>
        <time>2015-08-17T06:13:29Z</time>
      </trkpt>
      <trkpt lat="45.23288" lon="7.20721">
        <ele>1319.21</ele>
        <time>2015-08-17T06:13:30Z</time>
      </trkpt>
      <trkpt lat="45.23291" lon="7.20715">
        <ele>1320.19</ele>
        <time>2015-08-17T06:13:36Z</time>
      </trkpt>
      <trkpt lat="45.23298" lon="7.20712">
        <ele>1321.74</ele>
        <time>2015-08-17T06:13:45Z</time>
      </trkpt>
      <trkpt lat="45.23308" lon="7.20708">
        <ele>1322.96</ele>
        <time>2015-08-17T06:13:54Z</time>
      </trkpt>
      <trkpt lat="45.2332" lon="7.20695">
        <ele>1324.91</ele>
        <time>2015-08-17T06:14:06Z</time>
      </trkpt>
      <trkpt lat="45.23331" lon="7.20674">
        <ele>1327.52</ele>
        <time>2015-08-17T06:14:20Z</time>
      </trkpt>
      <trkpt lat="45.23335" lon="7.20669">
        <ele>1328.16</ele>
        <time>2015-08-17T06:14:24Z</time>
      </trkpt>
      <trkpt lat="45.23341" lon="7.2066">
        <ele>1329.6</ele>
        <time>2015-08-17T06:14:32Z</time>
      </trkpt>
      <trkpt lat="45.23347" lon="7.20657">
        <ele>1330.97</ele>
        <time>2015-08-17T06:14:38Z</time>
      </trkpt>
      <trkpt lat="45.23348" lon="7.20651">
        <ele>1331.86</ele>
        <time>2015-08-17T06:14:43Z</time>
      </trkpt>
      <trkpt lat="45.23351" lon="7.20645">
        <ele>1332.62</ele>
        <time>2015-08-17T06:14:47Z</time>
      </trkpt>
      <trkpt lat="45.23352" lon="7.20644">
        <ele>1332.8</ele>
        <time>2015-08-17T06:14:48Z</time>
      </trkpt>
      <trkpt lat="45.23352" lon="7.20642">
        <ele>1333</ele>
        <time>2015-08-17T06:14:49Z</time>
      </trkpt>
      <trkpt lat="45.23352" lon="7.2064">
        <ele>1333.22</ele>
        <time>2015-08-17T06:14:50Z</time>
      </trkpt>
      <trkpt lat="45.23353" lon="7.20638">
        <ele>1333.44</ele>
        <time>2015-08-17T06:14:51Z</time>
      </trkpt>
      <trkpt lat="45.23353" lon="7.20635">
        <ele>1333.65</ele>
        <time>2015-08-17T06:14:52Z</time>
      </trkpt>
      <trkpt lat="45.23353" lon="7.20634">
        <ele>1333.85</ele>
        <time>2015-08-17T06:14:53Z</time>
      </trkpt>
      <trkpt lat="45.23354" lon="7.20626">
        <ele>1334.66</ele>
        <time>2015-08-17T06:14:57Z</time>
      </trkpt>
      <trkpt lat="45.23355" lon="7.20613">
        <ele>1336.33</ele>
        <time>2015-08-17T06:15:04Z</time>
      </trkpt>
      <trkpt lat="45.23354" lon="7.20603">
        <ele>1337.43</ele>
        <time>2015-08-17T06:15:09Z</time>
      </trkpt>
      <trkpt lat="45.23353" lon="7.2059">
        <ele>1338.68</ele>
        <time>2015-08-17T06:15:16Z</time>
      </trkpt>
      <trkpt lat="45.2335" lon="7.20581">
        <ele>1339.35</ele>
        <time>2015-08-17T06:15:20Z</time>
      </trkpt>
      <trkpt lat="45.2335" lon="7.20579">
        <ele>1339.53</ele>
        <time>2015-08-17T06:15:21Z</time>
      </trkpt>
      <trkpt lat="45.2335" lon="7.20573">
        <ele>1340.19</ele>
        <time>2015-08-17T06:15:24Z</time>
      </trkpt>
      <trkpt lat="45.23352" lon="7.20566">
        <ele>1340.86</ele>
        <time>2015-08-17T06:15:28Z</time>
      </trkpt>
      <trkpt lat="45.23353" lon="7.20556">
        <ele>1341.58</ele>
        <time>2015-08-17T06:15:32Z</time>
      </trkpt>
      <trkpt lat="45.23353" lon="7.20554">
        <ele>1341.78</ele>
        <time>2015-08-17T06:15:33Z</time>
      </trkpt>
      <trkpt lat="45.23352" lon="7.20546">
        <ele>1342.25</ele>
        <time>2015-08-17T06:15:36Z</time>
      </trkpt>
      <trkpt lat="45.23352" lon="7.20544">
        <ele>1342.4</ele>
        <time>2015-08-17T06:15:37Z</time>
      </trkpt>
      <trkpt lat="45.23351" lon="7.20535">
        <ele>1343.14</ele>
        <time>2015-08-17T06:15:42Z</time>
      </trkpt>
      <trkpt lat="45.2335" lon="7.20533">
        <ele>1343.26</ele>
        <time>2015-08-17T06:15:43Z</time>
      </trkpt>
      <trkpt lat="45.23348" lon="7.20521">
        <ele>1344.01</ele>
        <time>2015-08-17T06:15:48Z</time>
      </trkpt>
      <trkpt lat="45.23347" lon="7.20519">
        <ele>1344.16</ele>
        <time>2015-08-17T06:15:49Z</time>
      </trkpt>
      <trkpt lat="45.23347" lon="7.20517">
        <ele>1344.3</ele>
        <time>2015-08-17T06:15:50Z</time>
      </trkpt>
      <trkpt lat="45.23347" lon="7.20514">
        <ele>1344.43</ele>
        <time>2015-08-17T06:15:51Z</time>
      </trkpt>
      <trkpt lat="45.23347" lon="7.20511">
        <ele>1344.55</ele>
        <time>2015-08-17T06:15:52Z</time>
      </trkpt>
      <trkpt lat="45.23346" lon="7.20509">
        <ele>1344.67</ele>
        <time>2015-08-17T06:15:53Z</time>
      </trkpt>
      <trkpt lat="45.23347" lon="7.20506">
        <ele>1344.83</ele>
        <time>2015-08-17T06:15:54Z</time>
      </trkpt>
      <trkpt lat="45.23347" lon="7.20504">
        <ele>1345</ele>
        <time>2015-08-17T06:15:55Z</time>
      </trkpt>
      <trkpt lat="45.23347" lon="7.20502">
        <ele>1345.16</ele>
        <time>2015-08-17T06:15:56Z</time>
      </trkpt>
      <trkpt lat="45.23346" lon="7.20496">
        <ele>1345.59</ele>
        <time>2015-08-17T06:15:59Z</time>
      </trkpt>
      <trkpt lat="45.23346" lon="7.20494">
        <ele>1345.69</ele>
        <time>2015-08-17T06:16:00Z</time>
      </trkpt>
      <trkpt lat="45.23346" lon="7.20491">
        <ele>1345.8</ele>
        <time>2015-08-17T06:16:01Z</time>
      </trkpt>
      <trkpt lat="45.23346" lon="7.20489">
        <ele>1345.94</ele>
        <time>2015-08-17T06:16:02Z</time>
      </trkpt>
      <trkpt lat="45.23345" lon="7.20488">
        <ele>1346.09</ele>
        <time>2015-08-17T06:16:03Z</time>
      </trkpt>
      <trkpt lat="45.23344" lon="7.20486">
        <ele>1346.23</ele>
        <time>2015-08-17T06:16:04Z</time>
      </trkpt>
      <trkpt lat="45.23343" lon="7.20483">
        <ele>1346.54</ele>
        <time>2015-08-17T06:16:06Z</time>
      </trkpt>
      <trkpt lat="45.23343" lon="7.20481">
        <ele>1346.68</ele>
        <time>2015-08-17T06:16:07Z</time>
      </trkpt>
      <trkpt lat="45.23342" lon="7.20471">
        <ele>1347.48</ele>
        <time>2015-08-17T06:16:12Z</time>
      </trkpt>
      <trkpt lat="45.23346" lon="7.20453">
        <ele>1347.96</ele>
        <time>2015-08-17T06:16:18Z</time>
      </trkpt>
      <trkpt lat="45.23347" lon="7.20448">
        <ele>1348</ele>
        <time>2015-08-17T06:16:19Z</time>
      </trkpt>
      <trkpt lat="45.2335" lon="7.20443">
        <ele>1347.98</ele>
        <time>2015-08-17T06:16:20Z</time>
      </trkpt>
      <trkpt lat="45.23354" lon="7.20438">
        <ele>1347.9</ele>
        <time>2015-08-17T06:16:21Z</time>
      </trkpt>
      <trkpt lat="45.23368" lon="7.20418">
        <ele>1347.03</ele>
        <time>2015-08-17T06:16:26Z</time>
      </trkpt>
      <trkpt lat="45.23375" lon="7.20404">
        <ele>1346.76</ele>
        <time>2015-08-17T06:16:31Z</time>
      </trkpt>
      <trkpt lat="45.23382" lon="7.20383">
        <ele>1347.78</ele>
        <time>2015-08-17T06:16:39Z</time>
      </trkpt>
      <trkpt lat="45.23384" lon="7.20363">
        <ele>1348.69</ele>
        <time>2015-08-17T06:16:46Z</time>
      </trkpt>
      <trkpt lat="45.23385" lon="7.20354">
        <ele>1349.11</ele>
        <time>2015-08-17T06:16:49Z</time>
      </trkpt>
      <trkpt lat="45.23385" lon="7.20351">
        <ele>1349.25</ele>
        <time>2015-08-17T06:16:50Z</time>
      </trkpt>
      <trkpt lat="45.23386" lon="7.20349">
        <ele>1349.38</ele>
        <time>2015-08-17T06:16:51Z</time>
      </trkpt>
      <trkpt lat="45.23387" lon="7.20346">
        <ele>1349.48</ele>
        <time>2015-08-17T06:16:52Z</time>
      </trkpt>
      <trkpt lat="45.23388" lon="7.20342">
        <ele>1349.57</ele>
        <time>2015-08-17T06:16:53Z</time>
      </trkpt>
      <trkpt lat="45.2339" lon="7.20339">
        <ele>1349.64</ele>
        <time>2015-08-17T06:16:54Z</time>
      </trkpt>
      <trkpt lat="45.23391" lon="7.20335">
        <ele>1349.71</ele>
        <time>2015-08-17T06:16:55Z</time>
      </trkpt>
      <trkpt lat="45.23392" lon="7.20332">
        <ele>1349.76</ele>
        <time>2015-08-17T06:16:56Z</time>
      </trkpt>
      <trkpt lat="45.23394" lon="7.20328">
        <ele>1349.86</ele>
        <time>2015-08-17T06:16:57Z</time>
      </trkpt>
      <trkpt lat="45.23395" lon="7.20325">
        <ele>1349.94</ele>
        <time>2015-08-17T06:16:58Z</time>
      </trkpt>
      <trkpt lat="45.23397" lon="7.20322">
        <ele>1350.07</ele>
        <time>2015-08-17T06:16:59Z</time>
      </trkpt>
      <trkpt lat="45.23414" lon="7.203">
        <ele>1350.87</ele>
        <time>2015-08-17T06:17:06Z</time>
      </trkpt>
      <trkpt lat="45.23427" lon="7.20285">
        <ele>1351.28</ele>
        <time>2015-08-17T06:17:13Z</time>
      </trkpt>
      <trkpt lat="45.23438" lon="7.20267">
        <ele>1351.64</ele>
        <time>2015-08-17T06:17:20Z</time>
      </trkpt>
      <trkpt lat="45.23453" lon="7.20258">
        <ele>1352.23</ele>
        <time>2015-08-17T06:17:27Z</time>
      </trkpt>
      <trkpt lat="45.23463" lon="7.20251">
        <ele>1352.83</ele>
        <time>2015-08-17T06:17:33Z</time>
      </trkpt>
      <trkpt lat="45.23465" lon="7.2025">
        <ele>1352.92</ele>
        <time>2015-08-17T06:17:34Z</time>
      </trkpt>
      <trkpt lat="45.23475" lon="7.20238">
        <ele>1353.65</ele>
        <time>2015-08-17T06:17:40Z</time>
      </trkpt>
      <trkpt lat="45.23477" lon="7.20236">
        <ele>1353.74</ele>
        <time>2015-08-17T06:17:41Z</time>
      </trkpt>
      <trkpt lat="45.23479" lon="7.20234">
        <ele>1353.82</ele>
        <time>2015-08-17T06:17:42Z</time>
      </trkpt>
      <trkpt lat="45.23481" lon="7.20233">
        <ele>1353.92</ele>
        <time>2015-08-17T06:17:43Z</time>
      </trkpt>
      <trkpt lat="45.23483" lon="7.20231">
        <ele>1354.01</ele>
        <time>2015-08-17T06:17:44Z</time>
      </trkpt>
      <trkpt lat="45.23485" lon="7.2023">
        <ele>1354.11</ele>
        <time>2015-08-17T06:17:45Z</time>
      </trkpt>
      <trkpt lat="45.23487" lon="7.20229">
        <ele>1354.21</ele>
        <time>2015-08-17T06:17:46Z</time>
      </trkpt>
      <trkpt lat="45.23489" lon="7.20228">
        <ele>1354.28</ele>
        <time>2015-08-17T06:17:47Z</time>
      </trkpt>
      <trkpt lat="45.23491" lon="7.20227">
        <ele>1354.35</ele>
        <time>2015-08-17T06:17:48Z</time>
      </trkpt>
      <trkpt lat="45.23505" lon="7.20218">
        <ele>1355.44</ele>
        <time>2015-08-17T06:17:56Z</time>
      </trkpt>
      <trkpt lat="45.23509" lon="7.20216">
        <ele>1355.99</ele>
        <time>2015-08-17T06:18:05Z</time>
      </trkpt>
      <trkpt lat="45.23513" lon="7.20216">
        <ele>1356.2</ele>
        <time>2015-08-17T06:18:08Z</time>
      </trkpt>
      <trkpt lat="45.23525" lon="7.20211">
        <ele>1356.6</ele>
        <time>2015-08-17T06:18:14Z</time>
      </trkpt>
      <trkpt lat="45.23538" lon="7.20208">
        <ele>1357.75</ele>
        <time>2015-08-17T06:18:20Z</time>
      </trkpt>
      <trkpt lat="45.23539" lon="7.20209">
        <ele>1357.97</ele>
        <time>2015-08-17T06:18:21Z</time>
      </trkpt>
      <trkpt lat="45.23541" lon="7.20209">
        <ele>1358.21</ele>
        <time>2015-08-17T06:18:22Z</time>
      </trkpt>
      <trkpt lat="45.23543" lon="7.20208">
        <ele>1358.46</ele>
        <time>2015-08-17T06:18:23Z</time>
      </trkpt>
      <trkpt lat="45.23544" lon="7.20207">
        <ele>1358.68</ele>
        <time>2015-08-17T06:18:24Z</time>
      </trkpt>
      <trkpt lat="45.23546" lon="7.20206">
        <ele>1358.89</ele>
        <time>2015-08-17T06:18:25Z</time>
      </trkpt>
      <trkpt lat="45.23547" lon="7.20204">
        <ele>1359.08</ele>
        <time>2015-08-17T06:18:26Z</time>
      </trkpt>
      <trkpt lat="45.23549" lon="7.20203">
        <ele>1359.22</ele>
        <time>2015-08-17T06:18:27Z</time>
      </trkpt>
      <trkpt lat="45.2355" lon="7.20201">
        <ele>1359.36</ele>
        <time>2015-08-17T06:18:28Z</time>
      </trkpt>
      <trkpt lat="45.23552" lon="7.20199">
        <ele>1359.47</ele>
        <time>2015-08-17T06:18:29Z</time>
      </trkpt>
      <trkpt lat="45.23562" lon="7.20182">
        <ele>1360.04</ele>
        <time>2015-08-17T06:18:36Z</time>
      </trkpt>
      <trkpt lat="45.23573" lon="7.2017">
        <ele>1360.41</ele>
        <time>2015-08-17T06:18:42Z</time>
      </trkpt>
      <trkpt lat="45.23587" lon="7.20164">
        <ele>1360.75</ele>
        <time>2015-08-17T06:18:48Z</time>
      </trkpt>
      <trkpt lat="45.23598" lon="7.2016">
        <ele>1361.35</ele>
        <time>2015-08-17T06:18:54Z</time>
      </trkpt>
      <trkpt lat="45.23612" lon="7.20156">
        <ele>1362.11</ele>
        <time>2015-08-17T06:19:01Z</time>
      </trkpt>
      <trkpt lat="45.23613" lon="7.20155">
        <ele>1362.24</ele>
        <time>2015-08-17T06:19:02Z</time>
      </trkpt>
      <trkpt lat="45.23615" lon="7.20154">
        <ele>1362.41</ele>
        <time>2015-08-17T06:19:03Z</time>
      </trkpt>
      <trkpt lat="45.23617" lon="7.20153">
        <ele>1362.6</ele>
        <time>2015-08-17T06:19:04Z</time>
      </trkpt>
      <trkpt lat="45.23618" lon="7.20152">
        <ele>1362.82</ele>
        <time>2015-08-17T06:19:05Z</time>
      </trkpt>
      <trkpt lat="45.23619" lon="7.20152">
        <ele>1363.27</ele>
        <time>2015-08-17T06:19:06Z</time>
      </trkpt>
      <trkpt lat="45.23633" lon="7.20146">
        <ele>1365</ele>
        <time>2015-08-17T06:19:15Z</time>
      </trkpt>
      <trkpt lat="45.23634" lon="7.20146">
        <ele>1365.14</ele>
        <time>2015-08-17T06:19:16Z</time>
      </trkpt>
      <trkpt lat="45.23637" lon="7.20147">
        <ele>1365.27</ele>
        <time>2015-08-17T06:19:17Z</time>
      </trkpt>
      <trkpt lat="45.23639" lon="7.20147">
        <ele>1365.39</ele>
        <time>2015-08-17T06:19:18Z</time>
      </trkpt>
      <trkpt lat="45.23642" lon="7.20148">
        <ele>1365.51</ele>
        <time>2015-08-17T06:19:19Z</time>
      </trkpt>
      <trkpt lat="45.2366" lon="7.20151">
        <ele>1366.61</ele>
        <time>2015-08-17T06:19:25Z</time>
      </trkpt>
      <trkpt lat="45.23673" lon="7.20142">
        <ele>1367.72</ele>
        <time>2015-08-17T06:19:32Z</time>
      </trkpt>
      <trkpt lat="45.23681" lon="7.20123">
        <ele>1368.59</ele>
        <time>2015-08-17T06:19:40Z</time>
      </trkpt>
      <trkpt lat="45.23687" lon="7.20106">
        <ele>1368.81</ele>
        <time>2015-08-17T06:19:47Z</time>
      </trkpt>
      <trkpt lat="45.23692" lon="7.201">
        <ele>1368.95</ele>
        <time>2015-08-17T06:20:09Z</time>
      </trkpt>
      <trkpt lat="45.23693" lon="7.20098">
        <ele>1368.96</ele>
        <time>2015-08-17T06:20:10Z</time>
      </trkpt>
      <trkpt lat="45.23694" lon="7.20097">
        <ele>1368.97</ele>
        <time>2015-08-17T06:20:11Z</time>
      </trkpt>
      <trkpt lat="45.23695" lon="7.20094">
        <ele>1368.97</ele>
        <time>2015-08-17T06:20:12Z</time>
      </trkpt>
      <trkpt lat="45.23696" lon="7.20091">
        <ele>1368.94</ele>
        <time>2015-08-17T06:20:13Z</time>
      </trkpt>
      <trkpt lat="45.23709" lon="7.20064">
        <ele>1368.1</ele>
        <time>2015-08-17T06:20:21Z</time>
      </trkpt>
      <trkpt lat="45.23722" lon="7.20042">
        <ele>1367.2</ele>
        <time>2015-08-17T06:20:27Z</time>
      </trkpt>
      <trkpt lat="45.23741" lon="7.20011">
        <ele>1365.98</ele>
        <time>2015-08-17T06:20:33Z</time>
      </trkpt>
      <trkpt lat="45.23764" lon="7.19977">
        <ele>1364.65</ele>
        <time>2015-08-17T06:20:38Z</time>
      </trkpt>
      <trkpt lat="45.23799" lon="7.19926">
        <ele>1361.04</ele>
        <time>2015-08-17T06:20:44Z</time>
      </trkpt>
      <trkpt lat="45.23804" lon="7.19918">
        <ele>1360.53</ele>
        <time>2015-08-17T06:20:45Z</time>
      </trkpt>
      <trkpt lat="45.23819" lon="7.19886">
        <ele>1359.43</ele>
        <time>2015-08-17T06:20:50Z</time>
      </trkpt>
      <trkpt lat="45.23827" lon="7.19862">
        <ele>1360.09</ele>
        <time>2015-08-17T06:20:56Z</time>
      </trkpt>
      <trkpt lat="45.23837" lon="7.19827">
        <ele>1361.08</ele>
        <time>2015-08-17T06:21:06Z</time>
      </trkpt>
      <trkpt lat="45.23846" lon="7.19792">
        <ele>1362.52</ele>
        <time>2015-08-17T06:21:15Z</time>
      </trkpt>
      <trkpt lat="45.23854" lon="7.1976">
        <ele>1363.39</ele>
        <time>2015-08-17T06:21:23Z</time>
      </trkpt>
      <trkpt lat="45.23861" lon="7.19723">
        <ele>1364.55</ele>
        <time>2015-08-17T06:21:33Z</time>
      </trkpt>
      <trkpt lat="45.23866" lon="7.19694">
        <ele>1366.28</ele>
        <time>2015-08-17T06:21:42Z</time>
      </trkpt>
      <trkpt lat="45.23871" lon="7.19672">
        <ele>1368.05</ele>
        <time>2015-08-17T06:21:50Z</time>
      </trkpt>
      <trkpt lat="45.23875" lon="7.19648">
        <ele>1370.05</ele>
        <time>2015-08-17T06:22:00Z</time>
      </trkpt>
      <trkpt lat="45.23875" lon="7.19644">
        <ele>1370.36</ele>
        <time>2015-08-17T06:22:02Z</time>
      </trkpt>
      <trkpt lat="45.23875" lon="7.19639">
        <ele>1370.65</ele>
        <time>2015-08-17T06:22:04Z</time>
      </trkpt>
      <trkpt lat="45.23875" lon="7.19637">
        <ele>1370.8</ele>
        <time>2015-08-17T06:22:05Z</time>
      </trkpt>
      <trkpt lat="45.23875" lon="7.19634">
        <ele>1370.98</ele>
        <time>2015-08-17T06:22:06Z</time>
      </trkpt>
      <trkpt lat="45.23875" lon="7.19632">
        <ele>1371.19</ele>
        <time>2015-08-17T06:22:07Z</time>
      </trkpt>
      <trkpt lat="45.23875" lon="7.1963">
        <ele>1371.39</ele>
        <time>2015-08-17T06:22:08Z</time>
      </trkpt>
      <trkpt lat="45.23875" lon="7.19626">
        <ele>1371.77</ele>
        <time>2015-08-17T06:22:10Z</time>
      </trkpt>
      <trkpt lat="45.23875" lon="7.19624">
        <ele>1371.91</ele>
        <time>2015-08-17T06:22:11Z</time>
      </trkpt>
      <trkpt lat="45.23875" lon="7.19622">
        <ele>1372.05</ele>
        <time>2015-08-17T06:22:12Z</time>
      </trkpt>
      <trkpt lat="45.23874" lon="7.19619">
        <ele>1372.21</ele>
        <time>2015-08-17T06:22:13Z</time>
      </trkpt>
      <trkpt lat="45.23873" lon="7.19617">
        <ele>1372.39</ele>
        <time>2015-08-17T06:22:14Z</time>
      </trkpt>
      <trkpt lat="45.23873" lon="7.19614">
        <ele>1372.56</ele>
        <time>2015-08-17T06:22:15Z</time>
      </trkpt>
      <trkpt lat="45.23873" lon="7.19611">
        <ele>1372.71</ele>
        <time>2015-08-17T06:22:16Z</time>
      </trkpt>
      <trkpt lat="45.23873" lon="7.19609">
        <ele>1372.84</ele>
        <time>2015-08-17T06:22:17Z</time>
      </trkpt>
      <trkpt lat="45.23873" lon="7.19607">
        <ele>1372.95</ele>
        <time>2015-08-17T06:22:18Z</time>
      </trkpt>
      <trkpt lat="45.23872" lon="7.19587">
        <ele>1374.1</ele>
        <time>2015-08-17T06:22:26Z</time>
      </trkpt>
      <trkpt lat="45.23872" lon="7.19581">
        <ele>1374.33</ele>
        <time>2015-08-17T06:22:28Z</time>
      </trkpt>
      <trkpt lat="45.23871" lon="7.19578">
        <ele>1374.44</ele>
        <time>2015-08-17T06:22:29Z</time>
      </trkpt>
      <trkpt lat="45.23871" lon="7.19576">
        <ele>1374.56</ele>
        <time>2015-08-17T06:22:30Z</time>
      </trkpt>
      <trkpt lat="45.23871" lon="7.19573">
        <ele>1374.69</ele>
        <time>2015-08-17T06:22:31Z</time>
      </trkpt>
      <trkpt lat="45.23871" lon="7.19571">
        <ele>1374.8</ele>
        <time>2015-08-17T06:22:32Z</time>
      </trkpt>
      <trkpt lat="45.23871" lon="7.19569">
        <ele>1374.91</ele>
        <time>2015-08-17T06:22:33Z</time>
      </trkpt>
      <trkpt lat="45.23871" lon="7.19566">
        <ele>1374.99</ele>
        <time>2015-08-17T06:22:34Z</time>
      </trkpt>
      <trkpt lat="45.23871" lon="7.19563">
        <ele>1375.08</ele>
        <time>2015-08-17T06:22:35Z</time>
      </trkpt>
      <trkpt lat="45.23871" lon="7.19561">
        <ele>1375.17</ele>
        <time>2015-08-17T06:22:36Z</time>
      </trkpt>
      <trkpt lat="45.23871" lon="7.19546">
        <ele>1376.45</ele>
        <time>2015-08-17T06:22:42Z</time>
      </trkpt>
      <trkpt lat="45.23869" lon="7.19538">
        <ele>1377.21</ele>
        <time>2015-08-17T06:22:46Z</time>
      </trkpt>
      <trkpt lat="45.23869" lon="7.19536">
        <ele>1377.42</ele>
        <time>2015-08-17T06:22:47Z</time>
      </trkpt>
      <trkpt lat="45.23869" lon="7.19534">
        <ele>1377.92</ele>
        <time>2015-08-17T06:22:48Z</time>
      </trkpt>
      <trkpt lat="45.23869" lon="7.19532">
        <ele>1378.18</ele>
        <time>2015-08-17T06:22:49Z</time>
      </trkpt>
      <trkpt lat="45.23869" lon="7.19531">
        <ele>1378.4</ele>
        <time>2015-08-17T06:22:50Z</time>
      </trkpt>
      <trkpt lat="45.23869" lon="7.19529">
        <ele>1378.6</ele>
        <time>2015-08-17T06:22:51Z</time>
      </trkpt>
      <trkpt lat="45.23869" lon="7.19521">
        <ele>1379.61</ele>
        <time>2015-08-17T06:22:56Z</time>
      </trkpt>
      <trkpt lat="45.23869" lon="7.19519">
        <ele>1379.79</ele>
        <time>2015-08-17T06:22:57Z</time>
      </trkpt>
      <trkpt lat="45.23869" lon="7.19517">
        <ele>1379.96</ele>
        <time>2015-08-17T06:22:58Z</time>
      </trkpt>
      <trkpt lat="45.23869" lon="7.19511">
        <ele>1380.74</ele>
        <time>2015-08-17T06:23:02Z</time>
      </trkpt>
      <trkpt lat="45.23869" lon="7.19509">
        <ele>1380.92</ele>
        <time>2015-08-17T06:23:03Z</time>
      </trkpt>
      <trkpt lat="45.23869" lon="7.19502">
        <ele>1382.1</ele>
        <time>2015-08-17T06:23:09Z</time>
      </trkpt>
      <trkpt lat="45.23869" lon="7.19499">
        <ele>1382.31</ele>
        <time>2015-08-17T06:23:10Z</time>
      </trkpt>
      <trkpt lat="45.23868" lon="7.19497">
        <ele>1382.5</ele>
        <time>2015-08-17T06:23:11Z</time>
      </trkpt>
      <trkpt lat="45.23867" lon="7.1949">
        <ele>1383.42</ele>
        <time>2015-08-17T06:23:15Z</time>
      </trkpt>
      <trkpt lat="45.23871" lon="7.19475">
        <ele>1385.37</ele>
        <time>2015-08-17T06:23:25Z</time>
      </trkpt>
      <trkpt lat="45.23876" lon="7.19452">
        <ele>1387.7</ele>
        <time>2015-08-17T06:23:37Z</time>
      </trkpt>
      <trkpt lat="45.23889" lon="7.19428">
        <ele>1390.69</ele>
        <time>2015-08-17T06:23:50Z</time>
      </trkpt>
      <trkpt lat="45.23898" lon="7.19416">
        <ele>1392.28</ele>
        <time>2015-08-17T06:23:59Z</time>
      </trkpt>
      <trkpt lat="45.23907" lon="7.19406">
        <ele>1393.79</ele>
        <time>2015-08-17T06:24:08Z</time>
      </trkpt>
      <trkpt lat="45.23908" lon="7.19405">
        <ele>1393.99</ele>
        <time>2015-08-17T06:24:09Z</time>
      </trkpt>
      <trkpt lat="45.2391" lon="7.19404">
        <ele>1394.22</ele>
        <time>2015-08-17T06:24:10Z</time>
      </trkpt>
      <trkpt lat="45.23915" lon="7.19399">
        <ele>1395.28</ele>
        <time>2015-08-17T06:24:15Z</time>
      </trkpt>
      <trkpt lat="45.23916" lon="7.19398">
        <ele>1395.47</ele>
        <time>2015-08-17T06:24:16Z</time>
      </trkpt>
      <trkpt lat="45.23917" lon="7.19397">
        <ele>1395.66</ele>
        <time>2015-08-17T06:24:17Z</time>
      </trkpt>
      <trkpt lat="45.23921" lon="7.19389">
        <ele>1397.16</ele>
        <time>2015-08-17T06:24:24Z</time>
      </trkpt>
      <trkpt lat="45.23927" lon="7.19385">
        <ele>1398.45</ele>
        <time>2015-08-17T06:24:30Z</time>
      </trkpt>
      <trkpt lat="45.23928" lon="7.19384">
        <ele>1398.58</ele>
        <time>2015-08-17T06:24:31Z</time>
      </trkpt>
      <trkpt lat="45.23929" lon="7.19383">
        <ele>1398.72</ele>
        <time>2015-08-17T06:24:32Z</time>
      </trkpt>
      <trkpt lat="45.2393" lon="7.19382">
        <ele>1398.87</ele>
        <time>2015-08-17T06:24:33Z</time>
      </trkpt>
      <trkpt lat="45.23931" lon="7.19381">
        <ele>1399.04</ele>
        <time>2015-08-17T06:24:34Z</time>
      </trkpt>
      <trkpt lat="45.23932" lon="7.1938">
        <ele>1399.22</ele>
        <time>2015-08-17T06:24:35Z</time>
      </trkpt>
      <trkpt lat="45.23941" lon="7.19375">
        <ele>1399.87</ele>
        <time>2015-08-17T06:24:42Z</time>
      </trkpt>
      <trkpt lat="45.23951" lon="7.19369">
        <ele>1400.47</ele>
        <time>2015-08-17T06:24:49Z</time>
      </trkpt>
      <trkpt lat="45.23964" lon="7.19362">
        <ele>1401.08</ele>
        <time>2015-08-17T06:24:57Z</time>
      </trkpt>
      <trkpt lat="45.2397" lon="7.19348">
        <ele>1401.71</ele>
        <time>2015-08-17T06:25:05Z</time>
      </trkpt>
      <trkpt lat="45.23973" lon="7.19343">
        <ele>1401.94</ele>
        <time>2015-08-17T06:25:08Z</time>
      </trkpt>
      <trkpt lat="45.23973" lon="7.19341">
        <ele>1402.02</ele>
        <time>2015-08-17T06:25:09Z</time>
      </trkpt>
      <trkpt lat="45.23974" lon="7.19339">
        <ele>1402.08</ele>
        <time>2015-08-17T06:25:10Z</time>
      </trkpt>
      <trkpt lat="45.2398" lon="7.1932">
        <ele>1403.15</ele>
        <time>2015-08-17T06:25:20Z</time>
      </trkpt>
      <trkpt lat="45.23983" lon="7.19308">
        <ele>1404.1</ele>
        <time>2015-08-17T06:25:27Z</time>
      </trkpt>
      <trkpt lat="45.23987" lon="7.19295">
        <ele>1405.19</ele>
        <time>2015-08-17T06:25:34Z</time>
      </trkpt>
      <trkpt lat="45.23988" lon="7.19292">
        <ele>1405.47</ele>
        <time>2015-08-17T06:25:36Z</time>
      </trkpt>
      <trkpt lat="45.23989" lon="7.1929">
        <ele>1405.6</ele>
        <time>2015-08-17T06:25:37Z</time>
      </trkpt>
      <trkpt lat="45.23989" lon="7.19288">
        <ele>1405.74</ele>
        <time>2015-08-17T06:25:38Z</time>
      </trkpt>
      <trkpt lat="45.23989" lon="7.19286">
        <ele>1405.91</ele>
        <time>2015-08-17T06:25:39Z</time>
      </trkpt>
      <trkpt lat="45.2399" lon="7.19284">
        <ele>1406.07</ele>
        <time>2015-08-17T06:25:40Z</time>
      </trkpt>
      <trkpt lat="45.2399" lon="7.19282">
        <ele>1406.23</ele>
        <time>2015-08-17T06:25:41Z</time>
      </trkpt>
      <trkpt lat="45.2399" lon="7.1928">
        <ele>1406.38</ele>
        <time>2015-08-17T06:25:42Z</time>
      </trkpt>
      <trkpt lat="45.23991" lon="7.19278">
        <ele>1406.52</ele>
        <time>2015-08-17T06:25:43Z</time>
      </trkpt>
      <trkpt lat="45.23991" lon="7.19276">
        <ele>1406.66</ele>
        <time>2015-08-17T06:25:44Z</time>
      </trkpt>
      <trkpt lat="45.23996" lon="7.19255">
        <ele>1408.22</ele>
        <time>2015-08-17T06:25:55Z</time>
      </trkpt>
      <trkpt lat="45.23996" lon="7.19253">
        <ele>1408.37</ele>
        <time>2015-08-17T06:25:56Z</time>
      </trkpt>
      <trkpt lat="45.23996" lon="7.19251">
        <ele>1408.56</ele>
        <time>2015-08-17T06:25:57Z</time>
      </trkpt>
      <trkpt lat="45.23996" lon="7.19249">
        <ele>1408.74</ele>
        <time>2015-08-17T06:25:58Z</time>
      </trkpt>
      <trkpt lat="45.23996" lon="7.19247">
        <ele>1408.9</ele>
        <time>2015-08-17T06:25:59Z</time>
      </trkpt>
      <trkpt lat="45.23996" lon="7.19245">
        <ele>1409.04</ele>
        <time>2015-08-17T06:26:00Z</time>
      </trkpt>
      <trkpt lat="45.23997" lon="7.19243">
        <ele>1409.15</ele>
        <time>2015-08-17T06:26:01Z</time>
      </trkpt>
      <trkpt lat="45.23997" lon="7.19242">
        <ele>1409.25</ele>
        <time>2015-08-17T06:26:02Z</time>
      </trkpt>
      <trkpt lat="45.23997" lon="7.1924">
        <ele>1409.34</ele>
        <time>2015-08-17T06:26:03Z</time>
      </trkpt>
      <trkpt lat="45.23999" lon="7.19223">
        <ele>1410.38</ele>
        <time>2015-08-17T06:26:11Z</time>
      </trkpt>
      <trkpt lat="45.24" lon="7.19221">
        <ele>1410.56</ele>
        <time>2015-08-17T06:26:12Z</time>
      </trkpt>
      <trkpt lat="45.24" lon="7.19219">
        <ele>1410.74</ele>
        <time>2015-08-17T06:26:13Z</time>
      </trkpt>
      <trkpt lat="45.24" lon="7.19216">
        <ele>1410.91</ele>
        <time>2015-08-17T06:26:14Z</time>
      </trkpt>
      <trkpt lat="45.24" lon="7.19214">
        <ele>1411.04</ele>
        <time>2015-08-17T06:26:15Z</time>
      </trkpt>
      <trkpt lat="45.24005" lon="7.19201">
        <ele>1412.26</ele>
        <time>2015-08-17T06:26:22Z</time>
      </trkpt>
      <trkpt lat="45.24006" lon="7.19199">
        <ele>1412.4</ele>
        <time>2015-08-17T06:26:23Z</time>
      </trkpt>
      <trkpt lat="45.24006" lon="7.19197">
        <ele>1412.52</ele>
        <time>2015-08-17T06:26:24Z</time>
      </trkpt>
      <trkpt lat="45.24006" lon="7.19195">
        <ele>1412.65</ele>
        <time>2015-08-17T06:26:25Z</time>
      </trkpt>
      <trkpt lat="45.24007" lon="7.19193">
        <ele>1412.84</ele>
        <time>2015-08-17T06:26:26Z</time>
      </trkpt>
      <trkpt lat="45.24014" lon="7.19177">
        <ele>1414.43</ele>
        <time>2015-08-17T06:26:35Z</time>
      </trkpt>
      <trkpt lat="45.24019" lon="7.19163">
        <ele>1415.34</ele>
        <time>2015-08-17T06:26:42Z</time>
      </trkpt>
      <trkpt lat="45.24024" lon="7.19146">
        <ele>1416.57</ele>
        <time>2015-08-17T06:26:50Z</time>
      </trkpt>
      <trkpt lat="45.24027" lon="7.19138">
        <ele>1417.21</ele>
        <time>2015-08-17T06:26:54Z</time>
      </trkpt>
      <trkpt lat="45.24031" lon="7.19119">
        <ele>1418.17</ele>
        <time>2015-08-17T06:27:02Z</time>
      </trkpt>
      <trkpt lat="45.24034" lon="7.19098">
        <ele>1419.2</ele>
        <time>2015-08-17T06:27:11Z</time>
      </trkpt>
      <trkpt lat="45.24033" lon="7.19078">
        <ele>1420.2</ele>
        <time>2015-08-17T06:27:19Z</time>
      </trkpt>
      <trkpt lat="45.24033" lon="7.19058">
        <ele>1421.2</ele>
        <time>2015-08-17T06:27:27Z</time>
      </trkpt>
      <trkpt lat="45.2403" lon="7.19039">
        <ele>1422.39</ele>
        <time>2015-08-17T06:27:35Z</time>
      </trkpt>
      <trkpt lat="45.24027" lon="7.19029">
        <ele>1423.04</ele>
        <time>2015-08-17T06:27:39Z</time>
      </trkpt>
      <trkpt lat="45.24025" lon="7.1902">
        <ele>1423.65</ele>
        <time>2015-08-17T06:27:43Z</time>
      </trkpt>
      <trkpt lat="45.24022" lon="7.19014">
        <ele>1424.19</ele>
        <time>2015-08-17T06:27:46Z</time>
      </trkpt>
      <trkpt lat="45.24019" lon="7.19005">
        <ele>1425.1</ele>
        <time>2015-08-17T06:27:51Z</time>
      </trkpt>
      <trkpt lat="45.24017" lon="7.18994">
        <ele>1425.9</ele>
        <time>2015-08-17T06:27:57Z</time>
      </trkpt>
      <trkpt lat="45.24017" lon="7.18988">
        <ele>1426.71</ele>
        <time>2015-08-17T06:28:00Z</time>
      </trkpt>
      <trkpt lat="45.24016" lon="7.18986">
        <ele>1426.92</ele>
        <time>2015-08-17T06:28:01Z</time>
      </trkpt>
      <trkpt lat="45.24016" lon="7.18984">
        <ele>1427.09</ele>
        <time>2015-08-17T06:28:02Z</time>
      </trkpt>
      <trkpt lat="45.24016" lon="7.18982">
        <ele>1427.24</ele>
        <time>2015-08-17T06:28:03Z</time>
      </trkpt>
      <trkpt lat="45.24016" lon="7.1898">
        <ele>1427.39</ele>
        <time>2015-08-17T06:28:04Z</time>
      </trkpt>
      <trkpt lat="45.24014" lon="7.18972">
        <ele>1428.14</ele>
        <time>2015-08-17T06:28:09Z</time>
      </trkpt>
      <trkpt lat="45.24013" lon="7.18964">
        <ele>1428.8</ele>
        <time>2015-08-17T06:28:14Z</time>
      </trkpt>
      <trkpt lat="45.24013" lon="7.18958">
        <ele>1429.36</ele>
        <time>2015-08-17T06:28:18Z</time>
      </trkpt>
      <trkpt lat="45.24014" lon="7.18957">
        <ele>1429.49</ele>
        <time>2015-08-17T06:28:19Z</time>
      </trkpt>
      <trkpt lat="45.24014" lon="7.18955">
        <ele>1429.62</ele>
        <time>2015-08-17T06:28:20Z</time>
      </trkpt>
      <trkpt lat="45.24014" lon="7.18954">
        <ele>1429.74</ele>
        <time>2015-08-17T06:28:21Z</time>
      </trkpt>
      <trkpt lat="45.24015" lon="7.18952">
        <ele>1430.04</ele>
        <time>2015-08-17T06:28:22Z</time>
      </trkpt>
      <trkpt lat="45.24014" lon="7.18946">
        <ele>1430.32</ele>
        <time>2015-08-17T06:28:24Z</time>
      </trkpt>
      <trkpt lat="45.24014" lon="7.1894">
        <ele>1430.67</ele>
        <time>2015-08-17T06:28:27Z</time>
      </trkpt>
      <trkpt lat="45.24015" lon="7.18931">
        <ele>1431.23</ele>
        <time>2015-08-17T06:28:31Z</time>
      </trkpt>
      <trkpt lat="45.24017" lon="7.18923">
        <ele>1431.77</ele>
        <time>2015-08-17T06:28:34Z</time>
      </trkpt>
      <trkpt lat="45.2402" lon="7.18904">
        <ele>1432.53</ele>
        <time>2015-08-17T06:28:40Z</time>
      </trkpt>
      <trkpt lat="45.24026" lon="7.18875">
        <ele>1432.83</ele>
        <time>2015-08-17T06:28:47Z</time>
      </trkpt>
      <trkpt lat="45.24032" lon="7.18851">
        <ele>1433.09</ele>
        <time>2015-08-17T06:28:53Z</time>
      </trkpt>
      <trkpt lat="45.24042" lon="7.18821">
        <ele>1432.99</ele>
        <time>2015-08-17T06:29:02Z</time>
      </trkpt>
      <trkpt lat="45.24055" lon="7.18795">
        <ele>1433.01</ele>
        <time>2015-08-17T06:29:10Z</time>
      </trkpt>
      <trkpt lat="45.24066" lon="7.18775">
        <ele>1433.15</ele>
        <time>2015-08-17T06:29:17Z</time>
      </trkpt>
      <trkpt lat="45.24073" lon="7.18764">
        <ele>1433.28</ele>
        <time>2015-08-17T06:29:21Z</time>
      </trkpt>
      <trkpt lat="45.24074" lon="7.18762">
        <ele>1433.3</ele>
        <time>2015-08-17T06:29:22Z</time>
      </trkpt>
      <trkpt lat="45.24093" lon="7.18745">
        <ele>1433.44</ele>
        <time>2015-08-17T06:29:30Z</time>
      </trkpt>
      <trkpt lat="45.24109" lon="7.18737">
        <ele>1434.14</ele>
        <time>2015-08-17T06:29:36Z</time>
      </trkpt>
      <trkpt lat="45.24123" lon="7.1873">
        <ele>1434.93</ele>
        <time>2015-08-17T06:29:42Z</time>
      </trkpt>
      <trkpt lat="45.24134" lon="7.18716">
        <ele>1436.35</ele>
        <time>2015-08-17T06:29:50Z</time>
      </trkpt>
      <trkpt lat="45.24149" lon="7.18699">
        <ele>1437.75</ele>
        <time>2015-08-17T06:29:59Z</time>
      </trkpt>
      <trkpt lat="45.24155" lon="7.18685">
        <ele>1438.81</ele>
        <time>2015-08-17T06:30:05Z</time>
      </trkpt>
      <trkpt lat="45.24155" lon="7.18682">
        <ele>1438.95</ele>
        <time>2015-08-17T06:30:06Z</time>
      </trkpt>
      <trkpt lat="45.24157" lon="7.1868">
        <ele>1439.07</ele>
        <time>2015-08-17T06:30:07Z</time>
      </trkpt>
      <trkpt lat="45.24158" lon="7.18677">
        <ele>1439.19</ele>
        <time>2015-08-17T06:30:08Z</time>
      </trkpt>
      <trkpt lat="45.24159" lon="7.18675">
        <ele>1439.3</ele>
        <time>2015-08-17T06:30:09Z</time>
      </trkpt>
      <trkpt lat="45.24159" lon="7.18672">
        <ele>1439.4</ele>
        <time>2015-08-17T06:30:10Z</time>
      </trkpt>
      <trkpt lat="45.24159" lon="7.18669">
        <ele>1439.51</ele>
        <time>2015-08-17T06:30:11Z</time>
      </trkpt>
      <trkpt lat="45.2416" lon="7.18666">
        <ele>1439.6</ele>
        <time>2015-08-17T06:30:12Z</time>
      </trkpt>
      <trkpt lat="45.24163" lon="7.18642">
        <ele>1440.44</ele>
        <time>2015-08-17T06:30:19Z</time>
      </trkpt>
      <trkpt lat="45.24165" lon="7.18621">
        <ele>1441.81</ele>
        <time>2015-08-17T06:30:26Z</time>
      </trkpt>
      <trkpt lat="45.24166" lon="7.18603">
        <ele>1442.67</ele>
        <time>2015-08-17T06:30:33Z</time>
      </trkpt>
      <trkpt lat="45.24167" lon="7.18593">
        <ele>1443.14</ele>
        <time>2015-08-17T06:30:37Z</time>
      </trkpt>
      <trkpt lat="45.24168" lon="7.18591">
        <ele>1443.23</ele>
        <time>2015-08-17T06:30:38Z</time>
      </trkpt>
      <trkpt lat="45.24168" lon="7.18589">
        <ele>1443.31</ele>
        <time>2015-08-17T06:30:39Z</time>
      </trkpt>
      <trkpt lat="45.24168" lon="7.18586">
        <ele>1443.4</ele>
        <time>2015-08-17T06:30:40Z</time>
      </trkpt>
      <trkpt lat="45.24169" lon="7.18583">
        <ele>1443.49</ele>
        <time>2015-08-17T06:30:41Z</time>
      </trkpt>
      <trkpt lat="45.24169" lon="7.18581">
        <ele>1443.61</ele>
        <time>2015-08-17T06:30:42Z</time>
      </trkpt>
      <trkpt lat="45.24169" lon="7.18578">
        <ele>1443.73</ele>
        <time>2015-08-17T06:30:43Z</time>
      </trkpt>
      <trkpt lat="45.24175" lon="7.18563">
        <ele>1444.48</ele>
        <time>2015-08-17T06:30:49Z</time>
      </trkpt>
      <trkpt lat="45.24182" lon="7.18547">
        <ele>1445.44</ele>
        <time>2015-08-17T06:30:56Z</time>
      </trkpt>
      <trkpt lat="45.24186" lon="7.18541">
        <ele>1445.99</ele>
        <time>2015-08-17T06:30:59Z</time>
      </trkpt>
      <trkpt lat="45.24195" lon="7.18529">
        <ele>1447.3</ele>
        <time>2015-08-17T06:31:05Z</time>
      </trkpt>
      <trkpt lat="45.24204" lon="7.18511">
        <ele>1448.59</ele>
        <time>2015-08-17T06:31:12Z</time>
      </trkpt>
      <trkpt lat="45.24209" lon="7.1849">
        <ele>1450.73</ele>
        <time>2015-08-17T06:31:20Z</time>
      </trkpt>
      <trkpt lat="45.24215" lon="7.18474">
        <ele>1452.34</ele>
        <time>2015-08-17T06:31:27Z</time>
      </trkpt>
      <trkpt lat="45.24219" lon="7.1846">
        <ele>1453.99</ele>
        <time>2015-08-17T06:31:34Z</time>
      </trkpt>
      <trkpt lat="45.2422" lon="7.18459">
        <ele>1454.16</ele>
        <time>2015-08-17T06:31:35Z</time>
      </trkpt>
      <trkpt lat="45.24222" lon="7.18453">
        <ele>1454.57</ele>
        <time>2015-08-17T06:31:38Z</time>
      </trkpt>
      <trkpt lat="45.24223" lon="7.18451">
        <ele>1454.69</ele>
        <time>2015-08-17T06:31:39Z</time>
      </trkpt>
      <trkpt lat="45.24224" lon="7.1845">
        <ele>1454.95</ele>
        <time>2015-08-17T06:31:40Z</time>
      </trkpt>
      <trkpt lat="45.24225" lon="7.18449">
        <ele>1455.11</ele>
        <time>2015-08-17T06:31:41Z</time>
      </trkpt>
      <trkpt lat="45.24226" lon="7.18447">
        <ele>1455.27</ele>
        <time>2015-08-17T06:31:42Z</time>
      </trkpt>
      <trkpt lat="45.24227" lon="7.18446">
        <ele>1455.4</ele>
        <time>2015-08-17T06:31:43Z</time>
      </trkpt>
      <trkpt lat="45.24228" lon="7.18446">
        <ele>1455.51</ele>
        <time>2015-08-17T06:31:44Z</time>
      </trkpt>
      <trkpt lat="45.24229" lon="7.18445">
        <ele>1455.63</ele>
        <time>2015-08-17T06:31:45Z</time>
      </trkpt>
      <trkpt lat="45.2423" lon="7.18444">
        <ele>1455.78</ele>
        <time>2015-08-17T06:31:46Z</time>
      </trkpt>
      <trkpt lat="45.24231" lon="7.18442">
        <ele>1455.95</ele>
        <time>2015-08-17T06:31:47Z</time>
      </trkpt>
      <trkpt lat="45.24237" lon="7.18435">
        <ele>1457.1</ele>
        <time>2015-08-17T06:31:53Z</time>
      </trkpt>
      <trkpt lat="45.24238" lon="7.18433">
        <ele>1457.27</ele>
        <time>2015-08-17T06:31:54Z</time>
      </trkpt>
      <trkpt lat="45.24238" lon="7.18431">
        <ele>1457.44</ele>
        <time>2015-08-17T06:31:55Z</time>
      </trkpt>
      <trkpt lat="45.24238" lon="7.1843">
        <ele>1457.63</ele>
        <time>2015-08-17T06:31:56Z</time>
      </trkpt>
      <trkpt lat="45.24239" lon="7.18428">
        <ele>1457.81</ele>
        <time>2015-08-17T06:31:57Z</time>
      </trkpt>
      <trkpt lat="45.24238" lon="7.18419">
        <ele>1458.37</ele>
        <time>2015-08-17T06:32:01Z</time>
      </trkpt>
      <trkpt lat="45.24238" lon="7.18417">
        <ele>1458.49</ele>
        <time>2015-08-17T06:32:02Z</time>
      </trkpt>
      <trkpt lat="45.24238" lon="7.18414">
        <ele>1458.61</ele>
        <time>2015-08-17T06:32:03Z</time>
      </trkpt>
      <trkpt lat="45.24237" lon="7.18412">
        <ele>1458.9</ele>
        <time>2015-08-17T06:32:04Z</time>
      </trkpt>
      <trkpt lat="45.24237" lon="7.1841">
        <ele>1458.9</ele>
        <time>2015-08-17T06:32:05Z</time>
      </trkpt>
      <trkpt lat="45.24236" lon="7.18407">
        <ele>1459.32</ele>
        <time>2015-08-17T06:32:06Z</time>
      </trkpt>
      <trkpt lat="45.24236" lon="7.184">
        <ele>1460.12</ele>
        <time>2015-08-17T06:32:11Z</time>
      </trkpt>
      <trkpt lat="45.24235" lon="7.18398">
        <ele>1460.77</ele>
        <time>2015-08-17T06:32:17Z</time>
      </trkpt>
      <trkpt lat="45.24236" lon="7.184">
        <ele>1461.04</ele>
        <time>2015-08-17T06:32:24Z</time>
      </trkpt>
      <trkpt lat="45.24235" lon="7.184">
        <ele>1461.16</ele>
        <time>2015-08-17T06:32:38Z</time>
      </trkpt>
      <trkpt lat="45.24234" lon="7.18397">
        <ele>1461.1</ele>
        <time>2015-08-17T06:32:53Z</time>
      </trkpt>
      <trkpt lat="45.24233" lon="7.18389">
        <ele>1461.25</ele>
        <time>2015-08-17T06:33:06Z</time>
      </trkpt>
      <trkpt lat="45.24234" lon="7.18393">
        <ele>1461.11</ele>
        <time>2015-08-17T06:33:18Z</time>
      </trkpt>
      <trkpt lat="45.24234" lon="7.18391">
        <ele>1461.13</ele>
        <time>2015-08-17T06:33:30Z</time>
      </trkpt>
      <trkpt lat="45.24237" lon="7.18401">
        <ele>1460.8</ele>
        <time>2015-08-17T06:33:44Z</time>
      </trkpt>
      <trkpt lat="45.24236" lon="7.18402">
        <ele>1460.91</ele>
        <time>2015-08-17T06:33:58Z</time>
      </trkpt>
      <trkpt lat="45.2423" lon="7.18396">
        <ele>1460.85</ele>
        <time>2015-08-17T06:34:12Z</time>
      </trkpt>
      <trkpt lat="45.24224" lon="7.18396">
        <ele>1461.13</ele>
        <time>2015-08-17T06:34:20Z</time>
      </trkpt>
      <trkpt lat="45.24221" lon="7.1839">
        <ele>1461.78</ele>
        <time>2015-08-17T06:34:29Z</time>
      </trkpt>
      <trkpt lat="45.24219" lon="7.18388">
        <ele>1461.94</ele>
        <time>2015-08-17T06:34:30Z</time>
      </trkpt>
      <trkpt lat="45.24219" lon="7.18387">
        <ele>1462.09</ele>
        <time>2015-08-17T06:34:31Z</time>
      </trkpt>
      <trkpt lat="45.24219" lon="7.18384">
        <ele>1463.11</ele>
        <time>2015-08-17T06:34:38Z</time>
      </trkpt>
      <trkpt lat="45.24219" lon="7.18381">
        <ele>1463.26</ele>
        <time>2015-08-17T06:34:39Z</time>
      </trkpt>
      <trkpt lat="45.24218" lon="7.18378">
        <ele>1463.43</ele>
        <time>2015-08-17T06:34:40Z</time>
      </trkpt>
      <trkpt lat="45.24216" lon="7.18376">
        <ele>1463.58</ele>
        <time>2015-08-17T06:34:41Z</time>
      </trkpt>
      <trkpt lat="45.24215" lon="7.18373">
        <ele>1463.71</ele>
        <time>2015-08-17T06:34:42Z</time>
      </trkpt>
      <trkpt lat="45.24214" lon="7.18371">
        <ele>1463.83</ele>
        <time>2015-08-17T06:34:43Z</time>
      </trkpt>
      <trkpt lat="45.24212" lon="7.18366">
        <ele>1464.34</ele>
        <time>2015-08-17T06:34:46Z</time>
      </trkpt>
      <trkpt lat="45.2421" lon="7.18364">
        <ele>1464.5</ele>
        <time>2015-08-17T06:34:47Z</time>
      </trkpt>
      <trkpt lat="45.24209" lon="7.18362">
        <ele>1464.66</ele>
        <time>2015-08-17T06:34:48Z</time>
      </trkpt>
      <trkpt lat="45.24208" lon="7.1836">
        <ele>1464.82</ele>
        <time>2015-08-17T06:34:49Z</time>
      </trkpt>
      <trkpt lat="45.24207" lon="7.18357">
        <ele>1464.97</ele>
        <time>2015-08-17T06:34:50Z</time>
      </trkpt>
      <trkpt lat="45.24206" lon="7.18355">
        <ele>1465.11</ele>
        <time>2015-08-17T06:34:51Z</time>
      </trkpt>
      <trkpt lat="45.24205" lon="7.18353">
        <ele>1465.25</ele>
        <time>2015-08-17T06:34:52Z</time>
      </trkpt>
      <trkpt lat="45.24203" lon="7.18351">
        <ele>1465.39</ele>
        <time>2015-08-17T06:34:53Z</time>
      </trkpt>
      <trkpt lat="45.24202" lon="7.18349">
        <ele>1465.51</ele>
        <time>2015-08-17T06:34:54Z</time>
      </trkpt>
      <trkpt lat="45.24201" lon="7.18347">
        <ele>1465.62</ele>
        <time>2015-08-17T06:34:55Z</time>
      </trkpt>
      <trkpt lat="45.242" lon="7.18346">
        <ele>1465.73</ele>
        <time>2015-08-17T06:34:56Z</time>
      </trkpt>
      <trkpt lat="45.24198" lon="7.18343">
        <ele>1465.83</ele>
        <time>2015-08-17T06:34:57Z</time>
      </trkpt>
      <trkpt lat="45.24198" lon="7.18342">
        <ele>1465.92</ele>
        <time>2015-08-17T06:34:58Z</time>
      </trkpt>
      <trkpt lat="45.24195" lon="7.18336">
        <ele>1466.8</ele>
        <time>2015-08-17T06:35:03Z</time>
      </trkpt>
      <trkpt lat="45.24183" lon="7.18321">
        <ele>1468.35</ele>
        <time>2015-08-17T06:35:11Z</time>
      </trkpt>
      <trkpt lat="45.24177" lon="7.1831">
        <ele>1469.11</ele>
        <time>2015-08-17T06:35:16Z</time>
      </trkpt>
      <trkpt lat="45.24177" lon="7.18307">
        <ele>1469.3</ele>
        <time>2015-08-17T06:35:17Z</time>
      </trkpt>
      <trkpt lat="45.24177" lon="7.18304">
        <ele>1469.47</ele>
        <time>2015-08-17T06:35:18Z</time>
      </trkpt>
      <trkpt lat="45.24177" lon="7.18302">
        <ele>1469.64</ele>
        <time>2015-08-17T06:35:19Z</time>
      </trkpt>
      <trkpt lat="45.24176" lon="7.183">
        <ele>1469.8</ele>
        <time>2015-08-17T06:35:20Z</time>
      </trkpt>
      <trkpt lat="45.24176" lon="7.18298">
        <ele>1469.98</ele>
        <time>2015-08-17T06:35:21Z</time>
      </trkpt>
      <trkpt lat="45.24176" lon="7.18291">
        <ele>1470.56</ele>
        <time>2015-08-17T06:35:24Z</time>
      </trkpt>
      <trkpt lat="45.24173" lon="7.18277">
        <ele>1471.71</ele>
        <time>2015-08-17T06:35:30Z</time>
      </trkpt>
      <trkpt lat="45.24172" lon="7.1826">
        <ele>1473.03</ele>
        <time>2015-08-17T06:35:38Z</time>
      </trkpt>
      <trkpt lat="45.2418" lon="7.18244">
        <ele>1474.38</ele>
        <time>2015-08-17T06:35:46Z</time>
      </trkpt>
      <trkpt lat="45.24183" lon="7.18244">
        <ele>1474.79</ele>
        <time>2015-08-17T06:35:48Z</time>
      </trkpt>
      <trkpt lat="45.24186" lon="7.18249">
        <ele>1475.68</ele>
        <time>2015-08-17T06:35:52Z</time>
      </trkpt>
      <trkpt lat="45.24183" lon="7.18263">
        <ele>1477.24</ele>
        <time>2015-08-17T06:36:01Z</time>
      </trkpt>
      <trkpt lat="45.24184" lon="7.1829">
        <ele>1479.38</ele>
        <time>2015-08-17T06:36:12Z</time>
      </trkpt>
      <trkpt lat="45.24184" lon="7.18294">
        <ele>1480.09</ele>
        <time>2015-08-17T06:36:14Z</time>
      </trkpt>
      <trkpt lat="45.24185" lon="7.18296">
        <ele>1480.09</ele>
        <time>2015-08-17T06:36:15Z</time>
      </trkpt>
      <trkpt lat="45.24186" lon="7.18298">
        <ele>1480.43</ele>
        <time>2015-08-17T06:36:16Z</time>
      </trkpt>
      <trkpt lat="45.24187" lon="7.183">
        <ele>1480.57</ele>
        <time>2015-08-17T06:36:17Z</time>
      </trkpt>
      <trkpt lat="45.2419" lon="7.18302">
        <ele>1480.81</ele>
        <time>2015-08-17T06:36:19Z</time>
      </trkpt>
      <trkpt lat="45.24191" lon="7.18302">
        <ele>1480.93</ele>
        <time>2015-08-17T06:36:20Z</time>
      </trkpt>
      <trkpt lat="45.24193" lon="7.18302">
        <ele>1481.03</ele>
        <time>2015-08-17T06:36:21Z</time>
      </trkpt>
      <trkpt lat="45.24195" lon="7.18301">
        <ele>1481.11</ele>
        <time>2015-08-17T06:36:22Z</time>
      </trkpt>
      <trkpt lat="45.24196" lon="7.183">
        <ele>1481.18</ele>
        <time>2015-08-17T06:36:23Z</time>
      </trkpt>
      <trkpt lat="45.24198" lon="7.18299">
        <ele>1481.25</ele>
        <time>2015-08-17T06:36:24Z</time>
      </trkpt>
      <trkpt lat="45.24199" lon="7.18298">
        <ele>1481.36</ele>
        <time>2015-08-17T06:36:25Z</time>
      </trkpt>
      <trkpt lat="45.24199" lon="7.18296">
        <ele>1481.51</ele>
        <time>2015-08-17T06:36:26Z</time>
      </trkpt>
      <trkpt lat="45.242" lon="7.18295">
        <ele>1481.65</ele>
        <time>2015-08-17T06:36:27Z</time>
      </trkpt>
      <trkpt lat="45.242" lon="7.18293">
        <ele>1481.79</ele>
        <time>2015-08-17T06:36:28Z</time>
      </trkpt>
      <trkpt lat="45.24201" lon="7.18291">
        <ele>1481.96</ele>
        <time>2015-08-17T06:36:29Z</time>
      </trkpt>
      <trkpt lat="45.24201" lon="7.18289">
        <ele>1482.13</ele>
        <time>2015-08-17T06:36:30Z</time>
      </trkpt>
      <trkpt lat="45.24202" lon="7.18287">
        <ele>1482.29</ele>
        <time>2015-08-17T06:36:31Z</time>
      </trkpt>
      <trkpt lat="45.24202" lon="7.18285">
        <ele>1482.45</ele>
        <time>2015-08-17T06:36:32Z</time>
      </trkpt>
      <trkpt lat="45.24203" lon="7.18284">
        <ele>1482.6</ele>
        <time>2015-08-17T06:36:33Z</time>
      </trkpt>
      <trkpt lat="45.24204" lon="7.18282">
        <ele>1482.74</ele>
        <time>2015-08-17T06:36:34Z</time>
      </trkpt>
      <trkpt lat="45.24206" lon="7.18277">
        <ele>1483.17</ele>
        <time>2015-08-17T06:36:37Z</time>
      </trkpt>
      <trkpt lat="45.24206" lon="7.18275">
        <ele>1483.32</ele>
        <time>2015-08-17T06:36:38Z</time>
      </trkpt>
      <trkpt lat="45.24206" lon="7.18273">
        <ele>1483.49</ele>
        <time>2015-08-17T06:36:39Z</time>
      </trkpt>
      <trkpt lat="45.24206" lon="7.18271">
        <ele>1483.91</ele>
        <time>2015-08-17T06:36:40Z</time>
      </trkpt>
      <trkpt lat="45.24207" lon="7.18268">
        <ele>1484.1</ele>
        <time>2015-08-17T06:36:41Z</time>
      </trkpt>
      <trkpt lat="45.24208" lon="7.18266">
        <ele>1484.26</ele>
        <time>2015-08-17T06:36:42Z</time>
      </trkpt>
      <trkpt lat="45.24209" lon="7.18265">
        <ele>1484.41</ele>
        <time>2015-08-17T06:36:43Z</time>
      </trkpt>
      <trkpt lat="45.2421" lon="7.18263">
        <ele>1484.56</ele>
        <time>2015-08-17T06:36:44Z</time>
      </trkpt>
      <trkpt lat="45.24211" lon="7.18261">
        <ele>1484.76</ele>
        <time>2015-08-17T06:36:45Z</time>
      </trkpt>
      <trkpt lat="45.24212" lon="7.18259">
        <ele>1484.98</ele>
        <time>2015-08-17T06:36:46Z</time>
      </trkpt>
      <trkpt lat="45.24212" lon="7.18257">
        <ele>1485.18</ele>
        <time>2015-08-17T06:36:47Z</time>
      </trkpt>
      <trkpt lat="45.24216" lon="7.18232">
        <ele>1486.97</ele>
        <time>2015-08-17T06:36:59Z</time>
      </trkpt>
      <trkpt lat="45.2422" lon="7.18212">
        <ele>1488.1</ele>
        <time>2015-08-17T06:37:08Z</time>
      </trkpt>
      <trkpt lat="45.24228" lon="7.18199">
        <ele>1489.23</ele>
        <time>2015-08-17T06:37:15Z</time>
      </trkpt>
      <trkpt lat="45.24234" lon="7.182">
        <ele>1489.97</ele>
        <time>2015-08-17T06:37:19Z</time>
      </trkpt>
      <trkpt lat="45.24235" lon="7.182">
        <ele>1490.14</ele>
        <time>2015-08-17T06:37:20Z</time>
      </trkpt>
      <trkpt lat="45.24235" lon="7.18201">
        <ele>1490.34</ele>
        <time>2015-08-17T06:37:21Z</time>
      </trkpt>
      <trkpt lat="45.24236" lon="7.18202">
        <ele>1490.53</ele>
        <time>2015-08-17T06:37:22Z</time>
      </trkpt>
      <trkpt lat="45.24236" lon="7.18207">
        <ele>1491.01</ele>
        <time>2015-08-17T06:37:25Z</time>
      </trkpt>
      <trkpt lat="45.24236" lon="7.18208">
        <ele>1491.18</ele>
        <time>2015-08-17T06:37:26Z</time>
      </trkpt>
      <trkpt lat="45.24234" lon="7.18213">
        <ele>1491.79</ele>
        <time>2015-08-17T06:37:28Z</time>
      </trkpt>
      <trkpt lat="45.24234" lon="7.18215">
        <ele>1491.96</ele>
        <time>2015-08-17T06:37:29Z</time>
      </trkpt>
      <trkpt lat="45.24233" lon="7.18217">
        <ele>1492.12</ele>
        <time>2015-08-17T06:37:30Z</time>
      </trkpt>
      <trkpt lat="45.24231" lon="7.18243">
        <ele>1493.85</ele>
        <time>2015-08-17T06:37:40Z</time>
      </trkpt>
      <trkpt lat="45.24226" lon="7.18263">
        <ele>1495.64</ele>
        <time>2015-08-17T06:37:50Z</time>
      </trkpt>
      <trkpt lat="45.24222" lon="7.18284">
        <ele>1497.38</ele>
        <time>2015-08-17T06:38:00Z</time>
      </trkpt>
      <trkpt lat="45.24216" lon="7.18301">
        <ele>1498.63</ele>
        <time>2015-08-17T06:38:10Z</time>
      </trkpt>
      <trkpt lat="45.24215" lon="7.18305">
        <ele>1498.86</ele>
        <time>2015-08-17T06:38:12Z</time>
      </trkpt>
      <trkpt lat="45.24216" lon="7.18307">
        <ele>1498.99</ele>
        <time>2015-08-17T06:38:13Z</time>
      </trkpt>
      <trkpt lat="45.24216" lon="7.18308">
        <ele>1499.11</ele>
        <time>2015-08-17T06:38:14Z</time>
      </trkpt>
      <trkpt lat="45.24217" lon="7.1831">
        <ele>1499.22</ele>
        <time>2015-08-17T06:38:15Z</time>
      </trkpt>
      <trkpt lat="45.24218" lon="7.18312">
        <ele>1499.33</ele>
        <time>2015-08-17T06:38:16Z</time>
      </trkpt>
      <trkpt lat="45.24219" lon="7.18313">
        <ele>1499.43</ele>
        <time>2015-08-17T06:38:17Z</time>
      </trkpt>
      <trkpt lat="45.2422" lon="7.18314">
        <ele>1499.57</ele>
        <time>2015-08-17T06:38:18Z</time>
      </trkpt>
      <trkpt lat="45.24222" lon="7.18316">
        <ele>1499.89</ele>
        <time>2015-08-17T06:38:19Z</time>
      </trkpt>
      <trkpt lat="45.24223" lon="7.18316">
        <ele>1500.03</ele>
        <time>2015-08-17T06:38:20Z</time>
      </trkpt>
      <trkpt lat="45.24224" lon="7.18317">
        <ele>1500.16</ele>
        <time>2015-08-17T06:38:21Z</time>
      </trkpt>
      <trkpt lat="45.24236" lon="7.18318">
        <ele>1501.45</ele>
        <time>2015-08-17T06:38:29Z</time>
      </trkpt>
      <trkpt lat="45.24249" lon="7.18313">
        <ele>1502.9</ele>
        <time>2015-08-17T06:38:37Z</time>
      </trkpt>
      <trkpt lat="45.24258" lon="7.18303">
        <ele>1504.16</ele>
        <time>2015-08-17T06:38:44Z</time>
      </trkpt>
      <trkpt lat="45.24265" lon="7.18287">
        <ele>1505.67</ele>
        <time>2015-08-17T06:38:53Z</time>
      </trkpt>
      <trkpt lat="45.24273" lon="7.1827">
        <ele>1506.86</ele>
        <time>2015-08-17T06:39:02Z</time>
      </trkpt>
      <trkpt lat="45.24278" lon="7.18257">
        <ele>1508.53</ele>
        <time>2015-08-17T06:39:11Z</time>
      </trkpt>
      <trkpt lat="45.24279" lon="7.1826">
        <ele>1509.41</ele>
        <time>2015-08-17T06:39:26Z</time>
      </trkpt>
      <trkpt lat="45.24282" lon="7.18257">
        <ele>1509.5</ele>
        <time>2015-08-17T06:39:34Z</time>
      </trkpt>
      <trkpt lat="45.24286" lon="7.18251">
        <ele>1509.61</ele>
        <time>2015-08-17T06:39:37Z</time>
      </trkpt>
      <trkpt lat="45.24286" lon="7.18249">
        <ele>1509.69</ele>
        <time>2015-08-17T06:39:38Z</time>
      </trkpt>
      <trkpt lat="45.24292" lon="7.18227">
        <ele>1510.77</ele>
        <time>2015-08-17T06:39:47Z</time>
      </trkpt>
      <trkpt lat="45.24301" lon="7.18202">
        <ele>1512.84</ele>
        <time>2015-08-17T06:39:58Z</time>
      </trkpt>
      <trkpt lat="45.2431" lon="7.1818">
        <ele>1514.46</ele>
        <time>2015-08-17T06:40:07Z</time>
      </trkpt>
      <trkpt lat="45.24318" lon="7.18161">
        <ele>1516.38</ele>
        <time>2015-08-17T06:40:16Z</time>
      </trkpt>
      <trkpt lat="45.24322" lon="7.18148">
        <ele>1517.76</ele>
        <time>2015-08-17T06:40:22Z</time>
      </trkpt>
      <trkpt lat="45.24323" lon="7.18146">
        <ele>1517.9</ele>
        <time>2015-08-17T06:40:23Z</time>
      </trkpt>
      <trkpt lat="45.24331" lon="7.18135">
        <ele>1519.14</ele>
        <time>2015-08-17T06:40:30Z</time>
      </trkpt>
      <trkpt lat="45.24333" lon="7.18134">
        <ele>1519.34</ele>
        <time>2015-08-17T06:40:31Z</time>
      </trkpt>
      <trkpt lat="45.24334" lon="7.18132">
        <ele>1519.5</ele>
        <time>2015-08-17T06:40:32Z</time>
      </trkpt>
      <trkpt lat="45.24348" lon="7.18118">
        <ele>1521</ele>
        <time>2015-08-17T06:40:42Z</time>
      </trkpt>
      <trkpt lat="45.24359" lon="7.18111">
        <ele>1522.1</ele>
        <time>2015-08-17T06:40:49Z</time>
      </trkpt>
      <trkpt lat="45.24367" lon="7.1811">
        <ele>1522.85</ele>
        <time>2015-08-17T06:40:54Z</time>
      </trkpt>
      <trkpt lat="45.24368" lon="7.18111">
        <ele>1522.97</ele>
        <time>2015-08-17T06:40:55Z</time>
      </trkpt>
      <trkpt lat="45.24369" lon="7.18112">
        <ele>1523.08</ele>
        <time>2015-08-17T06:40:56Z</time>
      </trkpt>
      <trkpt lat="45.24371" lon="7.18114">
        <ele>1523.21</ele>
        <time>2015-08-17T06:40:57Z</time>
      </trkpt>
      <trkpt lat="45.24371" lon="7.18116">
        <ele>1523.35</ele>
        <time>2015-08-17T06:40:58Z</time>
      </trkpt>
      <trkpt lat="45.24372" lon="7.18118">
        <ele>1523.49</ele>
        <time>2015-08-17T06:40:59Z</time>
      </trkpt>
      <trkpt lat="45.24373" lon="7.18126">
        <ele>1524</ele>
        <time>2015-08-17T06:41:03Z</time>
      </trkpt>
      <trkpt lat="45.24372" lon="7.18128">
        <ele>1524.09</ele>
        <time>2015-08-17T06:41:04Z</time>
      </trkpt>
      <trkpt lat="45.24372" lon="7.1813">
        <ele>1524.17</ele>
        <time>2015-08-17T06:41:05Z</time>
      </trkpt>
      <trkpt lat="45.24371" lon="7.18132">
        <ele>1524.27</ele>
        <time>2015-08-17T06:41:06Z</time>
      </trkpt>
      <trkpt lat="45.2437" lon="7.18135">
        <ele>1524.37</ele>
        <time>2015-08-17T06:41:07Z</time>
      </trkpt>
      <trkpt lat="45.24369" lon="7.18137">
        <ele>1524.48</ele>
        <time>2015-08-17T06:41:08Z</time>
      </trkpt>
      <trkpt lat="45.24368" lon="7.18139">
        <ele>1524.57</ele>
        <time>2015-08-17T06:41:09Z</time>
      </trkpt>
      <trkpt lat="45.24366" lon="7.18141">
        <ele>1524.72</ele>
        <time>2015-08-17T06:41:10Z</time>
      </trkpt>
      <trkpt lat="45.2436" lon="7.18154">
        <ele>1525.25</ele>
        <time>2015-08-17T06:41:16Z</time>
      </trkpt>
      <trkpt lat="45.2436" lon="7.18157">
        <ele>1525.33</ele>
        <time>2015-08-17T06:41:17Z</time>
      </trkpt>
      <trkpt lat="45.2436" lon="7.1816">
        <ele>1525.41</ele>
        <time>2015-08-17T06:41:18Z</time>
      </trkpt>
      <trkpt lat="45.24361" lon="7.18162">
        <ele>1525.48</ele>
        <time>2015-08-17T06:41:19Z</time>
      </trkpt>
      <trkpt lat="45.24362" lon="7.18164">
        <ele>1525.55</ele>
        <time>2015-08-17T06:41:20Z</time>
      </trkpt>
      <trkpt lat="45.24364" lon="7.18165">
        <ele>1525.66</ele>
        <time>2015-08-17T06:41:21Z</time>
      </trkpt>
      <trkpt lat="45.24365" lon="7.18166">
        <ele>1525.77</ele>
        <time>2015-08-17T06:41:22Z</time>
      </trkpt>
      <trkpt lat="45.24367" lon="7.18166">
        <ele>1525.89</ele>
        <time>2015-08-17T06:41:23Z</time>
      </trkpt>
      <trkpt lat="45.24368" lon="7.18165">
        <ele>1525.99</ele>
        <time>2015-08-17T06:41:24Z</time>
      </trkpt>
      <trkpt lat="45.2437" lon="7.18164">
        <ele>1526.14</ele>
        <time>2015-08-17T06:41:25Z</time>
      </trkpt>
      <trkpt lat="45.24371" lon="7.18163">
        <ele>1526.32</ele>
        <time>2015-08-17T06:41:26Z</time>
      </trkpt>
      <trkpt lat="45.24372" lon="7.18161">
        <ele>1526.49</ele>
        <time>2015-08-17T06:41:27Z</time>
      </trkpt>
      <trkpt lat="45.24381" lon="7.18144">
        <ele>1528.17</ele>
        <time>2015-08-17T06:41:36Z</time>
      </trkpt>
      <trkpt lat="45.24383" lon="7.18138">
        <ele>1528.66</ele>
        <time>2015-08-17T06:41:39Z</time>
      </trkpt>
      <trkpt lat="45.24385" lon="7.18137">
        <ele>1528.86</ele>
        <time>2015-08-17T06:41:40Z</time>
      </trkpt>
      <trkpt lat="45.24386" lon="7.18135">
        <ele>1529.06</ele>
        <time>2015-08-17T06:41:41Z</time>
      </trkpt>
      <trkpt lat="45.24387" lon="7.18133">
        <ele>1529.26</ele>
        <time>2015-08-17T06:41:42Z</time>
      </trkpt>
      <trkpt lat="45.24388" lon="7.18131">
        <ele>1529.47</ele>
        <time>2015-08-17T06:41:43Z</time>
      </trkpt>
      <trkpt lat="45.24388" lon="7.18129">
        <ele>1529.7</ele>
        <time>2015-08-17T06:41:44Z</time>
      </trkpt>
      <trkpt lat="45.24389" lon="7.18127">
        <ele>1529.92</ele>
        <time>2015-08-17T06:41:45Z</time>
      </trkpt>
      <trkpt lat="45.2439" lon="7.18125">
        <ele>1530.13</ele>
        <time>2015-08-17T06:41:46Z</time>
      </trkpt>
      <trkpt lat="45.2439" lon="7.18123">
        <ele>1530.33</ele>
        <time>2015-08-17T06:41:47Z</time>
      </trkpt>
      <trkpt lat="45.24396" lon="7.18108">
        <ele>1531.51</ele>
        <time>2015-08-17T06:41:55Z</time>
      </trkpt>
      <trkpt lat="45.24401" lon="7.18087">
        <ele>1533.27</ele>
        <time>2015-08-17T06:42:05Z</time>
      </trkpt>
      <trkpt lat="45.24403" lon="7.18071">
        <ele>1534.67</ele>
        <time>2015-08-17T06:42:12Z</time>
      </trkpt>
      <trkpt lat="45.24406" lon="7.18049">
        <ele>1536.37</ele>
        <time>2015-08-17T06:42:22Z</time>
      </trkpt>
      <trkpt lat="45.24411" lon="7.1803">
        <ele>1537.67</ele>
        <time>2015-08-17T06:42:31Z</time>
      </trkpt>
      <trkpt lat="45.24414" lon="7.18024">
        <ele>1538.1</ele>
        <time>2015-08-17T06:42:34Z</time>
      </trkpt>
      <trkpt lat="45.24415" lon="7.18023">
        <ele>1538.26</ele>
        <time>2015-08-17T06:42:35Z</time>
      </trkpt>
      <trkpt lat="45.24416" lon="7.18021">
        <ele>1538.41</ele>
        <time>2015-08-17T06:42:36Z</time>
      </trkpt>
      <trkpt lat="45.24418" lon="7.1802">
        <ele>1538.56</ele>
        <time>2015-08-17T06:42:37Z</time>
      </trkpt>
      <trkpt lat="45.24419" lon="7.18019">
        <ele>1538.72</ele>
        <time>2015-08-17T06:42:38Z</time>
      </trkpt>
      <trkpt lat="45.24434" lon="7.18009">
        <ele>1540.28</ele>
        <time>2015-08-17T06:42:48Z</time>
      </trkpt>
      <trkpt lat="45.24443" lon="7.18002">
        <ele>1541.29</ele>
        <time>2015-08-17T06:42:55Z</time>
      </trkpt>
      <trkpt lat="45.24445" lon="7.18001">
        <ele>1542.26</ele>
        <time>2015-08-17T06:43:04Z</time>
      </trkpt>
      <trkpt lat="45.24442" lon="7.18001">
        <ele>1542.77</ele>
        <time>2015-08-17T06:43:18Z</time>
      </trkpt>
      <trkpt lat="45.24447" lon="7.17999">
        <ele>1542.85</ele>
        <time>2015-08-17T06:43:32Z</time>
      </trkpt>
      <trkpt lat="45.24463" lon="7.17993">
        <ele>1543.81</ele>
        <time>2015-08-17T06:43:40Z</time>
      </trkpt>
      <trkpt lat="45.24479" lon="7.17989">
        <ele>1545.43</ele>
        <time>2015-08-17T06:43:48Z</time>
      </trkpt>
      <trkpt lat="45.24489" lon="7.17996">
        <ele>1546.76</ele>
        <time>2015-08-17T06:43:54Z</time>
      </trkpt>
      <trkpt lat="45.24489" lon="7.17999">
        <ele>1546.97</ele>
        <time>2015-08-17T06:43:55Z</time>
      </trkpt>
      <trkpt lat="45.24489" lon="7.18001">
        <ele>1547.15</ele>
        <time>2015-08-17T06:43:56Z</time>
      </trkpt>
      <trkpt lat="45.2449" lon="7.18004">
        <ele>1547.32</ele>
        <time>2015-08-17T06:43:57Z</time>
      </trkpt>
      <trkpt lat="45.24489" lon="7.18006">
        <ele>1547.47</ele>
        <time>2015-08-17T06:43:58Z</time>
      </trkpt>
      <trkpt lat="45.24489" lon="7.18009">
        <ele>1547.63</ele>
        <time>2015-08-17T06:43:59Z</time>
      </trkpt>
      <trkpt lat="45.24489" lon="7.18011">
        <ele>1547.79</ele>
        <time>2015-08-17T06:44:00Z</time>
      </trkpt>
      <trkpt lat="45.24488" lon="7.18013">
        <ele>1547.98</ele>
        <time>2015-08-17T06:44:01Z</time>
      </trkpt>
      <trkpt lat="45.24488" lon="7.18016">
        <ele>1548.23</ele>
        <time>2015-08-17T06:44:02Z</time>
      </trkpt>
      <trkpt lat="45.24488" lon="7.18018">
        <ele>1548.48</ele>
        <time>2015-08-17T06:44:03Z</time>
      </trkpt>
      <trkpt lat="45.24487" lon="7.1802">
        <ele>1548.97</ele>
        <time>2015-08-17T06:44:04Z</time>
      </trkpt>
      <trkpt lat="45.24486" lon="7.18022">
        <ele>1549.19</ele>
        <time>2015-08-17T06:44:05Z</time>
      </trkpt>
      <trkpt lat="45.24485" lon="7.18023">
        <ele>1549.39</ele>
        <time>2015-08-17T06:44:06Z</time>
      </trkpt>
      <trkpt lat="45.24484" lon="7.18025">
        <ele>1549.6</ele>
        <time>2015-08-17T06:44:07Z</time>
      </trkpt>
      <trkpt lat="45.24483" lon="7.18027">
        <ele>1549.8</ele>
        <time>2015-08-17T06:44:08Z</time>
      </trkpt>
      <trkpt lat="45.24482" lon="7.18029">
        <ele>1549.97</ele>
        <time>2015-08-17T06:44:09Z</time>
      </trkpt>
      <trkpt lat="45.24481" lon="7.18031">
        <ele>1550.15</ele>
        <time>2015-08-17T06:44:10Z</time>
      </trkpt>
      <trkpt lat="45.24479" lon="7.18042">
        <ele>1551.2</ele>
        <time>2015-08-17T06:44:15Z</time>
      </trkpt>
      <trkpt lat="45.24475" lon="7.1805">
        <ele>1552.08</ele>
        <time>2015-08-17T06:44:20Z</time>
      </trkpt>
      <trkpt lat="45.24475" lon="7.18052">
        <ele>1552.27</ele>
        <time>2015-08-17T06:44:21Z</time>
      </trkpt>
      <trkpt lat="45.24474" lon="7.18053">
        <ele>1552.45</ele>
        <time>2015-08-17T06:44:22Z</time>
      </trkpt>
      <trkpt lat="45.24474" lon="7.18055">
        <ele>1552.65</ele>
        <time>2015-08-17T06:44:23Z</time>
      </trkpt>
      <trkpt lat="45.24474" lon="7.18056">
        <ele>1552.84</ele>
        <time>2015-08-17T06:44:24Z</time>
      </trkpt>
      <trkpt lat="45.24473" lon="7.18063">
        <ele>1553.32</ele>
        <time>2015-08-17T06:44:27Z</time>
      </trkpt>
      <trkpt lat="45.24473" lon="7.18064">
        <ele>1553.67</ele>
        <time>2015-08-17T06:44:28Z</time>
      </trkpt>
      <trkpt lat="45.24472" lon="7.18066">
        <ele>1553.67</ele>
        <time>2015-08-17T06:44:29Z</time>
      </trkpt>
      <trkpt lat="45.24472" lon="7.18068">
        <ele>1554.02</ele>
        <time>2015-08-17T06:44:30Z</time>
      </trkpt>
      <trkpt lat="45.24471" lon="7.18069">
        <ele>1554.19</ele>
        <time>2015-08-17T06:44:31Z</time>
      </trkpt>
      <trkpt lat="45.2447" lon="7.18076">
        <ele>1554.8</ele>
        <time>2015-08-17T06:44:35Z</time>
      </trkpt>
      <trkpt lat="45.2447" lon="7.18077">
        <ele>1554.95</ele>
        <time>2015-08-17T06:44:36Z</time>
      </trkpt>
      <trkpt lat="45.24469" lon="7.18079">
        <ele>1555.1</ele>
        <time>2015-08-17T06:44:37Z</time>
      </trkpt>
      <trkpt lat="45.24469" lon="7.18081">
        <ele>1555.25</ele>
        <time>2015-08-17T06:44:38Z</time>
      </trkpt>
      <trkpt lat="45.24468" lon="7.18083">
        <ele>1555.41</ele>
        <time>2015-08-17T06:44:39Z</time>
      </trkpt>
      <trkpt lat="45.24468" lon="7.18084">
        <ele>1555.59</ele>
        <time>2015-08-17T06:44:40Z</time>
      </trkpt>
      <trkpt lat="45.24468" lon="7.18086">
        <ele>1555.77</ele>
        <time>2015-08-17T06:44:41Z</time>
      </trkpt>
      <trkpt lat="45.24468" lon="7.18089">
        <ele>1555.95</ele>
        <time>2015-08-17T06:44:42Z</time>
      </trkpt>
      <trkpt lat="45.24468" lon="7.18091">
        <ele>1556.18</ele>
        <time>2015-08-17T06:44:43Z</time>
      </trkpt>
      <trkpt lat="45.24467" lon="7.18093">
        <ele>1556.42</ele>
        <time>2015-08-17T06:44:44Z</time>
      </trkpt>
      <trkpt lat="45.24467" lon="7.18095">
        <ele>1556.64</ele>
        <time>2015-08-17T06:44:45Z</time>
      </trkpt>
      <trkpt lat="45.24467" lon="7.18097">
        <ele>1556.85</ele>
        <time>2015-08-17T06:44:46Z</time>
      </trkpt>
      <trkpt lat="45.24466" lon="7.18099">
        <ele>1557.02</ele>
        <time>2015-08-17T06:44:47Z</time>
      </trkpt>
      <trkpt lat="45.24466" lon="7.18102">
        <ele>1557.17</ele>
        <time>2015-08-17T06:44:48Z</time>
      </trkpt>
      <trkpt lat="45.2446" lon="7.18121">
        <ele>1558.57</ele>
        <time>2015-08-17T06:44:57Z</time>
      </trkpt>
      <trkpt lat="45.24453" lon="7.18141">
        <ele>1559.84</ele>
        <time>2015-08-17T06:45:06Z</time>
      </trkpt>
      <trkpt lat="45.24447" lon="7.18161">
        <ele>1560.93</ele>
        <time>2015-08-17T06:45:15Z</time>
      </trkpt>
      <trkpt lat="45.24443" lon="7.1818">
        <ele>1561.85</ele>
        <time>2015-08-17T06:45:23Z</time>
      </trkpt>
      <trkpt lat="45.24439" lon="7.18204">
        <ele>1562.83</ele>
        <time>2015-08-17T06:45:33Z</time>
      </trkpt>
      <trkpt lat="45.24436" lon="7.18224">
        <ele>1564.27</ele>
        <time>2015-08-17T06:45:42Z</time>
      </trkpt>
      <trkpt lat="45.24434" lon="7.1824">
        <ele>1565.28</ele>
        <time>2015-08-17T06:45:49Z</time>
      </trkpt>
      <trkpt lat="45.24433" lon="7.1826">
        <ele>1566.52</ele>
        <time>2015-08-17T06:45:58Z</time>
      </trkpt>
      <trkpt lat="45.24433" lon="7.18282">
        <ele>1568.32</ele>
        <time>2015-08-17T06:46:08Z</time>
      </trkpt>
      <trkpt lat="45.2443" lon="7.18296">
        <ele>1569.37</ele>
        <time>2015-08-17T06:46:15Z</time>
      </trkpt>
      <trkpt lat="45.24426" lon="7.18311">
        <ele>1570.61</ele>
        <time>2015-08-17T06:46:23Z</time>
      </trkpt>
      <trkpt lat="45.2442" lon="7.18328">
        <ele>1572.24</ele>
        <time>2015-08-17T06:46:32Z</time>
      </trkpt>
      <trkpt lat="45.24418" lon="7.18335">
        <ele>1572.79</ele>
        <time>2015-08-17T06:46:36Z</time>
      </trkpt>
      <trkpt lat="45.24417" lon="7.18337">
        <ele>1572.96</ele>
        <time>2015-08-17T06:46:37Z</time>
      </trkpt>
      <trkpt lat="45.24417" lon="7.18339">
        <ele>1573.14</ele>
        <time>2015-08-17T06:46:38Z</time>
      </trkpt>
      <trkpt lat="45.24416" lon="7.1834">
        <ele>1573.32</ele>
        <time>2015-08-17T06:46:39Z</time>
      </trkpt>
      <trkpt lat="45.24415" lon="7.18342">
        <ele>1573.49</ele>
        <time>2015-08-17T06:46:40Z</time>
      </trkpt>
      <trkpt lat="45.24414" lon="7.18343">
        <ele>1573.65</ele>
        <time>2015-08-17T06:46:41Z</time>
      </trkpt>
      <trkpt lat="45.24406" lon="7.18361">
        <ele>1575.51</ele>
        <time>2015-08-17T06:46:52Z</time>
      </trkpt>
      <trkpt lat="45.24402" lon="7.18371">
        <ele>1576.85</ele>
        <time>2015-08-17T06:46:59Z</time>
      </trkpt>
      <trkpt lat="45.24402" lon="7.18375">
        <ele>1577.15</ele>
        <time>2015-08-17T06:47:01Z</time>
      </trkpt>
      <trkpt lat="45.24404" lon="7.18376">
        <ele>1577.3</ele>
        <time>2015-08-17T06:47:02Z</time>
      </trkpt>
      <trkpt lat="45.24409" lon="7.1838">
        <ele>1577.96</ele>
        <time>2015-08-17T06:47:06Z</time>
      </trkpt>
      <trkpt lat="45.2441" lon="7.18379">
        <ele>1578.11</ele>
        <time>2015-08-17T06:47:07Z</time>
      </trkpt>
      <trkpt lat="45.24411" lon="7.18379">
        <ele>1578.28</ele>
        <time>2015-08-17T06:47:08Z</time>
      </trkpt>
      <trkpt lat="45.24412" lon="7.18378">
        <ele>1578.45</ele>
        <time>2015-08-17T06:47:09Z</time>
      </trkpt>
      <trkpt lat="45.24414" lon="7.18378">
        <ele>1578.62</ele>
        <time>2015-08-17T06:47:10Z</time>
      </trkpt>
      <trkpt lat="45.24415" lon="7.18378">
        <ele>1578.76</ele>
        <time>2015-08-17T06:47:11Z</time>
      </trkpt>
      <trkpt lat="45.2442" lon="7.18375">
        <ele>1579.27</ele>
        <time>2015-08-17T06:47:15Z</time>
      </trkpt>
      <trkpt lat="45.24421" lon="7.18374">
        <ele>1579.41</ele>
        <time>2015-08-17T06:47:16Z</time>
      </trkpt>
      <trkpt lat="45.24425" lon="7.18369">
        <ele>1579.97</ele>
        <time>2015-08-17T06:47:20Z</time>
      </trkpt>
      <trkpt lat="45.24426" lon="7.18368">
        <ele>1580.14</ele>
        <time>2015-08-17T06:47:21Z</time>
      </trkpt>
      <trkpt lat="45.24428" lon="7.18368">
        <ele>1580.44</ele>
        <time>2015-08-17T06:47:22Z</time>
      </trkpt>
      <trkpt lat="45.24429" lon="7.18367">
        <ele>1580.57</ele>
        <time>2015-08-17T06:47:23Z</time>
      </trkpt>
      <trkpt lat="45.2443" lon="7.18366">
        <ele>1580.67</ele>
        <time>2015-08-17T06:47:24Z</time>
      </trkpt>
      <trkpt lat="45.24431" lon="7.18365">
        <ele>1580.79</ele>
        <time>2015-08-17T06:47:25Z</time>
      </trkpt>
      <trkpt lat="45.24432" lon="7.18364">
        <ele>1580.96</ele>
        <time>2015-08-17T06:47:26Z</time>
      </trkpt>
      <trkpt lat="45.24434" lon="7.18364">
        <ele>1581.16</ele>
        <time>2015-08-17T06:47:27Z</time>
      </trkpt>
      <trkpt lat="45.24435" lon="7.18363">
        <ele>1581.33</ele>
        <time>2015-08-17T06:47:28Z</time>
      </trkpt>
      <trkpt lat="45.24436" lon="7.18362">
        <ele>1581.48</ele>
        <time>2015-08-17T06:47:29Z</time>
      </trkpt>
      <trkpt lat="45.24437" lon="7.18361">
        <ele>1581.65</ele>
        <time>2015-08-17T06:47:30Z</time>
      </trkpt>
      <trkpt lat="45.24438" lon="7.1836">
        <ele>1581.86</ele>
        <time>2015-08-17T06:47:31Z</time>
      </trkpt>
      <trkpt lat="45.24439" lon="7.18358">
        <ele>1582.05</ele>
        <time>2015-08-17T06:47:32Z</time>
      </trkpt>
      <trkpt lat="45.24441" lon="7.18357">
        <ele>1582.22</ele>
        <time>2015-08-17T06:47:33Z</time>
      </trkpt>
      <trkpt lat="45.24442" lon="7.18356">
        <ele>1582.4</ele>
        <time>2015-08-17T06:47:34Z</time>
      </trkpt>
      <trkpt lat="45.24451" lon="7.18347">
        <ele>1583.99</ele>
        <time>2015-08-17T06:47:43Z</time>
      </trkpt>
      <trkpt lat="45.24462" lon="7.18338">
        <ele>1585.39</ele>
        <time>2015-08-17T06:47:52Z</time>
      </trkpt>
      <trkpt lat="45.24471" lon="7.18327">
        <ele>1586.87</ele>
        <time>2015-08-17T06:48:00Z</time>
      </trkpt>
      <trkpt lat="45.24473" lon="7.18324">
        <ele>1587.25</ele>
        <time>2015-08-17T06:48:02Z</time>
      </trkpt>
      <trkpt lat="45.24474" lon="7.18323">
        <ele>1587.4</ele>
        <time>2015-08-17T06:48:03Z</time>
      </trkpt>
      <trkpt lat="45.24475" lon="7.18322">
        <ele>1587.55</ele>
        <time>2015-08-17T06:48:04Z</time>
      </trkpt>
      <trkpt lat="45.24476" lon="7.18321">
        <ele>1587.69</ele>
        <time>2015-08-17T06:48:05Z</time>
      </trkpt>
      <trkpt lat="45.24477" lon="7.1832">
        <ele>1587.83</ele>
        <time>2015-08-17T06:48:06Z</time>
      </trkpt>
      <trkpt lat="45.24479" lon="7.18318">
        <ele>1587.98</ele>
        <time>2015-08-17T06:48:07Z</time>
      </trkpt>
      <trkpt lat="45.2448" lon="7.18317">
        <ele>1588.13</ele>
        <time>2015-08-17T06:48:08Z</time>
      </trkpt>
      <trkpt lat="45.24481" lon="7.18316">
        <ele>1588.29</ele>
        <time>2015-08-17T06:48:09Z</time>
      </trkpt>
      <trkpt lat="45.24482" lon="7.18315">
        <ele>1588.6</ele>
        <time>2015-08-17T06:48:10Z</time>
      </trkpt>
      <trkpt lat="45.24484" lon="7.18313">
        <ele>1588.74</ele>
        <time>2015-08-17T06:48:11Z</time>
      </trkpt>
      <trkpt lat="45.24485" lon="7.18312">
        <ele>1588.88</ele>
        <time>2015-08-17T06:48:12Z</time>
      </trkpt>
      <trkpt lat="45.24486" lon="7.18311">
        <ele>1589.03</ele>
        <time>2015-08-17T06:48:13Z</time>
      </trkpt>
      <trkpt lat="45.24487" lon="7.1831">
        <ele>1589.19</ele>
        <time>2015-08-17T06:48:14Z</time>
      </trkpt>
      <trkpt lat="45.24488" lon="7.18309">
        <ele>1589.35</ele>
        <time>2015-08-17T06:48:15Z</time>
      </trkpt>
      <trkpt lat="45.2449" lon="7.18308">
        <ele>1589.51</ele>
        <time>2015-08-17T06:48:16Z</time>
      </trkpt>
      <trkpt lat="45.24491" lon="7.18307">
        <ele>1589.66</ele>
        <time>2015-08-17T06:48:17Z</time>
      </trkpt>
      <trkpt lat="45.24493" lon="7.18306">
        <ele>1589.81</ele>
        <time>2015-08-17T06:48:18Z</time>
      </trkpt>
      <trkpt lat="45.24495" lon="7.18305">
        <ele>1589.94</ele>
        <time>2015-08-17T06:48:19Z</time>
      </trkpt>
      <trkpt lat="45.24496" lon="7.18305">
        <ele>1590.06</ele>
        <time>2015-08-17T06:48:20Z</time>
      </trkpt>
      <trkpt lat="45.24498" lon="7.18304">
        <ele>1590.15</ele>
        <time>2015-08-17T06:48:21Z</time>
      </trkpt>
      <trkpt lat="45.2451" lon="7.18296">
        <ele>1590.88</ele>
        <time>2015-08-17T06:48:29Z</time>
      </trkpt>
      <trkpt lat="45.24521" lon="7.1828">
        <ele>1591.79</ele>
        <time>2015-08-17T06:48:38Z</time>
      </trkpt>
      <trkpt lat="45.24527" lon="7.18262">
        <ele>1592.8</ele>
        <time>2015-08-17T06:48:46Z</time>
      </trkpt>
      <trkpt lat="45.24533" lon="7.18243">
        <ele>1593.62</ele>
        <time>2015-08-17T06:48:54Z</time>
      </trkpt>
      <trkpt lat="45.2454" lon="7.18221">
        <ele>1594.69</ele>
        <time>2015-08-17T06:49:03Z</time>
      </trkpt>
      <trkpt lat="45.24545" lon="7.18204">
        <ele>1595.74</ele>
        <time>2015-08-17T06:49:10Z</time>
      </trkpt>
      <trkpt lat="45.24551" lon="7.18179">
        <ele>1596.97</ele>
        <time>2015-08-17T06:49:20Z</time>
      </trkpt>
      <trkpt lat="45.24554" lon="7.18162">
        <ele>1597.95</ele>
        <time>2015-08-17T06:49:27Z</time>
      </trkpt>
      <trkpt lat="45.24555" lon="7.1816">
        <ele>1598.08</ele>
        <time>2015-08-17T06:49:28Z</time>
      </trkpt>
      <trkpt lat="45.2456" lon="7.18145">
        <ele>1599.12</ele>
        <time>2015-08-17T06:49:35Z</time>
      </trkpt>
      <trkpt lat="45.24564" lon="7.18132">
        <ele>1600.08</ele>
        <time>2015-08-17T06:49:41Z</time>
      </trkpt>
      <trkpt lat="45.24568" lon="7.18118">
        <ele>1601.25</ele>
        <time>2015-08-17T06:49:48Z</time>
      </trkpt>
      <trkpt lat="45.24571" lon="7.18103">
        <ele>1603.29</ele>
        <time>2015-08-17T06:49:55Z</time>
      </trkpt>
      <trkpt lat="45.24574" lon="7.18087">
        <ele>1604.84</ele>
        <time>2015-08-17T06:50:02Z</time>
      </trkpt>
      <trkpt lat="45.24575" lon="7.18084">
        <ele>1605.35</ele>
        <time>2015-08-17T06:50:04Z</time>
      </trkpt>
      <trkpt lat="45.24575" lon="7.18082">
        <ele>1605.61</ele>
        <time>2015-08-17T06:50:05Z</time>
      </trkpt>
      <trkpt lat="45.24575" lon="7.18065">
        <ele>1607.23</ele>
        <time>2015-08-17T06:50:13Z</time>
      </trkpt>
      <trkpt lat="45.24575" lon="7.18055">
        <ele>1608.55</ele>
        <time>2015-08-17T06:50:18Z</time>
      </trkpt>
      <trkpt lat="45.24575" lon="7.18054">
        <ele>1608.74</ele>
        <time>2015-08-17T06:50:19Z</time>
      </trkpt>
      <trkpt lat="45.24576" lon="7.18052">
        <ele>1608.94</ele>
        <time>2015-08-17T06:50:20Z</time>
      </trkpt>
      <trkpt lat="45.24577" lon="7.18036">
        <ele>1610.54</ele>
        <time>2015-08-17T06:50:28Z</time>
      </trkpt>
      <trkpt lat="45.24578" lon="7.18028">
        <ele>1611.19</ele>
        <time>2015-08-17T06:50:32Z</time>
      </trkpt>
      <trkpt lat="45.24577" lon="7.18026">
        <ele>1611.36</ele>
        <time>2015-08-17T06:50:33Z</time>
      </trkpt>
      <trkpt lat="45.24577" lon="7.18024">
        <ele>1611.54</ele>
        <time>2015-08-17T06:50:34Z</time>
      </trkpt>
      <trkpt lat="45.24577" lon="7.1802">
        <ele>1611.91</ele>
        <time>2015-08-17T06:50:36Z</time>
      </trkpt>
      <trkpt lat="45.24577" lon="7.18002">
        <ele>1613.6</ele>
        <time>2015-08-17T06:50:45Z</time>
      </trkpt>
      <trkpt lat="45.24577" lon="7.18001">
        <ele>1613.71</ele>
        <time>2015-08-17T06:50:46Z</time>
      </trkpt>
      <trkpt lat="45.24577" lon="7.17999">
        <ele>1613.82</ele>
        <time>2015-08-17T06:50:47Z</time>
      </trkpt>
      <trkpt lat="45.24577" lon="7.17997">
        <ele>1613.95</ele>
        <time>2015-08-17T06:50:48Z</time>
      </trkpt>
      <trkpt lat="45.24577" lon="7.17995">
        <ele>1614.09</ele>
        <time>2015-08-17T06:50:49Z</time>
      </trkpt>
      <trkpt lat="45.24577" lon="7.17993">
        <ele>1614.21</ele>
        <time>2015-08-17T06:50:50Z</time>
      </trkpt>
      <trkpt lat="45.24577" lon="7.17991">
        <ele>1614.34</ele>
        <time>2015-08-17T06:50:51Z</time>
      </trkpt>
      <trkpt lat="45.24577" lon="7.17989">
        <ele>1614.47</ele>
        <time>2015-08-17T06:50:52Z</time>
      </trkpt>
      <trkpt lat="45.24578" lon="7.17987">
        <ele>1614.62</ele>
        <time>2015-08-17T06:50:53Z</time>
      </trkpt>
      <trkpt lat="45.24584" lon="7.1797">
        <ele>1615.63</ele>
        <time>2015-08-17T06:51:02Z</time>
      </trkpt>
      <trkpt lat="45.2459" lon="7.17952">
        <ele>1616.57</ele>
        <time>2015-08-17T06:51:11Z</time>
      </trkpt>
      <trkpt lat="45.24595" lon="7.17939">
        <ele>1617.43</ele>
        <time>2015-08-17T06:51:17Z</time>
      </trkpt>
      <trkpt lat="45.246" lon="7.17923">
        <ele>1618.75</ele>
        <time>2015-08-17T06:51:25Z</time>
      </trkpt>
      <trkpt lat="45.24607" lon="7.17907">
        <ele>1620.01</ele>
        <time>2015-08-17T06:51:33Z</time>
      </trkpt>
      <trkpt lat="45.24616" lon="7.17894">
        <ele>1621.17</ele>
        <time>2015-08-17T06:51:41Z</time>
      </trkpt>
      <trkpt lat="45.24626" lon="7.17886">
        <ele>1622.57</ele>
        <time>2015-08-17T06:51:49Z</time>
      </trkpt>
      <trkpt lat="45.24637" lon="7.17881">
        <ele>1624.02</ele>
        <time>2015-08-17T06:51:56Z</time>
      </trkpt>
      <trkpt lat="45.24648" lon="7.17876">
        <ele>1625.32</ele>
        <time>2015-08-17T06:52:03Z</time>
      </trkpt>
      <trkpt lat="45.24656" lon="7.17873">
        <ele>1626.22</ele>
        <time>2015-08-17T06:52:08Z</time>
      </trkpt>
      <trkpt lat="45.24657" lon="7.17872">
        <ele>1626.38</ele>
        <time>2015-08-17T06:52:09Z</time>
      </trkpt>
      <trkpt lat="45.24659" lon="7.17872">
        <ele>1626.52</ele>
        <time>2015-08-17T06:52:10Z</time>
      </trkpt>
      <trkpt lat="45.2466" lon="7.17872">
        <ele>1626.65</ele>
        <time>2015-08-17T06:52:11Z</time>
      </trkpt>
      <trkpt lat="45.24662" lon="7.17871">
        <ele>1626.79</ele>
        <time>2015-08-17T06:52:12Z</time>
      </trkpt>
      <trkpt lat="45.24675" lon="7.17866">
        <ele>1628.2</ele>
        <time>2015-08-17T06:52:20Z</time>
      </trkpt>
      <trkpt lat="45.24684" lon="7.17857">
        <ele>1629.32</ele>
        <time>2015-08-17T06:52:27Z</time>
      </trkpt>
      <trkpt lat="45.24695" lon="7.17844">
        <ele>1630.87</ele>
        <time>2015-08-17T06:52:36Z</time>
      </trkpt>
      <trkpt lat="45.24702" lon="7.17834">
        <ele>1632.08</ele>
        <time>2015-08-17T06:52:42Z</time>
      </trkpt>
      <trkpt lat="45.24712" lon="7.17821">
        <ele>1633.57</ele>
        <time>2015-08-17T06:52:51Z</time>
      </trkpt>
      <trkpt lat="45.24724" lon="7.17808">
        <ele>1635.39</ele>
        <time>2015-08-17T06:53:01Z</time>
      </trkpt>
      <trkpt lat="45.24735" lon="7.17793">
        <ele>1637.45</ele>
        <time>2015-08-17T06:53:11Z</time>
      </trkpt>
      <trkpt lat="45.24746" lon="7.17781">
        <ele>1639.09</ele>
        <time>2015-08-17T06:53:21Z</time>
      </trkpt>
      <trkpt lat="45.24754" lon="7.17774">
        <ele>1640.32</ele>
        <time>2015-08-17T06:53:29Z</time>
      </trkpt>
      <trkpt lat="45.24762" lon="7.17764">
        <ele>1641.46</ele>
        <time>2015-08-17T06:53:36Z</time>
      </trkpt>
      <trkpt lat="45.24775" lon="7.17752">
        <ele>1643.35</ele>
        <time>2015-08-17T06:53:46Z</time>
      </trkpt>
      <trkpt lat="45.2479" lon="7.17742">
        <ele>1645.08</ele>
        <time>2015-08-17T06:53:57Z</time>
      </trkpt>
      <trkpt lat="45.24799" lon="7.17734">
        <ele>1646.49</ele>
        <time>2015-08-17T06:54:04Z</time>
      </trkpt>
      <trkpt lat="45.24801" lon="7.17732">
        <ele>1646.79</ele>
        <time>2015-08-17T06:54:06Z</time>
      </trkpt>
      <trkpt lat="45.24802" lon="7.17731">
        <ele>1646.93</ele>
        <time>2015-08-17T06:54:07Z</time>
      </trkpt>
      <trkpt lat="45.24804" lon="7.1773">
        <ele>1647.09</ele>
        <time>2015-08-17T06:54:08Z</time>
      </trkpt>
      <trkpt lat="45.24805" lon="7.17729">
        <ele>1647.24</ele>
        <time>2015-08-17T06:54:09Z</time>
      </trkpt>
      <trkpt lat="45.24806" lon="7.17727">
        <ele>1647.41</ele>
        <time>2015-08-17T06:54:10Z</time>
      </trkpt>
      <trkpt lat="45.24811" lon="7.17721">
        <ele>1648.04</ele>
        <time>2015-08-17T06:54:14Z</time>
      </trkpt>
      <trkpt lat="45.24812" lon="7.1772">
        <ele>1648.2</ele>
        <time>2015-08-17T06:54:15Z</time>
      </trkpt>
      <trkpt lat="45.24822" lon="7.17702">
        <ele>1650.09</ele>
        <time>2015-08-17T06:54:25Z</time>
      </trkpt>
      <trkpt lat="45.24827" lon="7.17691">
        <ele>1651.12</ele>
        <time>2015-08-17T06:54:31Z</time>
      </trkpt>
      <trkpt lat="45.24833" lon="7.17674">
        <ele>1652.65</ele>
        <time>2015-08-17T06:54:39Z</time>
      </trkpt>
      <trkpt lat="45.24838" lon="7.17658">
        <ele>1654.18</ele>
        <time>2015-08-17T06:54:47Z</time>
      </trkpt>
      <trkpt lat="45.24841" lon="7.1765">
        <ele>1654.98</ele>
        <time>2015-08-17T06:54:51Z</time>
      </trkpt>
      <trkpt lat="45.24841" lon="7.17648">
        <ele>1655.13</ele>
        <time>2015-08-17T06:54:52Z</time>
      </trkpt>
      <trkpt lat="45.24842" lon="7.17646">
        <ele>1655.28</ele>
        <time>2015-08-17T06:54:53Z</time>
      </trkpt>
      <trkpt lat="45.24842" lon="7.17644">
        <ele>1655.44</ele>
        <time>2015-08-17T06:54:54Z</time>
      </trkpt>
      <trkpt lat="45.24843" lon="7.17642">
        <ele>1655.59</ele>
        <time>2015-08-17T06:54:55Z</time>
      </trkpt>
      <trkpt lat="45.24847" lon="7.17625">
        <ele>1657.15</ele>
        <time>2015-08-17T06:55:03Z</time>
      </trkpt>
      <trkpt lat="45.24852" lon="7.17606">
        <ele>1658.8</ele>
        <time>2015-08-17T06:55:13Z</time>
      </trkpt>
      <trkpt lat="45.24854" lon="7.17587">
        <ele>1659.93</ele>
        <time>2015-08-17T06:55:21Z</time>
      </trkpt>
      <trkpt lat="45.24852" lon="7.17569">
        <ele>1661.15</ele>
        <time>2015-08-17T06:55:29Z</time>
      </trkpt>
      <trkpt lat="45.24854" lon="7.17553">
        <ele>1662.72</ele>
        <time>2015-08-17T06:55:37Z</time>
      </trkpt>
      <trkpt lat="45.24855" lon="7.17548">
        <ele>1663.29</ele>
        <time>2015-08-17T06:55:39Z</time>
      </trkpt>
      <trkpt lat="45.24856" lon="7.17547">
        <ele>1663.52</ele>
        <time>2015-08-17T06:55:40Z</time>
      </trkpt>
      <trkpt lat="45.24858" lon="7.17545">
        <ele>1663.71</ele>
        <time>2015-08-17T06:55:41Z</time>
      </trkpt>
      <trkpt lat="45.24859" lon="7.17543">
        <ele>1663.87</ele>
        <time>2015-08-17T06:55:42Z</time>
      </trkpt>
      <trkpt lat="45.24859" lon="7.17541">
        <ele>1664.03</ele>
        <time>2015-08-17T06:55:43Z</time>
      </trkpt>
      <trkpt lat="45.24864" lon="7.17532">
        <ele>1665.16</ele>
        <time>2015-08-17T06:55:48Z</time>
      </trkpt>
      <trkpt lat="45.24873" lon="7.17518">
        <ele>1666.86</ele>
        <time>2015-08-17T06:55:57Z</time>
      </trkpt>
      <trkpt lat="45.24878" lon="7.17511">
        <ele>1667.99</ele>
        <time>2015-08-17T06:56:02Z</time>
      </trkpt>
      <trkpt lat="45.24879" lon="7.17509">
        <ele>1668.14</ele>
        <time>2015-08-17T06:56:03Z</time>
      </trkpt>
      <trkpt lat="45.24879" lon="7.17507">
        <ele>1668.28</ele>
        <time>2015-08-17T06:56:04Z</time>
      </trkpt>
      <trkpt lat="45.2488" lon="7.17506">
        <ele>1668.41</ele>
        <time>2015-08-17T06:56:05Z</time>
      </trkpt>
      <trkpt lat="45.24881" lon="7.17504">
        <ele>1668.53</ele>
        <time>2015-08-17T06:56:06Z</time>
      </trkpt>
      <trkpt lat="45.24882" lon="7.17503">
        <ele>1668.66</ele>
        <time>2015-08-17T06:56:07Z</time>
      </trkpt>
      <trkpt lat="45.24889" lon="7.17492">
        <ele>1669.83</ele>
        <time>2015-08-17T06:56:14Z</time>
      </trkpt>
      <trkpt lat="45.24897" lon="7.17485">
        <ele>1671.13</ele>
        <time>2015-08-17T06:56:22Z</time>
      </trkpt>
      <trkpt lat="45.24899" lon="7.17486">
        <ele>1671.31</ele>
        <time>2015-08-17T06:56:23Z</time>
      </trkpt>
      <trkpt lat="45.249" lon="7.17487">
        <ele>1671.45</ele>
        <time>2015-08-17T06:56:24Z</time>
      </trkpt>
      <trkpt lat="45.249" lon="7.17488">
        <ele>1671.59</ele>
        <time>2015-08-17T06:56:25Z</time>
      </trkpt>
      <trkpt lat="45.24901" lon="7.17491">
        <ele>1672.21</ele>
        <time>2015-08-17T06:56:31Z</time>
      </trkpt>
      <trkpt lat="45.24901" lon="7.17492">
        <ele>1672.28</ele>
        <time>2015-08-17T06:56:32Z</time>
      </trkpt>
      <trkpt lat="45.24899" lon="7.17496">
        <ele>1672.32</ele>
        <time>2015-08-17T06:56:40Z</time>
      </trkpt>
      <trkpt lat="45.24898" lon="7.17496">
        <ele>1672.23</ele>
        <time>2015-08-17T06:57:10Z</time>
      </trkpt>
      <trkpt lat="45.24897" lon="7.17497">
        <ele>1672.35</ele>
        <time>2015-08-17T06:57:42Z</time>
      </trkpt>
      <trkpt lat="45.24897" lon="7.17497">
        <ele>1672.49</ele>
        <time>2015-08-17T06:58:09Z</time>
      </trkpt>
      <trkpt lat="45.24896" lon="7.17496">
        <ele>1672.47</ele>
        <time>2015-08-17T06:58:34Z</time>
      </trkpt>
      <trkpt lat="45.24895" lon="7.17496">
        <ele>1672.36</ele>
        <time>2015-08-17T06:59:01Z</time>
      </trkpt>
      <trkpt lat="45.24898" lon="7.17493">
        <ele>1672.61</ele>
        <time>2015-08-17T06:59:08Z</time>
      </trkpt>
      <trkpt lat="45.24902" lon="7.17493">
        <ele>1672.84</ele>
        <time>2015-08-17T06:59:11Z</time>
      </trkpt>
      <trkpt lat="45.24904" lon="7.17497">
        <ele>1673.18</ele>
        <time>2015-08-17T06:59:15Z</time>
      </trkpt>
      <trkpt lat="45.24905" lon="7.17498">
        <ele>1673.28</ele>
        <time>2015-08-17T06:59:16Z</time>
      </trkpt>
      <trkpt lat="45.24905" lon="7.17501">
        <ele>1673.46</ele>
        <time>2015-08-17T06:59:18Z</time>
      </trkpt>
      <trkpt lat="45.24902" lon="7.1751">
        <ele>1673.8</ele>
        <time>2015-08-17T06:59:25Z</time>
      </trkpt>
      <trkpt lat="45.24898" lon="7.17534">
        <ele>1674.37</ele>
        <time>2015-08-17T06:59:34Z</time>
      </trkpt>
      <trkpt lat="45.24893" lon="7.17555">
        <ele>1675.01</ele>
        <time>2015-08-17T06:59:42Z</time>
      </trkpt>
      <trkpt lat="45.24889" lon="7.17569">
        <ele>1675.62</ele>
        <time>2015-08-17T06:59:49Z</time>
      </trkpt>
      <trkpt lat="45.24889" lon="7.17573">
        <ele>1676.1</ele>
        <time>2015-08-17T07:00:01Z</time>
      </trkpt>
      <trkpt lat="45.24888" lon="7.17579">
        <ele>1676.42</ele>
        <time>2015-08-17T07:00:06Z</time>
      </trkpt>
      <trkpt lat="45.24887" lon="7.17581">
        <ele>1676.52</ele>
        <time>2015-08-17T07:00:07Z</time>
      </trkpt>
      <trkpt lat="45.24886" lon="7.17582">
        <ele>1676.62</ele>
        <time>2015-08-17T07:00:08Z</time>
      </trkpt>
      <trkpt lat="45.24883" lon="7.17598">
        <ele>1677.35</ele>
        <time>2015-08-17T07:00:16Z</time>
      </trkpt>
      <trkpt lat="45.24881" lon="7.17614">
        <ele>1678.65</ele>
        <time>2015-08-17T07:00:24Z</time>
      </trkpt>
      <trkpt lat="45.24878" lon="7.1763">
        <ele>1680.39</ele>
        <time>2015-08-17T07:00:32Z</time>
      </trkpt>
      <trkpt lat="45.24878" lon="7.17633">
        <ele>1680.58</ele>
        <time>2015-08-17T07:00:33Z</time>
      </trkpt>
      <trkpt lat="45.24878" lon="7.17635">
        <ele>1680.77</ele>
        <time>2015-08-17T07:00:34Z</time>
      </trkpt>
      <trkpt lat="45.24878" lon="7.17637">
        <ele>1680.95</ele>
        <time>2015-08-17T07:00:35Z</time>
      </trkpt>
      <trkpt lat="45.24878" lon="7.17639">
        <ele>1681.12</ele>
        <time>2015-08-17T07:00:36Z</time>
      </trkpt>
      <trkpt lat="45.24878" lon="7.17641">
        <ele>1681.31</ele>
        <time>2015-08-17T07:00:37Z</time>
      </trkpt>
      <trkpt lat="45.24879" lon="7.17643">
        <ele>1681.49</ele>
        <time>2015-08-17T07:00:38Z</time>
      </trkpt>
      <trkpt lat="45.24879" lon="7.17644">
        <ele>1681.67</ele>
        <time>2015-08-17T07:00:39Z</time>
      </trkpt>
      <trkpt lat="45.24878" lon="7.17646">
        <ele>1681.82</ele>
        <time>2015-08-17T07:00:40Z</time>
      </trkpt>
      <trkpt lat="45.24878" lon="7.17648">
        <ele>1681.95</ele>
        <time>2015-08-17T07:00:41Z</time>
      </trkpt>
      <trkpt lat="45.24877" lon="7.17649">
        <ele>1682.1</ele>
        <time>2015-08-17T07:00:42Z</time>
      </trkpt>
      <trkpt lat="45.24876" lon="7.17651">
        <ele>1682.27</ele>
        <time>2015-08-17T07:00:43Z</time>
      </trkpt>
      <trkpt lat="45.24876" lon="7.17653">
        <ele>1682.45</ele>
        <time>2015-08-17T07:00:44Z</time>
      </trkpt>
      <trkpt lat="45.24876" lon="7.17659">
        <ele>1682.88</ele>
        <time>2015-08-17T07:00:47Z</time>
      </trkpt>
      <trkpt lat="45.24875" lon="7.17661">
        <ele>1682.97</ele>
        <time>2015-08-17T07:00:48Z</time>
      </trkpt>
      <trkpt lat="45.24875" lon="7.17663">
        <ele>1683.07</ele>
        <time>2015-08-17T07:00:49Z</time>
      </trkpt>
      <trkpt lat="45.24875" lon="7.17665">
        <ele>1683.26</ele>
        <time>2015-08-17T07:00:50Z</time>
      </trkpt>
      <trkpt lat="45.24874" lon="7.17667">
        <ele>1683.39</ele>
        <time>2015-08-17T07:00:51Z</time>
      </trkpt>
      <trkpt lat="45.24874" lon="7.17669">
        <ele>1683.53</ele>
        <time>2015-08-17T07:00:52Z</time>
      </trkpt>
      <trkpt lat="45.24871" lon="7.17679">
        <ele>1684.41</ele>
        <time>2015-08-17T07:00:58Z</time>
      </trkpt>
      <trkpt lat="45.24871" lon="7.17681">
        <ele>1684.59</ele>
        <time>2015-08-17T07:00:59Z</time>
      </trkpt>
      <trkpt lat="45.2487" lon="7.17683">
        <ele>1684.77</ele>
        <time>2015-08-17T07:01:00Z</time>
      </trkpt>
      <trkpt lat="45.2487" lon="7.17685">
        <ele>1684.97</ele>
        <time>2015-08-17T07:01:01Z</time>
      </trkpt>
      <trkpt lat="45.24869" lon="7.17687">
        <ele>1685.16</ele>
        <time>2015-08-17T07:01:02Z</time>
      </trkpt>
      <trkpt lat="45.24869" lon="7.17689">
        <ele>1685.34</ele>
        <time>2015-08-17T07:01:03Z</time>
      </trkpt>
      <trkpt lat="45.24868" lon="7.1769">
        <ele>1685.51</ele>
        <time>2015-08-17T07:01:04Z</time>
      </trkpt>
      <trkpt lat="45.24867" lon="7.17692">
        <ele>1685.67</ele>
        <time>2015-08-17T07:01:05Z</time>
      </trkpt>
      <trkpt lat="45.24867" lon="7.17694">
        <ele>1685.82</ele>
        <time>2015-08-17T07:01:06Z</time>
      </trkpt>
      <trkpt lat="45.24866" lon="7.17695">
        <ele>1685.98</ele>
        <time>2015-08-17T07:01:07Z</time>
      </trkpt>
      <trkpt lat="45.24865" lon="7.17697">
        <ele>1686.12</ele>
        <time>2015-08-17T07:01:08Z</time>
      </trkpt>
      <trkpt lat="45.24863" lon="7.17702">
        <ele>1686.53</ele>
        <time>2015-08-17T07:01:11Z</time>
      </trkpt>
      <trkpt lat="45.24862" lon="7.17703">
        <ele>1686.69</ele>
        <time>2015-08-17T07:01:12Z</time>
      </trkpt>
      <trkpt lat="45.24861" lon="7.17705">
        <ele>1686.86</ele>
        <time>2015-08-17T07:01:13Z</time>
      </trkpt>
      <trkpt lat="45.2486" lon="7.17706">
        <ele>1687.25</ele>
        <time>2015-08-17T07:01:14Z</time>
      </trkpt>
      <trkpt lat="45.24859" lon="7.17708">
        <ele>1687.47</ele>
        <time>2015-08-17T07:01:15Z</time>
      </trkpt>
      <trkpt lat="45.24858" lon="7.1771">
        <ele>1687.67</ele>
        <time>2015-08-17T07:01:16Z</time>
      </trkpt>
      <trkpt lat="45.24858" lon="7.17712">
        <ele>1687.87</ele>
        <time>2015-08-17T07:01:17Z</time>
      </trkpt>
      <trkpt lat="45.24857" lon="7.17713">
        <ele>1688.07</ele>
        <time>2015-08-17T07:01:18Z</time>
      </trkpt>
      <trkpt lat="45.24855" lon="7.17715">
        <ele>1688.27</ele>
        <time>2015-08-17T07:01:19Z</time>
      </trkpt>
      <trkpt lat="45.24854" lon="7.17717">
        <ele>1688.46</ele>
        <time>2015-08-17T07:01:20Z</time>
      </trkpt>
      <trkpt lat="45.24853" lon="7.17718">
        <ele>1688.64</ele>
        <time>2015-08-17T07:01:21Z</time>
      </trkpt>
      <trkpt lat="45.24846" lon="7.17733">
        <ele>1690.08</ele>
        <time>2015-08-17T07:01:30Z</time>
      </trkpt>
      <trkpt lat="45.2484" lon="7.17748">
        <ele>1691.35</ele>
        <time>2015-08-17T07:01:39Z</time>
      </trkpt>
      <trkpt lat="45.24842" lon="7.17761">
        <ele>1692.55</ele>
        <time>2015-08-17T07:01:46Z</time>
      </trkpt>
      <trkpt lat="45.24844" lon="7.17763">
        <ele>1692.85</ele>
        <time>2015-08-17T07:01:48Z</time>
      </trkpt>
      <trkpt lat="45.24849" lon="7.17765">
        <ele>1693.54</ele>
        <time>2015-08-17T07:01:52Z</time>
      </trkpt>
      <trkpt lat="45.2485" lon="7.17765">
        <ele>1693.75</ele>
        <time>2015-08-17T07:01:53Z</time>
      </trkpt>
      <trkpt lat="45.24854" lon="7.17762">
        <ele>1694.25</ele>
        <time>2015-08-17T07:01:56Z</time>
      </trkpt>
      <trkpt lat="45.24855" lon="7.17761">
        <ele>1694.43</ele>
        <time>2015-08-17T07:01:57Z</time>
      </trkpt>
      <trkpt lat="45.24856" lon="7.17759">
        <ele>1694.61</ele>
        <time>2015-08-17T07:01:58Z</time>
      </trkpt>
      <trkpt lat="45.24857" lon="7.17757">
        <ele>1694.77</ele>
        <time>2015-08-17T07:01:59Z</time>
      </trkpt>
      <trkpt lat="45.24857" lon="7.17755">
        <ele>1694.92</ele>
        <time>2015-08-17T07:02:00Z</time>
      </trkpt>
      <trkpt lat="45.2486" lon="7.1775">
        <ele>1695.35</ele>
        <time>2015-08-17T07:02:03Z</time>
      </trkpt>
      <trkpt lat="45.24861" lon="7.17749">
        <ele>1695.48</ele>
        <time>2015-08-17T07:02:04Z</time>
      </trkpt>
      <trkpt lat="45.24862" lon="7.17747">
        <ele>1695.62</ele>
        <time>2015-08-17T07:02:05Z</time>
      </trkpt>
      <trkpt lat="45.24863" lon="7.17745">
        <ele>1695.79</ele>
        <time>2015-08-17T07:02:06Z</time>
      </trkpt>
      <trkpt lat="45.24864" lon="7.17744">
        <ele>1696.12</ele>
        <time>2015-08-17T07:02:07Z</time>
      </trkpt>
      <trkpt lat="45.24868" lon="7.17734">
        <ele>1696.97</ele>
        <time>2015-08-17T07:02:12Z</time>
      </trkpt>
      <trkpt lat="45.24869" lon="7.17733">
        <ele>1697.12</ele>
        <time>2015-08-17T07:02:13Z</time>
      </trkpt>
      <trkpt lat="45.24871" lon="7.17732">
        <ele>1697.29</ele>
        <time>2015-08-17T07:02:14Z</time>
      </trkpt>
      <trkpt lat="45.24873" lon="7.1773">
        <ele>1697.66</ele>
        <time>2015-08-17T07:02:16Z</time>
      </trkpt>
      <trkpt lat="45.24874" lon="7.17728">
        <ele>1697.81</ele>
        <time>2015-08-17T07:02:17Z</time>
      </trkpt>
      <trkpt lat="45.24875" lon="7.17726">
        <ele>1697.94</ele>
        <time>2015-08-17T07:02:18Z</time>
      </trkpt>
      <trkpt lat="45.24877" lon="7.17725">
        <ele>1698.08</ele>
        <time>2015-08-17T07:02:19Z</time>
      </trkpt>
      <trkpt lat="45.24878" lon="7.17724">
        <ele>1698.27</ele>
        <time>2015-08-17T07:02:20Z</time>
      </trkpt>
      <trkpt lat="45.2488" lon="7.17723">
        <ele>1698.5</ele>
        <time>2015-08-17T07:02:21Z</time>
      </trkpt>
      <trkpt lat="45.24888" lon="7.1772">
        <ele>1699.51</ele>
        <time>2015-08-17T07:02:27Z</time>
      </trkpt>
      <trkpt lat="45.24899" lon="7.17712">
        <ele>1701.02</ele>
        <time>2015-08-17T07:02:35Z</time>
      </trkpt>
      <trkpt lat="45.24908" lon="7.17704">
        <ele>1702.19</ele>
        <time>2015-08-17T07:02:42Z</time>
      </trkpt>
      <trkpt lat="45.24909" lon="7.17703">
        <ele>1702.42</ele>
        <time>2015-08-17T07:02:43Z</time>
      </trkpt>
      <trkpt lat="45.24921" lon="7.17691">
        <ele>1704.12</ele>
        <time>2015-08-17T07:02:53Z</time>
      </trkpt>
      <trkpt lat="45.24929" lon="7.17682">
        <ele>1705.39</ele>
        <time>2015-08-17T07:03:00Z</time>
      </trkpt>
      <trkpt lat="45.24937" lon="7.17674">
        <ele>1706.68</ele>
        <time>2015-08-17T07:03:07Z</time>
      </trkpt>
      <trkpt lat="45.24939" lon="7.17673">
        <ele>1706.83</ele>
        <time>2015-08-17T07:03:08Z</time>
      </trkpt>
      <trkpt lat="45.2494" lon="7.17672">
        <ele>1706.98</ele>
        <time>2015-08-17T07:03:09Z</time>
      </trkpt>
      <trkpt lat="45.24949" lon="7.17661">
        <ele>1708.27</ele>
        <time>2015-08-17T07:03:17Z</time>
      </trkpt>
      <trkpt lat="45.24962" lon="7.17649">
        <ele>1710.23</ele>
        <time>2015-08-17T07:03:27Z</time>
      </trkpt>
      <trkpt lat="45.24973" lon="7.17652">
        <ele>1711.58</ele>
        <time>2015-08-17T07:03:35Z</time>
      </trkpt>
      <trkpt lat="45.24975" lon="7.1766">
        <ele>1712.16</ele>
        <time>2015-08-17T07:03:39Z</time>
      </trkpt>
      <trkpt lat="45.24975" lon="7.17662">
        <ele>1712.31</ele>
        <time>2015-08-17T07:03:40Z</time>
      </trkpt>
      <trkpt lat="45.24975" lon="7.17664">
        <ele>1712.45</ele>
        <time>2015-08-17T07:03:41Z</time>
      </trkpt>
      <trkpt lat="45.24975" lon="7.17665">
        <ele>1712.62</ele>
        <time>2015-08-17T07:03:42Z</time>
      </trkpt>
      <trkpt lat="45.24974" lon="7.17667">
        <ele>1712.86</ele>
        <time>2015-08-17T07:03:43Z</time>
      </trkpt>
      <trkpt lat="45.24971" lon="7.17672">
        <ele>1713.64</ele>
        <time>2015-08-17T07:03:46Z</time>
      </trkpt>
      <trkpt lat="45.2497" lon="7.17673">
        <ele>1713.81</ele>
        <time>2015-08-17T07:03:47Z</time>
      </trkpt>
      <trkpt lat="45.24969" lon="7.17674">
        <ele>1713.99</ele>
        <time>2015-08-17T07:03:48Z</time>
      </trkpt>
      <trkpt lat="45.24968" lon="7.17676">
        <ele>1714.16</ele>
        <time>2015-08-17T07:03:49Z</time>
      </trkpt>
      <trkpt lat="45.24967" lon="7.17677">
        <ele>1714.33</ele>
        <time>2015-08-17T07:03:50Z</time>
      </trkpt>
      <trkpt lat="45.24966" lon="7.17678">
        <ele>1714.49</ele>
        <time>2015-08-17T07:03:51Z</time>
      </trkpt>
      <trkpt lat="45.24964" lon="7.17678">
        <ele>1714.65</ele>
        <time>2015-08-17T07:03:52Z</time>
      </trkpt>
      <trkpt lat="45.24961" lon="7.17682">
        <ele>1715.16</ele>
        <time>2015-08-17T07:03:55Z</time>
      </trkpt>
      <trkpt lat="45.2496" lon="7.17683">
        <ele>1715.38</ele>
        <time>2015-08-17T07:03:56Z</time>
      </trkpt>
      <trkpt lat="45.24958" lon="7.17684">
        <ele>1715.59</ele>
        <time>2015-08-17T07:03:57Z</time>
      </trkpt>
      <trkpt lat="45.24957" lon="7.17685">
        <ele>1715.78</ele>
        <time>2015-08-17T07:03:58Z</time>
      </trkpt>
      <trkpt lat="45.24956" lon="7.17686">
        <ele>1715.94</ele>
        <time>2015-08-17T07:03:59Z</time>
      </trkpt>
      <trkpt lat="45.24954" lon="7.17687">
        <ele>1716.11</ele>
        <time>2015-08-17T07:04:00Z</time>
      </trkpt>
      <trkpt lat="45.24953" lon="7.17688">
        <ele>1716.29</ele>
        <time>2015-08-17T07:04:01Z</time>
      </trkpt>
      <trkpt lat="45.24952" lon="7.1769">
        <ele>1716.5</ele>
        <time>2015-08-17T07:04:02Z</time>
      </trkpt>
      <trkpt lat="45.24951" lon="7.17691">
        <ele>1716.7</ele>
        <time>2015-08-17T07:04:03Z</time>
      </trkpt>
      <trkpt lat="45.2495" lon="7.17693">
        <ele>1716.91</ele>
        <time>2015-08-17T07:04:04Z</time>
      </trkpt>
      <trkpt lat="45.24949" lon="7.17695">
        <ele>1717.08</ele>
        <time>2015-08-17T07:04:05Z</time>
      </trkpt>
      <trkpt lat="45.24948" lon="7.17695">
        <ele>1717.24</ele>
        <time>2015-08-17T07:04:06Z</time>
      </trkpt>
      <trkpt lat="45.24946" lon="7.17696">
        <ele>1717.4</ele>
        <time>2015-08-17T07:04:07Z</time>
      </trkpt>
      <trkpt lat="45.24945" lon="7.17698">
        <ele>1717.55</ele>
        <time>2015-08-17T07:04:08Z</time>
      </trkpt>
      <trkpt lat="45.24944" lon="7.177">
        <ele>1717.66</ele>
        <time>2015-08-17T07:04:09Z</time>
      </trkpt>
      <trkpt lat="45.24944" lon="7.17702">
        <ele>1717.98</ele>
        <time>2015-08-17T07:04:10Z</time>
      </trkpt>
      <trkpt lat="45.24943" lon="7.17704">
        <ele>1718.21</ele>
        <time>2015-08-17T07:04:11Z</time>
      </trkpt>
      <trkpt lat="45.24942" lon="7.17705">
        <ele>1718.44</ele>
        <time>2015-08-17T07:04:12Z</time>
      </trkpt>
      <trkpt lat="45.24931" lon="7.17719">
        <ele>1720.09</ele>
        <time>2015-08-17T07:04:21Z</time>
      </trkpt>
      <trkpt lat="45.24928" lon="7.17724">
        <ele>1720.62</ele>
        <time>2015-08-17T07:04:24Z</time>
      </trkpt>
      <trkpt lat="45.24928" lon="7.17725">
        <ele>1720.83</ele>
        <time>2015-08-17T07:04:25Z</time>
      </trkpt>
      <trkpt lat="45.24927" lon="7.17727">
        <ele>1721.01</ele>
        <time>2015-08-17T07:04:26Z</time>
      </trkpt>
      <trkpt lat="45.24926" lon="7.17729">
        <ele>1721.2</ele>
        <time>2015-08-17T07:04:27Z</time>
      </trkpt>
      <trkpt lat="45.24925" lon="7.1773">
        <ele>1721.38</ele>
        <time>2015-08-17T07:04:28Z</time>
      </trkpt>
      <trkpt lat="45.24924" lon="7.17731">
        <ele>1721.55</ele>
        <time>2015-08-17T07:04:29Z</time>
      </trkpt>
      <trkpt lat="45.24922" lon="7.17732">
        <ele>1721.78</ele>
        <time>2015-08-17T07:04:30Z</time>
      </trkpt>
      <trkpt lat="45.24921" lon="7.17732">
        <ele>1722.03</ele>
        <time>2015-08-17T07:04:31Z</time>
      </trkpt>
      <trkpt lat="45.2492" lon="7.17734">
        <ele>1722.26</ele>
        <time>2015-08-17T07:04:32Z</time>
      </trkpt>
      <trkpt lat="45.24918" lon="7.17735">
        <ele>1722.48</ele>
        <time>2015-08-17T07:04:33Z</time>
      </trkpt>
      <trkpt lat="45.24917" lon="7.17736">
        <ele>1722.81</ele>
        <time>2015-08-17T07:04:34Z</time>
      </trkpt>
      <trkpt lat="45.24916" lon="7.17738">
        <ele>1722.95</ele>
        <time>2015-08-17T07:04:35Z</time>
      </trkpt>
      <trkpt lat="45.24915" lon="7.17739">
        <ele>1723.1</ele>
        <time>2015-08-17T07:04:36Z</time>
      </trkpt>
      <trkpt lat="45.24914" lon="7.1774">
        <ele>1723.27</ele>
        <time>2015-08-17T07:04:37Z</time>
      </trkpt>
      <trkpt lat="45.24913" lon="7.17742">
        <ele>1723.49</ele>
        <time>2015-08-17T07:04:38Z</time>
      </trkpt>
      <trkpt lat="45.24913" lon="7.17743">
        <ele>1723.73</ele>
        <time>2015-08-17T07:04:39Z</time>
      </trkpt>
      <trkpt lat="45.24912" lon="7.17745">
        <ele>1723.96</ele>
        <time>2015-08-17T07:04:40Z</time>
      </trkpt>
      <trkpt lat="45.24912" lon="7.17747">
        <ele>1724.17</ele>
        <time>2015-08-17T07:04:41Z</time>
      </trkpt>
      <trkpt lat="45.24911" lon="7.17748">
        <ele>1724.34</ele>
        <time>2015-08-17T07:04:42Z</time>
      </trkpt>
      <trkpt lat="45.24909" lon="7.17749">
        <ele>1724.49</ele>
        <time>2015-08-17T07:04:43Z</time>
      </trkpt>
      <trkpt lat="45.24908" lon="7.17749">
        <ele>1724.63</ele>
        <time>2015-08-17T07:04:44Z</time>
      </trkpt>
      <trkpt lat="45.24907" lon="7.1775">
        <ele>1724.81</ele>
        <time>2015-08-17T07:04:45Z</time>
      </trkpt>
      <trkpt lat="45.24906" lon="7.17752">
        <ele>1725.03</ele>
        <time>2015-08-17T07:04:46Z</time>
      </trkpt>
      <trkpt lat="45.24905" lon="7.17754">
        <ele>1725.26</ele>
        <time>2015-08-17T07:04:47Z</time>
      </trkpt>
      <trkpt lat="45.24904" lon="7.17756">
        <ele>1725.45</ele>
        <time>2015-08-17T07:04:48Z</time>
      </trkpt>
      <trkpt lat="45.24904" lon="7.17757">
        <ele>1725.62</ele>
        <time>2015-08-17T07:04:49Z</time>
      </trkpt>
      <trkpt lat="45.24903" lon="7.17759">
        <ele>1725.79</ele>
        <time>2015-08-17T07:04:50Z</time>
      </trkpt>
      <trkpt lat="45.24902" lon="7.17761">
        <ele>1725.99</ele>
        <time>2015-08-17T07:04:51Z</time>
      </trkpt>
      <trkpt lat="45.24902" lon="7.17763">
        <ele>1726.2</ele>
        <time>2015-08-17T07:04:52Z</time>
      </trkpt>
      <trkpt lat="45.24901" lon="7.17764">
        <ele>1726.39</ele>
        <time>2015-08-17T07:04:53Z</time>
      </trkpt>
      <trkpt lat="45.249" lon="7.17765">
        <ele>1726.56</ele>
        <time>2015-08-17T07:04:54Z</time>
      </trkpt>
      <trkpt lat="45.24899" lon="7.17766">
        <ele>1726.72</ele>
        <time>2015-08-17T07:04:55Z</time>
      </trkpt>
      <trkpt lat="45.24898" lon="7.17768">
        <ele>1726.86</ele>
        <time>2015-08-17T07:04:56Z</time>
      </trkpt>
      <trkpt lat="45.24898" lon="7.17769">
        <ele>1726.98</ele>
        <time>2015-08-17T07:04:57Z</time>
      </trkpt>
      <trkpt lat="45.24893" lon="7.17781">
        <ele>1728.11</ele>
        <time>2015-08-17T07:05:04Z</time>
      </trkpt>
      <trkpt lat="45.24892" lon="7.17782">
        <ele>1728.3</ele>
        <time>2015-08-17T07:05:05Z</time>
      </trkpt>
      <trkpt lat="45.2489" lon="7.17783">
        <ele>1728.47</ele>
        <time>2015-08-17T07:05:06Z</time>
      </trkpt>
      <trkpt lat="45.24889" lon="7.17784">
        <ele>1728.62</ele>
        <time>2015-08-17T07:05:07Z</time>
      </trkpt>
      <trkpt lat="45.24888" lon="7.17786">
        <ele>1728.78</ele>
        <time>2015-08-17T07:05:08Z</time>
      </trkpt>
      <trkpt lat="45.24888" lon="7.17788">
        <ele>1728.99</ele>
        <time>2015-08-17T07:05:09Z</time>
      </trkpt>
      <trkpt lat="45.24887" lon="7.17789">
        <ele>1729.23</ele>
        <time>2015-08-17T07:05:10Z</time>
      </trkpt>
      <trkpt lat="45.24887" lon="7.17791">
        <ele>1729.45</ele>
        <time>2015-08-17T07:05:11Z</time>
      </trkpt>
      <trkpt lat="45.24883" lon="7.17799">
        <ele>1730.48</ele>
        <time>2015-08-17T07:05:16Z</time>
      </trkpt>
      <trkpt lat="45.24882" lon="7.17799">
        <ele>1730.64</ele>
        <time>2015-08-17T07:05:17Z</time>
      </trkpt>
      <trkpt lat="45.2488" lon="7.17801">
        <ele>1730.8</ele>
        <time>2015-08-17T07:05:18Z</time>
      </trkpt>
      <trkpt lat="45.24879" lon="7.17802">
        <ele>1730.98</ele>
        <time>2015-08-17T07:05:19Z</time>
      </trkpt>
      <trkpt lat="45.24879" lon="7.17804">
        <ele>1731.15</ele>
        <time>2015-08-17T07:05:20Z</time>
      </trkpt>
      <trkpt lat="45.24878" lon="7.17806">
        <ele>1731.3</ele>
        <time>2015-08-17T07:05:21Z</time>
      </trkpt>
      <trkpt lat="45.24878" lon="7.17807">
        <ele>1731.44</ele>
        <time>2015-08-17T07:05:22Z</time>
      </trkpt>
      <trkpt lat="45.24877" lon="7.17809">
        <ele>1731.61</ele>
        <time>2015-08-17T07:05:23Z</time>
      </trkpt>
      <trkpt lat="45.24876" lon="7.17821">
        <ele>1732.94</ele>
        <time>2015-08-17T07:05:29Z</time>
      </trkpt>
      <trkpt lat="45.24876" lon="7.17823">
        <ele>1733.1</ele>
        <time>2015-08-17T07:05:30Z</time>
      </trkpt>
      <trkpt lat="45.24876" lon="7.17825">
        <ele>1733.28</ele>
        <time>2015-08-17T07:05:31Z</time>
      </trkpt>
      <trkpt lat="45.24876" lon="7.17827">
        <ele>1733.48</ele>
        <time>2015-08-17T07:05:32Z</time>
      </trkpt>
      <trkpt lat="45.24876" lon="7.17829">
        <ele>1733.65</ele>
        <time>2015-08-17T07:05:33Z</time>
      </trkpt>
      <trkpt lat="45.24876" lon="7.17832">
        <ele>1733.81</ele>
        <time>2015-08-17T07:05:34Z</time>
      </trkpt>
      <trkpt lat="45.24876" lon="7.17834">
        <ele>1733.97</ele>
        <time>2015-08-17T07:05:35Z</time>
      </trkpt>
      <trkpt lat="45.24876" lon="7.17836">
        <ele>1734.16</ele>
        <time>2015-08-17T07:05:36Z</time>
      </trkpt>
      <trkpt lat="45.24876" lon="7.17838">
        <ele>1734.35</ele>
        <time>2015-08-17T07:05:37Z</time>
      </trkpt>
      <trkpt lat="45.24875" lon="7.17849">
        <ele>1735.16</ele>
        <time>2015-08-17T07:05:43Z</time>
      </trkpt>
      <trkpt lat="45.24874" lon="7.17851">
        <ele>1735.3</ele>
        <time>2015-08-17T07:05:44Z</time>
      </trkpt>
      <trkpt lat="45.24873" lon="7.17852">
        <ele>1735.47</ele>
        <time>2015-08-17T07:05:45Z</time>
      </trkpt>
      <trkpt lat="45.24872" lon="7.17854">
        <ele>1735.64</ele>
        <time>2015-08-17T07:05:46Z</time>
      </trkpt>
      <trkpt lat="45.24872" lon="7.17856">
        <ele>1736.02</ele>
        <time>2015-08-17T07:05:47Z</time>
      </trkpt>
      <trkpt lat="45.24872" lon="7.17858">
        <ele>1736.22</ele>
        <time>2015-08-17T07:05:48Z</time>
      </trkpt>
      <trkpt lat="45.24871" lon="7.1786">
        <ele>1736.43</ele>
        <time>2015-08-17T07:05:49Z</time>
      </trkpt>
      <trkpt lat="45.24871" lon="7.17862">
        <ele>1736.62</ele>
        <time>2015-08-17T07:05:50Z</time>
      </trkpt>
      <trkpt lat="45.24871" lon="7.17863">
        <ele>1736.81</ele>
        <time>2015-08-17T07:05:51Z</time>
      </trkpt>
      <trkpt lat="45.24869" lon="7.17865">
        <ele>1736.97</ele>
        <time>2015-08-17T07:05:52Z</time>
      </trkpt>
      <trkpt lat="45.24868" lon="7.17866">
        <ele>1737.14</ele>
        <time>2015-08-17T07:05:53Z</time>
      </trkpt>
      <trkpt lat="45.24865" lon="7.1787">
        <ele>1737.58</ele>
        <time>2015-08-17T07:05:56Z</time>
      </trkpt>
      <trkpt lat="45.24862" lon="7.17875">
        <ele>1738.15</ele>
        <time>2015-08-17T07:06:00Z</time>
      </trkpt>
      <trkpt lat="45.24862" lon="7.17877">
        <ele>1738.33</ele>
        <time>2015-08-17T07:06:01Z</time>
      </trkpt>
      <trkpt lat="45.24862" lon="7.17879">
        <ele>1738.5</ele>
        <time>2015-08-17T07:06:02Z</time>
      </trkpt>
      <trkpt lat="45.24862" lon="7.17881">
        <ele>1738.64</ele>
        <time>2015-08-17T07:06:03Z</time>
      </trkpt>
      <trkpt lat="45.24863" lon="7.17883">
        <ele>1738.77</ele>
        <time>2015-08-17T07:06:04Z</time>
      </trkpt>
      <trkpt lat="45.24864" lon="7.17885">
        <ele>1738.88</ele>
        <time>2015-08-17T07:06:05Z</time>
      </trkpt>
      <trkpt lat="45.24866" lon="7.17886">
        <ele>1739</ele>
        <time>2015-08-17T07:06:06Z</time>
      </trkpt>
      <trkpt lat="45.24867" lon="7.17888">
        <ele>1739.14</ele>
        <time>2015-08-17T07:06:07Z</time>
      </trkpt>
      <trkpt lat="45.24868" lon="7.1789">
        <ele>1739.27</ele>
        <time>2015-08-17T07:06:08Z</time>
      </trkpt>
      <trkpt lat="45.24869" lon="7.17891">
        <ele>1739.4</ele>
        <time>2015-08-17T07:06:09Z</time>
      </trkpt>
      <trkpt lat="45.24871" lon="7.17892">
        <ele>1739.53</ele>
        <time>2015-08-17T07:06:10Z</time>
      </trkpt>
      <trkpt lat="45.24873" lon="7.17893">
        <ele>1739.67</ele>
        <time>2015-08-17T07:06:11Z</time>
      </trkpt>
      <trkpt lat="45.24874" lon="7.17892">
        <ele>1739.83</ele>
        <time>2015-08-17T07:06:12Z</time>
      </trkpt>
      <trkpt lat="45.24875" lon="7.17892">
        <ele>1740.16</ele>
        <time>2015-08-17T07:06:13Z</time>
      </trkpt>
      <trkpt lat="45.24877" lon="7.17892">
        <ele>1740.31</ele>
        <time>2015-08-17T07:06:14Z</time>
      </trkpt>
      <trkpt lat="45.24878" lon="7.17891">
        <ele>1740.44</ele>
        <time>2015-08-17T07:06:15Z</time>
      </trkpt>
      <trkpt lat="45.2488" lon="7.1789">
        <ele>1740.56</ele>
        <time>2015-08-17T07:06:16Z</time>
      </trkpt>
      <trkpt lat="45.24881" lon="7.17889">
        <ele>1740.68</ele>
        <time>2015-08-17T07:06:17Z</time>
      </trkpt>
      <trkpt lat="45.24882" lon="7.17887">
        <ele>1740.79</ele>
        <time>2015-08-17T07:06:18Z</time>
      </trkpt>
      <trkpt lat="45.24882" lon="7.17885">
        <ele>1740.93</ele>
        <time>2015-08-17T07:06:19Z</time>
      </trkpt>
      <trkpt lat="45.24884" lon="7.17877">
        <ele>1741.78</ele>
        <time>2015-08-17T07:06:24Z</time>
      </trkpt>
      <trkpt lat="45.24887" lon="7.1787">
        <ele>1742.69</ele>
        <time>2015-08-17T07:06:29Z</time>
      </trkpt>
      <trkpt lat="45.24887" lon="7.17857">
        <ele>1743.65</ele>
        <time>2015-08-17T07:06:35Z</time>
      </trkpt>
      <trkpt lat="45.24893" lon="7.17848">
        <ele>1744.74</ele>
        <time>2015-08-17T07:06:41Z</time>
      </trkpt>
      <trkpt lat="45.24896" lon="7.17834">
        <ele>1745.8</ele>
        <time>2015-08-17T07:06:48Z</time>
      </trkpt>
      <trkpt lat="45.24898" lon="7.17831">
        <ele>1746.11</ele>
        <time>2015-08-17T07:06:50Z</time>
      </trkpt>
      <trkpt lat="45.24904" lon="7.17824">
        <ele>1747.19</ele>
        <time>2015-08-17T07:06:56Z</time>
      </trkpt>
      <trkpt lat="45.24904" lon="7.17822">
        <ele>1747.36</ele>
        <time>2015-08-17T07:06:57Z</time>
      </trkpt>
      <trkpt lat="45.24913" lon="7.1781">
        <ele>1748.9</ele>
        <time>2015-08-17T07:07:06Z</time>
      </trkpt>
      <trkpt lat="45.24916" lon="7.17803">
        <ele>1749.66</ele>
        <time>2015-08-17T07:07:10Z</time>
      </trkpt>
      <trkpt lat="45.24924" lon="7.17797">
        <ele>1750.94</ele>
        <time>2015-08-17T07:07:16Z</time>
      </trkpt>
      <trkpt lat="45.24934" lon="7.17792">
        <ele>1752.24</ele>
        <time>2015-08-17T07:07:23Z</time>
      </trkpt>
      <trkpt lat="45.2494" lon="7.17791">
        <ele>1753.36</ele>
        <time>2015-08-17T07:07:28Z</time>
      </trkpt>
      <trkpt lat="45.24951" lon="7.17787">
        <ele>1754.69</ele>
        <time>2015-08-17T07:07:36Z</time>
      </trkpt>
      <trkpt lat="45.24953" lon="7.17786">
        <ele>1754.98</ele>
        <time>2015-08-17T07:07:38Z</time>
      </trkpt>
      <trkpt lat="45.24957" lon="7.17783">
        <ele>1755.56</ele>
        <time>2015-08-17T07:07:41Z</time>
      </trkpt>
      <trkpt lat="45.24965" lon="7.1778">
        <ele>1756.56</ele>
        <time>2015-08-17T07:07:46Z</time>
      </trkpt>
      <trkpt lat="45.24975" lon="7.17776">
        <ele>1758.32</ele>
        <time>2015-08-17T07:07:54Z</time>
      </trkpt>
      <trkpt lat="45.24984" lon="7.17769">
        <ele>1759.67</ele>
        <time>2015-08-17T07:08:02Z</time>
      </trkpt>
      <trkpt lat="45.24985" lon="7.17768">
        <ele>1759.82</ele>
        <time>2015-08-17T07:08:03Z</time>
      </trkpt>
      <trkpt lat="45.24992" lon="7.17763">
        <ele>1760.73</ele>
        <time>2015-08-17T07:08:09Z</time>
      </trkpt>
      <trkpt lat="45.25001" lon="7.17756">
        <ele>1761.94</ele>
        <time>2015-08-17T07:08:17Z</time>
      </trkpt>
      <trkpt lat="45.25007" lon="7.17751">
        <ele>1762.99</ele>
        <time>2015-08-17T07:08:22Z</time>
      </trkpt>
      <trkpt lat="45.2501" lon="7.1775">
        <ele>1763.53</ele>
        <time>2015-08-17T07:08:25Z</time>
      </trkpt>
      <trkpt lat="45.25018" lon="7.17742">
        <ele>1764.62</ele>
        <time>2015-08-17T07:08:32Z</time>
      </trkpt>
      <trkpt lat="45.25029" lon="7.17741">
        <ele>1766.58</ele>
        <time>2015-08-17T07:08:41Z</time>
      </trkpt>
      <trkpt lat="45.2503" lon="7.17742">
        <ele>1766.75</ele>
        <time>2015-08-17T07:08:42Z</time>
      </trkpt>
      <trkpt lat="45.25028" lon="7.17756">
        <ele>1768.06</ele>
        <time>2015-08-17T07:08:50Z</time>
      </trkpt>
      <trkpt lat="45.25025" lon="7.17758">
        <ele>1768.39</ele>
        <time>2015-08-17T07:08:52Z</time>
      </trkpt>
      <trkpt lat="45.25018" lon="7.17766">
        <ele>1769.23</ele>
        <time>2015-08-17T07:08:59Z</time>
      </trkpt>
      <trkpt lat="45.25009" lon="7.17771">
        <ele>1770.26</ele>
        <time>2015-08-17T07:09:05Z</time>
      </trkpt>
      <trkpt lat="45.25008" lon="7.17773">
        <ele>1770.61</ele>
        <time>2015-08-17T07:09:06Z</time>
      </trkpt>
      <trkpt lat="45.25005" lon="7.17778">
        <ele>1771.11</ele>
        <time>2015-08-17T07:09:09Z</time>
      </trkpt>
      <trkpt lat="45.24997" lon="7.17783">
        <ele>1771.98</ele>
        <time>2015-08-17T07:09:15Z</time>
      </trkpt>
      <trkpt lat="45.24993" lon="7.17789">
        <ele>1772.59</ele>
        <time>2015-08-17T07:09:19Z</time>
      </trkpt>
      <trkpt lat="45.24984" lon="7.178">
        <ele>1773.97</ele>
        <time>2015-08-17T07:09:27Z</time>
      </trkpt>
      <trkpt lat="45.24975" lon="7.1781">
        <ele>1775.4</ele>
        <time>2015-08-17T07:09:35Z</time>
      </trkpt>
      <trkpt lat="45.24969" lon="7.17814">
        <ele>1776.08</ele>
        <time>2015-08-17T07:09:39Z</time>
      </trkpt>
      <trkpt lat="45.24959" lon="7.17826">
        <ele>1777.62</ele>
        <time>2015-08-17T07:09:48Z</time>
      </trkpt>
      <trkpt lat="45.24957" lon="7.17832">
        <ele>1778.14</ele>
        <time>2015-08-17T07:09:51Z</time>
      </trkpt>
      <trkpt lat="45.24944" lon="7.17846">
        <ele>1779.93</ele>
        <time>2015-08-17T07:10:02Z</time>
      </trkpt>
      <trkpt lat="45.24942" lon="7.17852">
        <ele>1780.48</ele>
        <time>2015-08-17T07:10:05Z</time>
      </trkpt>
      <trkpt lat="45.24936" lon="7.17868">
        <ele>1781.9</ele>
        <time>2015-08-17T07:10:14Z</time>
      </trkpt>
      <trkpt lat="45.24934" lon="7.17872">
        <ele>1782.26</ele>
        <time>2015-08-17T07:10:16Z</time>
      </trkpt>
      <trkpt lat="45.24932" lon="7.17879">
        <ele>1783.17</ele>
        <time>2015-08-17T07:10:20Z</time>
      </trkpt>
      <trkpt lat="45.2493" lon="7.17886">
        <ele>1783.89</ele>
        <time>2015-08-17T07:10:24Z</time>
      </trkpt>
      <trkpt lat="45.24923" lon="7.17897">
        <ele>1785.19</ele>
        <time>2015-08-17T07:10:31Z</time>
      </trkpt>
      <trkpt lat="45.24921" lon="7.17909">
        <ele>1786.24</ele>
        <time>2015-08-17T07:10:37Z</time>
      </trkpt>
      <trkpt lat="45.2492" lon="7.1791">
        <ele>1786.43</ele>
        <time>2015-08-17T07:10:38Z</time>
      </trkpt>
      <trkpt lat="45.24913" lon="7.17925">
        <ele>1787.97</ele>
        <time>2015-08-17T07:10:47Z</time>
      </trkpt>
      <trkpt lat="45.2491" lon="7.17938">
        <ele>1789.23</ele>
        <time>2015-08-17T07:10:54Z</time>
      </trkpt>
      <trkpt lat="45.24908" lon="7.17953">
        <ele>1790.27</ele>
        <time>2015-08-17T07:11:01Z</time>
      </trkpt>
      <trkpt lat="45.24908" lon="7.17955">
        <ele>1790.42</ele>
        <time>2015-08-17T07:11:02Z</time>
      </trkpt>
      <trkpt lat="45.24904" lon="7.17965">
        <ele>1791.87</ele>
        <time>2015-08-17T07:11:08Z</time>
      </trkpt>
      <trkpt lat="45.24903" lon="7.17969">
        <ele>1792.24</ele>
        <time>2015-08-17T07:11:10Z</time>
      </trkpt>
      <trkpt lat="45.24901" lon="7.17982">
        <ele>1793.17</ele>
        <time>2015-08-17T07:11:16Z</time>
      </trkpt>
      <trkpt lat="45.24896" lon="7.17998">
        <ele>1794.49</ele>
        <time>2015-08-17T07:11:24Z</time>
      </trkpt>
      <trkpt lat="45.24895" lon="7.17999">
        <ele>1794.69</ele>
        <time>2015-08-17T07:11:25Z</time>
      </trkpt>
      <trkpt lat="45.24889" lon="7.18005">
        <ele>1795.56</ele>
        <time>2015-08-17T07:11:30Z</time>
      </trkpt>
      <trkpt lat="45.24885" lon="7.18013">
        <ele>1796.73</ele>
        <time>2015-08-17T07:11:35Z</time>
      </trkpt>
      <trkpt lat="45.24872" lon="7.18017">
        <ele>1798.07</ele>
        <time>2015-08-17T07:11:43Z</time>
      </trkpt>
      <trkpt lat="45.24864" lon="7.18026">
        <ele>1798.88</ele>
        <time>2015-08-17T07:11:49Z</time>
      </trkpt>
      <trkpt lat="45.24856" lon="7.18039">
        <ele>1800.61</ele>
        <time>2015-08-17T07:11:57Z</time>
      </trkpt>
      <trkpt lat="45.2485" lon="7.18049">
        <ele>1801.82</ele>
        <time>2015-08-17T07:12:03Z</time>
      </trkpt>
      <trkpt lat="45.24849" lon="7.1805">
        <ele>1802.01</ele>
        <time>2015-08-17T07:12:04Z</time>
      </trkpt>
      <trkpt lat="45.24848" lon="7.18051">
        <ele>1802.18</ele>
        <time>2015-08-17T07:12:05Z</time>
      </trkpt>
      <trkpt lat="45.24846" lon="7.18052">
        <ele>1802.45</ele>
        <time>2015-08-17T07:12:07Z</time>
      </trkpt>
      <trkpt lat="45.24845" lon="7.18054">
        <ele>1802.57</ele>
        <time>2015-08-17T07:12:08Z</time>
      </trkpt>
      <trkpt lat="45.24844" lon="7.18055">
        <ele>1802.7</ele>
        <time>2015-08-17T07:12:09Z</time>
      </trkpt>
      <trkpt lat="45.24843" lon="7.18057">
        <ele>1802.82</ele>
        <time>2015-08-17T07:12:10Z</time>
      </trkpt>
      <trkpt lat="45.24842" lon="7.18058">
        <ele>1802.93</ele>
        <time>2015-08-17T07:12:11Z</time>
      </trkpt>
      <trkpt lat="45.24841" lon="7.18059">
        <ele>1803.02</ele>
        <time>2015-08-17T07:12:12Z</time>
      </trkpt>
      <trkpt lat="45.2484" lon="7.18061">
        <ele>1803.16</ele>
        <time>2015-08-17T07:12:13Z</time>
      </trkpt>
      <trkpt lat="45.24839" lon="7.18062">
        <ele>1803.37</ele>
        <time>2015-08-17T07:12:14Z</time>
      </trkpt>
      <trkpt lat="45.24838" lon="7.18064">
        <ele>1803.58</ele>
        <time>2015-08-17T07:12:15Z</time>
      </trkpt>
      <trkpt lat="45.24833" lon="7.18073">
        <ele>1804.66</ele>
        <time>2015-08-17T07:12:21Z</time>
      </trkpt>
      <trkpt lat="45.24832" lon="7.18074">
        <ele>1804.97</ele>
        <time>2015-08-17T07:12:22Z</time>
      </trkpt>
      <trkpt lat="45.24831" lon="7.18075">
        <ele>1805.1</ele>
        <time>2015-08-17T07:12:23Z</time>
      </trkpt>
      <trkpt lat="45.2483" lon="7.18076">
        <ele>1805.23</ele>
        <time>2015-08-17T07:12:24Z</time>
      </trkpt>
      <trkpt lat="45.2483" lon="7.18077">
        <ele>1805.37</ele>
        <time>2015-08-17T07:12:25Z</time>
      </trkpt>
      <trkpt lat="45.24829" lon="7.18078">
        <ele>1806.15</ele>
        <time>2015-08-17T07:12:30Z</time>
      </trkpt>
      <trkpt lat="45.2483" lon="7.1808">
        <ele>1806.75</ele>
        <time>2015-08-17T07:13:03Z</time>
      </trkpt>
      <trkpt lat="45.2483" lon="7.18078">
        <ele>1806.64</ele>
        <time>2015-08-17T07:13:44Z</time>
      </trkpt>
      <trkpt lat="45.24831" lon="7.1808">
        <ele>1806.9</ele>
        <time>2015-08-17T07:14:40Z</time>
      </trkpt>
      <trkpt lat="45.24831" lon="7.18079">
        <ele>1806.95</ele>
        <time>2015-08-17T07:15:23Z</time>
      </trkpt>
      <trkpt lat="45.24831" lon="7.18077">
        <ele>1806.63</ele>
        <time>2015-08-17T07:16:05Z</time>
      </trkpt>
      <trkpt lat="45.2483" lon="7.18079">
        <ele>1807.15</ele>
        <time>2015-08-17T07:16:34Z</time>
      </trkpt>
      <trkpt lat="45.2483" lon="7.18082">
        <ele>1807.19</ele>
        <time>2015-08-17T07:16:48Z</time>
      </trkpt>
      <trkpt lat="45.24831" lon="7.18083">
        <ele>1806.94</ele>
        <time>2015-08-17T07:17:01Z</time>
      </trkpt>
      <trkpt lat="45.2483" lon="7.18095">
        <ele>1807.26</ele>
        <time>2015-08-17T07:17:11Z</time>
      </trkpt>
      <trkpt lat="45.24829" lon="7.18096">
        <ele>1807.61</ele>
        <time>2015-08-17T07:17:19Z</time>
      </trkpt>
      <trkpt lat="45.24828" lon="7.18096">
        <ele>1807.84</ele>
        <time>2015-08-17T07:18:13Z</time>
      </trkpt>
      <trkpt lat="45.24829" lon="7.18101">
        <ele>1807.94</ele>
        <time>2015-08-17T07:18:18Z</time>
      </trkpt>
      <trkpt lat="45.24828" lon="7.18103">
        <ele>1807.98</ele>
        <time>2015-08-17T07:18:19Z</time>
      </trkpt>
      <trkpt lat="45.24828" lon="7.18104">
        <ele>1808.03</ele>
        <time>2015-08-17T07:18:20Z</time>
      </trkpt>
      <trkpt lat="45.24827" lon="7.18106">
        <ele>1808.11</ele>
        <time>2015-08-17T07:18:21Z</time>
      </trkpt>
      <trkpt lat="45.24826" lon="7.18108">
        <ele>1808.18</ele>
        <time>2015-08-17T07:18:22Z</time>
      </trkpt>
      <trkpt lat="45.24826" lon="7.1811">
        <ele>1808.25</ele>
        <time>2015-08-17T07:18:23Z</time>
      </trkpt>
      <trkpt lat="45.24825" lon="7.18112">
        <ele>1808.3</ele>
        <time>2015-08-17T07:18:24Z</time>
      </trkpt>
      <trkpt lat="45.24825" lon="7.18114">
        <ele>1808.36</ele>
        <time>2015-08-17T07:18:25Z</time>
      </trkpt>
      <trkpt lat="45.24824" lon="7.18121">
        <ele>1808.75</ele>
        <time>2015-08-17T07:18:29Z</time>
      </trkpt>
      <trkpt lat="45.24824" lon="7.18123">
        <ele>1809.09</ele>
        <time>2015-08-17T07:18:30Z</time>
      </trkpt>
      <trkpt lat="45.24823" lon="7.18124">
        <ele>1809.28</ele>
        <time>2015-08-17T07:18:31Z</time>
      </trkpt>
      <trkpt lat="45.24822" lon="7.18126">
        <ele>1809.44</ele>
        <time>2015-08-17T07:18:32Z</time>
      </trkpt>
      <trkpt lat="45.24822" lon="7.18128">
        <ele>1809.6</ele>
        <time>2015-08-17T07:18:33Z</time>
      </trkpt>
      <trkpt lat="45.24822" lon="7.18129">
        <ele>1809.74</ele>
        <time>2015-08-17T07:18:34Z</time>
      </trkpt>
      <trkpt lat="45.24821" lon="7.18131">
        <ele>1809.86</ele>
        <time>2015-08-17T07:18:35Z</time>
      </trkpt>
      <trkpt lat="45.24821" lon="7.18133">
        <ele>1809.96</ele>
        <time>2015-08-17T07:18:36Z</time>
      </trkpt>
      <trkpt lat="45.24818" lon="7.18149">
        <ele>1811.07</ele>
        <time>2015-08-17T07:18:45Z</time>
      </trkpt>
      <trkpt lat="45.24817" lon="7.18154">
        <ele>1811.43</ele>
        <time>2015-08-17T07:18:48Z</time>
      </trkpt>
      <trkpt lat="45.24816" lon="7.18156">
        <ele>1811.54</ele>
        <time>2015-08-17T07:18:49Z</time>
      </trkpt>
      <trkpt lat="45.24816" lon="7.18157">
        <ele>1811.64</ele>
        <time>2015-08-17T07:18:50Z</time>
      </trkpt>
      <trkpt lat="45.24816" lon="7.18159">
        <ele>1811.74</ele>
        <time>2015-08-17T07:18:51Z</time>
      </trkpt>
      <trkpt lat="45.24816" lon="7.18161">
        <ele>1811.95</ele>
        <time>2015-08-17T07:18:52Z</time>
      </trkpt>
      <trkpt lat="45.24816" lon="7.18162">
        <ele>1811.95</ele>
        <time>2015-08-17T07:18:53Z</time>
      </trkpt>
      <trkpt lat="45.24816" lon="7.18164">
        <ele>1812.07</ele>
        <time>2015-08-17T07:18:54Z</time>
      </trkpt>
      <trkpt lat="45.24817" lon="7.1818">
        <ele>1813.75</ele>
        <time>2015-08-17T07:19:03Z</time>
      </trkpt>
      <trkpt lat="45.24817" lon="7.18182">
        <ele>1813.87</ele>
        <time>2015-08-17T07:19:04Z</time>
      </trkpt>
      <trkpt lat="45.24818" lon="7.18184">
        <ele>1813.97</ele>
        <time>2015-08-17T07:19:05Z</time>
      </trkpt>
      <trkpt lat="45.24818" lon="7.18186">
        <ele>1814.06</ele>
        <time>2015-08-17T07:19:06Z</time>
      </trkpt>
      <trkpt lat="45.24818" lon="7.18188">
        <ele>1814.13</ele>
        <time>2015-08-17T07:19:07Z</time>
      </trkpt>
      <trkpt lat="45.24818" lon="7.1819">
        <ele>1814.22</ele>
        <time>2015-08-17T07:19:08Z</time>
      </trkpt>
      <trkpt lat="45.24819" lon="7.18191">
        <ele>1814.3</ele>
        <time>2015-08-17T07:19:09Z</time>
      </trkpt>
      <trkpt lat="45.2482" lon="7.18193">
        <ele>1814.43</ele>
        <time>2015-08-17T07:19:10Z</time>
      </trkpt>
      <trkpt lat="45.2482" lon="7.18195">
        <ele>1814.59</ele>
        <time>2015-08-17T07:19:11Z</time>
      </trkpt>
      <trkpt lat="45.2482" lon="7.18197">
        <ele>1814.76</ele>
        <time>2015-08-17T07:19:12Z</time>
      </trkpt>
      <trkpt lat="45.2482" lon="7.18199">
        <ele>1814.93</ele>
        <time>2015-08-17T07:19:13Z</time>
      </trkpt>
      <trkpt lat="45.2482" lon="7.18201">
        <ele>1815.07</ele>
        <time>2015-08-17T07:19:14Z</time>
      </trkpt>
      <trkpt lat="45.2482" lon="7.18203">
        <ele>1815.19</ele>
        <time>2015-08-17T07:19:15Z</time>
      </trkpt>
      <trkpt lat="45.2482" lon="7.18204">
        <ele>1815.3</ele>
        <time>2015-08-17T07:19:16Z</time>
      </trkpt>
      <trkpt lat="45.24821" lon="7.18206">
        <ele>1815.41</ele>
        <time>2015-08-17T07:19:17Z</time>
      </trkpt>
      <trkpt lat="45.2482" lon="7.18208">
        <ele>1815.55</ele>
        <time>2015-08-17T07:19:18Z</time>
      </trkpt>
      <trkpt lat="45.24821" lon="7.1821">
        <ele>1815.7</ele>
        <time>2015-08-17T07:19:19Z</time>
      </trkpt>
      <trkpt lat="45.24821" lon="7.18212">
        <ele>1815.83</ele>
        <time>2015-08-17T07:19:20Z</time>
      </trkpt>
      <trkpt lat="45.24822" lon="7.18213">
        <ele>1815.96</ele>
        <time>2015-08-17T07:19:21Z</time>
      </trkpt>
      <trkpt lat="45.24822" lon="7.18215">
        <ele>1816.13</ele>
        <time>2015-08-17T07:19:22Z</time>
      </trkpt>
      <trkpt lat="45.24822" lon="7.18217">
        <ele>1816.31</ele>
        <time>2015-08-17T07:19:23Z</time>
      </trkpt>
      <trkpt lat="45.24822" lon="7.18218">
        <ele>1816.47</ele>
        <time>2015-08-17T07:19:24Z</time>
      </trkpt>
      <trkpt lat="45.24822" lon="7.1822">
        <ele>1816.61</ele>
        <time>2015-08-17T07:19:25Z</time>
      </trkpt>
      <trkpt lat="45.24823" lon="7.18222">
        <ele>1816.87</ele>
        <time>2015-08-17T07:19:26Z</time>
      </trkpt>
      <trkpt lat="45.24823" lon="7.18224">
        <ele>1816.98</ele>
        <time>2015-08-17T07:19:27Z</time>
      </trkpt>
      <trkpt lat="45.24824" lon="7.18226">
        <ele>1817.1</ele>
        <time>2015-08-17T07:19:28Z</time>
      </trkpt>
      <trkpt lat="45.24824" lon="7.18227">
        <ele>1817.26</ele>
        <time>2015-08-17T07:19:29Z</time>
      </trkpt>
      <trkpt lat="45.24824" lon="7.18229">
        <ele>1817.43</ele>
        <time>2015-08-17T07:19:30Z</time>
      </trkpt>
      <trkpt lat="45.24824" lon="7.18231">
        <ele>1817.6</ele>
        <time>2015-08-17T07:19:31Z</time>
      </trkpt>
      <trkpt lat="45.24824" lon="7.18233">
        <ele>1817.76</ele>
        <time>2015-08-17T07:19:32Z</time>
      </trkpt>
      <trkpt lat="45.24826" lon="7.18252">
        <ele>1819.27</ele>
        <time>2015-08-17T07:19:43Z</time>
      </trkpt>
      <trkpt lat="45.24827" lon="7.18259">
        <ele>1819.87</ele>
        <time>2015-08-17T07:19:47Z</time>
      </trkpt>
      <trkpt lat="45.24827" lon="7.18261">
        <ele>1820</ele>
        <time>2015-08-17T07:19:48Z</time>
      </trkpt>
      <trkpt lat="45.24827" lon="7.18277">
        <ele>1821.41</ele>
        <time>2015-08-17T07:19:57Z</time>
      </trkpt>
      <trkpt lat="45.24826" lon="7.18292">
        <ele>1822.48</ele>
        <time>2015-08-17T07:20:05Z</time>
      </trkpt>
      <trkpt lat="45.24826" lon="7.18293">
        <ele>1822.62</ele>
        <time>2015-08-17T07:20:06Z</time>
      </trkpt>
      <trkpt lat="45.24822" lon="7.18313">
        <ele>1824.4</ele>
        <time>2015-08-17T07:20:18Z</time>
      </trkpt>
      <trkpt lat="45.2482" lon="7.18328">
        <ele>1825.29</ele>
        <time>2015-08-17T07:20:26Z</time>
      </trkpt>
      <trkpt lat="45.24819" lon="7.18345">
        <ele>1826.63</ele>
        <time>2015-08-17T07:20:35Z</time>
      </trkpt>
      <trkpt lat="45.24821" lon="7.18358">
        <ele>1827.51</ele>
        <time>2015-08-17T07:20:42Z</time>
      </trkpt>
      <trkpt lat="45.24821" lon="7.18363">
        <ele>1827.8</ele>
        <time>2015-08-17T07:20:45Z</time>
      </trkpt>
      <trkpt lat="45.24821" lon="7.18369">
        <ele>1828.24</ele>
        <time>2015-08-17T07:20:48Z</time>
      </trkpt>
      <trkpt lat="45.24821" lon="7.18382">
        <ele>1829.08</ele>
        <time>2015-08-17T07:20:55Z</time>
      </trkpt>
      <trkpt lat="45.24821" lon="7.18384">
        <ele>1829.17</ele>
        <time>2015-08-17T07:20:56Z</time>
      </trkpt>
      <trkpt lat="45.24821" lon="7.1839">
        <ele>1829.58</ele>
        <time>2015-08-17T07:20:59Z</time>
      </trkpt>
      <trkpt lat="45.24821" lon="7.18391">
        <ele>1829.76</ele>
        <time>2015-08-17T07:21:00Z</time>
      </trkpt>
      <trkpt lat="45.2482" lon="7.18393">
        <ele>1829.96</ele>
        <time>2015-08-17T07:21:01Z</time>
      </trkpt>
      <trkpt lat="45.2482" lon="7.18395">
        <ele>1830.16</ele>
        <time>2015-08-17T07:21:02Z</time>
      </trkpt>
      <trkpt lat="45.2482" lon="7.18397">
        <ele>1830.36</ele>
        <time>2015-08-17T07:21:03Z</time>
      </trkpt>
      <trkpt lat="45.2482" lon="7.18399">
        <ele>1830.69</ele>
        <time>2015-08-17T07:21:04Z</time>
      </trkpt>
      <trkpt lat="45.24817" lon="7.18413">
        <ele>1831.77</ele>
        <time>2015-08-17T07:21:12Z</time>
      </trkpt>
      <trkpt lat="45.2481" lon="7.1843">
        <ele>1833.07</ele>
        <time>2015-08-17T07:21:22Z</time>
      </trkpt>
      <trkpt lat="45.24809" lon="7.18432">
        <ele>1833.18</ele>
        <time>2015-08-17T07:21:23Z</time>
      </trkpt>
      <trkpt lat="45.24808" lon="7.18433">
        <ele>1833.33</ele>
        <time>2015-08-17T07:21:24Z</time>
      </trkpt>
      <trkpt lat="45.24801" lon="7.18452">
        <ele>1834.94</ele>
        <time>2015-08-17T07:21:34Z</time>
      </trkpt>
      <trkpt lat="45.24799" lon="7.18457">
        <ele>1835.41</ele>
        <time>2015-08-17T07:21:37Z</time>
      </trkpt>
      <trkpt lat="45.24799" lon="7.18459">
        <ele>1835.6</ele>
        <time>2015-08-17T07:21:38Z</time>
      </trkpt>
      <trkpt lat="45.24798" lon="7.18461">
        <ele>1835.77</ele>
        <time>2015-08-17T07:21:39Z</time>
      </trkpt>
      <trkpt lat="45.24797" lon="7.18463">
        <ele>1835.92</ele>
        <time>2015-08-17T07:21:40Z</time>
      </trkpt>
      <trkpt lat="45.24797" lon="7.18465">
        <ele>1836.06</ele>
        <time>2015-08-17T07:21:41Z</time>
      </trkpt>
      <trkpt lat="45.24796" lon="7.18468">
        <ele>1836.2</ele>
        <time>2015-08-17T07:21:42Z</time>
      </trkpt>
      <trkpt lat="45.24796" lon="7.1847">
        <ele>1836.34</ele>
        <time>2015-08-17T07:21:43Z</time>
      </trkpt>
      <trkpt lat="45.24796" lon="7.18472">
        <ele>1836.45</ele>
        <time>2015-08-17T07:21:44Z</time>
      </trkpt>
      <trkpt lat="45.24796" lon="7.18487">
        <ele>1837.61</ele>
        <time>2015-08-17T07:21:52Z</time>
      </trkpt>
      <trkpt lat="45.24806" lon="7.18497">
        <ele>1838.96</ele>
        <time>2015-08-17T07:22:00Z</time>
      </trkpt>
      <trkpt lat="45.24816" lon="7.18495">
        <ele>1839.95</ele>
        <time>2015-08-17T07:22:07Z</time>
      </trkpt>
      <trkpt lat="45.24826" lon="7.18485">
        <ele>1840.96</ele>
        <time>2015-08-17T07:22:15Z</time>
      </trkpt>
      <trkpt lat="45.24834" lon="7.18472">
        <ele>1842.46</ele>
        <time>2015-08-17T07:22:24Z</time>
      </trkpt>
      <trkpt lat="45.24841" lon="7.18461">
        <ele>1843.71</ele>
        <time>2015-08-17T07:22:32Z</time>
      </trkpt>
      <trkpt lat="45.24842" lon="7.1846">
        <ele>1843.91</ele>
        <time>2015-08-17T07:22:33Z</time>
      </trkpt>
      <trkpt lat="45.24843" lon="7.18458">
        <ele>1844.09</ele>
        <time>2015-08-17T07:22:34Z</time>
      </trkpt>
      <trkpt lat="45.24844" lon="7.18457">
        <ele>1844.26</ele>
        <time>2015-08-17T07:22:35Z</time>
      </trkpt>
      <trkpt lat="45.24845" lon="7.18455">
        <ele>1844.42</ele>
        <time>2015-08-17T07:22:36Z</time>
      </trkpt>
      <trkpt lat="45.24846" lon="7.18454">
        <ele>1844.58</ele>
        <time>2015-08-17T07:22:37Z</time>
      </trkpt>
      <trkpt lat="45.24854" lon="7.1844">
        <ele>1845.95</ele>
        <time>2015-08-17T07:22:46Z</time>
      </trkpt>
      <trkpt lat="45.24861" lon="7.18424">
        <ele>1847.67</ele>
        <time>2015-08-17T07:22:56Z</time>
      </trkpt>
      <trkpt lat="45.2487" lon="7.18412">
        <ele>1849.07</ele>
        <time>2015-08-17T07:23:05Z</time>
      </trkpt>
      <trkpt lat="45.24876" lon="7.18393">
        <ele>1850.32</ele>
        <time>2015-08-17T07:23:15Z</time>
      </trkpt>
      <trkpt lat="45.24881" lon="7.18373">
        <ele>1851.82</ele>
        <time>2015-08-17T07:23:26Z</time>
      </trkpt>
      <trkpt lat="45.24884" lon="7.18356">
        <ele>1853.29</ele>
        <time>2015-08-17T07:23:35Z</time>
      </trkpt>
      <trkpt lat="45.24887" lon="7.18339">
        <ele>1854.51</ele>
        <time>2015-08-17T07:23:44Z</time>
      </trkpt>
      <trkpt lat="45.2489" lon="7.18319">
        <ele>1855.94</ele>
        <time>2015-08-17T07:23:54Z</time>
      </trkpt>
      <trkpt lat="45.24893" lon="7.18297">
        <ele>1857.7</ele>
        <time>2015-08-17T07:24:05Z</time>
      </trkpt>
      <trkpt lat="45.24894" lon="7.18295">
        <ele>1857.87</ele>
        <time>2015-08-17T07:24:06Z</time>
      </trkpt>
      <trkpt lat="45.24894" lon="7.18293">
        <ele>1858.03</ele>
        <time>2015-08-17T07:24:07Z</time>
      </trkpt>
      <trkpt lat="45.24894" lon="7.18291">
        <ele>1858.19</ele>
        <time>2015-08-17T07:24:08Z</time>
      </trkpt>
      <trkpt lat="45.24894" lon="7.18289">
        <ele>1858.4</ele>
        <time>2015-08-17T07:24:09Z</time>
      </trkpt>
      <trkpt lat="45.24895" lon="7.18287">
        <ele>1858.62</ele>
        <time>2015-08-17T07:24:10Z</time>
      </trkpt>
      <trkpt lat="45.24895" lon="7.18285">
        <ele>1858.85</ele>
        <time>2015-08-17T07:24:11Z</time>
      </trkpt>
      <trkpt lat="45.24895" lon="7.18283">
        <ele>1859.07</ele>
        <time>2015-08-17T07:24:12Z</time>
      </trkpt>
      <trkpt lat="45.24895" lon="7.18281">
        <ele>1859.28</ele>
        <time>2015-08-17T07:24:13Z</time>
      </trkpt>
      <trkpt lat="45.24898" lon="7.18266">
        <ele>1860.69</ele>
        <time>2015-08-17T07:24:21Z</time>
      </trkpt>
      <trkpt lat="45.24901" lon="7.18251">
        <ele>1862.12</ele>
        <time>2015-08-17T07:24:29Z</time>
      </trkpt>
      <trkpt lat="45.24904" lon="7.18235">
        <ele>1863.25</ele>
        <time>2015-08-17T07:24:38Z</time>
      </trkpt>
      <trkpt lat="45.24909" lon="7.18215">
        <ele>1864.51</ele>
        <time>2015-08-17T07:24:48Z</time>
      </trkpt>
      <trkpt lat="45.24912" lon="7.182">
        <ele>1865.94</ele>
        <time>2015-08-17T07:24:56Z</time>
      </trkpt>
      <trkpt lat="45.24917" lon="7.18182">
        <ele>1867.32</ele>
        <time>2015-08-17T07:25:06Z</time>
      </trkpt>
      <trkpt lat="45.24922" lon="7.18169">
        <ele>1868.32</ele>
        <time>2015-08-17T07:25:14Z</time>
      </trkpt>
      <trkpt lat="45.24925" lon="7.18161">
        <ele>1869.26</ele>
        <time>2015-08-17T07:25:20Z</time>
      </trkpt>
      <trkpt lat="45.24925" lon="7.18159">
        <ele>1869.39</ele>
        <time>2015-08-17T07:25:21Z</time>
      </trkpt>
      <trkpt lat="45.24926" lon="7.18157">
        <ele>1869.55</ele>
        <time>2015-08-17T07:25:22Z</time>
      </trkpt>
      <trkpt lat="45.24927" lon="7.18156">
        <ele>1869.71</ele>
        <time>2015-08-17T07:25:23Z</time>
      </trkpt>
      <trkpt lat="45.24928" lon="7.18155">
        <ele>1869.87</ele>
        <time>2015-08-17T07:25:24Z</time>
      </trkpt>
      <trkpt lat="45.24929" lon="7.18154">
        <ele>1870.02</ele>
        <time>2015-08-17T07:25:25Z</time>
      </trkpt>
      <trkpt lat="45.24931" lon="7.18154">
        <ele>1870.31</ele>
        <time>2015-08-17T07:25:27Z</time>
      </trkpt>
      <trkpt lat="45.24932" lon="7.18154">
        <ele>1870.44</ele>
        <time>2015-08-17T07:25:28Z</time>
      </trkpt>
      <trkpt lat="45.24937" lon="7.18155">
        <ele>1871.14</ele>
        <time>2015-08-17T07:25:32Z</time>
      </trkpt>
      <trkpt lat="45.24938" lon="7.18156">
        <ele>1871.33</ele>
        <time>2015-08-17T07:25:33Z</time>
      </trkpt>
      <trkpt lat="45.24939" lon="7.18157">
        <ele>1871.51</ele>
        <time>2015-08-17T07:25:34Z</time>
      </trkpt>
      <trkpt lat="45.2494" lon="7.18158">
        <ele>1871.69</ele>
        <time>2015-08-17T07:25:35Z</time>
      </trkpt>
      <trkpt lat="45.24941" lon="7.1816">
        <ele>1871.87</ele>
        <time>2015-08-17T07:25:36Z</time>
      </trkpt>
      <trkpt lat="45.24942" lon="7.18161">
        <ele>1872.07</ele>
        <time>2015-08-17T07:25:37Z</time>
      </trkpt>
      <trkpt lat="45.24942" lon="7.18163">
        <ele>1872.26</ele>
        <time>2015-08-17T07:25:38Z</time>
      </trkpt>
      <trkpt lat="45.24943" lon="7.18165">
        <ele>1872.46</ele>
        <time>2015-08-17T07:25:39Z</time>
      </trkpt>
      <trkpt lat="45.24943" lon="7.18166">
        <ele>1872.64</ele>
        <time>2015-08-17T07:25:40Z</time>
      </trkpt>
      <trkpt lat="45.24943" lon="7.18168">
        <ele>1872.8</ele>
        <time>2015-08-17T07:25:41Z</time>
      </trkpt>
      <trkpt lat="45.24943" lon="7.18169">
        <ele>1872.96</ele>
        <time>2015-08-17T07:25:42Z</time>
      </trkpt>
      <trkpt lat="45.24942" lon="7.18171">
        <ele>1873.12</ele>
        <time>2015-08-17T07:25:43Z</time>
      </trkpt>
      <trkpt lat="45.24942" lon="7.18172">
        <ele>1873.42</ele>
        <time>2015-08-17T07:25:44Z</time>
      </trkpt>
      <trkpt lat="45.24942" lon="7.18186">
        <ele>1874.28</ele>
        <time>2015-08-17T07:25:52Z</time>
      </trkpt>
      <trkpt lat="45.2494" lon="7.18202">
        <ele>1875.94</ele>
        <time>2015-08-17T07:26:01Z</time>
      </trkpt>
      <trkpt lat="45.24938" lon="7.18214">
        <ele>1876.85</ele>
        <time>2015-08-17T07:26:08Z</time>
      </trkpt>
      <trkpt lat="45.24938" lon="7.18216">
        <ele>1876.94</ele>
        <time>2015-08-17T07:26:09Z</time>
      </trkpt>
      <trkpt lat="45.24939" lon="7.18217">
        <ele>1877.04</ele>
        <time>2015-08-17T07:26:10Z</time>
      </trkpt>
      <trkpt lat="45.24938" lon="7.18228">
        <ele>1877.72</ele>
        <time>2015-08-17T07:26:16Z</time>
      </trkpt>
      <trkpt lat="45.24937" lon="7.18231">
        <ele>1877.97</ele>
        <time>2015-08-17T07:26:18Z</time>
      </trkpt>
      <trkpt lat="45.24937" lon="7.18234">
        <ele>1878.26</ele>
        <time>2015-08-17T07:26:20Z</time>
      </trkpt>
      <trkpt lat="45.24937" lon="7.18236">
        <ele>1878.39</ele>
        <time>2015-08-17T07:26:21Z</time>
      </trkpt>
      <trkpt lat="45.24938" lon="7.1825">
        <ele>1879.08</ele>
        <time>2015-08-17T07:26:29Z</time>
      </trkpt>
      <trkpt lat="45.24938" lon="7.18253">
        <ele>1879.19</ele>
        <time>2015-08-17T07:26:30Z</time>
      </trkpt>
      <trkpt lat="45.24938" lon="7.18256">
        <ele>1879.3</ele>
        <time>2015-08-17T07:26:31Z</time>
      </trkpt>
      <trkpt lat="45.24937" lon="7.18258">
        <ele>1879.57</ele>
        <time>2015-08-17T07:26:32Z</time>
      </trkpt>
      <trkpt lat="45.24937" lon="7.18259">
        <ele>1879.73</ele>
        <time>2015-08-17T07:26:33Z</time>
      </trkpt>
      <trkpt lat="45.24937" lon="7.18261">
        <ele>1879.91</ele>
        <time>2015-08-17T07:26:34Z</time>
      </trkpt>
      <trkpt lat="45.24937" lon="7.18263">
        <ele>1880.09</ele>
        <time>2015-08-17T07:26:35Z</time>
      </trkpt>
      <trkpt lat="45.24937" lon="7.18265">
        <ele>1880.27</ele>
        <time>2015-08-17T07:26:36Z</time>
      </trkpt>
      <trkpt lat="45.24937" lon="7.18268">
        <ele>1880.66</ele>
        <time>2015-08-17T07:26:38Z</time>
      </trkpt>
      <trkpt lat="45.24937" lon="7.1827">
        <ele>1880.9</ele>
        <time>2015-08-17T07:26:39Z</time>
      </trkpt>
      <trkpt lat="45.24937" lon="7.18272">
        <ele>1881.13</ele>
        <time>2015-08-17T07:26:40Z</time>
      </trkpt>
      <trkpt lat="45.24936" lon="7.18273">
        <ele>1881.31</ele>
        <time>2015-08-17T07:26:41Z</time>
      </trkpt>
      <trkpt lat="45.24936" lon="7.18275">
        <ele>1881.47</ele>
        <time>2015-08-17T07:26:42Z</time>
      </trkpt>
      <trkpt lat="45.24935" lon="7.18277">
        <ele>1881.6</ele>
        <time>2015-08-17T07:26:43Z</time>
      </trkpt>
      <trkpt lat="45.24935" lon="7.18292">
        <ele>1882.6</ele>
        <time>2015-08-17T07:26:51Z</time>
      </trkpt>
      <trkpt lat="45.24937" lon="7.1831">
        <ele>1883.94</ele>
        <time>2015-08-17T07:27:00Z</time>
      </trkpt>
      <trkpt lat="45.24937" lon="7.18311">
        <ele>1884.08</ele>
        <time>2015-08-17T07:27:01Z</time>
      </trkpt>
      <trkpt lat="45.24935" lon="7.18319">
        <ele>1884.79</ele>
        <time>2015-08-17T07:27:06Z</time>
      </trkpt>
      <trkpt lat="45.24935" lon="7.18321">
        <ele>1884.93</ele>
        <time>2015-08-17T07:27:07Z</time>
      </trkpt>
      <trkpt lat="45.24936" lon="7.18337">
        <ele>1886</ele>
        <time>2015-08-17T07:27:16Z</time>
      </trkpt>
      <trkpt lat="45.24937" lon="7.18342">
        <ele>1886.37</ele>
        <time>2015-08-17T07:27:19Z</time>
      </trkpt>
      <trkpt lat="45.24937" lon="7.18344">
        <ele>1886.52</ele>
        <time>2015-08-17T07:27:20Z</time>
      </trkpt>
      <trkpt lat="45.24937" lon="7.18346">
        <ele>1886.68</ele>
        <time>2015-08-17T07:27:21Z</time>
      </trkpt>
      <trkpt lat="45.24937" lon="7.18347">
        <ele>1886.93</ele>
        <time>2015-08-17T07:27:22Z</time>
      </trkpt>
      <trkpt lat="45.24936" lon="7.18349">
        <ele>1887.06</ele>
        <time>2015-08-17T07:27:23Z</time>
      </trkpt>
      <trkpt lat="45.24936" lon="7.1835">
        <ele>1887.21</ele>
        <time>2015-08-17T07:27:24Z</time>
      </trkpt>
      <trkpt lat="45.24936" lon="7.18352">
        <ele>1887.36</ele>
        <time>2015-08-17T07:27:25Z</time>
      </trkpt>
      <trkpt lat="45.24936" lon="7.18354">
        <ele>1887.49</ele>
        <time>2015-08-17T07:27:26Z</time>
      </trkpt>
      <trkpt lat="45.24937" lon="7.18356">
        <ele>1887.62</ele>
        <time>2015-08-17T07:27:27Z</time>
      </trkpt>
      <trkpt lat="45.24937" lon="7.18357">
        <ele>1887.74</ele>
        <time>2015-08-17T07:27:28Z</time>
      </trkpt>
      <trkpt lat="45.24937" lon="7.18359">
        <ele>1887.86</ele>
        <time>2015-08-17T07:27:29Z</time>
      </trkpt>
      <trkpt lat="45.24937" lon="7.18361">
        <ele>1887.97</ele>
        <time>2015-08-17T07:27:30Z</time>
      </trkpt>
      <trkpt lat="45.24937" lon="7.18362">
        <ele>1888.09</ele>
        <time>2015-08-17T07:27:31Z</time>
      </trkpt>
      <trkpt lat="45.24937" lon="7.18364">
        <ele>1888.22</ele>
        <time>2015-08-17T07:27:32Z</time>
      </trkpt>
      <trkpt lat="45.24937" lon="7.18369">
        <ele>1888.52</ele>
        <time>2015-08-17T07:27:35Z</time>
      </trkpt>
      <trkpt lat="45.24937" lon="7.18371">
        <ele>1888.6</ele>
        <time>2015-08-17T07:27:36Z</time>
      </trkpt>
      <trkpt lat="45.24943" lon="7.18383">
        <ele>1889.52</ele>
        <time>2015-08-17T07:27:44Z</time>
      </trkpt>
      <trkpt lat="45.24944" lon="7.18382">
        <ele>1889.71</ele>
        <time>2015-08-17T07:27:45Z</time>
      </trkpt>
      <trkpt lat="45.24945" lon="7.1838">
        <ele>1889.91</ele>
        <time>2015-08-17T07:27:46Z</time>
      </trkpt>
      <trkpt lat="45.24946" lon="7.18379">
        <ele>1890.07</ele>
        <time>2015-08-17T07:27:47Z</time>
      </trkpt>
      <trkpt lat="45.24947" lon="7.18378">
        <ele>1890.31</ele>
        <time>2015-08-17T07:27:48Z</time>
      </trkpt>
      <trkpt lat="45.24951" lon="7.18373">
        <ele>1890.81</ele>
        <time>2015-08-17T07:27:52Z</time>
      </trkpt>
      <trkpt lat="45.24951" lon="7.18371">
        <ele>1890.95</ele>
        <time>2015-08-17T07:27:53Z</time>
      </trkpt>
      <trkpt lat="45.24952" lon="7.18369">
        <ele>1891.1</ele>
        <time>2015-08-17T07:27:54Z</time>
      </trkpt>
      <trkpt lat="45.24953" lon="7.18367">
        <ele>1891.26</ele>
        <time>2015-08-17T07:27:55Z</time>
      </trkpt>
      <trkpt lat="45.24953" lon="7.18365">
        <ele>1891.43</ele>
        <time>2015-08-17T07:27:56Z</time>
      </trkpt>
      <trkpt lat="45.24953" lon="7.18362">
        <ele>1891.6</ele>
        <time>2015-08-17T07:27:57Z</time>
      </trkpt>
      <trkpt lat="45.24952" lon="7.1836">
        <ele>1891.75</ele>
        <time>2015-08-17T07:27:58Z</time>
      </trkpt>
      <trkpt lat="45.24952" lon="7.18358">
        <ele>1891.9</ele>
        <time>2015-08-17T07:27:59Z</time>
      </trkpt>
      <trkpt lat="45.24949" lon="7.1834">
        <ele>1892.8</ele>
        <time>2015-08-17T07:28:08Z</time>
      </trkpt>
      <trkpt lat="45.24949" lon="7.18338">
        <ele>1892.87</ele>
        <time>2015-08-17T07:28:09Z</time>
      </trkpt>
      <trkpt lat="45.2495" lon="7.18336">
        <ele>1892.96</ele>
        <time>2015-08-17T07:28:10Z</time>
      </trkpt>
      <trkpt lat="45.2495" lon="7.18334">
        <ele>1893.07</ele>
        <time>2015-08-17T07:28:11Z</time>
      </trkpt>
      <trkpt lat="45.2495" lon="7.18332">
        <ele>1893.35</ele>
        <time>2015-08-17T07:28:12Z</time>
      </trkpt>
      <trkpt lat="45.2495" lon="7.18331">
        <ele>1893.49</ele>
        <time>2015-08-17T07:28:13Z</time>
      </trkpt>
      <trkpt lat="45.2495" lon="7.18329">
        <ele>1893.61</ele>
        <time>2015-08-17T07:28:14Z</time>
      </trkpt>
      <trkpt lat="45.24949" lon="7.18327">
        <ele>1893.75</ele>
        <time>2015-08-17T07:28:15Z</time>
      </trkpt>
      <trkpt lat="45.24949" lon="7.18325">
        <ele>1893.93</ele>
        <time>2015-08-17T07:28:16Z</time>
      </trkpt>
      <trkpt lat="45.2495" lon="7.18323">
        <ele>1894.12</ele>
        <time>2015-08-17T07:28:17Z</time>
      </trkpt>
      <trkpt lat="45.2495" lon="7.18322">
        <ele>1894.3</ele>
        <time>2015-08-17T07:28:18Z</time>
      </trkpt>
      <trkpt lat="45.24951" lon="7.1832">
        <ele>1894.48</ele>
        <time>2015-08-17T07:28:19Z</time>
      </trkpt>
      <trkpt lat="45.24952" lon="7.18319">
        <ele>1894.64</ele>
        <time>2015-08-17T07:28:20Z</time>
      </trkpt>
      <trkpt lat="45.24952" lon="7.18317">
        <ele>1894.79</ele>
        <time>2015-08-17T07:28:21Z</time>
      </trkpt>
      <trkpt lat="45.24953" lon="7.18315">
        <ele>1894.94</ele>
        <time>2015-08-17T07:28:22Z</time>
      </trkpt>
      <trkpt lat="45.24955" lon="7.18307">
        <ele>1895.59</ele>
        <time>2015-08-17T07:28:27Z</time>
      </trkpt>
      <trkpt lat="45.24955" lon="7.18303">
        <ele>1895.92</ele>
        <time>2015-08-17T07:28:29Z</time>
      </trkpt>
      <trkpt lat="45.24956" lon="7.18302">
        <ele>1896.07</ele>
        <time>2015-08-17T07:28:30Z</time>
      </trkpt>
      <trkpt lat="45.2496" lon="7.18285">
        <ele>1897.72</ele>
        <time>2015-08-17T07:28:40Z</time>
      </trkpt>
      <trkpt lat="45.24964" lon="7.18273">
        <ele>1898.66</ele>
        <time>2015-08-17T07:28:48Z</time>
      </trkpt>
      <trkpt lat="45.24965" lon="7.18272">
        <ele>1898.78</ele>
        <time>2015-08-17T07:28:49Z</time>
      </trkpt>
      <trkpt lat="45.24965" lon="7.1827">
        <ele>1898.89</ele>
        <time>2015-08-17T07:28:50Z</time>
      </trkpt>
      <trkpt lat="45.24965" lon="7.18265">
        <ele>1899.28</ele>
        <time>2015-08-17T07:28:53Z</time>
      </trkpt>
      <trkpt lat="45.24965" lon="7.18263">
        <ele>1899.43</ele>
        <time>2015-08-17T07:28:54Z</time>
      </trkpt>
      <trkpt lat="45.24967" lon="7.18249">
        <ele>1900.69</ele>
        <time>2015-08-17T07:29:02Z</time>
      </trkpt>
      <trkpt lat="45.24972" lon="7.18233">
        <ele>1901.89</ele>
        <time>2015-08-17T07:29:11Z</time>
      </trkpt>
      <trkpt lat="45.24975" lon="7.18223">
        <ele>1902.89</ele>
        <time>2015-08-17T07:29:18Z</time>
      </trkpt>
      <trkpt lat="45.24976" lon="7.18218">
        <ele>1903.34</ele>
        <time>2015-08-17T07:29:21Z</time>
      </trkpt>
      <trkpt lat="45.24981" lon="7.18212">
        <ele>1904.17</ele>
        <time>2015-08-17T07:29:26Z</time>
      </trkpt>
      <trkpt lat="45.24981" lon="7.18211">
        <ele>1904.32</ele>
        <time>2015-08-17T07:29:27Z</time>
      </trkpt>
      <trkpt lat="45.24981" lon="7.18209">
        <ele>1904.48</ele>
        <time>2015-08-17T07:29:28Z</time>
      </trkpt>
      <trkpt lat="45.24982" lon="7.18207">
        <ele>1904.64</ele>
        <time>2015-08-17T07:29:29Z</time>
      </trkpt>
      <trkpt lat="45.24982" lon="7.18206">
        <ele>1904.8</ele>
        <time>2015-08-17T07:29:30Z</time>
      </trkpt>
      <trkpt lat="45.24986" lon="7.18196">
        <ele>1905.74</ele>
        <time>2015-08-17T07:29:37Z</time>
      </trkpt>
      <trkpt lat="45.24987" lon="7.18194">
        <ele>1905.84</ele>
        <time>2015-08-17T07:29:38Z</time>
      </trkpt>
      <trkpt lat="45.24987" lon="7.18193">
        <ele>1905.94</ele>
        <time>2015-08-17T07:29:39Z</time>
      </trkpt>
      <trkpt lat="45.24988" lon="7.18191">
        <ele>1906.01</ele>
        <time>2015-08-17T07:29:40Z</time>
      </trkpt>
      <trkpt lat="45.24989" lon="7.1819">
        <ele>1906.11</ele>
        <time>2015-08-17T07:29:41Z</time>
      </trkpt>
      <trkpt lat="45.2499" lon="7.18189">
        <ele>1906.26</ele>
        <time>2015-08-17T07:29:42Z</time>
      </trkpt>
      <trkpt lat="45.24998" lon="7.18179">
        <ele>1907.79</ele>
        <time>2015-08-17T07:29:51Z</time>
      </trkpt>
      <trkpt lat="45.24999" lon="7.18178">
        <ele>1907.93</ele>
        <time>2015-08-17T07:29:52Z</time>
      </trkpt>
      <trkpt lat="45.25" lon="7.18177">
        <ele>1908.07</ele>
        <time>2015-08-17T07:29:53Z</time>
      </trkpt>
      <trkpt lat="45.25001" lon="7.18176">
        <ele>1908.19</ele>
        <time>2015-08-17T07:29:54Z</time>
      </trkpt>
      <trkpt lat="45.25003" lon="7.18176">
        <ele>1908.29</ele>
        <time>2015-08-17T07:29:55Z</time>
      </trkpt>
      <trkpt lat="45.25004" lon="7.18177">
        <ele>1908.41</ele>
        <time>2015-08-17T07:29:56Z</time>
      </trkpt>
      <trkpt lat="45.25006" lon="7.18177">
        <ele>1908.57</ele>
        <time>2015-08-17T07:29:57Z</time>
      </trkpt>
      <trkpt lat="45.25008" lon="7.18177">
        <ele>1908.74</ele>
        <time>2015-08-17T07:29:58Z</time>
      </trkpt>
      <trkpt lat="45.25009" lon="7.18177">
        <ele>1908.91</ele>
        <time>2015-08-17T07:29:59Z</time>
      </trkpt>
      <trkpt lat="45.2501" lon="7.18175">
        <ele>1909.05</ele>
        <time>2015-08-17T07:30:00Z</time>
      </trkpt>
      <trkpt lat="45.25011" lon="7.18174">
        <ele>1909.18</ele>
        <time>2015-08-17T07:30:01Z</time>
      </trkpt>
      <trkpt lat="45.25013" lon="7.18174">
        <ele>1909.3</ele>
        <time>2015-08-17T07:30:02Z</time>
      </trkpt>
      <trkpt lat="45.25014" lon="7.18174">
        <ele>1909.43</ele>
        <time>2015-08-17T07:30:03Z</time>
      </trkpt>
      <trkpt lat="45.25016" lon="7.18175">
        <ele>1909.57</ele>
        <time>2015-08-17T07:30:04Z</time>
      </trkpt>
      <trkpt lat="45.25018" lon="7.18175">
        <ele>1909.72</ele>
        <time>2015-08-17T07:30:05Z</time>
      </trkpt>
      <trkpt lat="45.2502" lon="7.18174">
        <ele>1909.86</ele>
        <time>2015-08-17T07:30:06Z</time>
      </trkpt>
      <trkpt lat="45.25021" lon="7.18173">
        <ele>1910.01</ele>
        <time>2015-08-17T07:30:07Z</time>
      </trkpt>
      <trkpt lat="45.25023" lon="7.18172">
        <ele>1910.17</ele>
        <time>2015-08-17T07:30:08Z</time>
      </trkpt>
      <trkpt lat="45.25025" lon="7.18172">
        <ele>1910.36</ele>
        <time>2015-08-17T07:30:09Z</time>
      </trkpt>
      <trkpt lat="45.25026" lon="7.18172">
        <ele>1910.55</ele>
        <time>2015-08-17T07:30:10Z</time>
      </trkpt>
      <trkpt lat="45.25038" lon="7.18169">
        <ele>1912.15</ele>
        <time>2015-08-17T07:30:17Z</time>
      </trkpt>
      <trkpt lat="45.25041" lon="7.18166">
        <ele>1912.44</ele>
        <time>2015-08-17T07:30:19Z</time>
      </trkpt>
      <trkpt lat="45.25042" lon="7.18164">
        <ele>1912.58</ele>
        <time>2015-08-17T07:30:20Z</time>
      </trkpt>
      <trkpt lat="45.25043" lon="7.18162">
        <ele>1912.73</ele>
        <time>2015-08-17T07:30:21Z</time>
      </trkpt>
      <trkpt lat="45.25043" lon="7.18143">
        <ele>1913.79</ele>
        <time>2015-08-17T07:30:29Z</time>
      </trkpt>
      <trkpt lat="45.25037" lon="7.18128">
        <ele>1915.01</ele>
        <time>2015-08-17T07:30:37Z</time>
      </trkpt>
      <trkpt lat="45.25037" lon="7.1811">
        <ele>1916.06</ele>
        <time>2015-08-17T07:30:46Z</time>
      </trkpt>
      <trkpt lat="45.25042" lon="7.18093">
        <ele>1917.4</ele>
        <time>2015-08-17T07:30:55Z</time>
      </trkpt>
      <trkpt lat="45.25046" lon="7.18085">
        <ele>1918.21</ele>
        <time>2015-08-17T07:31:00Z</time>
      </trkpt>
      <trkpt lat="45.25046" lon="7.18082">
        <ele>1918.38</ele>
        <time>2015-08-17T07:31:01Z</time>
      </trkpt>
      <trkpt lat="45.25046" lon="7.1808">
        <ele>1918.73</ele>
        <time>2015-08-17T07:31:02Z</time>
      </trkpt>
      <trkpt lat="45.25046" lon="7.18079">
        <ele>1918.73</ele>
        <time>2015-08-17T07:31:03Z</time>
      </trkpt>
      <trkpt lat="45.25047" lon="7.18077">
        <ele>1919.07</ele>
        <time>2015-08-17T07:31:04Z</time>
      </trkpt>
      <trkpt lat="45.25047" lon="7.18075">
        <ele>1919.26</ele>
        <time>2015-08-17T07:31:05Z</time>
      </trkpt>
      <trkpt lat="45.25048" lon="7.18074">
        <ele>1919.49</ele>
        <time>2015-08-17T07:31:06Z</time>
      </trkpt>
      <trkpt lat="45.25048" lon="7.18059">
        <ele>1920.74</ele>
        <time>2015-08-17T07:31:13Z</time>
      </trkpt>
      <trkpt lat="45.25051" lon="7.1804">
        <ele>1922.42</ele>
        <time>2015-08-17T07:31:23Z</time>
      </trkpt>
      <trkpt lat="45.25049" lon="7.18028">
        <ele>1923.31</ele>
        <time>2015-08-17T07:31:29Z</time>
      </trkpt>
      <trkpt lat="45.25049" lon="7.18027">
        <ele>1923.47</ele>
        <time>2015-08-17T07:31:30Z</time>
      </trkpt>
      <trkpt lat="45.2505" lon="7.18025">
        <ele>1923.65</ele>
        <time>2015-08-17T07:31:31Z</time>
      </trkpt>
      <trkpt lat="45.2505" lon="7.18023">
        <ele>1923.8</ele>
        <time>2015-08-17T07:31:32Z</time>
      </trkpt>
      <trkpt lat="45.25051" lon="7.18022">
        <ele>1923.97</ele>
        <time>2015-08-17T07:31:33Z</time>
      </trkpt>
      <trkpt lat="45.25051" lon="7.1802">
        <ele>1924.17</ele>
        <time>2015-08-17T07:31:34Z</time>
      </trkpt>
      <trkpt lat="45.25052" lon="7.18018">
        <ele>1924.38</ele>
        <time>2015-08-17T07:31:35Z</time>
      </trkpt>
      <trkpt lat="45.25054" lon="7.18014">
        <ele>1925.42</ele>
        <time>2015-08-17T07:31:42Z</time>
      </trkpt>
      <trkpt lat="45.25051" lon="7.18015">
        <ele>1926.43</ele>
        <time>2015-08-17T07:32:03Z</time>
      </trkpt>
      <trkpt lat="45.25052" lon="7.18016">
        <ele>1926.82</ele>
        <time>2015-08-17T07:32:20Z</time>
      </trkpt>
      <trkpt lat="45.25054" lon="7.18016">
        <ele>1926.8</ele>
        <time>2015-08-17T07:32:21Z</time>
      </trkpt>
      <trkpt lat="45.25054" lon="7.18016">
        <ele>1926.79</ele>
        <time>2015-08-17T07:32:22Z</time>
      </trkpt>
      <trkpt lat="45.25054" lon="7.18014">
        <ele>1926.78</ele>
        <time>2015-08-17T07:32:23Z</time>
      </trkpt>
      <trkpt lat="45.25055" lon="7.18013">
        <ele>1926.77</ele>
        <time>2015-08-17T07:32:24Z</time>
      </trkpt>
      <trkpt lat="45.25056" lon="7.1801">
        <ele>1926.82</ele>
        <time>2015-08-17T07:32:26Z</time>
      </trkpt>
      <trkpt lat="45.25057" lon="7.18009">
        <ele>1926.86</ele>
        <time>2015-08-17T07:32:27Z</time>
      </trkpt>
      <trkpt lat="45.25058" lon="7.18008">
        <ele>1926.89</ele>
        <time>2015-08-17T07:32:28Z</time>
      </trkpt>
      <trkpt lat="45.25061" lon="7.18007">
        <ele>1926.97</ele>
        <time>2015-08-17T07:32:30Z</time>
      </trkpt>
      <trkpt lat="45.25062" lon="7.18007">
        <ele>1927.03</ele>
        <time>2015-08-17T07:32:31Z</time>
      </trkpt>
      <trkpt lat="45.25063" lon="7.18007">
        <ele>1927.13</ele>
        <time>2015-08-17T07:32:32Z</time>
      </trkpt>
      <trkpt lat="45.25072" lon="7.18008">
        <ele>1927.72</ele>
        <time>2015-08-17T07:32:38Z</time>
      </trkpt>
      <trkpt lat="45.25073" lon="7.18008">
        <ele>1927.79</ele>
        <time>2015-08-17T07:32:39Z</time>
      </trkpt>
      <trkpt lat="45.25076" lon="7.1801">
        <ele>1928.19</ele>
        <time>2015-08-17T07:32:42Z</time>
      </trkpt>
      <trkpt lat="45.25077" lon="7.18011">
        <ele>1928.3</ele>
        <time>2015-08-17T07:32:43Z</time>
      </trkpt>
      <trkpt lat="45.25077" lon="7.18013">
        <ele>1928.42</ele>
        <time>2015-08-17T07:32:44Z</time>
      </trkpt>
      <trkpt lat="45.25078" lon="7.18015">
        <ele>1928.53</ele>
        <time>2015-08-17T07:32:45Z</time>
      </trkpt>
      <trkpt lat="45.25078" lon="7.18016">
        <ele>1928.64</ele>
        <time>2015-08-17T07:32:46Z</time>
      </trkpt>
      <trkpt lat="45.2508" lon="7.18017">
        <ele>1928.79</ele>
        <time>2015-08-17T07:32:47Z</time>
      </trkpt>
      <trkpt lat="45.25082" lon="7.1802">
        <ele>1929.33</ele>
        <time>2015-08-17T07:32:50Z</time>
      </trkpt>
      <trkpt lat="45.25083" lon="7.18022">
        <ele>1929.47</ele>
        <time>2015-08-17T07:32:51Z</time>
      </trkpt>
      <trkpt lat="45.25084" lon="7.18023">
        <ele>1929.58</ele>
        <time>2015-08-17T07:32:52Z</time>
      </trkpt>
      <trkpt lat="45.25084" lon="7.18025">
        <ele>1929.67</ele>
        <time>2015-08-17T07:32:53Z</time>
      </trkpt>
      <trkpt lat="45.25085" lon="7.18026">
        <ele>1929.74</ele>
        <time>2015-08-17T07:32:54Z</time>
      </trkpt>
      <trkpt lat="45.25085" lon="7.18028">
        <ele>1929.81</ele>
        <time>2015-08-17T07:32:55Z</time>
      </trkpt>
      <trkpt lat="45.25085" lon="7.1803">
        <ele>1929.87</ele>
        <time>2015-08-17T07:32:56Z</time>
      </trkpt>
      <trkpt lat="45.25084" lon="7.18031">
        <ele>1929.97</ele>
        <time>2015-08-17T07:32:57Z</time>
      </trkpt>
      <trkpt lat="45.25084" lon="7.18033">
        <ele>1930.14</ele>
        <time>2015-08-17T07:32:58Z</time>
      </trkpt>
      <trkpt lat="45.25084" lon="7.18035">
        <ele>1930.35</ele>
        <time>2015-08-17T07:32:59Z</time>
      </trkpt>
      <trkpt lat="45.25084" lon="7.18048">
        <ele>1932.01</ele>
        <time>2015-08-17T07:33:07Z</time>
      </trkpt>
      <trkpt lat="45.25083" lon="7.18049">
        <ele>1932.17</ele>
        <time>2015-08-17T07:33:08Z</time>
      </trkpt>
      <trkpt lat="45.25082" lon="7.18051">
        <ele>1932.33</ele>
        <time>2015-08-17T07:33:09Z</time>
      </trkpt>
      <trkpt lat="45.25082" lon="7.18052">
        <ele>1932.48</ele>
        <time>2015-08-17T07:33:10Z</time>
      </trkpt>
      <trkpt lat="45.25082" lon="7.18054">
        <ele>1932.61</ele>
        <time>2015-08-17T07:33:11Z</time>
      </trkpt>
      <trkpt lat="45.25082" lon="7.18055">
        <ele>1932.75</ele>
        <time>2015-08-17T07:33:12Z</time>
      </trkpt>
      <trkpt lat="45.25083" lon="7.1806">
        <ele>1933.17</ele>
        <time>2015-08-17T07:33:15Z</time>
      </trkpt>
      <trkpt lat="45.25082" lon="7.18061">
        <ele>1933.34</ele>
        <time>2015-08-17T07:33:16Z</time>
      </trkpt>
      <trkpt lat="45.25081" lon="7.18062">
        <ele>1933.51</ele>
        <time>2015-08-17T07:33:17Z</time>
      </trkpt>
      <trkpt lat="45.2508" lon="7.18064">
        <ele>1933.64</ele>
        <time>2015-08-17T07:33:18Z</time>
      </trkpt>
      <trkpt lat="45.2508" lon="7.18065">
        <ele>1933.76</ele>
        <time>2015-08-17T07:33:19Z</time>
      </trkpt>
      <trkpt lat="45.2508" lon="7.18067">
        <ele>1933.86</ele>
        <time>2015-08-17T07:33:20Z</time>
      </trkpt>
      <trkpt lat="45.25081" lon="7.18068">
        <ele>1933.96</ele>
        <time>2015-08-17T07:33:21Z</time>
      </trkpt>
      <trkpt lat="45.25081" lon="7.18071">
        <ele>1934.17</ele>
        <time>2015-08-17T07:33:23Z</time>
      </trkpt>
      <trkpt lat="45.25081" lon="7.18073">
        <ele>1934.28</ele>
        <time>2015-08-17T07:33:24Z</time>
      </trkpt>
      <trkpt lat="45.25082" lon="7.18074">
        <ele>1934.4</ele>
        <time>2015-08-17T07:33:25Z</time>
      </trkpt>
      <trkpt lat="45.25082" lon="7.18081">
        <ele>1934.91</ele>
        <time>2015-08-17T07:33:29Z</time>
      </trkpt>
      <trkpt lat="45.25082" lon="7.18082">
        <ele>1935.04</ele>
        <time>2015-08-17T07:33:30Z</time>
      </trkpt>
      <trkpt lat="45.25081" lon="7.18084">
        <ele>1935.35</ele>
        <time>2015-08-17T07:33:31Z</time>
      </trkpt>
      <trkpt lat="45.25081" lon="7.18085">
        <ele>1935.52</ele>
        <time>2015-08-17T07:33:32Z</time>
      </trkpt>
      <trkpt lat="45.2508" lon="7.18087">
        <ele>1935.68</ele>
        <time>2015-08-17T07:33:33Z</time>
      </trkpt>
      <trkpt lat="45.2508" lon="7.18088">
        <ele>1935.83</ele>
        <time>2015-08-17T07:33:34Z</time>
      </trkpt>
      <trkpt lat="45.25081" lon="7.1809">
        <ele>1935.96</ele>
        <time>2015-08-17T07:33:35Z</time>
      </trkpt>
      <trkpt lat="45.25081" lon="7.18092">
        <ele>1936.1</ele>
        <time>2015-08-17T07:33:36Z</time>
      </trkpt>
      <trkpt lat="45.25081" lon="7.18093">
        <ele>1936.26</ele>
        <time>2015-08-17T07:33:37Z</time>
      </trkpt>
      <trkpt lat="45.25081" lon="7.18095">
        <ele>1936.41</ele>
        <time>2015-08-17T07:33:38Z</time>
      </trkpt>
      <trkpt lat="45.25081" lon="7.18097">
        <ele>1936.55</ele>
        <time>2015-08-17T07:33:39Z</time>
      </trkpt>
      <trkpt lat="45.2508" lon="7.18099">
        <ele>1936.7</ele>
        <time>2015-08-17T07:33:40Z</time>
      </trkpt>
      <trkpt lat="45.2508" lon="7.181">
        <ele>1936.84</ele>
        <time>2015-08-17T07:33:41Z</time>
      </trkpt>
      <trkpt lat="45.2508" lon="7.18102">
        <ele>1936.97</ele>
        <time>2015-08-17T07:33:42Z</time>
      </trkpt>
      <trkpt lat="45.2508" lon="7.18104">
        <ele>1937.1</ele>
        <time>2015-08-17T07:33:43Z</time>
      </trkpt>
      <trkpt lat="45.2508" lon="7.18106">
        <ele>1937.24</ele>
        <time>2015-08-17T07:33:44Z</time>
      </trkpt>
      <trkpt lat="45.2508" lon="7.18107">
        <ele>1937.38</ele>
        <time>2015-08-17T07:33:45Z</time>
      </trkpt>
      <trkpt lat="45.2508" lon="7.18109">
        <ele>1937.51</ele>
        <time>2015-08-17T07:33:46Z</time>
      </trkpt>
      <trkpt lat="45.25081" lon="7.18125">
        <ele>1939.18</ele>
        <time>2015-08-17T07:33:55Z</time>
      </trkpt>
      <trkpt lat="45.25082" lon="7.18141">
        <ele>1940.95</ele>
        <time>2015-08-17T07:34:04Z</time>
      </trkpt>
      <trkpt lat="45.25082" lon="7.18143">
        <ele>1941.08</ele>
        <time>2015-08-17T07:34:05Z</time>
      </trkpt>
      <trkpt lat="45.25083" lon="7.18144">
        <ele>1941.2</ele>
        <time>2015-08-17T07:34:06Z</time>
      </trkpt>
      <trkpt lat="45.25084" lon="7.18145">
        <ele>1941.34</ele>
        <time>2015-08-17T07:34:07Z</time>
      </trkpt>
      <trkpt lat="45.25085" lon="7.18147">
        <ele>1941.49</ele>
        <time>2015-08-17T07:34:08Z</time>
      </trkpt>
      <trkpt lat="45.25088" lon="7.18153">
        <ele>1942.05</ele>
        <time>2015-08-17T07:34:12Z</time>
      </trkpt>
      <trkpt lat="45.25089" lon="7.18155">
        <ele>1942.23</ele>
        <time>2015-08-17T07:34:13Z</time>
      </trkpt>
      <trkpt lat="45.2509" lon="7.18156">
        <ele>1942.42</ele>
        <time>2015-08-17T07:34:14Z</time>
      </trkpt>
      <trkpt lat="45.25091" lon="7.18157">
        <ele>1942.62</ele>
        <time>2015-08-17T07:34:15Z</time>
      </trkpt>
      <trkpt lat="45.25092" lon="7.18159">
        <ele>1942.79</ele>
        <time>2015-08-17T07:34:16Z</time>
      </trkpt>
      <trkpt lat="45.25096" lon="7.18167">
        <ele>1943.9</ele>
        <time>2015-08-17T07:34:24Z</time>
      </trkpt>
      <trkpt lat="45.25097" lon="7.18171">
        <ele>1944.4</ele>
        <time>2015-08-17T07:34:30Z</time>
      </trkpt>
      <trkpt lat="45.25096" lon="7.18174">
        <ele>1944.64</ele>
        <time>2015-08-17T07:34:39Z</time>
      </trkpt>
      <trkpt lat="45.25096" lon="7.18174">
        <ele>1944.69</ele>
        <time>2015-08-17T07:34:53Z</time>
      </trkpt>
      <trkpt lat="45.25096" lon="7.18172">
        <ele>1944.58</ele>
        <time>2015-08-17T07:35:17Z</time>
      </trkpt>
      <trkpt lat="45.25095" lon="7.18168">
        <ele>1944.49</ele>
        <time>2015-08-17T07:35:25Z</time>
      </trkpt>
      <trkpt lat="45.25096" lon="7.18165">
        <ele>1944.47</ele>
        <time>2015-08-17T07:35:27Z</time>
      </trkpt>
      <trkpt lat="45.25097" lon="7.18164">
        <ele>1944.45</ele>
        <time>2015-08-17T07:35:28Z</time>
      </trkpt>
      <trkpt lat="45.25098" lon="7.18161">
        <ele>1944.43</ele>
        <time>2015-08-17T07:35:30Z</time>
      </trkpt>
      <trkpt lat="45.25099" lon="7.1816">
        <ele>1944.41</ele>
        <time>2015-08-17T07:35:31Z</time>
      </trkpt>
      <trkpt lat="45.25101" lon="7.18153">
        <ele>1944.53</ele>
        <time>2015-08-17T07:35:36Z</time>
      </trkpt>
      <trkpt lat="45.25102" lon="7.18151">
        <ele>1944.56</ele>
        <time>2015-08-17T07:35:37Z</time>
      </trkpt>
      <trkpt lat="45.25102" lon="7.1814">
        <ele>1944.9</ele>
        <time>2015-08-17T07:35:46Z</time>
      </trkpt>
      <trkpt lat="45.25105" lon="7.18137">
        <ele>1945.37</ele>
        <time>2015-08-17T07:35:54Z</time>
      </trkpt>
      <trkpt lat="45.25108" lon="7.18135">
        <ele>1945.51</ele>
        <time>2015-08-17T07:35:57Z</time>
      </trkpt>
      <trkpt lat="45.25108" lon="7.18134">
        <ele>1945.57</ele>
        <time>2015-08-17T07:35:58Z</time>
      </trkpt>
      <trkpt lat="45.25109" lon="7.18131">
        <ele>1945.75</ele>
        <time>2015-08-17T07:36:00Z</time>
      </trkpt>
      <trkpt lat="45.25112" lon="7.18117">
        <ele>1947.09</ele>
        <time>2015-08-17T07:36:09Z</time>
      </trkpt>
      <trkpt lat="45.25113" lon="7.18116">
        <ele>1947.29</ele>
        <time>2015-08-17T07:36:10Z</time>
      </trkpt>
      <trkpt lat="45.25114" lon="7.18115">
        <ele>1947.48</ele>
        <time>2015-08-17T07:36:11Z</time>
      </trkpt>
      <trkpt lat="45.25115" lon="7.18114">
        <ele>1947.65</ele>
        <time>2015-08-17T07:36:12Z</time>
      </trkpt>
      <trkpt lat="45.25116" lon="7.18112">
        <ele>1947.81</ele>
        <time>2015-08-17T07:36:13Z</time>
      </trkpt>
      <trkpt lat="45.25116" lon="7.1811">
        <ele>1947.97</ele>
        <time>2015-08-17T07:36:14Z</time>
      </trkpt>
      <trkpt lat="45.25117" lon="7.18109">
        <ele>1948.14</ele>
        <time>2015-08-17T07:36:15Z</time>
      </trkpt>
      <trkpt lat="45.25118" lon="7.18107">
        <ele>1948.35</ele>
        <time>2015-08-17T07:36:16Z</time>
      </trkpt>
      <trkpt lat="45.25119" lon="7.18106">
        <ele>1948.55</ele>
        <time>2015-08-17T07:36:17Z</time>
      </trkpt>
      <trkpt lat="45.25119" lon="7.18105">
        <ele>1948.74</ele>
        <time>2015-08-17T07:36:18Z</time>
      </trkpt>
      <trkpt lat="45.2512" lon="7.18104">
        <ele>1948.93</ele>
        <time>2015-08-17T07:36:19Z</time>
      </trkpt>
      <trkpt lat="45.25121" lon="7.18103">
        <ele>1949.17</ele>
        <time>2015-08-17T07:36:20Z</time>
      </trkpt>
      <trkpt lat="45.25128" lon="7.18099">
        <ele>1951.1</ele>
        <time>2015-08-17T07:36:28Z</time>
      </trkpt>
      <trkpt lat="45.25134" lon="7.18096">
        <ele>1952.31</ele>
        <time>2015-08-17T07:36:35Z</time>
      </trkpt>
      <trkpt lat="45.25141" lon="7.18091">
        <ele>1953.31</ele>
        <time>2015-08-17T07:36:42Z</time>
      </trkpt>
      <trkpt lat="45.25142" lon="7.18091">
        <ele>1953.46</ele>
        <time>2015-08-17T07:36:43Z</time>
      </trkpt>
      <trkpt lat="45.25144" lon="7.18089">
        <ele>1953.75</ele>
        <time>2015-08-17T07:36:45Z</time>
      </trkpt>
      <trkpt lat="45.25149" lon="7.18078">
        <ele>1955.77</ele>
        <time>2015-08-17T07:36:54Z</time>
      </trkpt>
      <trkpt lat="45.2515" lon="7.18077">
        <ele>1956</ele>
        <time>2015-08-17T07:36:55Z</time>
      </trkpt>
      <trkpt lat="45.25152" lon="7.18077">
        <ele>1956.19</ele>
        <time>2015-08-17T07:36:56Z</time>
      </trkpt>
      <trkpt lat="45.25157" lon="7.18075">
        <ele>1957.03</ele>
        <time>2015-08-17T07:37:01Z</time>
      </trkpt>
      <trkpt lat="45.25161" lon="7.18072">
        <ele>1957.81</ele>
        <time>2015-08-17T07:37:05Z</time>
      </trkpt>
      <trkpt lat="45.25162" lon="7.18072">
        <ele>1958.03</ele>
        <time>2015-08-17T07:37:06Z</time>
      </trkpt>
      <trkpt lat="45.25164" lon="7.18072">
        <ele>1958.25</ele>
        <time>2015-08-17T07:37:07Z</time>
      </trkpt>
      <trkpt lat="45.25165" lon="7.18071">
        <ele>1958.46</ele>
        <time>2015-08-17T07:37:08Z</time>
      </trkpt>
      <trkpt lat="45.25166" lon="7.18071">
        <ele>1958.68</ele>
        <time>2015-08-17T07:37:09Z</time>
      </trkpt>
      <trkpt lat="45.25176" lon="7.1807">
        <ele>1959.78</ele>
        <time>2015-08-17T07:37:16Z</time>
      </trkpt>
      <trkpt lat="45.2519" lon="7.18071">
        <ele>1960.73</ele>
        <time>2015-08-17T07:37:26Z</time>
      </trkpt>
      <trkpt lat="45.25198" lon="7.18076">
        <ele>1961.6</ele>
        <time>2015-08-17T07:37:34Z</time>
      </trkpt>
      <trkpt lat="45.25209" lon="7.18085">
        <ele>1962.69</ele>
        <time>2015-08-17T07:37:43Z</time>
      </trkpt>
      <trkpt lat="45.25213" lon="7.18086">
        <ele>1963.12</ele>
        <time>2015-08-17T07:37:46Z</time>
      </trkpt>
      <trkpt lat="45.25214" lon="7.18086">
        <ele>1963.21</ele>
        <time>2015-08-17T07:37:47Z</time>
      </trkpt>
      <trkpt lat="45.25216" lon="7.18085">
        <ele>1963.3</ele>
        <time>2015-08-17T07:37:48Z</time>
      </trkpt>
      <trkpt lat="45.25218" lon="7.18082">
        <ele>1963.39</ele>
        <time>2015-08-17T07:37:49Z</time>
      </trkpt>
      <trkpt lat="45.25219" lon="7.18081">
        <ele>1963.46</ele>
        <time>2015-08-17T07:37:50Z</time>
      </trkpt>
      <trkpt lat="45.2522" lon="7.18079">
        <ele>1963.53</ele>
        <time>2015-08-17T07:37:51Z</time>
      </trkpt>
      <trkpt lat="45.25221" lon="7.18076">
        <ele>1963.58</ele>
        <time>2015-08-17T07:37:52Z</time>
      </trkpt>
      <trkpt lat="45.25222" lon="7.18074">
        <ele>1963.64</ele>
        <time>2015-08-17T07:37:53Z</time>
      </trkpt>
      <trkpt lat="45.25223" lon="7.18072">
        <ele>1963.71</ele>
        <time>2015-08-17T07:37:54Z</time>
      </trkpt>
      <trkpt lat="45.25224" lon="7.18069">
        <ele>1963.81</ele>
        <time>2015-08-17T07:37:55Z</time>
      </trkpt>
      <trkpt lat="45.25228" lon="7.18057">
        <ele>1964.44</ele>
        <time>2015-08-17T07:38:01Z</time>
      </trkpt>
      <trkpt lat="45.25229" lon="7.18054">
        <ele>1964.53</ele>
        <time>2015-08-17T07:38:02Z</time>
      </trkpt>
      <trkpt lat="45.25229" lon="7.18052">
        <ele>1964.59</ele>
        <time>2015-08-17T07:38:03Z</time>
      </trkpt>
      <trkpt lat="45.25233" lon="7.18028">
        <ele>1965.42</ele>
        <time>2015-08-17T07:38:12Z</time>
      </trkpt>
      <trkpt lat="45.25235" lon="7.18023">
        <ele>1965.76</ele>
        <time>2015-08-17T07:38:15Z</time>
      </trkpt>
      <trkpt lat="45.25237" lon="7.1802">
        <ele>1965.94</ele>
        <time>2015-08-17T07:38:17Z</time>
      </trkpt>
      <trkpt lat="45.25237" lon="7.18018">
        <ele>1966.07</ele>
        <time>2015-08-17T07:38:18Z</time>
      </trkpt>
      <trkpt lat="45.25247" lon="7.18002">
        <ele>1967.43</ele>
        <time>2015-08-17T07:38:29Z</time>
      </trkpt>
      <trkpt lat="45.25248" lon="7.18001">
        <ele>1967.57</ele>
        <time>2015-08-17T07:38:30Z</time>
      </trkpt>
      <trkpt lat="45.25249" lon="7.18">
        <ele>1967.68</ele>
        <time>2015-08-17T07:38:31Z</time>
      </trkpt>
      <trkpt lat="45.2525" lon="7.17998">
        <ele>1967.92</ele>
        <time>2015-08-17T07:38:32Z</time>
      </trkpt>
      <trkpt lat="45.25251" lon="7.17997">
        <ele>1968.06</ele>
        <time>2015-08-17T07:38:33Z</time>
      </trkpt>
      <trkpt lat="45.25252" lon="7.17997">
        <ele>1968.22</ele>
        <time>2015-08-17T07:38:34Z</time>
      </trkpt>
      <trkpt lat="45.25253" lon="7.17996">
        <ele>1968.39</ele>
        <time>2015-08-17T07:38:35Z</time>
      </trkpt>
      <trkpt lat="45.25254" lon="7.17994">
        <ele>1968.57</ele>
        <time>2015-08-17T07:38:36Z</time>
      </trkpt>
      <trkpt lat="45.25255" lon="7.17993">
        <ele>1968.73</ele>
        <time>2015-08-17T07:38:37Z</time>
      </trkpt>
      <trkpt lat="45.25256" lon="7.17991">
        <ele>1968.9</ele>
        <time>2015-08-17T07:38:38Z</time>
      </trkpt>
      <trkpt lat="45.25266" lon="7.17982">
        <ele>1970.48</ele>
        <time>2015-08-17T07:38:47Z</time>
      </trkpt>
      <trkpt lat="45.25267" lon="7.17981">
        <ele>1970.67</ele>
        <time>2015-08-17T07:38:48Z</time>
      </trkpt>
      <trkpt lat="45.25268" lon="7.17979">
        <ele>1970.82</ele>
        <time>2015-08-17T07:38:49Z</time>
      </trkpt>
      <trkpt lat="45.25269" lon="7.17978">
        <ele>1970.96</ele>
        <time>2015-08-17T07:38:50Z</time>
      </trkpt>
      <trkpt lat="45.2527" lon="7.17977">
        <ele>1971.1</ele>
        <time>2015-08-17T07:38:51Z</time>
      </trkpt>
      <trkpt lat="45.25271" lon="7.17976">
        <ele>1971.26</ele>
        <time>2015-08-17T07:38:52Z</time>
      </trkpt>
      <trkpt lat="45.25272" lon="7.17975">
        <ele>1971.43</ele>
        <time>2015-08-17T07:38:53Z</time>
      </trkpt>
      <trkpt lat="45.2528" lon="7.17962">
        <ele>1973</ele>
        <time>2015-08-17T07:39:03Z</time>
      </trkpt>
      <trkpt lat="45.25285" lon="7.17961">
        <ele>1973.71</ele>
        <time>2015-08-17T07:39:08Z</time>
      </trkpt>
      <trkpt lat="45.25286" lon="7.17962">
        <ele>1973.87</ele>
        <time>2015-08-17T07:39:09Z</time>
      </trkpt>
      <trkpt lat="45.25287" lon="7.17963">
        <ele>1974.05</ele>
        <time>2015-08-17T07:39:10Z</time>
      </trkpt>
      <trkpt lat="45.25288" lon="7.17965">
        <ele>1974.22</ele>
        <time>2015-08-17T07:39:11Z</time>
      </trkpt>
      <trkpt lat="45.25289" lon="7.17966">
        <ele>1974.39</ele>
        <time>2015-08-17T07:39:12Z</time>
      </trkpt>
      <trkpt lat="45.2529" lon="7.17967">
        <ele>1974.55</ele>
        <time>2015-08-17T07:39:13Z</time>
      </trkpt>
      <trkpt lat="45.25291" lon="7.17969">
        <ele>1974.69</ele>
        <time>2015-08-17T07:39:14Z</time>
      </trkpt>
      <trkpt lat="45.25293" lon="7.17975">
        <ele>1975.32</ele>
        <time>2015-08-17T07:39:18Z</time>
      </trkpt>
      <trkpt lat="45.25292" lon="7.17976">
        <ele>1975.51</ele>
        <time>2015-08-17T07:39:19Z</time>
      </trkpt>
      <trkpt lat="45.25292" lon="7.17978">
        <ele>1975.68</ele>
        <time>2015-08-17T07:39:20Z</time>
      </trkpt>
      <trkpt lat="45.2529" lon="7.17985">
        <ele>1976.13</ele>
        <time>2015-08-17T07:39:24Z</time>
      </trkpt>
      <trkpt lat="45.25289" lon="7.17986">
        <ele>1976.27</ele>
        <time>2015-08-17T07:39:25Z</time>
      </trkpt>
      <trkpt lat="45.25284" lon="7.17992">
        <ele>1977.16</ele>
        <time>2015-08-17T07:39:31Z</time>
      </trkpt>
      <trkpt lat="45.25283" lon="7.17993">
        <ele>1977.36</ele>
        <time>2015-08-17T07:39:32Z</time>
      </trkpt>
      <trkpt lat="45.25282" lon="7.17994">
        <ele>1977.56</ele>
        <time>2015-08-17T07:39:33Z</time>
      </trkpt>
      <trkpt lat="45.25273" lon="7.17995">
        <ele>1978.55</ele>
        <time>2015-08-17T07:39:40Z</time>
      </trkpt>
      <trkpt lat="45.2527" lon="7.18001">
        <ele>1979.4</ele>
        <time>2015-08-17T07:39:45Z</time>
      </trkpt>
      <trkpt lat="45.25263" lon="7.18012">
        <ele>1980.71</ele>
        <time>2015-08-17T07:39:53Z</time>
      </trkpt>
      <trkpt lat="45.2526" lon="7.1802">
        <ele>1981.78</ele>
        <time>2015-08-17T07:39:59Z</time>
      </trkpt>
      <trkpt lat="45.25255" lon="7.18036">
        <ele>1983.13</ele>
        <time>2015-08-17T07:40:08Z</time>
      </trkpt>
      <trkpt lat="45.25253" lon="7.18048">
        <ele>1984.36</ele>
        <time>2015-08-17T07:40:16Z</time>
      </trkpt>
      <trkpt lat="45.25253" lon="7.1805">
        <ele>1984.55</ele>
        <time>2015-08-17T07:40:17Z</time>
      </trkpt>
      <trkpt lat="45.25261" lon="7.18059">
        <ele>1985.87</ele>
        <time>2015-08-17T07:40:25Z</time>
      </trkpt>
      <trkpt lat="45.25266" lon="7.18056">
        <ele>1986.45</ele>
        <time>2015-08-17T07:40:30Z</time>
      </trkpt>
      <trkpt lat="45.25268" lon="7.18049">
        <ele>1986.96</ele>
        <time>2015-08-17T07:40:34Z</time>
      </trkpt>
      <trkpt lat="45.25271" lon="7.18038">
        <ele>1987.77</ele>
        <time>2015-08-17T07:40:40Z</time>
      </trkpt>
      <trkpt lat="45.25279" lon="7.18034">
        <ele>1988.82</ele>
        <time>2015-08-17T07:40:47Z</time>
      </trkpt>
      <trkpt lat="45.2528" lon="7.18026">
        <ele>1989.53</ele>
        <time>2015-08-17T07:40:52Z</time>
      </trkpt>
      <trkpt lat="45.25281" lon="7.18023">
        <ele>1989.75</ele>
        <time>2015-08-17T07:40:54Z</time>
      </trkpt>
      <trkpt lat="45.25289" lon="7.18016">
        <ele>1990.87</ele>
        <time>2015-08-17T07:41:02Z</time>
      </trkpt>
      <trkpt lat="45.25294" lon="7.18011">
        <ele>1991.86</ele>
        <time>2015-08-17T07:41:08Z</time>
      </trkpt>
      <trkpt lat="45.25295" lon="7.18008">
        <ele>1992.14</ele>
        <time>2015-08-17T07:41:10Z</time>
      </trkpt>
      <trkpt lat="45.25297" lon="7.18007">
        <ele>1992.49</ele>
        <time>2015-08-17T07:41:12Z</time>
      </trkpt>
      <trkpt lat="45.2531" lon="7.18002">
        <ele>1994.33</ele>
        <time>2015-08-17T07:41:23Z</time>
      </trkpt>
      <trkpt lat="45.25316" lon="7.18002">
        <ele>1995.25</ele>
        <time>2015-08-17T07:41:28Z</time>
      </trkpt>
      <trkpt lat="45.25324" lon="7.18004">
        <ele>1996.32</ele>
        <time>2015-08-17T07:41:37Z</time>
      </trkpt>
      <trkpt lat="45.25325" lon="7.18002">
        <ele>1997.12</ele>
        <time>2015-08-17T07:41:44Z</time>
      </trkpt>
      <trkpt lat="45.25325" lon="7.18002">
        <ele>1997.54</ele>
        <time>2015-08-17T07:42:13Z</time>
      </trkpt>
      <trkpt lat="45.25325" lon="7.18002">
        <ele>1997.89</ele>
        <time>2015-08-17T07:42:37Z</time>
      </trkpt>
      <trkpt lat="45.25324" lon="7.18004">
        <ele>1997.97</ele>
        <time>2015-08-17T07:43:04Z</time>
      </trkpt>
      <trkpt lat="45.25326" lon="7.18007">
        <ele>1998.3</ele>
        <time>2015-08-17T07:43:15Z</time>
      </trkpt>
      <trkpt lat="45.25333" lon="7.18003">
        <ele>1998.57</ele>
        <time>2015-08-17T07:43:21Z</time>
      </trkpt>
      <trkpt lat="45.25344" lon="7.18002">
        <ele>1999.37</ele>
        <time>2015-08-17T07:43:29Z</time>
      </trkpt>
      <trkpt lat="45.25356" lon="7.17995">
        <ele>2001.22</ele>
        <time>2015-08-17T07:43:38Z</time>
      </trkpt>
      <trkpt lat="45.25362" lon="7.17992">
        <ele>2002.01</ele>
        <time>2015-08-17T07:43:43Z</time>
      </trkpt>
      <trkpt lat="45.2537" lon="7.18001">
        <ele>2003.17</ele>
        <time>2015-08-17T07:43:50Z</time>
      </trkpt>
      <trkpt lat="45.25369" lon="7.18014">
        <ele>2004.71</ele>
        <time>2015-08-17T07:43:58Z</time>
      </trkpt>
      <trkpt lat="45.25368" lon="7.18018">
        <ele>2005.13</ele>
        <time>2015-08-17T07:44:00Z</time>
      </trkpt>
      <trkpt lat="45.25356" lon="7.18023">
        <ele>2006.71</ele>
        <time>2015-08-17T07:44:09Z</time>
      </trkpt>
      <trkpt lat="45.25346" lon="7.18026">
        <ele>2007.52</ele>
        <time>2015-08-17T07:44:18Z</time>
      </trkpt>
      <trkpt lat="45.25338" lon="7.18028">
        <ele>2008.45</ele>
        <time>2015-08-17T07:44:26Z</time>
      </trkpt>
      <trkpt lat="45.25336" lon="7.18029">
        <ele>2008.6</ele>
        <time>2015-08-17T07:44:28Z</time>
      </trkpt>
      <trkpt lat="45.25327" lon="7.18034">
        <ele>2009.88</ele>
        <time>2015-08-17T07:44:37Z</time>
      </trkpt>
      <trkpt lat="45.25321" lon="7.1804">
        <ele>2010.81</ele>
        <time>2015-08-17T07:44:44Z</time>
      </trkpt>
      <trkpt lat="45.25318" lon="7.18045">
        <ele>2011.29</ele>
        <time>2015-08-17T07:44:48Z</time>
      </trkpt>
      <trkpt lat="45.25313" lon="7.18048">
        <ele>2011.92</ele>
        <time>2015-08-17T07:44:52Z</time>
      </trkpt>
      <trkpt lat="45.25309" lon="7.18056">
        <ele>2013.04</ele>
        <time>2015-08-17T07:44:58Z</time>
      </trkpt>
      <trkpt lat="45.25302" lon="7.1806">
        <ele>2014.05</ele>
        <time>2015-08-17T07:45:05Z</time>
      </trkpt>
      <trkpt lat="45.25301" lon="7.18065">
        <ele>2014.37</ele>
        <time>2015-08-17T07:45:08Z</time>
      </trkpt>
      <trkpt lat="45.25295" lon="7.18069">
        <ele>2015.27</ele>
        <time>2015-08-17T07:45:14Z</time>
      </trkpt>
      <trkpt lat="45.25294" lon="7.18074">
        <ele>2015.72</ele>
        <time>2015-08-17T07:45:17Z</time>
      </trkpt>
      <trkpt lat="45.25286" lon="7.18084">
        <ele>2017.18</ele>
        <time>2015-08-17T07:45:26Z</time>
      </trkpt>
      <trkpt lat="45.25285" lon="7.18085">
        <ele>2017.34</ele>
        <time>2015-08-17T07:45:27Z</time>
      </trkpt>
      <trkpt lat="45.25278" lon="7.18094">
        <ele>2018.68</ele>
        <time>2015-08-17T07:45:35Z</time>
      </trkpt>
      <trkpt lat="45.25271" lon="7.181">
        <ele>2019.97</ele>
        <time>2015-08-17T07:45:43Z</time>
      </trkpt>
      <trkpt lat="45.2527" lon="7.18106">
        <ele>2020.43</ele>
        <time>2015-08-17T07:45:47Z</time>
      </trkpt>
      <trkpt lat="45.25265" lon="7.18115">
        <ele>2021.49</ele>
        <time>2015-08-17T07:45:54Z</time>
      </trkpt>
      <trkpt lat="45.25265" lon="7.18121">
        <ele>2021.99</ele>
        <time>2015-08-17T07:45:58Z</time>
      </trkpt>
      <trkpt lat="45.25263" lon="7.18127">
        <ele>2022.52</ele>
        <time>2015-08-17T07:46:02Z</time>
      </trkpt>
      <trkpt lat="45.2526" lon="7.18136">
        <ele>2023.41</ele>
        <time>2015-08-17T07:46:09Z</time>
      </trkpt>
      <trkpt lat="45.25256" lon="7.18149">
        <ele>2024.76</ele>
        <time>2015-08-17T07:46:18Z</time>
      </trkpt>
      <trkpt lat="45.25252" lon="7.18153">
        <ele>2025.44</ele>
        <time>2015-08-17T07:46:22Z</time>
      </trkpt>
      <trkpt lat="45.25251" lon="7.18159">
        <ele>2026.25</ele>
        <time>2015-08-17T07:46:26Z</time>
      </trkpt>
      <trkpt lat="45.25245" lon="7.18173">
        <ele>2027.69</ele>
        <time>2015-08-17T07:46:36Z</time>
      </trkpt>
      <trkpt lat="45.25238" lon="7.18185">
        <ele>2028.55</ele>
        <time>2015-08-17T07:46:45Z</time>
      </trkpt>
      <trkpt lat="45.25231" lon="7.18195">
        <ele>2030.03</ele>
        <time>2015-08-17T07:46:53Z</time>
      </trkpt>
      <trkpt lat="45.25223" lon="7.18204">
        <ele>2030.66</ele>
        <time>2015-08-17T07:47:02Z</time>
      </trkpt>
      <trkpt lat="45.2522" lon="7.18208">
        <ele>2031.13</ele>
        <time>2015-08-17T07:47:06Z</time>
      </trkpt>
      <trkpt lat="45.25214" lon="7.18217">
        <ele>2031.93</ele>
        <time>2015-08-17T07:47:13Z</time>
      </trkpt>
      <trkpt lat="45.25203" lon="7.18228">
        <ele>2033.24</ele>
        <time>2015-08-17T07:47:24Z</time>
      </trkpt>
      <trkpt lat="45.252" lon="7.1824">
        <ele>2034.01</ele>
        <time>2015-08-17T07:47:30Z</time>
      </trkpt>
      <trkpt lat="45.2521" lon="7.18251">
        <ele>2034.8</ele>
        <time>2015-08-17T07:47:39Z</time>
      </trkpt>
      <trkpt lat="45.25214" lon="7.18249">
        <ele>2035.24</ele>
        <time>2015-08-17T07:47:42Z</time>
      </trkpt>
      <trkpt lat="45.25222" lon="7.18242">
        <ele>2036</ele>
        <time>2015-08-17T07:47:49Z</time>
      </trkpt>
      <trkpt lat="45.25226" lon="7.18234">
        <ele>2036.64</ele>
        <time>2015-08-17T07:47:54Z</time>
      </trkpt>
      <trkpt lat="45.25228" lon="7.1823">
        <ele>2037.14</ele>
        <time>2015-08-17T07:47:57Z</time>
      </trkpt>
      <trkpt lat="45.25236" lon="7.18226">
        <ele>2038.39</ele>
        <time>2015-08-17T07:48:05Z</time>
      </trkpt>
      <trkpt lat="45.25234" lon="7.18226">
        <ele>2039.02</ele>
        <time>2015-08-17T07:48:20Z</time>
      </trkpt>
      <trkpt lat="45.25238" lon="7.18228">
        <ele>2039.12</ele>
        <time>2015-08-17T07:48:45Z</time>
      </trkpt>
      <trkpt lat="45.25241" lon="7.18227">
        <ele>2039.23</ele>
        <time>2015-08-17T07:48:47Z</time>
      </trkpt>
      <trkpt lat="45.25246" lon="7.18222">
        <ele>2039.53</ele>
        <time>2015-08-17T07:48:51Z</time>
      </trkpt>
      <trkpt lat="45.25261" lon="7.18209">
        <ele>2041.28</ele>
        <time>2015-08-17T07:49:02Z</time>
      </trkpt>
      <trkpt lat="45.25272" lon="7.18201">
        <ele>2042.76</ele>
        <time>2015-08-17T07:49:10Z</time>
      </trkpt>
      <trkpt lat="45.25285" lon="7.18192">
        <ele>2044.81</ele>
        <time>2015-08-17T07:49:21Z</time>
      </trkpt>
      <trkpt lat="45.25295" lon="7.18184">
        <ele>2046.43</ele>
        <time>2015-08-17T07:49:30Z</time>
      </trkpt>
      <trkpt lat="45.25298" lon="7.18182">
        <ele>2046.71</ele>
        <time>2015-08-17T07:49:32Z</time>
      </trkpt>
      <trkpt lat="45.25308" lon="7.18177">
        <ele>2048.07</ele>
        <time>2015-08-17T07:49:41Z</time>
      </trkpt>
      <trkpt lat="45.25311" lon="7.18175">
        <ele>2048.48</ele>
        <time>2015-08-17T07:49:44Z</time>
      </trkpt>
      <trkpt lat="45.25314" lon="7.18172">
        <ele>2049.13</ele>
        <time>2015-08-17T07:49:47Z</time>
      </trkpt>
      <trkpt lat="45.25319" lon="7.18172">
        <ele>2049.74</ele>
        <time>2015-08-17T07:49:51Z</time>
      </trkpt>
      <trkpt lat="45.25328" lon="7.18179">
        <ele>2050.72</ele>
        <time>2015-08-17T07:50:00Z</time>
      </trkpt>
      <trkpt lat="45.2533" lon="7.18187">
        <ele>2051.4</ele>
        <time>2015-08-17T07:50:05Z</time>
      </trkpt>
      <trkpt lat="45.25328" lon="7.18203">
        <ele>2052.82</ele>
        <time>2015-08-17T07:50:15Z</time>
      </trkpt>
      <trkpt lat="45.25322" lon="7.18217">
        <ele>2054.22</ele>
        <time>2015-08-17T07:50:25Z</time>
      </trkpt>
      <trkpt lat="45.25318" lon="7.18224">
        <ele>2055.43</ele>
        <time>2015-08-17T07:50:33Z</time>
      </trkpt>
      <trkpt lat="45.25315" lon="7.18224">
        <ele>2055.95</ele>
        <time>2015-08-17T07:50:37Z</time>
      </trkpt>
      <trkpt lat="45.2531" lon="7.18229">
        <ele>2056.78</ele>
        <time>2015-08-17T07:50:44Z</time>
      </trkpt>
      <trkpt lat="45.25303" lon="7.18239">
        <ele>2057.81</ele>
        <time>2015-08-17T07:50:54Z</time>
      </trkpt>
      <trkpt lat="45.25296" lon="7.18249">
        <ele>2059.26</ele>
        <time>2015-08-17T07:51:04Z</time>
      </trkpt>
      <trkpt lat="45.25291" lon="7.18259">
        <ele>2060.28</ele>
        <time>2015-08-17T07:51:13Z</time>
      </trkpt>
      <trkpt lat="45.25286" lon="7.18271">
        <ele>2061.54</ele>
        <time>2015-08-17T07:51:22Z</time>
      </trkpt>
      <trkpt lat="45.2528" lon="7.18278">
        <ele>2062.62</ele>
        <time>2015-08-17T07:51:30Z</time>
      </trkpt>
      <trkpt lat="45.25275" lon="7.18281">
        <ele>2063.55</ele>
        <time>2015-08-17T07:51:36Z</time>
      </trkpt>
      <trkpt lat="45.25267" lon="7.18292">
        <ele>2064.92</ele>
        <time>2015-08-17T07:51:47Z</time>
      </trkpt>
      <trkpt lat="45.25261" lon="7.18301">
        <ele>2066.32</ele>
        <time>2015-08-17T07:51:56Z</time>
      </trkpt>
      <trkpt lat="45.25254" lon="7.18311">
        <ele>2067.48</ele>
        <time>2015-08-17T07:52:06Z</time>
      </trkpt>
      <trkpt lat="45.2525" lon="7.18324">
        <ele>2068.36</ele>
        <time>2015-08-17T07:52:14Z</time>
      </trkpt>
      <trkpt lat="45.25255" lon="7.18335">
        <ele>2069.51</ele>
        <time>2015-08-17T07:52:21Z</time>
      </trkpt>
      <trkpt lat="45.25262" lon="7.18338">
        <ele>2070.65</ele>
        <time>2015-08-17T07:52:28Z</time>
      </trkpt>
      <trkpt lat="45.25269" lon="7.18333">
        <ele>2071.33</ele>
        <time>2015-08-17T07:52:34Z</time>
      </trkpt>
      <trkpt lat="45.25275" lon="7.18323">
        <ele>2072.26</ele>
        <time>2015-08-17T07:52:43Z</time>
      </trkpt>
      <trkpt lat="45.25277" lon="7.18321">
        <ele>2072.57</ele>
        <time>2015-08-17T07:52:46Z</time>
      </trkpt>
      <trkpt lat="45.2528" lon="7.18319">
        <ele>2072.8</ele>
        <time>2015-08-17T07:52:49Z</time>
      </trkpt>
      <trkpt lat="45.25289" lon="7.18308">
        <ele>2073.86</ele>
        <time>2015-08-17T07:53:00Z</time>
      </trkpt>
      <trkpt lat="45.25299" lon="7.183">
        <ele>2075.13</ele>
        <time>2015-08-17T07:53:10Z</time>
      </trkpt>
      <trkpt lat="45.2531" lon="7.18293">
        <ele>2076.44</ele>
        <time>2015-08-17T07:53:19Z</time>
      </trkpt>
      <trkpt lat="45.25322" lon="7.18285">
        <ele>2077.85</ele>
        <time>2015-08-17T07:53:30Z</time>
      </trkpt>
      <trkpt lat="45.25332" lon="7.1828">
        <ele>2078.93</ele>
        <time>2015-08-17T07:53:39Z</time>
      </trkpt>
      <trkpt lat="45.25341" lon="7.18274">
        <ele>2079.94</ele>
        <time>2015-08-17T07:53:47Z</time>
      </trkpt>
      <trkpt lat="45.25351" lon="7.18268">
        <ele>2081.05</ele>
        <time>2015-08-17T07:53:55Z</time>
      </trkpt>
      <trkpt lat="45.25358" lon="7.1826">
        <ele>2082.07</ele>
        <time>2015-08-17T07:54:03Z</time>
      </trkpt>
      <trkpt lat="45.25363" lon="7.18253">
        <ele>2082.87</ele>
        <time>2015-08-17T07:54:10Z</time>
      </trkpt>
      <trkpt lat="45.25366" lon="7.18246">
        <ele>2083.35</ele>
        <time>2015-08-17T07:54:15Z</time>
      </trkpt>
      <trkpt lat="45.2537" lon="7.18238">
        <ele>2084.1</ele>
        <time>2015-08-17T07:54:22Z</time>
      </trkpt>
      <trkpt lat="45.25374" lon="7.18229">
        <ele>2084.94</ele>
        <time>2015-08-17T07:54:29Z</time>
      </trkpt>
      <trkpt lat="45.2538" lon="7.18218">
        <ele>2085.9</ele>
        <time>2015-08-17T07:54:38Z</time>
      </trkpt>
      <trkpt lat="45.25388" lon="7.1821">
        <ele>2087.3</ele>
        <time>2015-08-17T07:54:47Z</time>
      </trkpt>
      <trkpt lat="45.25395" lon="7.182">
        <ele>2088.73</ele>
        <time>2015-08-17T07:54:56Z</time>
      </trkpt>
      <trkpt lat="45.25404" lon="7.18191">
        <ele>2089.98</ele>
        <time>2015-08-17T07:55:05Z</time>
      </trkpt>
      <trkpt lat="45.25411" lon="7.18184">
        <ele>2091.18</ele>
        <time>2015-08-17T07:55:13Z</time>
      </trkpt>
      <trkpt lat="45.2542" lon="7.18179">
        <ele>2092.51</ele>
        <time>2015-08-17T07:55:22Z</time>
      </trkpt>
      <trkpt lat="45.25425" lon="7.18176">
        <ele>2093.42</ele>
        <time>2015-08-17T07:55:27Z</time>
      </trkpt>
      <trkpt lat="45.25427" lon="7.18175">
        <ele>2093.7</ele>
        <time>2015-08-17T07:55:29Z</time>
      </trkpt>
      <trkpt lat="45.25439" lon="7.18169">
        <ele>2095.41</ele>
        <time>2015-08-17T07:55:40Z</time>
      </trkpt>
      <trkpt lat="45.25445" lon="7.18166">
        <ele>2096.29</ele>
        <time>2015-08-17T07:55:46Z</time>
      </trkpt>
      <trkpt lat="45.25446" lon="7.18164">
        <ele>2096.64</ele>
        <time>2015-08-17T07:55:48Z</time>
      </trkpt>
      <trkpt lat="45.2545" lon="7.18165">
        <ele>2097.19</ele>
        <time>2015-08-17T07:55:52Z</time>
      </trkpt>
      <trkpt lat="45.25458" lon="7.18158">
        <ele>2098.88</ele>
        <time>2015-08-17T07:56:00Z</time>
      </trkpt>
      <trkpt lat="45.25464" lon="7.18152">
        <ele>2100.1</ele>
        <time>2015-08-17T07:56:08Z</time>
      </trkpt>
      <trkpt lat="45.25469" lon="7.18147">
        <ele>2100.84</ele>
        <time>2015-08-17T07:56:14Z</time>
      </trkpt>
      <trkpt lat="45.25478" lon="7.1814">
        <ele>2102.3</ele>
        <time>2015-08-17T07:56:23Z</time>
      </trkpt>
      <trkpt lat="45.2548" lon="7.18139">
        <ele>2102.95</ele>
        <time>2015-08-17T07:56:27Z</time>
      </trkpt>
      <trkpt lat="45.25486" lon="7.18135">
        <ele>2103.91</ele>
        <time>2015-08-17T07:56:33Z</time>
      </trkpt>
      <trkpt lat="45.25492" lon="7.18132">
        <ele>2104.8</ele>
        <time>2015-08-17T07:56:40Z</time>
      </trkpt>
      <trkpt lat="45.25494" lon="7.18129">
        <ele>2105.59</ele>
        <time>2015-08-17T07:56:44Z</time>
      </trkpt>
      <trkpt lat="45.25499" lon="7.18127">
        <ele>2106.2</ele>
        <time>2015-08-17T07:56:49Z</time>
      </trkpt>
      <trkpt lat="45.25501" lon="7.1812">
        <ele>2106.64</ele>
        <time>2015-08-17T07:56:54Z</time>
      </trkpt>
      <trkpt lat="45.2551" lon="7.18112">
        <ele>2107.99</ele>
        <time>2015-08-17T07:57:03Z</time>
      </trkpt>
      <trkpt lat="45.25519" lon="7.18105">
        <ele>2109.85</ele>
        <time>2015-08-17T07:57:13Z</time>
      </trkpt>
      <trkpt lat="45.25526" lon="7.18099">
        <ele>2111.02</ele>
        <time>2015-08-17T07:57:20Z</time>
      </trkpt>
      <trkpt lat="45.25527" lon="7.18098">
        <ele>2111.17</ele>
        <time>2015-08-17T07:57:21Z</time>
      </trkpt>
      <trkpt lat="45.25531" lon="7.18093">
        <ele>2111.92</ele>
        <time>2015-08-17T07:57:26Z</time>
      </trkpt>
      <trkpt lat="45.2554" lon="7.18087">
        <ele>2113.33</ele>
        <time>2015-08-17T07:57:35Z</time>
      </trkpt>
      <trkpt lat="45.25548" lon="7.18081">
        <ele>2114.76</ele>
        <time>2015-08-17T07:57:43Z</time>
      </trkpt>
      <trkpt lat="45.25558" lon="7.18075">
        <ele>2116.03</ele>
        <time>2015-08-17T07:57:51Z</time>
      </trkpt>
      <trkpt lat="45.25566" lon="7.1806">
        <ele>2117.97</ele>
        <time>2015-08-17T07:58:02Z</time>
      </trkpt>
      <trkpt lat="45.25567" lon="7.18055">
        <ele>2118.44</ele>
        <time>2015-08-17T07:58:05Z</time>
      </trkpt>
      <trkpt lat="45.25568" lon="7.1805">
        <ele>2118.75</ele>
        <time>2015-08-17T07:58:08Z</time>
      </trkpt>
      <trkpt lat="45.25569" lon="7.18032">
        <ele>2119.87</ele>
        <time>2015-08-17T07:58:18Z</time>
      </trkpt>
      <trkpt lat="45.25571" lon="7.18015">
        <ele>2120.72</ele>
        <time>2015-08-17T07:58:28Z</time>
      </trkpt>
      <trkpt lat="45.25572" lon="7.18002">
        <ele>2121.15</ele>
        <time>2015-08-17T07:58:36Z</time>
      </trkpt>
      <trkpt lat="45.25571" lon="7.17984">
        <ele>2121.79</ele>
        <time>2015-08-17T07:58:44Z</time>
      </trkpt>
      <trkpt lat="45.25569" lon="7.17977">
        <ele>2122.06</ele>
        <time>2015-08-17T07:58:48Z</time>
      </trkpt>
      <trkpt lat="45.25568" lon="7.17966">
        <ele>2122.33</ele>
        <time>2015-08-17T07:58:54Z</time>
      </trkpt>
      <trkpt lat="45.25564" lon="7.17947">
        <ele>2122.7</ele>
        <time>2015-08-17T07:59:03Z</time>
      </trkpt>
      <trkpt lat="45.25559" lon="7.17925">
        <ele>2122.97</ele>
        <time>2015-08-17T07:59:13Z</time>
      </trkpt>
      <trkpt lat="45.2556" lon="7.17902">
        <ele>2123.32</ele>
        <time>2015-08-17T07:59:22Z</time>
      </trkpt>
      <trkpt lat="45.25564" lon="7.1788">
        <ele>2123.88</ele>
        <time>2015-08-17T07:59:30Z</time>
      </trkpt>
      <trkpt lat="45.25566" lon="7.17856">
        <ele>2124.62</ele>
        <time>2015-08-17T07:59:38Z</time>
      </trkpt>
      <trkpt lat="45.25565" lon="7.17833">
        <ele>2125.29</ele>
        <time>2015-08-17T07:59:46Z</time>
      </trkpt>
      <trkpt lat="45.25563" lon="7.17809">
        <ele>2126.33</ele>
        <time>2015-08-17T07:59:55Z</time>
      </trkpt>
      <trkpt lat="45.25561" lon="7.17806">
        <ele>2127</ele>
        <time>2015-08-17T08:00:02Z</time>
      </trkpt>
      <trkpt lat="45.25562" lon="7.17808">
        <ele>2126.95</ele>
        <time>2015-08-17T08:00:21Z</time>
      </trkpt>
      <trkpt lat="45.25561" lon="7.17808">
        <ele>2127.15</ele>
        <time>2015-08-17T08:00:56Z</time>
      </trkpt>
      <trkpt lat="45.25564" lon="7.17808">
        <ele>2127.2</ele>
        <time>2015-08-17T08:01:45Z</time>
      </trkpt>
      <trkpt lat="45.25563" lon="7.17808">
        <ele>2127.46</ele>
        <time>2015-08-17T08:02:29Z</time>
      </trkpt>
      <trkpt lat="45.25569" lon="7.17805">
        <ele>2128.07</ele>
        <time>2015-08-17T08:02:35Z</time>
      </trkpt>
      <trkpt lat="45.25576" lon="7.17801">
        <ele>2128.62</ele>
        <time>2015-08-17T08:02:41Z</time>
      </trkpt>
      <trkpt lat="45.25577" lon="7.17801">
        <ele>2128.69</ele>
        <time>2015-08-17T08:02:42Z</time>
      </trkpt>
      <trkpt lat="45.25584" lon="7.17802">
        <ele>2129.19</ele>
        <time>2015-08-17T08:02:49Z</time>
      </trkpt>
      <trkpt lat="45.25585" lon="7.17803">
        <ele>2129.31</ele>
        <time>2015-08-17T08:02:50Z</time>
      </trkpt>
      <trkpt lat="45.25589" lon="7.1781">
        <ele>2129.98</ele>
        <time>2015-08-17T08:02:56Z</time>
      </trkpt>
      <trkpt lat="45.25589" lon="7.17812">
        <ele>2130.29</ele>
        <time>2015-08-17T08:02:58Z</time>
      </trkpt>
      <trkpt lat="45.25592" lon="7.17827">
        <ele>2132.24</ele>
        <time>2015-08-17T08:03:09Z</time>
      </trkpt>
      <trkpt lat="45.25592" lon="7.17828">
        <ele>2132.37</ele>
        <time>2015-08-17T08:03:10Z</time>
      </trkpt>
      <trkpt lat="45.25591" lon="7.1783">
        <ele>2132.62</ele>
        <time>2015-08-17T08:03:12Z</time>
      </trkpt>
      <trkpt lat="45.2559" lon="7.17831">
        <ele>2132.78</ele>
        <time>2015-08-17T08:03:13Z</time>
      </trkpt>
      <trkpt lat="45.25589" lon="7.17832">
        <ele>2132.92</ele>
        <time>2015-08-17T08:03:14Z</time>
      </trkpt>
      <trkpt lat="45.25588" lon="7.17844">
        <ele>2134.1</ele>
        <time>2015-08-17T08:03:23Z</time>
      </trkpt>
      <trkpt lat="45.25586" lon="7.17854">
        <ele>2135.21</ele>
        <time>2015-08-17T08:03:32Z</time>
      </trkpt>
      <trkpt lat="45.25587" lon="7.17866">
        <ele>2136.52</ele>
        <time>2015-08-17T08:03:42Z</time>
      </trkpt>
      <trkpt lat="45.25587" lon="7.17876">
        <ele>2137.41</ele>
        <time>2015-08-17T08:03:49Z</time>
      </trkpt>
      <trkpt lat="45.25585" lon="7.17883">
        <ele>2138.59</ele>
        <time>2015-08-17T08:03:58Z</time>
      </trkpt>
      <trkpt lat="45.25585" lon="7.17883">
        <ele>2139.25</ele>
        <time>2015-08-17T08:04:10Z</time>
      </trkpt>
      <trkpt lat="45.25585" lon="7.17881">
        <ele>2139.43</ele>
        <time>2015-08-17T08:04:23Z</time>
      </trkpt>
      <trkpt lat="45.25583" lon="7.17885">
        <ele>2139.54</ele>
        <time>2015-08-17T08:04:38Z</time>
      </trkpt>
      <trkpt lat="45.25581" lon="7.179">
        <ele>2140.13</ele>
        <time>2015-08-17T08:04:45Z</time>
      </trkpt>
      <trkpt lat="45.25586" lon="7.17918">
        <ele>2142.03</ele>
        <time>2015-08-17T08:04:54Z</time>
      </trkpt>
      <trkpt lat="45.25588" lon="7.17923">
        <ele>2142.6</ele>
        <time>2015-08-17T08:04:57Z</time>
      </trkpt>
      <trkpt lat="45.25589" lon="7.17924">
        <ele>2143.02</ele>
        <time>2015-08-17T08:04:58Z</time>
      </trkpt>
      <trkpt lat="45.2559" lon="7.17926">
        <ele>2143.25</ele>
        <time>2015-08-17T08:04:59Z</time>
      </trkpt>
      <trkpt lat="45.25591" lon="7.17928">
        <ele>2143.5</ele>
        <time>2015-08-17T08:05:00Z</time>
      </trkpt>
      <trkpt lat="45.25592" lon="7.17929">
        <ele>2143.74</ele>
        <time>2015-08-17T08:05:01Z</time>
      </trkpt>
      <trkpt lat="45.25593" lon="7.1793">
        <ele>2143.96</ele>
        <time>2015-08-17T08:05:02Z</time>
      </trkpt>
      <trkpt lat="45.25594" lon="7.17931">
        <ele>2144.18</ele>
        <time>2015-08-17T08:05:03Z</time>
      </trkpt>
      <trkpt lat="45.25595" lon="7.17932">
        <ele>2144.39</ele>
        <time>2015-08-17T08:05:04Z</time>
      </trkpt>
      <trkpt lat="45.25606" lon="7.17942">
        <ele>2145.97</ele>
        <time>2015-08-17T08:05:12Z</time>
      </trkpt>
      <trkpt lat="45.25613" lon="7.17963">
        <ele>2148.03</ele>
        <time>2015-08-17T08:05:22Z</time>
      </trkpt>
      <trkpt lat="45.25613" lon="7.17971">
        <ele>2149.2</ele>
        <time>2015-08-17T08:05:26Z</time>
      </trkpt>
      <trkpt lat="45.25612" lon="7.17973">
        <ele>2149.4</ele>
        <time>2015-08-17T08:05:27Z</time>
      </trkpt>
      <trkpt lat="45.25611" lon="7.17975">
        <ele>2149.63</ele>
        <time>2015-08-17T08:05:28Z</time>
      </trkpt>
      <trkpt lat="45.2561" lon="7.17977">
        <ele>2149.85</ele>
        <time>2015-08-17T08:05:29Z</time>
      </trkpt>
      <trkpt lat="45.25609" lon="7.17979">
        <ele>2150.07</ele>
        <time>2015-08-17T08:05:30Z</time>
      </trkpt>
      <trkpt lat="45.25609" lon="7.17981">
        <ele>2150.27</ele>
        <time>2015-08-17T08:05:31Z</time>
      </trkpt>
      <trkpt lat="45.25609" lon="7.17982">
        <ele>2150.48</ele>
        <time>2015-08-17T08:05:32Z</time>
      </trkpt>
      <trkpt lat="45.25609" lon="7.17984">
        <ele>2150.66</ele>
        <time>2015-08-17T08:05:33Z</time>
      </trkpt>
      <trkpt lat="45.25609" lon="7.17987">
        <ele>2150.84</ele>
        <time>2015-08-17T08:05:34Z</time>
      </trkpt>
      <trkpt lat="45.25608" lon="7.17988">
        <ele>2151.04</ele>
        <time>2015-08-17T08:05:35Z</time>
      </trkpt>
      <trkpt lat="45.25608" lon="7.1799">
        <ele>2151.25</ele>
        <time>2015-08-17T08:05:36Z</time>
      </trkpt>
      <trkpt lat="45.25611" lon="7.18004">
        <ele>2152.79</ele>
        <time>2015-08-17T08:05:44Z</time>
      </trkpt>
      <trkpt lat="45.25617" lon="7.18006">
        <ele>2153.52</ele>
        <time>2015-08-17T08:05:49Z</time>
      </trkpt>
      <trkpt lat="45.25624" lon="7.18001">
        <ele>2154.48</ele>
        <time>2015-08-17T08:05:56Z</time>
      </trkpt>
      <trkpt lat="45.25629" lon="7.17996">
        <ele>2155.21</ele>
        <time>2015-08-17T08:06:01Z</time>
      </trkpt>
      <trkpt lat="45.25629" lon="7.17994">
        <ele>2155.36</ele>
        <time>2015-08-17T08:06:02Z</time>
      </trkpt>
      <trkpt lat="45.25633" lon="7.17978">
        <ele>2156.72</ele>
        <time>2015-08-17T08:06:10Z</time>
      </trkpt>
      <trkpt lat="45.25633" lon="7.17961">
        <ele>2158.06</ele>
        <time>2015-08-17T08:06:19Z</time>
      </trkpt>
      <trkpt lat="45.25631" lon="7.17945">
        <ele>2159.14</ele>
        <time>2015-08-17T08:06:28Z</time>
      </trkpt>
      <trkpt lat="45.25626" lon="7.17931">
        <ele>2160.28</ele>
        <time>2015-08-17T08:06:36Z</time>
      </trkpt>
      <trkpt lat="45.25619" lon="7.17915">
        <ele>2161.87</ele>
        <time>2015-08-17T08:06:45Z</time>
      </trkpt>
      <trkpt lat="45.25616" lon="7.17901">
        <ele>2163.05</ele>
        <time>2015-08-17T08:06:53Z</time>
      </trkpt>
      <trkpt lat="45.25615" lon="7.17877">
        <ele>2165.25</ele>
        <time>2015-08-17T08:07:04Z</time>
      </trkpt>
      <trkpt lat="45.25619" lon="7.1786">
        <ele>2166.66</ele>
        <time>2015-08-17T08:07:13Z</time>
      </trkpt>
      <trkpt lat="45.25624" lon="7.17849">
        <ele>2167.66</ele>
        <time>2015-08-17T08:07:20Z</time>
      </trkpt>
      <trkpt lat="45.25632" lon="7.17832">
        <ele>2169.36</ele>
        <time>2015-08-17T08:07:30Z</time>
      </trkpt>
      <trkpt lat="45.25638" lon="7.17825">
        <ele>2170.35</ele>
        <time>2015-08-17T08:07:36Z</time>
      </trkpt>
      <trkpt lat="45.2564" lon="7.17824">
        <ele>2170.48</ele>
        <time>2015-08-17T08:07:37Z</time>
      </trkpt>
      <trkpt lat="45.25643" lon="7.17823">
        <ele>2170.72</ele>
        <time>2015-08-17T08:07:39Z</time>
      </trkpt>
      <trkpt lat="45.25649" lon="7.17826">
        <ele>2171.33</ele>
        <time>2015-08-17T08:07:43Z</time>
      </trkpt>
      <trkpt lat="45.2565" lon="7.17827">
        <ele>2171.46</ele>
        <time>2015-08-17T08:07:44Z</time>
      </trkpt>
      <trkpt lat="45.25651" lon="7.17829">
        <ele>2171.59</ele>
        <time>2015-08-17T08:07:45Z</time>
      </trkpt>
      <trkpt lat="45.25654" lon="7.17836">
        <ele>2172.11</ele>
        <time>2015-08-17T08:07:49Z</time>
      </trkpt>
      <trkpt lat="45.25655" lon="7.17838">
        <ele>2172.37</ele>
        <time>2015-08-17T08:07:50Z</time>
      </trkpt>
      <trkpt lat="45.25652" lon="7.17851">
        <ele>2173.25</ele>
        <time>2015-08-17T08:07:59Z</time>
      </trkpt>
      <trkpt lat="45.25646" lon="7.17865">
        <ele>2174.17</ele>
        <time>2015-08-17T08:08:08Z</time>
      </trkpt>
      <trkpt lat="45.25644" lon="7.17872">
        <ele>2174.48</ele>
        <time>2015-08-17T08:08:12Z</time>
      </trkpt>
      <trkpt lat="45.25643" lon="7.17874">
        <ele>2174.72</ele>
        <time>2015-08-17T08:08:14Z</time>
      </trkpt>
      <trkpt lat="45.25643" lon="7.17886">
        <ele>2175.87</ele>
        <time>2015-08-17T08:08:21Z</time>
      </trkpt>
      <trkpt lat="45.25645" lon="7.17906">
        <ele>2177.24</ele>
        <time>2015-08-17T08:08:31Z</time>
      </trkpt>
      <trkpt lat="45.25649" lon="7.17921">
        <ele>2178.62</ele>
        <time>2015-08-17T08:08:40Z</time>
      </trkpt>
      <trkpt lat="45.25652" lon="7.17927">
        <ele>2179.01</ele>
        <time>2015-08-17T08:08:44Z</time>
      </trkpt>
      <trkpt lat="45.25653" lon="7.17928">
        <ele>2179.1</ele>
        <time>2015-08-17T08:08:45Z</time>
      </trkpt>
      <trkpt lat="45.25654" lon="7.17929">
        <ele>2179.2</ele>
        <time>2015-08-17T08:08:46Z</time>
      </trkpt>
      <trkpt lat="45.25655" lon="7.17931">
        <ele>2179.3</ele>
        <time>2015-08-17T08:08:47Z</time>
      </trkpt>
      <trkpt lat="45.25655" lon="7.17932">
        <ele>2179.44</ele>
        <time>2015-08-17T08:08:48Z</time>
      </trkpt>
      <trkpt lat="45.25662" lon="7.17942">
        <ele>2180.81</ele>
        <time>2015-08-17T08:08:55Z</time>
      </trkpt>
      <trkpt lat="45.25666" lon="7.17944">
        <ele>2181.31</ele>
        <time>2015-08-17T08:08:58Z</time>
      </trkpt>
      <trkpt lat="45.25667" lon="7.17945">
        <ele>2181.45</ele>
        <time>2015-08-17T08:08:59Z</time>
      </trkpt>
      <trkpt lat="45.25668" lon="7.17947">
        <ele>2181.6</ele>
        <time>2015-08-17T08:09:00Z</time>
      </trkpt>
      <trkpt lat="45.25669" lon="7.17949">
        <ele>2181.75</ele>
        <time>2015-08-17T08:09:01Z</time>
      </trkpt>
      <trkpt lat="45.25669" lon="7.1795">
        <ele>2181.88</ele>
        <time>2015-08-17T08:09:02Z</time>
      </trkpt>
      <trkpt lat="45.2567" lon="7.17952">
        <ele>2182.01</ele>
        <time>2015-08-17T08:09:03Z</time>
      </trkpt>
      <trkpt lat="45.25671" lon="7.17953">
        <ele>2182.27</ele>
        <time>2015-08-17T08:09:04Z</time>
      </trkpt>
      <trkpt lat="45.25672" lon="7.17955">
        <ele>2182.43</ele>
        <time>2015-08-17T08:09:05Z</time>
      </trkpt>
      <trkpt lat="45.25673" lon="7.17955">
        <ele>2182.61</ele>
        <time>2015-08-17T08:09:06Z</time>
      </trkpt>
      <trkpt lat="45.25681" lon="7.17956">
        <ele>2183.48</ele>
        <time>2015-08-17T08:09:13Z</time>
      </trkpt>
      <trkpt lat="45.25687" lon="7.17946">
        <ele>2184.4</ele>
        <time>2015-08-17T08:09:21Z</time>
      </trkpt>
      <trkpt lat="45.25689" lon="7.1794">
        <ele>2185.33</ele>
        <time>2015-08-17T08:09:30Z</time>
      </trkpt>
      <trkpt lat="45.25687" lon="7.1794">
        <ele>2185.42</ele>
        <time>2015-08-17T08:10:10Z</time>
      </trkpt>
      <trkpt lat="45.25685" lon="7.17937">
        <ele>2185.52</ele>
        <time>2015-08-17T08:10:13Z</time>
      </trkpt>
      <trkpt lat="45.25685" lon="7.17935">
        <ele>2185.64</ele>
        <time>2015-08-17T08:10:14Z</time>
      </trkpt>
      <trkpt lat="45.25684" lon="7.17925">
        <ele>2186.07</ele>
        <time>2015-08-17T08:10:18Z</time>
      </trkpt>
      <trkpt lat="45.25683" lon="7.17923">
        <ele>2186.17</ele>
        <time>2015-08-17T08:10:19Z</time>
      </trkpt>
      <trkpt lat="45.25682" lon="7.17921">
        <ele>2186.29</ele>
        <time>2015-08-17T08:10:20Z</time>
      </trkpt>
      <trkpt lat="45.25682" lon="7.17919">
        <ele>2186.42</ele>
        <time>2015-08-17T08:10:21Z</time>
      </trkpt>
      <trkpt lat="45.25681" lon="7.17917">
        <ele>2186.53</ele>
        <time>2015-08-17T08:10:22Z</time>
      </trkpt>
      <trkpt lat="45.2568" lon="7.17915">
        <ele>2186.66</ele>
        <time>2015-08-17T08:10:23Z</time>
      </trkpt>
      <trkpt lat="45.25678" lon="7.17914">
        <ele>2186.97</ele>
        <time>2015-08-17T08:10:24Z</time>
      </trkpt>
      <trkpt lat="45.25677" lon="7.17912">
        <ele>2187.13</ele>
        <time>2015-08-17T08:10:25Z</time>
      </trkpt>
      <trkpt lat="45.25676" lon="7.17909">
        <ele>2187.28</ele>
        <time>2015-08-17T08:10:26Z</time>
      </trkpt>
      <trkpt lat="45.25676" lon="7.17907">
        <ele>2187.42</ele>
        <time>2015-08-17T08:10:27Z</time>
      </trkpt>
      <trkpt lat="45.25675" lon="7.17905">
        <ele>2187.54</ele>
        <time>2015-08-17T08:10:28Z</time>
      </trkpt>
      <trkpt lat="45.25675" lon="7.1789">
        <ele>2188.52</ele>
        <time>2015-08-17T08:10:35Z</time>
      </trkpt>
      <trkpt lat="45.25675" lon="7.17888">
        <ele>2188.69</ele>
        <time>2015-08-17T08:10:36Z</time>
      </trkpt>
      <trkpt lat="45.25674" lon="7.17886">
        <ele>2188.84</ele>
        <time>2015-08-17T08:10:37Z</time>
      </trkpt>
      <trkpt lat="45.25674" lon="7.17884">
        <ele>2189.02</ele>
        <time>2015-08-17T08:10:38Z</time>
      </trkpt>
      <trkpt lat="45.25674" lon="7.17882">
        <ele>2189.22</ele>
        <time>2015-08-17T08:10:39Z</time>
      </trkpt>
      <trkpt lat="45.25675" lon="7.17881">
        <ele>2189.43</ele>
        <time>2015-08-17T08:10:40Z</time>
      </trkpt>
      <trkpt lat="45.25675" lon="7.17879">
        <ele>2189.65</ele>
        <time>2015-08-17T08:10:41Z</time>
      </trkpt>
      <trkpt lat="45.25681" lon="7.17863">
        <ele>2191.37</ele>
        <time>2015-08-17T08:10:51Z</time>
      </trkpt>
      <trkpt lat="45.25687" lon="7.17852">
        <ele>2192.22</ele>
        <time>2015-08-17T08:10:59Z</time>
      </trkpt>
      <trkpt lat="45.25694" lon="7.1784">
        <ele>2193.25</ele>
        <time>2015-08-17T08:11:07Z</time>
      </trkpt>
      <trkpt lat="45.257" lon="7.17824">
        <ele>2194.7</ele>
        <time>2015-08-17T08:11:16Z</time>
      </trkpt>
      <trkpt lat="45.25701" lon="7.17821">
        <ele>2195.38</ele>
        <time>2015-08-17T08:11:22Z</time>
      </trkpt>
      <trkpt lat="45.25699" lon="7.17816">
        <ele>2195.93</ele>
        <time>2015-08-17T08:11:34Z</time>
      </trkpt>
      <trkpt lat="45.25698" lon="7.17814">
        <ele>2195.93</ele>
        <time>2015-08-17T08:11:36Z</time>
      </trkpt>
      <trkpt lat="45.25696" lon="7.1781">
        <ele>2196.66</ele>
        <time>2015-08-17T08:11:43Z</time>
      </trkpt>
      <trkpt lat="45.25698" lon="7.17806">
        <ele>2197.37</ele>
        <time>2015-08-17T08:12:12Z</time>
      </trkpt>
      <trkpt lat="45.25698" lon="7.17804">
        <ele>2197.43</ele>
        <time>2015-08-17T08:12:13Z</time>
      </trkpt>
      <trkpt lat="45.25699" lon="7.17802">
        <ele>2197.5</ele>
        <time>2015-08-17T08:12:14Z</time>
      </trkpt>
      <trkpt lat="45.25698" lon="7.178">
        <ele>2197.57</ele>
        <time>2015-08-17T08:12:15Z</time>
      </trkpt>
      <trkpt lat="45.25698" lon="7.17798">
        <ele>2197.66</ele>
        <time>2015-08-17T08:12:16Z</time>
      </trkpt>
      <trkpt lat="45.25698" lon="7.17796">
        <ele>2197.81</ele>
        <time>2015-08-17T08:12:17Z</time>
      </trkpt>
      <trkpt lat="45.25698" lon="7.17793">
        <ele>2197.97</ele>
        <time>2015-08-17T08:12:18Z</time>
      </trkpt>
      <trkpt lat="45.25699" lon="7.17791">
        <ele>2198.12</ele>
        <time>2015-08-17T08:12:19Z</time>
      </trkpt>
      <trkpt lat="45.25705" lon="7.17771">
        <ele>2199.89</ele>
        <time>2015-08-17T08:12:29Z</time>
      </trkpt>
      <trkpt lat="45.25706" lon="7.17764">
        <ele>2201.06</ele>
        <time>2015-08-17T08:12:35Z</time>
      </trkpt>
      <trkpt lat="45.25707" lon="7.17765">
        <ele>2202.12</ele>
        <time>2015-08-17T08:13:04Z</time>
      </trkpt>
      <trkpt lat="45.25712" lon="7.17763">
        <ele>2201.86</ele>
        <time>2015-08-17T08:13:26Z</time>
      </trkpt>
      <trkpt lat="45.25715" lon="7.17758">
        <ele>2202.36</ele>
        <time>2015-08-17T08:13:31Z</time>
      </trkpt>
      <trkpt lat="45.25721" lon="7.17746">
        <ele>2203.62</ele>
        <time>2015-08-17T08:13:41Z</time>
      </trkpt>
      <trkpt lat="45.25724" lon="7.17734">
        <ele>2205.05</ele>
        <time>2015-08-17T08:13:50Z</time>
      </trkpt>
      <trkpt lat="45.25724" lon="7.1773">
        <ele>2205.43</ele>
        <time>2015-08-17T08:13:53Z</time>
      </trkpt>
      <trkpt lat="45.25724" lon="7.17729">
        <ele>2205.55</ele>
        <time>2015-08-17T08:13:54Z</time>
      </trkpt>
      <trkpt lat="45.25723" lon="7.17727">
        <ele>2205.64</ele>
        <time>2015-08-17T08:13:55Z</time>
      </trkpt>
      <trkpt lat="45.25723" lon="7.17717">
        <ele>2206.47</ele>
        <time>2015-08-17T08:14:02Z</time>
      </trkpt>
      <trkpt lat="45.25723" lon="7.17715">
        <ele>2206.58</ele>
        <time>2015-08-17T08:14:03Z</time>
      </trkpt>
      <trkpt lat="45.25723" lon="7.17702">
        <ele>2207.4</ele>
        <time>2015-08-17T08:14:12Z</time>
      </trkpt>
      <trkpt lat="45.25721" lon="7.17692">
        <ele>2208.38</ele>
        <time>2015-08-17T08:14:22Z</time>
      </trkpt>
      <trkpt lat="45.25721" lon="7.17682">
        <ele>2208.77</ele>
        <time>2015-08-17T08:14:30Z</time>
      </trkpt>
      <trkpt lat="45.2572" lon="7.17677">
        <ele>2209.36</ele>
        <time>2015-08-17T08:14:36Z</time>
      </trkpt>
      <trkpt lat="45.25719" lon="7.17678">
        <ele>2209.95</ele>
        <time>2015-08-17T08:14:45Z</time>
      </trkpt>
      <trkpt lat="45.25717" lon="7.1768">
        <ele>2210.34</ele>
        <time>2015-08-17T08:15:14Z</time>
      </trkpt>
      <trkpt lat="45.25718" lon="7.17678">
        <ele>2210.43</ele>
        <time>2015-08-17T08:15:16Z</time>
      </trkpt>
      <trkpt lat="45.25721" lon="7.17668">
        <ele>2210.61</ele>
        <time>2015-08-17T08:15:22Z</time>
      </trkpt>
      <trkpt lat="45.25724" lon="7.17652">
        <ele>2211.68</ele>
        <time>2015-08-17T08:15:30Z</time>
      </trkpt>
      <trkpt lat="45.25727" lon="7.1764">
        <ele>2212.44</ele>
        <time>2015-08-17T08:15:37Z</time>
      </trkpt>
      <trkpt lat="45.25732" lon="7.17624">
        <ele>2213.74</ele>
        <time>2015-08-17T08:15:46Z</time>
      </trkpt>
      <trkpt lat="45.25736" lon="7.17606">
        <ele>2215.6</ele>
        <time>2015-08-17T08:15:56Z</time>
      </trkpt>
      <trkpt lat="45.25738" lon="7.17592">
        <ele>2216.61</ele>
        <time>2015-08-17T08:16:03Z</time>
      </trkpt>
      <trkpt lat="45.25738" lon="7.17586">
        <ele>2216.98</ele>
        <time>2015-08-17T08:16:06Z</time>
      </trkpt>
      <trkpt lat="45.25738" lon="7.17585">
        <ele>2217.11</ele>
        <time>2015-08-17T08:16:07Z</time>
      </trkpt>
      <trkpt lat="45.25738" lon="7.17573">
        <ele>2217.94</ele>
        <time>2015-08-17T08:16:13Z</time>
      </trkpt>
      <trkpt lat="45.25738" lon="7.17571">
        <ele>2218.14</ele>
        <time>2015-08-17T08:16:14Z</time>
      </trkpt>
      <trkpt lat="45.25739" lon="7.17558">
        <ele>2219.07</ele>
        <time>2015-08-17T08:16:21Z</time>
      </trkpt>
      <trkpt lat="45.2574" lon="7.17556">
        <ele>2219.26</ele>
        <time>2015-08-17T08:16:22Z</time>
      </trkpt>
      <trkpt lat="45.2574" lon="7.1755">
        <ele>2219.8</ele>
        <time>2015-08-17T08:16:25Z</time>
      </trkpt>
      <trkpt lat="45.25742" lon="7.17542">
        <ele>2220.5</ele>
        <time>2015-08-17T08:16:29Z</time>
      </trkpt>
      <trkpt lat="45.25742" lon="7.17524">
        <ele>2222.17</ele>
        <time>2015-08-17T08:16:39Z</time>
      </trkpt>
      <trkpt lat="45.25743" lon="7.17518">
        <ele>2222.58</ele>
        <time>2015-08-17T08:16:42Z</time>
      </trkpt>
      <trkpt lat="45.25743" lon="7.17517">
        <ele>2222.72</ele>
        <time>2015-08-17T08:16:43Z</time>
      </trkpt>
      <trkpt lat="45.25744" lon="7.17515">
        <ele>2222.9</ele>
        <time>2015-08-17T08:16:44Z</time>
      </trkpt>
      <trkpt lat="45.25745" lon="7.17514">
        <ele>2223.08</ele>
        <time>2015-08-17T08:16:45Z</time>
      </trkpt>
      <trkpt lat="45.25745" lon="7.17512">
        <ele>2223.25</ele>
        <time>2015-08-17T08:16:46Z</time>
      </trkpt>
      <trkpt lat="45.25745" lon="7.1751">
        <ele>2223.38</ele>
        <time>2015-08-17T08:16:47Z</time>
      </trkpt>
      <trkpt lat="45.25744" lon="7.17508">
        <ele>2223.51</ele>
        <time>2015-08-17T08:16:48Z</time>
      </trkpt>
      <trkpt lat="45.25744" lon="7.17506">
        <ele>2223.66</ele>
        <time>2015-08-17T08:16:49Z</time>
      </trkpt>
      <trkpt lat="45.25742" lon="7.17492">
        <ele>2224.64</ele>
        <time>2015-08-17T08:16:57Z</time>
      </trkpt>
      <trkpt lat="45.2574" lon="7.17474">
        <ele>2226.07</ele>
        <time>2015-08-17T08:17:07Z</time>
      </trkpt>
      <trkpt lat="45.25737" lon="7.17458">
        <ele>2227.43</ele>
        <time>2015-08-17T08:17:16Z</time>
      </trkpt>
      <trkpt lat="45.25733" lon="7.17446">
        <ele>2228.58</ele>
        <time>2015-08-17T08:17:24Z</time>
      </trkpt>
      <trkpt lat="45.25728" lon="7.17432">
        <ele>2229.83</ele>
        <time>2015-08-17T08:17:32Z</time>
      </trkpt>
      <trkpt lat="45.25728" lon="7.1743">
        <ele>2229.98</ele>
        <time>2015-08-17T08:17:33Z</time>
      </trkpt>
      <trkpt lat="45.25728" lon="7.17429">
        <ele>2230.15</ele>
        <time>2015-08-17T08:17:34Z</time>
      </trkpt>
      <trkpt lat="45.25728" lon="7.17427">
        <ele>2230.34</ele>
        <time>2015-08-17T08:17:35Z</time>
      </trkpt>
      <trkpt lat="45.25728" lon="7.17425">
        <ele>2230.52</ele>
        <time>2015-08-17T08:17:36Z</time>
      </trkpt>
      <trkpt lat="45.25727" lon="7.17424">
        <ele>2230.72</ele>
        <time>2015-08-17T08:17:37Z</time>
      </trkpt>
      <trkpt lat="45.25727" lon="7.17422">
        <ele>2230.94</ele>
        <time>2015-08-17T08:17:38Z</time>
      </trkpt>
      <trkpt lat="45.25722" lon="7.1741">
        <ele>2232.29</ele>
        <time>2015-08-17T08:17:46Z</time>
      </trkpt>
      <trkpt lat="45.2572" lon="7.17405">
        <ele>2232.78</ele>
        <time>2015-08-17T08:17:49Z</time>
      </trkpt>
      <trkpt lat="45.25719" lon="7.17404">
        <ele>2233.02</ele>
        <time>2015-08-17T08:17:50Z</time>
      </trkpt>
      <trkpt lat="45.25719" lon="7.17402">
        <ele>2233.22</ele>
        <time>2015-08-17T08:17:51Z</time>
      </trkpt>
      <trkpt lat="45.25718" lon="7.17392">
        <ele>2234.42</ele>
        <time>2015-08-17T08:17:57Z</time>
      </trkpt>
      <trkpt lat="45.25718" lon="7.1739">
        <ele>2234.56</ele>
        <time>2015-08-17T08:17:58Z</time>
      </trkpt>
      <trkpt lat="45.25717" lon="7.17388">
        <ele>2234.68</ele>
        <time>2015-08-17T08:17:59Z</time>
      </trkpt>
      <trkpt lat="45.25717" lon="7.17387">
        <ele>2234.81</ele>
        <time>2015-08-17T08:18:00Z</time>
      </trkpt>
      <trkpt lat="45.25717" lon="7.17385">
        <ele>2234.96</ele>
        <time>2015-08-17T08:18:01Z</time>
      </trkpt>
      <trkpt lat="45.25716" lon="7.17382">
        <ele>2235.26</ele>
        <time>2015-08-17T08:18:03Z</time>
      </trkpt>
      <trkpt lat="45.25719" lon="7.17361">
        <ele>2236.92</ele>
        <time>2015-08-17T08:18:14Z</time>
      </trkpt>
      <trkpt lat="45.25721" lon="7.17348">
        <ele>2238.18</ele>
        <time>2015-08-17T08:18:21Z</time>
      </trkpt>
      <trkpt lat="45.25723" lon="7.17337">
        <ele>2239.48</ele>
        <time>2015-08-17T08:18:28Z</time>
      </trkpt>
      <trkpt lat="45.25723" lon="7.17333">
        <ele>2240.88</ele>
        <time>2015-08-17T08:18:38Z</time>
      </trkpt>
      <trkpt lat="45.25725" lon="7.17331">
        <ele>2241.4</ele>
        <time>2015-08-17T08:18:53Z</time>
      </trkpt>
      <trkpt lat="45.25724" lon="7.17335">
        <ele>2241.14</ele>
        <time>2015-08-17T08:19:03Z</time>
      </trkpt>
      <trkpt lat="45.25721" lon="7.17342">
        <ele>2240.89</ele>
        <time>2015-08-17T08:19:10Z</time>
      </trkpt>
      <trkpt lat="45.2572" lon="7.17345">
        <ele>2240.66</ele>
        <time>2015-08-17T08:19:23Z</time>
      </trkpt>
      <trkpt lat="45.2572" lon="7.17349">
        <ele>2240.35</ele>
        <time>2015-08-17T08:20:00Z</time>
      </trkpt>
      <trkpt lat="45.25721" lon="7.17348">
        <ele>2240.89</ele>
        <time>2015-08-17T08:20:28Z</time>
      </trkpt>
      <trkpt lat="45.25721" lon="7.17345">
        <ele>2241.07</ele>
        <time>2015-08-17T08:20:30Z</time>
      </trkpt>
      <trkpt lat="45.25722" lon="7.17344">
        <ele>2241.15</ele>
        <time>2015-08-17T08:20:31Z</time>
      </trkpt>
      <trkpt lat="45.25723" lon="7.17337">
        <ele>2241.49</ele>
        <time>2015-08-17T08:20:38Z</time>
      </trkpt>
      <trkpt lat="45.25723" lon="7.17339">
        <ele>2241.66</ele>
        <time>2015-08-17T08:20:46Z</time>
      </trkpt>
      <trkpt lat="45.25723" lon="7.1734">
        <ele>2241.87</ele>
        <time>2015-08-17T08:21:00Z</time>
      </trkpt>
      <trkpt lat="45.25724" lon="7.1734">
        <ele>2242.06</ele>
        <time>2015-08-17T08:21:14Z</time>
      </trkpt>
      <trkpt lat="45.25724" lon="7.17342">
        <ele>2242.15</ele>
        <time>2015-08-17T08:21:34Z</time>
      </trkpt>
      <trkpt lat="45.25724" lon="7.17344">
        <ele>2242.68</ele>
        <time>2015-08-17T08:21:55Z</time>
      </trkpt>
      <trkpt lat="45.25724" lon="7.17343">
        <ele>2242.93</ele>
        <time>2015-08-17T08:22:08Z</time>
      </trkpt>
      <trkpt lat="45.25723" lon="7.17344">
        <ele>2242.66</ele>
        <time>2015-08-17T08:22:24Z</time>
      </trkpt>
      <trkpt lat="45.25724" lon="7.17342">
        <ele>2242.71</ele>
        <time>2015-08-17T08:22:33Z</time>
      </trkpt>
      <trkpt lat="45.25722" lon="7.17338">
        <ele>2244.33</ele>
        <time>2015-08-17T08:22:50Z</time>
      </trkpt>
      <trkpt lat="45.2572" lon="7.17327">
        <ele>2245.71</ele>
        <time>2015-08-17T08:23:03Z</time>
      </trkpt>
      <trkpt lat="45.25718" lon="7.17325">
        <ele>2245.89</ele>
        <time>2015-08-17T08:23:05Z</time>
      </trkpt>
      <trkpt lat="45.25716" lon="7.17336">
        <ele>2248.88</ele>
        <time>2015-08-17T08:23:42Z</time>
      </trkpt>
      <trkpt lat="45.25716" lon="7.17336">
        <ele>2252</ele>
        <time>2015-08-17T08:24:09Z</time>
      </trkpt>
      <trkpt lat="45.25716" lon="7.17336">
        <ele>2255.08</ele>
        <time>2015-08-17T08:24:39Z</time>
      </trkpt>
      <trkpt lat="45.25716" lon="7.17336">
        <ele>2258.13</ele>
        <time>2015-08-17T08:25:09Z</time>
      </trkpt>
      <trkpt lat="45.25716" lon="7.17336">
        <ele>2261.13</ele>
        <time>2015-08-17T08:25:35Z</time>
      </trkpt>
      <trkpt lat="45.25657" lon="7.16947">
        <ele>2262.94</ele>
        <time>2015-08-17T08:25:57Z</time>
      </trkpt>
      <trkpt lat="45.2567" lon="7.16933">
        <ele>2264.84</ele>
        <time>2015-08-17T08:27:09Z</time>
      </trkpt>
      <trkpt lat="45.25663" lon="7.16918">
        <ele>2265.34</ele>
        <time>2015-08-17T08:27:14Z</time>
      </trkpt>
      <trkpt lat="45.25654" lon="7.16888">
        <ele>2266.45</ele>
        <time>2015-08-17T08:27:27Z</time>
      </trkpt>
      <trkpt lat="45.25656" lon="7.16874">
        <ele>2267.3</ele>
        <time>2015-08-17T08:27:36Z</time>
      </trkpt>
      <trkpt lat="45.25656" lon="7.16857">
        <ele>2268.62</ele>
        <time>2015-08-17T08:27:46Z</time>
      </trkpt>
      <trkpt lat="45.25656" lon="7.16841">
        <ele>2269.79</ele>
        <time>2015-08-17T08:27:55Z</time>
      </trkpt>
      <trkpt lat="45.25656" lon="7.16823">
        <ele>2271.48</ele>
        <time>2015-08-17T08:28:04Z</time>
      </trkpt>
      <trkpt lat="45.25657" lon="7.16808">
        <ele>2272.64</ele>
        <time>2015-08-17T08:28:13Z</time>
      </trkpt>
      <trkpt lat="45.25659" lon="7.16784">
        <ele>2274.17</ele>
        <time>2015-08-17T08:28:25Z</time>
      </trkpt>
      <trkpt lat="45.25658" lon="7.16777">
        <ele>2274.64</ele>
        <time>2015-08-17T08:28:29Z</time>
      </trkpt>
      <trkpt lat="45.25658" lon="7.16752">
        <ele>2276.18</ele>
        <time>2015-08-17T08:28:41Z</time>
      </trkpt>
      <trkpt lat="45.25659" lon="7.16735">
        <ele>2277.23</ele>
        <time>2015-08-17T08:28:50Z</time>
      </trkpt>
      <trkpt lat="45.25661" lon="7.16718">
        <ele>2278.49</ele>
        <time>2015-08-17T08:29:00Z</time>
      </trkpt>
      <trkpt lat="45.25662" lon="7.16715">
        <ele>2278.78</ele>
        <time>2015-08-17T08:29:02Z</time>
      </trkpt>
      <trkpt lat="45.25668" lon="7.167">
        <ele>2280.2</ele>
        <time>2015-08-17T08:29:12Z</time>
      </trkpt>
      <trkpt lat="45.25672" lon="7.16691">
        <ele>2281.38</ele>
        <time>2015-08-17T08:29:19Z</time>
      </trkpt>
      <trkpt lat="45.2568" lon="7.1668">
        <ele>2283.14</ele>
        <time>2015-08-17T08:29:29Z</time>
      </trkpt>
      <trkpt lat="45.25689" lon="7.16672">
        <ele>2284.58</ele>
        <time>2015-08-17T08:29:38Z</time>
      </trkpt>
      <trkpt lat="45.25699" lon="7.16664">
        <ele>2286.18</ele>
        <time>2015-08-17T08:29:48Z</time>
      </trkpt>
      <trkpt lat="45.25708" lon="7.16657">
        <ele>2287.64</ele>
        <time>2015-08-17T08:29:57Z</time>
      </trkpt>
      <trkpt lat="45.25714" lon="7.1665">
        <ele>2288.72</ele>
        <time>2015-08-17T08:30:03Z</time>
      </trkpt>
      <trkpt lat="45.25716" lon="7.16639">
        <ele>2290</ele>
        <time>2015-08-17T08:30:11Z</time>
      </trkpt>
      <trkpt lat="45.25717" lon="7.16636">
        <ele>2290.29</ele>
        <time>2015-08-17T08:30:13Z</time>
      </trkpt>
      <trkpt lat="45.25716" lon="7.16623">
        <ele>2291.17</ele>
        <time>2015-08-17T08:30:21Z</time>
      </trkpt>
      <trkpt lat="45.25716" lon="7.1661">
        <ele>2292.34</ele>
        <time>2015-08-17T08:30:30Z</time>
      </trkpt>
      <trkpt lat="45.25717" lon="7.16599">
        <ele>2293.46</ele>
        <time>2015-08-17T08:30:37Z</time>
      </trkpt>
      <trkpt lat="45.25724" lon="7.16586">
        <ele>2295.37</ele>
        <time>2015-08-17T08:30:48Z</time>
      </trkpt>
      <trkpt lat="45.25731" lon="7.16578">
        <ele>2296.78</ele>
        <time>2015-08-17T08:30:56Z</time>
      </trkpt>
      <trkpt lat="45.25737" lon="7.16574">
        <ele>2297.88</ele>
        <time>2015-08-17T08:31:03Z</time>
      </trkpt>
      <trkpt lat="45.25739" lon="7.16574">
        <ele>2298.63</ele>
        <time>2015-08-17T08:31:13Z</time>
      </trkpt>
      <trkpt lat="45.25739" lon="7.1657">
        <ele>2299.01</ele>
        <time>2015-08-17T08:31:26Z</time>
      </trkpt>
      <trkpt lat="45.25746" lon="7.16566">
        <ele>2299.66</ele>
        <time>2015-08-17T08:31:33Z</time>
      </trkpt>
      <trkpt lat="45.2575" lon="7.1656">
        <ele>2300.37</ele>
        <time>2015-08-17T08:31:38Z</time>
      </trkpt>
      <trkpt lat="45.25751" lon="7.16558">
        <ele>2300.93</ele>
        <time>2015-08-17T08:31:40Z</time>
      </trkpt>
      <trkpt lat="45.25752" lon="7.16553">
        <ele>2301.41</ele>
        <time>2015-08-17T08:31:43Z</time>
      </trkpt>
      <trkpt lat="45.25757" lon="7.16544">
        <ele>2302.35</ele>
        <time>2015-08-17T08:31:49Z</time>
      </trkpt>
      <trkpt lat="45.25767" lon="7.16537">
        <ele>2304.4</ele>
        <time>2015-08-17T08:31:59Z</time>
      </trkpt>
      <trkpt lat="45.25775" lon="7.16534">
        <ele>2305.9</ele>
        <time>2015-08-17T08:32:07Z</time>
      </trkpt>
      <trkpt lat="45.25783" lon="7.16531">
        <ele>2306.77</ele>
        <time>2015-08-17T08:32:14Z</time>
      </trkpt>
      <trkpt lat="45.25794" lon="7.1653">
        <ele>2307.96</ele>
        <time>2015-08-17T08:32:25Z</time>
      </trkpt>
      <trkpt lat="45.25803" lon="7.16532">
        <ele>2309.26</ele>
        <time>2015-08-17T08:32:33Z</time>
      </trkpt>
      <trkpt lat="45.25812" lon="7.16534">
        <ele>2310.4</ele>
        <time>2015-08-17T08:32:42Z</time>
      </trkpt>
      <trkpt lat="45.25821" lon="7.16537">
        <ele>2311.81</ele>
        <time>2015-08-17T08:32:51Z</time>
      </trkpt>
      <trkpt lat="45.25832" lon="7.1654">
        <ele>2313.46</ele>
        <time>2015-08-17T08:33:01Z</time>
      </trkpt>
      <trkpt lat="45.25842" lon="7.16543">
        <ele>2314.53</ele>
        <time>2015-08-17T08:33:11Z</time>
      </trkpt>
      <trkpt lat="45.25852" lon="7.16546">
        <ele>2316.37</ele>
        <time>2015-08-17T08:33:21Z</time>
      </trkpt>
      <trkpt lat="45.25858" lon="7.16548">
        <ele>2317.21</ele>
        <time>2015-08-17T08:33:27Z</time>
      </trkpt>
      <trkpt lat="45.25866" lon="7.16548">
        <ele>2318.24</ele>
        <time>2015-08-17T08:33:35Z</time>
      </trkpt>
      <trkpt lat="45.2587" lon="7.16547">
        <ele>2318.78</ele>
        <time>2015-08-17T08:33:39Z</time>
      </trkpt>
      <trkpt lat="45.25873" lon="7.16547">
        <ele>2319.26</ele>
        <time>2015-08-17T08:33:42Z</time>
      </trkpt>
      <trkpt lat="45.25879" lon="7.16543">
        <ele>2320.26</ele>
        <time>2015-08-17T08:33:48Z</time>
      </trkpt>
      <trkpt lat="45.25886" lon="7.1654">
        <ele>2321.66</ele>
        <time>2015-08-17T08:33:56Z</time>
      </trkpt>
      <trkpt lat="45.2589" lon="7.16534">
        <ele>2322.36</ele>
        <time>2015-08-17T08:34:01Z</time>
      </trkpt>
      <trkpt lat="45.25893" lon="7.1653">
        <ele>2322.88</ele>
        <time>2015-08-17T08:34:05Z</time>
      </trkpt>
      <trkpt lat="45.25904" lon="7.1653">
        <ele>2324.06</ele>
        <time>2015-08-17T08:34:14Z</time>
      </trkpt>
      <trkpt lat="45.25909" lon="7.16539">
        <ele>2324.69</ele>
        <time>2015-08-17T08:34:20Z</time>
      </trkpt>
      <trkpt lat="45.2591" lon="7.16552">
        <ele>2325.38</ele>
        <time>2015-08-17T08:34:28Z</time>
      </trkpt>
      <trkpt lat="45.25908" lon="7.16557">
        <ele>2325.85</ele>
        <time>2015-08-17T08:34:31Z</time>
      </trkpt>
      <trkpt lat="45.25899" lon="7.16567">
        <ele>2327.55</ele>
        <time>2015-08-17T08:34:42Z</time>
      </trkpt>
      <trkpt lat="45.25888" lon="7.16575">
        <ele>2328.91</ele>
        <time>2015-08-17T08:34:53Z</time>
      </trkpt>
      <trkpt lat="45.2588" lon="7.16582">
        <ele>2329.99</ele>
        <time>2015-08-17T08:35:01Z</time>
      </trkpt>
      <trkpt lat="45.25879" lon="7.16583">
        <ele>2330.14</ele>
        <time>2015-08-17T08:35:02Z</time>
      </trkpt>
      <trkpt lat="45.25877" lon="7.16586">
        <ele>2330.45</ele>
        <time>2015-08-17T08:35:04Z</time>
      </trkpt>
      <trkpt lat="45.25877" lon="7.16601">
        <ele>2331.5</ele>
        <time>2015-08-17T08:35:13Z</time>
      </trkpt>
      <trkpt lat="45.25886" lon="7.16609">
        <ele>2332.7</ele>
        <time>2015-08-17T08:35:22Z</time>
      </trkpt>
      <trkpt lat="45.25899" lon="7.16608">
        <ele>2334.47</ele>
        <time>2015-08-17T08:35:33Z</time>
      </trkpt>
      <trkpt lat="45.25908" lon="7.166">
        <ele>2335.93</ele>
        <time>2015-08-17T08:35:41Z</time>
      </trkpt>
      <trkpt lat="45.25917" lon="7.166">
        <ele>2337.15</ele>
        <time>2015-08-17T08:35:49Z</time>
      </trkpt>
      <trkpt lat="45.25925" lon="7.16596">
        <ele>2338.16</ele>
        <time>2015-08-17T08:35:56Z</time>
      </trkpt>
      <trkpt lat="45.2593" lon="7.16586">
        <ele>2339.19</ele>
        <time>2015-08-17T08:36:03Z</time>
      </trkpt>
      <trkpt lat="45.25931" lon="7.16584">
        <ele>2339.51</ele>
        <time>2015-08-17T08:36:05Z</time>
      </trkpt>
      <trkpt lat="45.25937" lon="7.16572">
        <ele>2340.77</ele>
        <time>2015-08-17T08:36:14Z</time>
      </trkpt>
      <trkpt lat="45.25936" lon="7.16569">
        <ele>2341.01</ele>
        <time>2015-08-17T08:36:16Z</time>
      </trkpt>
      <trkpt lat="45.2594" lon="7.16558">
        <ele>2342.05</ele>
        <time>2015-08-17T08:36:24Z</time>
      </trkpt>
      <trkpt lat="45.25944" lon="7.16542">
        <ele>2343.73</ele>
        <time>2015-08-17T08:36:34Z</time>
      </trkpt>
      <trkpt lat="45.25946" lon="7.16538">
        <ele>2344.32</ele>
        <time>2015-08-17T08:36:37Z</time>
      </trkpt>
      <trkpt lat="45.25948" lon="7.16533">
        <ele>2344.74</ele>
        <time>2015-08-17T08:36:41Z</time>
      </trkpt>
      <trkpt lat="45.25952" lon="7.16527">
        <ele>2345.43</ele>
        <time>2015-08-17T08:36:46Z</time>
      </trkpt>
      <trkpt lat="45.25957" lon="7.16523">
        <ele>2346.08</ele>
        <time>2015-08-17T08:36:51Z</time>
      </trkpt>
      <trkpt lat="45.25963" lon="7.16517">
        <ele>2346.69</ele>
        <time>2015-08-17T08:36:58Z</time>
      </trkpt>
      <trkpt lat="45.25973" lon="7.16508">
        <ele>2347.97</ele>
        <time>2015-08-17T08:37:07Z</time>
      </trkpt>
      <trkpt lat="45.25976" lon="7.16506">
        <ele>2348.35</ele>
        <time>2015-08-17T08:37:10Z</time>
      </trkpt>
      <trkpt lat="45.2598" lon="7.16504">
        <ele>2348.83</ele>
        <time>2015-08-17T08:37:14Z</time>
      </trkpt>
      <trkpt lat="45.25987" lon="7.16498">
        <ele>2349.74</ele>
        <time>2015-08-17T08:37:21Z</time>
      </trkpt>
      <trkpt lat="45.25994" lon="7.16493">
        <ele>2350.45</ele>
        <time>2015-08-17T08:37:27Z</time>
      </trkpt>
      <trkpt lat="45.26" lon="7.16493">
        <ele>2351.02</ele>
        <time>2015-08-17T08:37:33Z</time>
      </trkpt>
      <trkpt lat="45.26003" lon="7.1649">
        <ele>2351.33</ele>
        <time>2015-08-17T08:37:36Z</time>
      </trkpt>
      <trkpt lat="45.26007" lon="7.16487">
        <ele>2351.8</ele>
        <time>2015-08-17T08:37:40Z</time>
      </trkpt>
      <trkpt lat="45.26011" lon="7.16486">
        <ele>2352.25</ele>
        <time>2015-08-17T08:37:43Z</time>
      </trkpt>
      <trkpt lat="45.26018" lon="7.16476">
        <ele>2353.32</ele>
        <time>2015-08-17T08:37:52Z</time>
      </trkpt>
      <trkpt lat="45.26021" lon="7.16473">
        <ele>2353.54</ele>
        <time>2015-08-17T08:37:56Z</time>
      </trkpt>
      <trkpt lat="45.26026" lon="7.16468">
        <ele>2353.9</ele>
        <time>2015-08-17T08:38:01Z</time>
      </trkpt>
      <trkpt lat="45.26032" lon="7.16458">
        <ele>2354.69</ele>
        <time>2015-08-17T08:38:08Z</time>
      </trkpt>
      <trkpt lat="45.26037" lon="7.16437">
        <ele>2356.16</ele>
        <time>2015-08-17T08:38:20Z</time>
      </trkpt>
      <trkpt lat="45.26037" lon="7.16416">
        <ele>2357.61</ele>
        <time>2015-08-17T08:38:31Z</time>
      </trkpt>
      <trkpt lat="45.26037" lon="7.16396">
        <ele>2358.88</ele>
        <time>2015-08-17T08:38:41Z</time>
      </trkpt>
      <trkpt lat="45.26035" lon="7.16381">
        <ele>2360.04</ele>
        <time>2015-08-17T08:38:49Z</time>
      </trkpt>
      <trkpt lat="45.26035" lon="7.16376">
        <ele>2360.4</ele>
        <time>2015-08-17T08:38:52Z</time>
      </trkpt>
      <trkpt lat="45.2604" lon="7.16369">
        <ele>2360.97</ele>
        <time>2015-08-17T08:38:57Z</time>
      </trkpt>
      <trkpt lat="45.2605" lon="7.16364">
        <ele>2362.07</ele>
        <time>2015-08-17T08:39:05Z</time>
      </trkpt>
      <trkpt lat="45.26061" lon="7.1638">
        <ele>2363.05</ele>
        <time>2015-08-17T08:39:14Z</time>
      </trkpt>
      <trkpt lat="45.26064" lon="7.16385">
        <ele>2363.45</ele>
        <time>2015-08-17T08:39:23Z</time>
      </trkpt>
      <trkpt lat="45.26064" lon="7.16384">
        <ele>2363.58</ele>
        <time>2015-08-17T08:39:41Z</time>
      </trkpt>
      <trkpt lat="45.26063" lon="7.16384">
        <ele>2363.79</ele>
        <time>2015-08-17T08:39:59Z</time>
      </trkpt>
      <trkpt lat="45.26064" lon="7.16384">
        <ele>2363.56</ele>
        <time>2015-08-17T08:40:14Z</time>
      </trkpt>
      <trkpt lat="45.26064" lon="7.16385">
        <ele>2363.85</ele>
        <time>2015-08-17T08:40:29Z</time>
      </trkpt>
      <trkpt lat="45.26064" lon="7.16385">
        <ele>2364.31</ele>
        <time>2015-08-17T08:40:48Z</time>
      </trkpt>
      <trkpt lat="45.26065" lon="7.16386">
        <ele>2363.98</ele>
        <time>2015-08-17T08:41:00Z</time>
      </trkpt>
      <trkpt lat="45.26066" lon="7.16387">
        <ele>2364.21</ele>
        <time>2015-08-17T08:41:14Z</time>
      </trkpt>
      <trkpt lat="45.26066" lon="7.16386">
        <ele>2364.36</ele>
        <time>2015-08-17T08:41:25Z</time>
      </trkpt>
      <trkpt lat="45.26067" lon="7.16386">
        <ele>2364.79</ele>
        <time>2015-08-17T08:41:41Z</time>
      </trkpt>
      <trkpt lat="45.26066" lon="7.16388">
        <ele>2364.82</ele>
        <time>2015-08-17T08:41:50Z</time>
      </trkpt>
      <trkpt lat="45.26065" lon="7.16391">
        <ele>2364.86</ele>
        <time>2015-08-17T08:41:52Z</time>
      </trkpt>
      <trkpt lat="45.2606" lon="7.16408">
        <ele>2364.97</ele>
        <time>2015-08-17T08:41:58Z</time>
      </trkpt>
      <trkpt lat="45.2606" lon="7.1641">
        <ele>2365.02</ele>
        <time>2015-08-17T08:41:59Z</time>
      </trkpt>
      <trkpt lat="45.26059" lon="7.16414">
        <ele>2365.22</ele>
        <time>2015-08-17T08:42:03Z</time>
      </trkpt>
      <trkpt lat="45.26059" lon="7.16416">
        <ele>2365.26</ele>
        <time>2015-08-17T08:42:04Z</time>
      </trkpt>
      <trkpt lat="45.26059" lon="7.16418">
        <ele>2365.28</ele>
        <time>2015-08-17T08:42:05Z</time>
      </trkpt>
      <trkpt lat="45.26058" lon="7.1642">
        <ele>2365.29</ele>
        <time>2015-08-17T08:42:06Z</time>
      </trkpt>
      <trkpt lat="45.26056" lon="7.16423">
        <ele>2365.3</ele>
        <time>2015-08-17T08:42:07Z</time>
      </trkpt>
      <trkpt lat="45.2605" lon="7.16436">
        <ele>2365.35</ele>
        <time>2015-08-17T08:42:12Z</time>
      </trkpt>
      <trkpt lat="45.26048" lon="7.1645">
        <ele>2365.28</ele>
        <time>2015-08-17T08:42:18Z</time>
      </trkpt>
      <trkpt lat="45.2605" lon="7.16463">
        <ele>2365.32</ele>
        <time>2015-08-17T08:42:24Z</time>
      </trkpt>
      <trkpt lat="45.26051" lon="7.16486">
        <ele>2365.45</ele>
        <time>2015-08-17T08:42:33Z</time>
      </trkpt>
      <trkpt lat="45.26054" lon="7.16505">
        <ele>2365.86</ele>
        <time>2015-08-17T08:42:41Z</time>
      </trkpt>
      <trkpt lat="45.26058" lon="7.16524">
        <ele>2366.31</ele>
        <time>2015-08-17T08:42:49Z</time>
      </trkpt>
      <trkpt lat="45.2606" lon="7.16531">
        <ele>2366.78</ele>
        <time>2015-08-17T08:42:52Z</time>
      </trkpt>
      <trkpt lat="45.2606" lon="7.16533">
        <ele>2366.87</ele>
        <time>2015-08-17T08:42:53Z</time>
      </trkpt>
      <trkpt lat="45.2606" lon="7.16535">
        <ele>2366.96</ele>
        <time>2015-08-17T08:42:54Z</time>
      </trkpt>
      <trkpt lat="45.26061" lon="7.16537">
        <ele>2367.04</ele>
        <time>2015-08-17T08:42:55Z</time>
      </trkpt>
      <trkpt lat="45.26062" lon="7.16539">
        <ele>2367.12</ele>
        <time>2015-08-17T08:42:56Z</time>
      </trkpt>
      <trkpt lat="45.26063" lon="7.16541">
        <ele>2367.2</ele>
        <time>2015-08-17T08:42:57Z</time>
      </trkpt>
      <trkpt lat="45.26064" lon="7.16543">
        <ele>2367.28</ele>
        <time>2015-08-17T08:42:58Z</time>
      </trkpt>
      <trkpt lat="45.26068" lon="7.16548">
        <ele>2367.64</ele>
        <time>2015-08-17T08:43:02Z</time>
      </trkpt>
      <trkpt lat="45.26069" lon="7.16549">
        <ele>2367.74</ele>
        <time>2015-08-17T08:43:03Z</time>
      </trkpt>
      <trkpt lat="45.26081" lon="7.16551">
        <ele>2368.46</ele>
        <time>2015-08-17T08:43:11Z</time>
      </trkpt>
      <trkpt lat="45.26084" lon="7.16551">
        <ele>2368.63</ele>
        <time>2015-08-17T08:43:13Z</time>
      </trkpt>
      <trkpt lat="45.26086" lon="7.1655">
        <ele>2368.72</ele>
        <time>2015-08-17T08:43:14Z</time>
      </trkpt>
      <trkpt lat="45.26099" lon="7.16548">
        <ele>2369.59</ele>
        <time>2015-08-17T08:43:23Z</time>
      </trkpt>
      <trkpt lat="45.26109" lon="7.16556">
        <ele>2370.14</ele>
        <time>2015-08-17T08:43:31Z</time>
      </trkpt>
      <trkpt lat="45.26118" lon="7.16568">
        <ele>2371.53</ele>
        <time>2015-08-17T08:43:40Z</time>
      </trkpt>
      <trkpt lat="45.26119" lon="7.16569">
        <ele>2372.26</ele>
        <time>2015-08-17T08:43:45Z</time>
      </trkpt>
      <trkpt lat="45.26119" lon="7.16568">
        <ele>2372.52</ele>
        <time>2015-08-17T08:44:08Z</time>
      </trkpt>
      <trkpt lat="45.26119" lon="7.16572">
        <ele>2372.66</ele>
        <time>2015-08-17T08:44:11Z</time>
      </trkpt>
      <trkpt lat="45.26121" lon="7.16584">
        <ele>2373.29</ele>
        <time>2015-08-17T08:44:20Z</time>
      </trkpt>
      <trkpt lat="45.26126" lon="7.1659">
        <ele>2374.39</ele>
        <time>2015-08-17T08:44:27Z</time>
      </trkpt>
      <trkpt lat="45.2613" lon="7.166">
        <ele>2375.34</ele>
        <time>2015-08-17T08:44:35Z</time>
      </trkpt>
      <trkpt lat="45.26134" lon="7.16607">
        <ele>2375.9</ele>
        <time>2015-08-17T08:44:41Z</time>
      </trkpt>
      <trkpt lat="45.26135" lon="7.16608">
        <ele>2375.95</ele>
        <time>2015-08-17T08:44:42Z</time>
      </trkpt>
      <trkpt lat="45.26145" lon="7.16619">
        <ele>2376.13</ele>
        <time>2015-08-17T08:44:51Z</time>
      </trkpt>
      <trkpt lat="45.26151" lon="7.16629">
        <ele>2375.8</ele>
        <time>2015-08-17T08:44:58Z</time>
      </trkpt>
      <trkpt lat="45.26152" lon="7.1663">
        <ele>2375.68</ele>
        <time>2015-08-17T08:45:06Z</time>
      </trkpt>
      <trkpt lat="45.26149" lon="7.16631">
        <ele>2375.88</ele>
        <time>2015-08-17T08:45:25Z</time>
      </trkpt>
      <trkpt lat="45.26147" lon="7.16625">
        <ele>2375.92</ele>
        <time>2015-08-17T08:45:31Z</time>
      </trkpt>
      <trkpt lat="45.26147" lon="7.16624">
        <ele>2375.92</ele>
        <time>2015-08-17T08:45:32Z</time>
      </trkpt>
      <trkpt lat="45.26145" lon="7.16617">
        <ele>2375.88</ele>
        <time>2015-08-17T08:45:36Z</time>
      </trkpt>
      <trkpt lat="45.26143" lon="7.16614">
        <ele>2375.93</ele>
        <time>2015-08-17T08:45:38Z</time>
      </trkpt>
      <trkpt lat="45.26135" lon="7.16604">
        <ele>2376.34</ele>
        <time>2015-08-17T08:45:44Z</time>
      </trkpt>
      <trkpt lat="45.26135" lon="7.16585">
        <ele>2376.53</ele>
        <time>2015-08-17T08:45:50Z</time>
      </trkpt>
      <trkpt lat="45.2613" lon="7.16569">
        <ele>2376.38</ele>
        <time>2015-08-17T08:45:56Z</time>
      </trkpt>
      <trkpt lat="45.26125" lon="7.16554">
        <ele>2376.51</ele>
        <time>2015-08-17T08:46:03Z</time>
      </trkpt>
      <trkpt lat="45.26121" lon="7.16531">
        <ele>2378.03</ele>
        <time>2015-08-17T08:46:13Z</time>
      </trkpt>
      <trkpt lat="45.2612" lon="7.16512">
        <ele>2379.75</ele>
        <time>2015-08-17T08:46:22Z</time>
      </trkpt>
      <trkpt lat="45.26125" lon="7.165">
        <ele>2381.61</ele>
        <time>2015-08-17T08:46:31Z</time>
      </trkpt>
      <trkpt lat="45.26127" lon="7.16496">
        <ele>2382.53</ele>
        <time>2015-08-17T08:46:35Z</time>
      </trkpt>
      <trkpt lat="45.26133" lon="7.16482">
        <ele>2384.22</ele>
        <time>2015-08-17T08:46:44Z</time>
      </trkpt>
      <trkpt lat="45.26139" lon="7.16474">
        <ele>2385.34</ele>
        <time>2015-08-17T08:46:52Z</time>
      </trkpt>
      <trkpt lat="45.26145" lon="7.16469">
        <ele>2386.05</ele>
        <time>2015-08-17T08:46:58Z</time>
      </trkpt>
      <trkpt lat="45.26146" lon="7.16469">
        <ele>2386.19</ele>
        <time>2015-08-17T08:46:59Z</time>
      </trkpt>
      <trkpt lat="45.26156" lon="7.16465">
        <ele>2387.16</ele>
        <time>2015-08-17T08:47:07Z</time>
      </trkpt>
      <trkpt lat="45.26168" lon="7.16464">
        <ele>2387.73</ele>
        <time>2015-08-17T08:47:16Z</time>
      </trkpt>
      <trkpt lat="45.26182" lon="7.1647">
        <ele>2388.7</ele>
        <time>2015-08-17T08:47:27Z</time>
      </trkpt>
      <trkpt lat="45.26183" lon="7.1647">
        <ele>2388.91</ele>
        <time>2015-08-17T08:47:28Z</time>
      </trkpt>
      <trkpt lat="45.26184" lon="7.16471">
        <ele>2389.03</ele>
        <time>2015-08-17T08:47:29Z</time>
      </trkpt>
      <trkpt lat="45.26185" lon="7.16471">
        <ele>2389.17</ele>
        <time>2015-08-17T08:47:30Z</time>
      </trkpt>
      <trkpt lat="45.26186" lon="7.16472">
        <ele>2389.31</ele>
        <time>2015-08-17T08:47:31Z</time>
      </trkpt>
      <trkpt lat="45.26187" lon="7.16472">
        <ele>2389.45</ele>
        <time>2015-08-17T08:47:32Z</time>
      </trkpt>
      <trkpt lat="45.26199" lon="7.16473">
        <ele>2391.66</ele>
        <time>2015-08-17T08:47:43Z</time>
      </trkpt>
      <trkpt lat="45.2621" lon="7.16469">
        <ele>2392.65</ele>
        <time>2015-08-17T08:47:51Z</time>
      </trkpt>
      <trkpt lat="45.26215" lon="7.16469">
        <ele>2393.96</ele>
        <time>2015-08-17T08:47:58Z</time>
      </trkpt>
      <trkpt lat="45.26216" lon="7.16468">
        <ele>2394.23</ele>
        <time>2015-08-17T08:48:00Z</time>
      </trkpt>
      <trkpt lat="45.26224" lon="7.16466">
        <ele>2395.41</ele>
        <time>2015-08-17T08:48:09Z</time>
      </trkpt>
      <trkpt lat="45.26225" lon="7.16465">
        <ele>2395.55</ele>
        <time>2015-08-17T08:48:10Z</time>
      </trkpt>
      <trkpt lat="45.26237" lon="7.16467">
        <ele>2396.9</ele>
        <time>2015-08-17T08:48:21Z</time>
      </trkpt>
      <trkpt lat="45.26244" lon="7.16464">
        <ele>2398.14</ele>
        <time>2015-08-17T08:48:30Z</time>
      </trkpt>
      <trkpt lat="45.26252" lon="7.16459">
        <ele>2400.32</ele>
        <time>2015-08-17T08:48:43Z</time>
      </trkpt>
      <trkpt lat="45.26258" lon="7.16454">
        <ele>2402.05</ele>
        <time>2015-08-17T08:48:54Z</time>
      </trkpt>
      <trkpt lat="45.26263" lon="7.16451">
        <ele>2403.65</ele>
        <time>2015-08-17T08:49:04Z</time>
      </trkpt>
      <trkpt lat="45.2627" lon="7.16448">
        <ele>2405.41</ele>
        <time>2015-08-17T08:49:14Z</time>
      </trkpt>
      <trkpt lat="45.26277" lon="7.16446">
        <ele>2406.81</ele>
        <time>2015-08-17T08:49:24Z</time>
      </trkpt>
      <trkpt lat="45.26283" lon="7.16444">
        <ele>2408.2</ele>
        <time>2015-08-17T08:49:32Z</time>
      </trkpt>
      <trkpt lat="45.26295" lon="7.1644">
        <ele>2409.82</ele>
        <time>2015-08-17T08:49:44Z</time>
      </trkpt>
      <trkpt lat="45.26303" lon="7.16435">
        <ele>2410.58</ele>
        <time>2015-08-17T08:49:52Z</time>
      </trkpt>
      <trkpt lat="45.26307" lon="7.16433">
        <ele>2411.05</ele>
        <time>2015-08-17T08:49:56Z</time>
      </trkpt>
      <trkpt lat="45.26317" lon="7.16423">
        <ele>2411.74</ele>
        <time>2015-08-17T08:50:05Z</time>
      </trkpt>
      <trkpt lat="45.26331" lon="7.16406">
        <ele>2412.76</ele>
        <time>2015-08-17T08:50:16Z</time>
      </trkpt>
      <trkpt lat="45.2634" lon="7.16396">
        <ele>2413.49</ele>
        <time>2015-08-17T08:50:23Z</time>
      </trkpt>
      <trkpt lat="45.26349" lon="7.16387">
        <ele>2414.72</ele>
        <time>2015-08-17T08:50:31Z</time>
      </trkpt>
      <trkpt lat="45.26363" lon="7.16377">
        <ele>2416.2</ele>
        <time>2015-08-17T08:50:40Z</time>
      </trkpt>
      <trkpt lat="45.26371" lon="7.16371">
        <ele>2417.1</ele>
        <time>2015-08-17T08:50:46Z</time>
      </trkpt>
      <trkpt lat="45.26372" lon="7.1637">
        <ele>2417.23</ele>
        <time>2015-08-17T08:50:47Z</time>
      </trkpt>
      <trkpt lat="45.26374" lon="7.16369">
        <ele>2417.5</ele>
        <time>2015-08-17T08:50:48Z</time>
      </trkpt>
      <trkpt lat="45.26376" lon="7.16368">
        <ele>2417.61</ele>
        <time>2015-08-17T08:50:49Z</time>
      </trkpt>
      <trkpt lat="45.26377" lon="7.16366">
        <ele>2417.73</ele>
        <time>2015-08-17T08:50:50Z</time>
      </trkpt>
      <trkpt lat="45.26379" lon="7.16365">
        <ele>2417.83</ele>
        <time>2015-08-17T08:50:51Z</time>
      </trkpt>
      <trkpt lat="45.2638" lon="7.16365">
        <ele>2417.91</ele>
        <time>2015-08-17T08:50:52Z</time>
      </trkpt>
      <trkpt lat="45.26382" lon="7.16365">
        <ele>2417.99</ele>
        <time>2015-08-17T08:50:53Z</time>
      </trkpt>
      <trkpt lat="45.26383" lon="7.16364">
        <ele>2418.06</ele>
        <time>2015-08-17T08:50:54Z</time>
      </trkpt>
      <trkpt lat="45.26384" lon="7.16363">
        <ele>2418.14</ele>
        <time>2015-08-17T08:50:55Z</time>
      </trkpt>
      <trkpt lat="45.26385" lon="7.16363">
        <ele>2418.2</ele>
        <time>2015-08-17T08:50:56Z</time>
      </trkpt>
      <trkpt lat="45.26399" lon="7.16357">
        <ele>2418.69</ele>
        <time>2015-08-17T08:51:04Z</time>
      </trkpt>
      <trkpt lat="45.26412" lon="7.16347">
        <ele>2419.27</ele>
        <time>2015-08-17T08:51:13Z</time>
      </trkpt>
      <trkpt lat="45.26419" lon="7.16336">
        <ele>2419.22</ele>
        <time>2015-08-17T08:51:16Z</time>
      </trkpt>
      <trkpt lat="45.26422" lon="7.1633">
        <ele>2419.11</ele>
        <time>2015-08-17T08:51:17Z</time>
      </trkpt>
      <trkpt lat="45.26434" lon="7.1631">
        <ele>2418.03</ele>
        <time>2015-08-17T08:51:22Z</time>
      </trkpt>
      <trkpt lat="45.26445" lon="7.16299">
        <ele>2418.17</ele>
        <time>2015-08-17T08:51:30Z</time>
      </trkpt>
      <trkpt lat="45.26446" lon="7.16297">
        <ele>2418.22</ele>
        <time>2015-08-17T08:51:31Z</time>
      </trkpt>
      <trkpt lat="45.26447" lon="7.16296">
        <ele>2418.26</ele>
        <time>2015-08-17T08:51:32Z</time>
      </trkpt>
      <trkpt lat="45.26448" lon="7.16295">
        <ele>2418.31</ele>
        <time>2015-08-17T08:51:33Z</time>
      </trkpt>
      <trkpt lat="45.26449" lon="7.16293">
        <ele>2418.38</ele>
        <time>2015-08-17T08:51:34Z</time>
      </trkpt>
      <trkpt lat="45.2645" lon="7.1629">
        <ele>2419.28</ele>
        <time>2015-08-17T08:51:40Z</time>
      </trkpt>
      <trkpt lat="45.26452" lon="7.16291">
        <ele>2419.86</ele>
        <time>2015-08-17T08:52:00Z</time>
      </trkpt>
      <trkpt lat="45.26452" lon="7.16288">
        <ele>2419.78</ele>
        <time>2015-08-17T08:52:02Z</time>
      </trkpt>
      <trkpt lat="45.26452" lon="7.16287">
        <ele>2419.76</ele>
        <time>2015-08-17T08:52:03Z</time>
      </trkpt>
      <trkpt lat="45.26452" lon="7.16285">
        <ele>2419.74</ele>
        <time>2015-08-17T08:52:04Z</time>
      </trkpt>
      <trkpt lat="45.26452" lon="7.16283">
        <ele>2419.77</ele>
        <time>2015-08-17T08:52:05Z</time>
      </trkpt>
      <trkpt lat="45.26452" lon="7.16282">
        <ele>2419.82</ele>
        <time>2015-08-17T08:52:06Z</time>
      </trkpt>
      <trkpt lat="45.26452" lon="7.16277">
        <ele>2420.02</ele>
        <time>2015-08-17T08:52:09Z</time>
      </trkpt>
      <trkpt lat="45.26451" lon="7.16268">
        <ele>2420.52</ele>
        <time>2015-08-17T08:52:15Z</time>
      </trkpt>
      <trkpt lat="45.26449" lon="7.16262">
        <ele>2420.86</ele>
        <time>2015-08-17T08:52:19Z</time>
      </trkpt>
      <trkpt lat="45.26453" lon="7.1625">
        <ele>2422.11</ele>
        <time>2015-08-17T08:52:28Z</time>
      </trkpt>
      <trkpt lat="45.2646" lon="7.16241">
        <ele>2423.99</ele>
        <time>2015-08-17T08:52:39Z</time>
      </trkpt>
      <trkpt lat="45.26465" lon="7.16231">
        <ele>2425.79</ele>
        <time>2015-08-17T08:52:49Z</time>
      </trkpt>
      <trkpt lat="45.26469" lon="7.16223">
        <ele>2427.16</ele>
        <time>2015-08-17T08:52:56Z</time>
      </trkpt>
      <trkpt lat="45.26473" lon="7.16212">
        <ele>2428.68</ele>
        <time>2015-08-17T08:53:06Z</time>
      </trkpt>
      <trkpt lat="45.26479" lon="7.16203">
        <ele>2429.75</ele>
        <time>2015-08-17T08:53:15Z</time>
      </trkpt>
      <trkpt lat="45.26484" lon="7.16194">
        <ele>2430.79</ele>
        <time>2015-08-17T08:53:23Z</time>
      </trkpt>
      <trkpt lat="45.26494" lon="7.16182">
        <ele>2431.31</ele>
        <time>2015-08-17T08:53:33Z</time>
      </trkpt>
      <trkpt lat="45.265" lon="7.16169">
        <ele>2432.14</ele>
        <time>2015-08-17T08:53:41Z</time>
      </trkpt>
      <trkpt lat="45.26507" lon="7.16156">
        <ele>2433.39</ele>
        <time>2015-08-17T08:53:49Z</time>
      </trkpt>
      <trkpt lat="45.26512" lon="7.16141">
        <ele>2434.37</ele>
        <time>2015-08-17T08:53:57Z</time>
      </trkpt>
      <trkpt lat="45.26517" lon="7.16126">
        <ele>2435.31</ele>
        <time>2015-08-17T08:54:06Z</time>
      </trkpt>
      <trkpt lat="45.26517" lon="7.16124">
        <ele>2435.36</ele>
        <time>2015-08-17T08:54:07Z</time>
      </trkpt>
      <trkpt lat="45.26517" lon="7.16123">
        <ele>2435.42</ele>
        <time>2015-08-17T08:54:08Z</time>
      </trkpt>
      <trkpt lat="45.26518" lon="7.16121">
        <ele>2435.46</ele>
        <time>2015-08-17T08:54:09Z</time>
      </trkpt>
      <trkpt lat="45.26519" lon="7.1612">
        <ele>2435.5</ele>
        <time>2015-08-17T08:54:10Z</time>
      </trkpt>
      <trkpt lat="45.26519" lon="7.16118">
        <ele>2435.54</ele>
        <time>2015-08-17T08:54:11Z</time>
      </trkpt>
      <trkpt lat="45.26521" lon="7.16117">
        <ele>2435.57</ele>
        <time>2015-08-17T08:54:12Z</time>
      </trkpt>
      <trkpt lat="45.26522" lon="7.16114">
        <ele>2435.58</ele>
        <time>2015-08-17T08:54:13Z</time>
      </trkpt>
      <trkpt lat="45.26523" lon="7.16112">
        <ele>2435.59</ele>
        <time>2015-08-17T08:54:14Z</time>
      </trkpt>
      <trkpt lat="45.26524" lon="7.16109">
        <ele>2435.58</ele>
        <time>2015-08-17T08:54:15Z</time>
      </trkpt>
      <trkpt lat="45.26529" lon="7.1609">
        <ele>2435.63</ele>
        <time>2015-08-17T08:54:23Z</time>
      </trkpt>
      <trkpt lat="45.26536" lon="7.16074">
        <ele>2435.69</ele>
        <time>2015-08-17T08:54:30Z</time>
      </trkpt>
      <trkpt lat="45.26549" lon="7.16052">
        <ele>2435.33</ele>
        <time>2015-08-17T08:54:37Z</time>
      </trkpt>
      <trkpt lat="45.26564" lon="7.16025">
        <ele>2435.14</ele>
        <time>2015-08-17T08:54:45Z</time>
      </trkpt>
      <trkpt lat="45.26575" lon="7.16005">
        <ele>2435.02</ele>
        <time>2015-08-17T08:54:53Z</time>
      </trkpt>
      <trkpt lat="45.2659" lon="7.1598">
        <ele>2435.31</ele>
        <time>2015-08-17T08:55:02Z</time>
      </trkpt>
      <trkpt lat="45.26603" lon="7.15963">
        <ele>2435.6</ele>
        <time>2015-08-17T08:55:10Z</time>
      </trkpt>
      <trkpt lat="45.26618" lon="7.15944">
        <ele>2436.81</ele>
        <time>2015-08-17T08:55:20Z</time>
      </trkpt>
      <trkpt lat="45.26602" lon="7.15762">
        <ele>2495.03</ele>
        <time>2015-08-17T09:17:26Z</time>
      </trkpt>
      <trkpt lat="45.26598" lon="7.15764">
        <ele>2496.37</ele>
        <time>2015-08-17T09:17:36Z</time>
      </trkpt>
      <trkpt lat="45.26595" lon="7.15765">
        <ele>2497.69</ele>
        <time>2015-08-17T09:17:45Z</time>
      </trkpt>
      <trkpt lat="45.26592" lon="7.15764">
        <ele>2498.81</ele>
        <time>2015-08-17T09:17:53Z</time>
      </trkpt>
      <trkpt lat="45.26588" lon="7.15765">
        <ele>2500.43</ele>
        <time>2015-08-17T09:18:02Z</time>
      </trkpt>
      <trkpt lat="45.26583" lon="7.15767">
        <ele>2502.03</ele>
        <time>2015-08-17T09:18:13Z</time>
      </trkpt>
      <trkpt lat="45.26578" lon="7.15769">
        <ele>2503.11</ele>
        <time>2015-08-17T09:18:22Z</time>
      </trkpt>
      <trkpt lat="45.26577" lon="7.15767">
        <ele>2503.65</ele>
        <time>2015-08-17T09:18:32Z</time>
      </trkpt>
      <trkpt lat="45.26578" lon="7.15763">
        <ele>2504.79</ele>
        <time>2015-08-17T09:18:41Z</time>
      </trkpt>
      <trkpt lat="45.2658" lon="7.15757">
        <ele>2505.94</ele>
        <time>2015-08-17T09:18:49Z</time>
      </trkpt>
      <trkpt lat="45.26582" lon="7.15751">
        <ele>2507.43</ele>
        <time>2015-08-17T09:19:01Z</time>
      </trkpt>
      <trkpt lat="45.26579" lon="7.15749">
        <ele>2508.47</ele>
        <time>2015-08-17T09:19:10Z</time>
      </trkpt>
      <trkpt lat="45.26575" lon="7.15749">
        <ele>2509.61</ele>
        <time>2015-08-17T09:19:19Z</time>
      </trkpt>
      <trkpt lat="45.26572" lon="7.1575">
        <ele>2510.75</ele>
        <time>2015-08-17T09:19:29Z</time>
      </trkpt>
      <trkpt lat="45.26568" lon="7.15751">
        <ele>2511.99</ele>
        <time>2015-08-17T09:19:39Z</time>
      </trkpt>
      <trkpt lat="45.26567" lon="7.15747">
        <ele>2513.22</ele>
        <time>2015-08-17T09:19:49Z</time>
      </trkpt>
      <trkpt lat="45.26568" lon="7.15742">
        <ele>2514.74</ele>
        <time>2015-08-17T09:19:58Z</time>
      </trkpt>
      <trkpt lat="45.26568" lon="7.15735">
        <ele>2515.83</ele>
        <time>2015-08-17T09:20:08Z</time>
      </trkpt>
      <trkpt lat="45.26569" lon="7.15731">
        <ele>2517.04</ele>
        <time>2015-08-17T09:20:18Z</time>
      </trkpt>
      <trkpt lat="45.2657" lon="7.15726">
        <ele>2518.26</ele>
        <time>2015-08-17T09:20:29Z</time>
      </trkpt>
      <trkpt lat="45.26571" lon="7.15721">
        <ele>2519.38</ele>
        <time>2015-08-17T09:20:38Z</time>
      </trkpt>
      <trkpt lat="45.26572" lon="7.15715">
        <ele>2520.49</ele>
        <time>2015-08-17T09:20:48Z</time>
      </trkpt>
      <trkpt lat="45.26572" lon="7.15711">
        <ele>2521.54</ele>
        <time>2015-08-17T09:20:57Z</time>
      </trkpt>
      <trkpt lat="45.26572" lon="7.15708">
        <ele>2522.33</ele>
        <time>2015-08-17T09:21:04Z</time>
      </trkpt>
      <trkpt lat="45.26574" lon="7.15703">
        <ele>2523.82</ele>
        <time>2015-08-17T09:21:14Z</time>
      </trkpt>
      <trkpt lat="45.26575" lon="7.157">
        <ele>2524.89</ele>
        <time>2015-08-17T09:21:22Z</time>
      </trkpt>
      <trkpt lat="45.26576" lon="7.15695">
        <ele>2525.98</ele>
        <time>2015-08-17T09:21:31Z</time>
      </trkpt>
      <trkpt lat="45.26576" lon="7.15689">
        <ele>2527.32</ele>
        <time>2015-08-17T09:21:41Z</time>
      </trkpt>
      <trkpt lat="45.26572" lon="7.1569">
        <ele>2528.3</ele>
        <time>2015-08-17T09:21:49Z</time>
      </trkpt>
      <trkpt lat="45.26568" lon="7.15692">
        <ele>2529.49</ele>
        <time>2015-08-17T09:21:59Z</time>
      </trkpt>
      <trkpt lat="45.26565" lon="7.15693">
        <ele>2530.22</ele>
        <time>2015-08-17T09:22:08Z</time>
      </trkpt>
      <trkpt lat="45.26561" lon="7.15695">
        <ele>2531.13</ele>
        <time>2015-08-17T09:22:18Z</time>
      </trkpt>
      <trkpt lat="45.26559" lon="7.15697">
        <ele>2532.34</ele>
        <time>2015-08-17T09:22:26Z</time>
      </trkpt>
      <trkpt lat="45.26555" lon="7.15696">
        <ele>2533.96</ele>
        <time>2015-08-17T09:22:37Z</time>
      </trkpt>
      <trkpt lat="45.26552" lon="7.15696">
        <ele>2535.05</ele>
        <time>2015-08-17T09:22:46Z</time>
      </trkpt>
      <trkpt lat="45.26548" lon="7.15697">
        <ele>2536.14</ele>
        <time>2015-08-17T09:22:56Z</time>
      </trkpt>
      <trkpt lat="45.26544" lon="7.15695">
        <ele>2537</ele>
        <time>2015-08-17T09:23:04Z</time>
      </trkpt>
      <trkpt lat="45.26538" lon="7.15696">
        <ele>2538.49</ele>
        <time>2015-08-17T09:23:17Z</time>
      </trkpt>
      <trkpt lat="45.26533" lon="7.15697">
        <ele>2540.15</ele>
        <time>2015-08-17T09:23:30Z</time>
      </trkpt>
      <trkpt lat="45.26526" lon="7.15697">
        <ele>2542.79</ele>
        <time>2015-08-17T09:23:48Z</time>
      </trkpt>
      <trkpt lat="45.26528" lon="7.15693">
        <ele>2544.61</ele>
        <time>2015-08-17T09:24:00Z</time>
      </trkpt>
      <trkpt lat="45.2653" lon="7.1569">
        <ele>2546.12</ele>
        <time>2015-08-17T09:24:10Z</time>
      </trkpt>
      <trkpt lat="45.26527" lon="7.15687">
        <ele>2547.35</ele>
        <time>2015-08-17T09:24:19Z</time>
      </trkpt>
      <trkpt lat="45.26527" lon="7.15685">
        <ele>2548.79</ele>
        <time>2015-08-17T09:24:29Z</time>
      </trkpt>
      <trkpt lat="45.26528" lon="7.1568">
        <ele>2550.3</ele>
        <time>2015-08-17T09:24:41Z</time>
      </trkpt>
      <trkpt lat="45.26529" lon="7.15676">
        <ele>2551.72</ele>
        <time>2015-08-17T09:24:53Z</time>
      </trkpt>
      <trkpt lat="45.26529" lon="7.15671">
        <ele>2553.44</ele>
        <time>2015-08-17T09:25:04Z</time>
      </trkpt>
      <trkpt lat="45.26525" lon="7.15669">
        <ele>2554.65</ele>
        <time>2015-08-17T09:25:15Z</time>
      </trkpt>
      <trkpt lat="45.26522" lon="7.15668">
        <ele>2555.88</ele>
        <time>2015-08-17T09:25:24Z</time>
      </trkpt>
      <trkpt lat="45.26519" lon="7.15666">
        <ele>2557.74</ele>
        <time>2015-08-17T09:25:38Z</time>
      </trkpt>
      <trkpt lat="45.26516" lon="7.15666">
        <ele>2558.86</ele>
        <time>2015-08-17T09:25:48Z</time>
      </trkpt>
      <trkpt lat="45.2651" lon="7.15668">
        <ele>2560.78</ele>
        <time>2015-08-17T09:26:00Z</time>
      </trkpt>
      <trkpt lat="45.26509" lon="7.15667">
        <ele>2562.13</ele>
        <time>2015-08-17T09:26:10Z</time>
      </trkpt>
      <trkpt lat="45.26509" lon="7.15665">
        <ele>2562.77</ele>
        <time>2015-08-17T09:26:20Z</time>
      </trkpt>
      <trkpt lat="45.26508" lon="7.15665">
        <ele>2563.25</ele>
        <time>2015-08-17T09:26:39Z</time>
      </trkpt>
      <trkpt lat="45.26509" lon="7.1566">
        <ele>2563.91</ele>
        <time>2015-08-17T09:26:48Z</time>
      </trkpt>
      <trkpt lat="45.26511" lon="7.15655">
        <ele>2564.72</ele>
        <time>2015-08-17T09:26:56Z</time>
      </trkpt>
      <trkpt lat="45.26516" lon="7.15651">
        <ele>2566</ele>
        <time>2015-08-17T09:27:06Z</time>
      </trkpt>
      <trkpt lat="45.26517" lon="7.15644">
        <ele>2567.29</ele>
        <time>2015-08-17T09:27:14Z</time>
      </trkpt>
      <trkpt lat="45.26523" lon="7.15642">
        <ele>2568.34</ele>
        <time>2015-08-17T09:27:23Z</time>
      </trkpt>
      <trkpt lat="45.26527" lon="7.1564">
        <ele>2569.6</ele>
        <time>2015-08-17T09:27:31Z</time>
      </trkpt>
      <trkpt lat="45.26532" lon="7.15637">
        <ele>2570.99</ele>
        <time>2015-08-17T09:27:40Z</time>
      </trkpt>
      <trkpt lat="45.26536" lon="7.15635">
        <ele>2572.28</ele>
        <time>2015-08-17T09:27:50Z</time>
      </trkpt>
      <trkpt lat="45.26539" lon="7.15633">
        <ele>2573.52</ele>
        <time>2015-08-17T09:27:57Z</time>
      </trkpt>
      <trkpt lat="45.26541" lon="7.15633">
        <ele>2574.66</ele>
        <time>2015-08-17T09:28:04Z</time>
      </trkpt>
      <trkpt lat="45.26542" lon="7.15634">
        <ele>2574.67</ele>
        <time>2015-08-17T09:28:24Z</time>
      </trkpt>
      <trkpt lat="45.26544" lon="7.15634">
        <ele>2574.8</ele>
        <time>2015-08-17T09:28:43Z</time>
      </trkpt>
      <trkpt lat="45.26546" lon="7.15628">
        <ele>2575</ele>
        <time>2015-08-17T09:29:00Z</time>
      </trkpt>
      <trkpt lat="45.26551" lon="7.15621">
        <ele>2575.99</ele>
        <time>2015-08-17T09:29:10Z</time>
      </trkpt>
      <trkpt lat="45.26555" lon="7.1562">
        <ele>2576.29</ele>
        <time>2015-08-17T09:29:14Z</time>
      </trkpt>
      <trkpt lat="45.2656" lon="7.15616">
        <ele>2576.39</ele>
        <time>2015-08-17T09:29:21Z</time>
      </trkpt>
      <trkpt lat="45.26565" lon="7.1561">
        <ele>2577.45</ele>
        <time>2015-08-17T09:29:29Z</time>
      </trkpt>
      <trkpt lat="45.2657" lon="7.15606">
        <ele>2578.81</ele>
        <time>2015-08-17T09:29:38Z</time>
      </trkpt>
      <trkpt lat="45.26576" lon="7.15602">
        <ele>2580.81</ele>
        <time>2015-08-17T09:29:49Z</time>
      </trkpt>
      <trkpt lat="45.26578" lon="7.15599">
        <ele>2581.86</ele>
        <time>2015-08-17T09:29:56Z</time>
      </trkpt>
      <trkpt lat="45.26581" lon="7.15596">
        <ele>2582.94</ele>
        <time>2015-08-17T09:30:03Z</time>
      </trkpt>
      <trkpt lat="45.26585" lon="7.15591">
        <ele>2584</ele>
        <time>2015-08-17T09:30:14Z</time>
      </trkpt>
      <trkpt lat="45.2659" lon="7.15587">
        <ele>2585.46</ele>
        <time>2015-08-17T09:30:26Z</time>
      </trkpt>
      <trkpt lat="45.26594" lon="7.15583">
        <ele>2586.54</ele>
        <time>2015-08-17T09:30:36Z</time>
      </trkpt>
      <trkpt lat="45.26597" lon="7.15578">
        <ele>2588.11</ele>
        <time>2015-08-17T09:30:45Z</time>
      </trkpt>
      <trkpt lat="45.26596" lon="7.15577">
        <ele>2589.31</ele>
        <time>2015-08-17T09:30:52Z</time>
      </trkpt>
      <trkpt lat="45.26594" lon="7.15572">
        <ele>2590.11</ele>
        <time>2015-08-17T09:31:02Z</time>
      </trkpt>
      <trkpt lat="45.26597" lon="7.15566">
        <ele>2590.44</ele>
        <time>2015-08-17T09:31:10Z</time>
      </trkpt>
      <trkpt lat="45.26602" lon="7.1556">
        <ele>2591.53</ele>
        <time>2015-08-17T09:31:22Z</time>
      </trkpt>
      <trkpt lat="45.26606" lon="7.15555">
        <ele>2592.94</ele>
        <time>2015-08-17T09:31:31Z</time>
      </trkpt>
      <trkpt lat="45.26609" lon="7.15552">
        <ele>2594.21</ele>
        <time>2015-08-17T09:31:40Z</time>
      </trkpt>
      <trkpt lat="45.26613" lon="7.15549">
        <ele>2595.44</ele>
        <time>2015-08-17T09:31:50Z</time>
      </trkpt>
      <trkpt lat="45.26621" lon="7.15543">
        <ele>2596.45</ele>
        <time>2015-08-17T09:32:01Z</time>
      </trkpt>
      <trkpt lat="45.26626" lon="7.15538">
        <ele>2596.86</ele>
        <time>2015-08-17T09:32:08Z</time>
      </trkpt>
      <trkpt lat="45.26632" lon="7.15533">
        <ele>2597.79</ele>
        <time>2015-08-17T09:32:16Z</time>
      </trkpt>
      <trkpt lat="45.26636" lon="7.15525">
        <ele>2598.64</ele>
        <time>2015-08-17T09:32:25Z</time>
      </trkpt>
      <trkpt lat="45.26641" lon="7.15518">
        <ele>2599.52</ele>
        <time>2015-08-17T09:32:34Z</time>
      </trkpt>
      <trkpt lat="45.26642" lon="7.15516">
        <ele>2599.67</ele>
        <time>2015-08-17T09:32:36Z</time>
      </trkpt>
      <trkpt lat="45.2665" lon="7.15512">
        <ele>2599.95</ele>
        <time>2015-08-17T09:32:44Z</time>
      </trkpt>
      <trkpt lat="45.26652" lon="7.15507">
        <ele>2600.57</ele>
        <time>2015-08-17T09:32:51Z</time>
      </trkpt>
      <trkpt lat="45.26652" lon="7.15506">
        <ele>2601.71</ele>
        <time>2015-08-17T09:33:02Z</time>
      </trkpt>
      <trkpt lat="45.26653" lon="7.15506">
        <ele>2602.32</ele>
        <time>2015-08-17T09:33:10Z</time>
      </trkpt>
      <trkpt lat="45.26658" lon="7.15502">
        <ele>2603.35</ele>
        <time>2015-08-17T09:33:19Z</time>
      </trkpt>
      <trkpt lat="45.26661" lon="7.155">
        <ele>2604.06</ele>
        <time>2015-08-17T09:33:25Z</time>
      </trkpt>
      <trkpt lat="45.26666" lon="7.155">
        <ele>2604.97</ele>
        <time>2015-08-17T09:33:32Z</time>
      </trkpt>
      <trkpt lat="45.26669" lon="7.15493">
        <ele>2606.42</ele>
        <time>2015-08-17T09:33:43Z</time>
      </trkpt>
      <trkpt lat="45.26672" lon="7.1549">
        <ele>2607.45</ele>
        <time>2015-08-17T09:33:50Z</time>
      </trkpt>
      <trkpt lat="45.26678" lon="7.15485">
        <ele>2608.9</ele>
        <time>2015-08-17T09:34:00Z</time>
      </trkpt>
      <trkpt lat="45.26681" lon="7.1548">
        <ele>2610</ele>
        <time>2015-08-17T09:34:08Z</time>
      </trkpt>
      <trkpt lat="45.26683" lon="7.15475">
        <ele>2610.81</ele>
        <time>2015-08-17T09:34:16Z</time>
      </trkpt>
      <trkpt lat="45.26687" lon="7.1547">
        <ele>2611.67</ele>
        <time>2015-08-17T09:34:25Z</time>
      </trkpt>
      <trkpt lat="45.26689" lon="7.15464">
        <ele>2612.64</ele>
        <time>2015-08-17T09:34:34Z</time>
      </trkpt>
      <trkpt lat="45.26691" lon="7.15459">
        <ele>2613.92</ele>
        <time>2015-08-17T09:34:43Z</time>
      </trkpt>
      <trkpt lat="45.26694" lon="7.15454">
        <ele>2614.66</ele>
        <time>2015-08-17T09:34:51Z</time>
      </trkpt>
      <trkpt lat="45.26698" lon="7.15453">
        <ele>2616.03</ele>
        <time>2015-08-17T09:35:01Z</time>
      </trkpt>
      <trkpt lat="45.26699" lon="7.1545">
        <ele>2617.07</ele>
        <time>2015-08-17T09:35:08Z</time>
      </trkpt>
      <trkpt lat="45.267" lon="7.15446">
        <ele>2618.42</ele>
        <time>2015-08-17T09:35:16Z</time>
      </trkpt>
      <trkpt lat="45.26703" lon="7.15441">
        <ele>2619.6</ele>
        <time>2015-08-17T09:35:26Z</time>
      </trkpt>
      <trkpt lat="45.26708" lon="7.15439">
        <ele>2620.42</ele>
        <time>2015-08-17T09:35:32Z</time>
      </trkpt>
      <trkpt lat="45.26711" lon="7.15431">
        <ele>2620.97</ele>
        <time>2015-08-17T09:35:42Z</time>
      </trkpt>
      <trkpt lat="45.26708" lon="7.15427">
        <ele>2621.93</ele>
        <time>2015-08-17T09:35:50Z</time>
      </trkpt>
      <trkpt lat="45.26707" lon="7.15422">
        <ele>2623.15</ele>
        <time>2015-08-17T09:36:00Z</time>
      </trkpt>
      <trkpt lat="45.2671" lon="7.15421">
        <ele>2624.14</ele>
        <time>2015-08-17T09:36:09Z</time>
      </trkpt>
      <trkpt lat="45.26712" lon="7.15418">
        <ele>2625.15</ele>
        <time>2015-08-17T09:36:16Z</time>
      </trkpt>
      <trkpt lat="45.26709" lon="7.15414">
        <ele>2626.78</ele>
        <time>2015-08-17T09:36:26Z</time>
      </trkpt>
      <trkpt lat="45.26708" lon="7.1541">
        <ele>2627.91</ele>
        <time>2015-08-17T09:36:35Z</time>
      </trkpt>
      <trkpt lat="45.26707" lon="7.15405">
        <ele>2629.54</ele>
        <time>2015-08-17T09:36:45Z</time>
      </trkpt>
      <trkpt lat="45.26705" lon="7.15402">
        <ele>2630.73</ele>
        <time>2015-08-17T09:36:55Z</time>
      </trkpt>
      <trkpt lat="45.26703" lon="7.15401">
        <ele>2632.1</ele>
        <time>2015-08-17T09:37:04Z</time>
      </trkpt>
      <trkpt lat="45.267" lon="7.15399">
        <ele>2632.87</ele>
        <time>2015-08-17T09:37:12Z</time>
      </trkpt>
      <trkpt lat="45.26697" lon="7.15399">
        <ele>2634.05</ele>
        <time>2015-08-17T09:37:21Z</time>
      </trkpt>
      <trkpt lat="45.26693" lon="7.15398">
        <ele>2635.58</ele>
        <time>2015-08-17T09:37:33Z</time>
      </trkpt>
      <trkpt lat="45.26694" lon="7.15393">
        <ele>2636.14</ele>
        <time>2015-08-17T09:37:42Z</time>
      </trkpt>
      <trkpt lat="45.26695" lon="7.1539">
        <ele>2636.75</ele>
        <time>2015-08-17T09:37:49Z</time>
      </trkpt>
      <trkpt lat="45.26697" lon="7.15387">
        <ele>2637.87</ele>
        <time>2015-08-17T09:37:58Z</time>
      </trkpt>
      <trkpt lat="45.26699" lon="7.15385">
        <ele>2639.16</ele>
        <time>2015-08-17T09:38:07Z</time>
      </trkpt>
      <trkpt lat="45.267" lon="7.1538">
        <ele>2640.55</ele>
        <time>2015-08-17T09:38:16Z</time>
      </trkpt>
      <trkpt lat="45.26703" lon="7.15376">
        <ele>2642</ele>
        <time>2015-08-17T09:38:26Z</time>
      </trkpt>
      <trkpt lat="45.26701" lon="7.15373">
        <ele>2643.05</ele>
        <time>2015-08-17T09:38:35Z</time>
      </trkpt>
      <trkpt lat="45.267" lon="7.15373">
        <ele>2644.04</ele>
        <time>2015-08-17T09:38:43Z</time>
      </trkpt>
      <trkpt lat="45.26702" lon="7.15368">
        <ele>2645.34</ele>
        <time>2015-08-17T09:38:52Z</time>
      </trkpt>
      <trkpt lat="45.26701" lon="7.15364">
        <ele>2646.77</ele>
        <time>2015-08-17T09:39:02Z</time>
      </trkpt>
      <trkpt lat="45.26703" lon="7.15361">
        <ele>2647.86</ele>
        <time>2015-08-17T09:39:11Z</time>
      </trkpt>
      <trkpt lat="45.26701" lon="7.15358">
        <ele>2649.14</ele>
        <time>2015-08-17T09:39:20Z</time>
      </trkpt>
      <trkpt lat="45.26698" lon="7.15355">
        <ele>2650.14</ele>
        <time>2015-08-17T09:39:29Z</time>
      </trkpt>
      <trkpt lat="45.26698" lon="7.1535">
        <ele>2651.49</ele>
        <time>2015-08-17T09:39:37Z</time>
      </trkpt>
      <trkpt lat="45.26699" lon="7.15344">
        <ele>2653.24</ele>
        <time>2015-08-17T09:39:48Z</time>
      </trkpt>
      <trkpt lat="45.26701" lon="7.15339">
        <ele>2654.58</ele>
        <time>2015-08-17T09:40:00Z</time>
      </trkpt>
      <trkpt lat="45.26703" lon="7.15339">
        <ele>2655.16</ele>
        <time>2015-08-17T09:40:22Z</time>
      </trkpt>
      <trkpt lat="45.26704" lon="7.15335">
        <ele>2655.51</ele>
        <time>2015-08-17T09:40:33Z</time>
      </trkpt>
      <trkpt lat="45.26704" lon="7.15329">
        <ele>2656.28</ele>
        <time>2015-08-17T09:40:42Z</time>
      </trkpt>
      <trkpt lat="45.26708" lon="7.15323">
        <ele>2658.07</ele>
        <time>2015-08-17T09:40:53Z</time>
      </trkpt>
      <trkpt lat="45.2671" lon="7.15319">
        <ele>2659.76</ele>
        <time>2015-08-17T09:41:03Z</time>
      </trkpt>
      <trkpt lat="45.26714" lon="7.15314">
        <ele>2661.07</ele>
        <time>2015-08-17T09:41:13Z</time>
      </trkpt>
      <trkpt lat="45.26718" lon="7.15311">
        <ele>2662.07</ele>
        <time>2015-08-17T09:41:21Z</time>
      </trkpt>
      <trkpt lat="45.26722" lon="7.15306">
        <ele>2663.01</ele>
        <time>2015-08-17T09:41:30Z</time>
      </trkpt>
      <trkpt lat="45.26724" lon="7.15301">
        <ele>2664.14</ele>
        <time>2015-08-17T09:41:38Z</time>
      </trkpt>
      <trkpt lat="45.26727" lon="7.15296">
        <ele>2665.39</ele>
        <time>2015-08-17T09:41:46Z</time>
      </trkpt>
      <trkpt lat="45.26729" lon="7.1529">
        <ele>2666.85</ele>
        <time>2015-08-17T09:41:57Z</time>
      </trkpt>
      <trkpt lat="45.26731" lon="7.15287">
        <ele>2668.7</ele>
        <time>2015-08-17T09:42:05Z</time>
      </trkpt>
      <trkpt lat="45.26738" lon="7.15282">
        <ele>2670.25</ele>
        <time>2015-08-17T09:42:15Z</time>
      </trkpt>
      <trkpt lat="45.2674" lon="7.15274">
        <ele>2671.25</ele>
        <time>2015-08-17T09:42:25Z</time>
      </trkpt>
      <trkpt lat="45.26742" lon="7.1527">
        <ele>2672.61</ele>
        <time>2015-08-17T09:42:33Z</time>
      </trkpt>
      <trkpt lat="45.26742" lon="7.15264">
        <ele>2673.85</ele>
        <time>2015-08-17T09:42:42Z</time>
      </trkpt>
      <trkpt lat="45.26742" lon="7.15264">
        <ele>2674.08</ele>
        <time>2015-08-17T09:42:53Z</time>
      </trkpt>
      <trkpt lat="45.26746" lon="7.15261">
        <ele>2673.71</ele>
        <time>2015-08-17T09:43:11Z</time>
      </trkpt>
      <trkpt lat="45.26749" lon="7.15258">
        <ele>2673.84</ele>
        <time>2015-08-17T09:43:19Z</time>
      </trkpt>
      <trkpt lat="45.26754" lon="7.15253">
        <ele>2674.04</ele>
        <time>2015-08-17T09:43:32Z</time>
      </trkpt>
      <trkpt lat="45.26757" lon="7.15249">
        <ele>2674.28</ele>
        <time>2015-08-17T09:43:38Z</time>
      </trkpt>
      <trkpt lat="45.26763" lon="7.1524">
        <ele>2673.75</ele>
        <time>2015-08-17T09:43:46Z</time>
      </trkpt>
      <trkpt lat="45.26763" lon="7.15239">
        <ele>2673.34</ele>
        <time>2015-08-17T09:44:05Z</time>
      </trkpt>
      <trkpt lat="45.26761" lon="7.15239">
        <ele>2673.46</ele>
        <time>2015-08-17T09:44:31Z</time>
      </trkpt>
      <trkpt lat="45.26761" lon="7.15239">
        <ele>2673.32</ele>
        <time>2015-08-17T09:45:02Z</time>
      </trkpt>
      <trkpt lat="45.26767" lon="7.15235">
        <ele>2673.64</ele>
        <time>2015-08-17T09:45:12Z</time>
      </trkpt>
      <trkpt lat="45.26774" lon="7.1523">
        <ele>2674.36</ele>
        <time>2015-08-17T09:45:20Z</time>
      </trkpt>
      <trkpt lat="45.26775" lon="7.1523">
        <ele>2674.47</ele>
        <time>2015-08-17T09:45:21Z</time>
      </trkpt>
      <trkpt lat="45.26786" lon="7.15224">
        <ele>2675.5</ele>
        <time>2015-08-17T09:45:34Z</time>
      </trkpt>
      <trkpt lat="45.26786" lon="7.15223">
        <ele>2675.61</ele>
        <time>2015-08-17T09:45:35Z</time>
      </trkpt>
      <trkpt lat="45.26794" lon="7.15212">
        <ele>2675.95</ele>
        <time>2015-08-17T09:45:44Z</time>
      </trkpt>
      <trkpt lat="45.26802" lon="7.15203">
        <ele>2676.08</ele>
        <time>2015-08-17T09:45:52Z</time>
      </trkpt>
      <trkpt lat="45.26803" lon="7.15202">
        <ele>2676.25</ele>
        <time>2015-08-17T09:46:02Z</time>
      </trkpt>
      <trkpt lat="45.26809" lon="7.15199">
        <ele>2676.11</ele>
        <time>2015-08-17T09:46:11Z</time>
      </trkpt>
      <trkpt lat="45.26817" lon="7.15191">
        <ele>2676.33</ele>
        <time>2015-08-17T09:46:22Z</time>
      </trkpt>
      <trkpt lat="45.2682" lon="7.15186">
        <ele>2676.35</ele>
        <time>2015-08-17T09:46:26Z</time>
      </trkpt>
      <trkpt lat="45.26825" lon="7.15177">
        <ele>2676.61</ele>
        <time>2015-08-17T09:46:34Z</time>
      </trkpt>
      <trkpt lat="45.26831" lon="7.15171">
        <ele>2676.68</ele>
        <time>2015-08-17T09:46:42Z</time>
      </trkpt>
      <trkpt lat="45.26842" lon="7.15164">
        <ele>2676.29</ele>
        <time>2015-08-17T09:46:51Z</time>
      </trkpt>
      <trkpt lat="45.26849" lon="7.15157">
        <ele>2677.05</ele>
        <time>2015-08-17T09:47:00Z</time>
      </trkpt>
      <trkpt lat="45.26853" lon="7.15149">
        <ele>2677.32</ele>
        <time>2015-08-17T09:47:06Z</time>
      </trkpt>
      <trkpt lat="45.26855" lon="7.15139">
        <ele>2677.74</ele>
        <time>2015-08-17T09:47:13Z</time>
      </trkpt>
      <trkpt lat="45.26857" lon="7.1513">
        <ele>2678.51</ele>
        <time>2015-08-17T09:47:22Z</time>
      </trkpt>
      <trkpt lat="45.26859" lon="7.15121">
        <ele>2678.96</ele>
        <time>2015-08-17T09:47:30Z</time>
      </trkpt>
      <trkpt lat="45.26861" lon="7.15113">
        <ele>2679.48</ele>
        <time>2015-08-17T09:47:37Z</time>
      </trkpt>
      <trkpt lat="45.26863" lon="7.15102">
        <ele>2680.12</ele>
        <time>2015-08-17T09:47:46Z</time>
      </trkpt>
      <trkpt lat="45.26862" lon="7.15102">
        <ele>2680.15</ele>
        <time>2015-08-17T09:47:54Z</time>
      </trkpt>
      <trkpt lat="45.2686" lon="7.15104">
        <ele>2680.36</ele>
        <time>2015-08-17T09:48:06Z</time>
      </trkpt>
      <trkpt lat="45.26859" lon="7.15114">
        <ele>2680.32</ele>
        <time>2015-08-17T09:48:14Z</time>
      </trkpt>
      <trkpt lat="45.26862" lon="7.15104">
        <ele>2679.42</ele>
        <time>2015-08-17T09:48:21Z</time>
      </trkpt>
      <trkpt lat="45.26865" lon="7.15097">
        <ele>2678.85</ele>
        <time>2015-08-17T09:48:28Z</time>
      </trkpt>
      <trkpt lat="45.26865" lon="7.15096">
        <ele>2678.72</ele>
        <time>2015-08-17T09:48:29Z</time>
      </trkpt>
      <trkpt lat="45.26867" lon="7.15088">
        <ele>2677.32</ele>
        <time>2015-08-17T09:48:37Z</time>
      </trkpt>
      <trkpt lat="45.26869" lon="7.15084">
        <ele>2676</ele>
        <time>2015-08-17T09:48:44Z</time>
      </trkpt>
      <trkpt lat="45.26872" lon="7.15082">
        <ele>2676.63</ele>
        <time>2015-08-17T09:48:52Z</time>
      </trkpt>
      <trkpt lat="45.26876" lon="7.15087">
        <ele>2677.93</ele>
        <time>2015-08-17T09:49:01Z</time>
      </trkpt>
      <trkpt lat="45.26879" lon="7.15089">
        <ele>2678.5</ele>
        <time>2015-08-17T09:49:04Z</time>
      </trkpt>
      <trkpt lat="45.26886" lon="7.15095">
        <ele>2678.94</ele>
        <time>2015-08-17T09:49:12Z</time>
      </trkpt>
      <trkpt lat="45.26891" lon="7.15103">
        <ele>2679.46</ele>
        <time>2015-08-17T09:49:21Z</time>
      </trkpt>
      <trkpt lat="45.26892" lon="7.15103">
        <ele>2679.67</ele>
        <time>2015-08-17T09:49:23Z</time>
      </trkpt>
      <trkpt lat="45.26899" lon="7.15098">
        <ele>2680.27</ele>
        <time>2015-08-17T09:49:32Z</time>
      </trkpt>
      <trkpt lat="45.26901" lon="7.15096">
        <ele>2680.44</ele>
        <time>2015-08-17T09:49:35Z</time>
      </trkpt>
      <trkpt lat="45.26905" lon="7.15091">
        <ele>2681.17</ele>
        <time>2015-08-17T09:49:43Z</time>
      </trkpt>
      <trkpt lat="45.26906" lon="7.1509">
        <ele>2681.78</ele>
        <time>2015-08-17T09:49:48Z</time>
      </trkpt>
      <trkpt lat="45.26907" lon="7.15088">
        <ele>2681.83</ele>
        <time>2015-08-17T09:49:50Z</time>
      </trkpt>
      <trkpt lat="45.2691" lon="7.15077">
        <ele>2681.51</ele>
        <time>2015-08-17T09:50:00Z</time>
      </trkpt>
      <trkpt lat="45.26912" lon="7.15074">
        <ele>2681.34</ele>
        <time>2015-08-17T09:50:03Z</time>
      </trkpt>
      <trkpt lat="45.26915" lon="7.15068">
        <ele>2680.56</ele>
        <time>2015-08-17T09:50:08Z</time>
      </trkpt>
      <trkpt lat="45.26918" lon="7.1506">
        <ele>2680.15</ele>
        <time>2015-08-17T09:50:14Z</time>
      </trkpt>
      <trkpt lat="45.26917" lon="7.15045">
        <ele>2680.52</ele>
        <time>2015-08-17T09:50:24Z</time>
      </trkpt>
      <trkpt lat="45.26911" lon="7.15034">
        <ele>2681.56</ele>
        <time>2015-08-17T09:50:34Z</time>
      </trkpt>
      <trkpt lat="45.26907" lon="7.15019">
        <ele>2682.24</ele>
        <time>2015-08-17T09:50:45Z</time>
      </trkpt>
      <trkpt lat="45.26903" lon="7.15015">
        <ele>2682.58</ele>
        <time>2015-08-17T09:50:52Z</time>
      </trkpt>
      <trkpt lat="45.26899" lon="7.15015">
        <ele>2683.38</ele>
        <time>2015-08-17T09:50:57Z</time>
      </trkpt>
      <trkpt lat="45.26895" lon="7.1502">
        <ele>2685.07</ele>
        <time>2015-08-17T09:51:06Z</time>
      </trkpt>
      <trkpt lat="45.26891" lon="7.15012">
        <ele>2686.01</ele>
        <time>2015-08-17T09:51:14Z</time>
      </trkpt>
      <trkpt lat="45.26888" lon="7.15018">
        <ele>2687.13</ele>
        <time>2015-08-17T09:51:22Z</time>
      </trkpt>
      <trkpt lat="45.26884" lon="7.15021">
        <ele>2688.82</ele>
        <time>2015-08-17T09:51:32Z</time>
      </trkpt>
      <trkpt lat="45.26876" lon="7.1502">
        <ele>2690.55</ele>
        <time>2015-08-17T09:51:43Z</time>
      </trkpt>
      <trkpt lat="45.26871" lon="7.15016">
        <ele>2691.78</ele>
        <time>2015-08-17T09:51:54Z</time>
      </trkpt>
      <trkpt lat="45.26867" lon="7.15009">
        <ele>2692.6</ele>
        <time>2015-08-17T09:52:03Z</time>
      </trkpt>
      <trkpt lat="45.26865" lon="7.14999">
        <ele>2693.5</ele>
        <time>2015-08-17T09:52:13Z</time>
      </trkpt>
      <trkpt lat="45.26864" lon="7.1499">
        <ele>2694.26</ele>
        <time>2015-08-17T09:52:22Z</time>
      </trkpt>
      <trkpt lat="45.26863" lon="7.14979">
        <ele>2695.61</ele>
        <time>2015-08-17T09:52:33Z</time>
      </trkpt>
      <trkpt lat="45.26862" lon="7.14972">
        <ele>2696.15</ele>
        <time>2015-08-17T09:52:38Z</time>
      </trkpt>
      <trkpt lat="45.26861" lon="7.14958">
        <ele>2696.15</ele>
        <time>2015-08-17T09:52:47Z</time>
      </trkpt>
      <trkpt lat="45.26859" lon="7.14944">
        <ele>2695.85</ele>
        <time>2015-08-17T09:52:57Z</time>
      </trkpt>
      <trkpt lat="45.26854" lon="7.14934">
        <ele>2696.88</ele>
        <time>2015-08-17T09:53:08Z</time>
      </trkpt>
      <trkpt lat="45.2685" lon="7.14925">
        <ele>2698.64</ele>
        <time>2015-08-17T09:53:18Z</time>
      </trkpt>
      <trkpt lat="45.26843" lon="7.14922">
        <ele>2699.47</ele>
        <time>2015-08-17T09:53:25Z</time>
      </trkpt>
      <trkpt lat="45.2684" lon="7.14922">
        <ele>2699.38</ele>
        <time>2015-08-17T09:53:29Z</time>
      </trkpt>
      <trkpt lat="45.26838" lon="7.14924">
        <ele>2698.77</ele>
        <time>2015-08-17T09:53:34Z</time>
      </trkpt>
      <trkpt lat="45.26837" lon="7.14926">
        <ele>2698.43</ele>
        <time>2015-08-17T09:53:36Z</time>
      </trkpt>
      <trkpt lat="45.26836" lon="7.14931">
        <ele>2698.14</ele>
        <time>2015-08-17T09:53:38Z</time>
      </trkpt>
      <trkpt lat="45.26833" lon="7.14938">
        <ele>2697.88</ele>
        <time>2015-08-17T09:53:40Z</time>
      </trkpt>
      <trkpt lat="45.26831" lon="7.1494">
        <ele>2697.75</ele>
        <time>2015-08-17T09:53:41Z</time>
      </trkpt>
      <trkpt lat="45.26829" lon="7.14941">
        <ele>2697.57</ele>
        <time>2015-08-17T09:53:42Z</time>
      </trkpt>
      <trkpt lat="45.26817" lon="7.14941">
        <ele>2696.45</ele>
        <time>2015-08-17T09:53:49Z</time>
      </trkpt>
      <trkpt lat="45.26807" lon="7.14943">
        <ele>2696.04</ele>
        <time>2015-08-17T09:53:54Z</time>
      </trkpt>
      <trkpt lat="45.26806" lon="7.14944">
        <ele>2696.03</ele>
        <time>2015-08-17T09:53:55Z</time>
      </trkpt>
      <trkpt lat="45.26802" lon="7.14955">
        <ele>2696.88</ele>
        <time>2015-08-17T09:54:02Z</time>
      </trkpt>
      <trkpt lat="45.26802" lon="7.14959">
        <ele>2697.22</ele>
        <time>2015-08-17T09:54:04Z</time>
      </trkpt>
      <trkpt lat="45.26802" lon="7.1496">
        <ele>2697.36</ele>
        <time>2015-08-17T09:54:05Z</time>
      </trkpt>
      <trkpt lat="45.26803" lon="7.14974">
        <ele>2698.23</ele>
        <time>2015-08-17T09:54:13Z</time>
      </trkpt>
      <trkpt lat="45.26807" lon="7.14983">
        <ele>2699.18</ele>
        <time>2015-08-17T09:54:21Z</time>
      </trkpt>
      <trkpt lat="45.26808" lon="7.14985">
        <ele>2699.64</ele>
        <time>2015-08-17T09:54:37Z</time>
      </trkpt>
      <trkpt lat="45.26807" lon="7.14989">
        <ele>2699.75</ele>
        <time>2015-08-17T09:54:49Z</time>
      </trkpt>
      <trkpt lat="45.26805" lon="7.14988">
        <ele>2700.25</ele>
        <time>2015-08-17T09:54:55Z</time>
      </trkpt>
      <trkpt lat="45.26801" lon="7.14985">
        <ele>2700.65</ele>
        <time>2015-08-17T09:55:02Z</time>
      </trkpt>
      <trkpt lat="45.26796" lon="7.14984">
        <ele>2701.17</ele>
        <time>2015-08-17T09:55:10Z</time>
      </trkpt>
      <trkpt lat="45.26796" lon="7.14989">
        <ele>2702.53</ele>
        <time>2015-08-17T09:55:21Z</time>
      </trkpt>
      <trkpt lat="45.26793" lon="7.14987">
        <ele>2704</ele>
        <time>2015-08-17T09:55:31Z</time>
      </trkpt>
      <trkpt lat="45.26787" lon="7.1499">
        <ele>2705.53</ele>
        <time>2015-08-17T09:55:40Z</time>
      </trkpt>
      <trkpt lat="45.26782" lon="7.14989">
        <ele>2706.05</ele>
        <time>2015-08-17T09:55:48Z</time>
      </trkpt>
      <trkpt lat="45.26777" lon="7.1499">
        <ele>2706.08</ele>
        <time>2015-08-17T09:55:55Z</time>
      </trkpt>
      <trkpt lat="45.26774" lon="7.14987">
        <ele>2706.4</ele>
        <time>2015-08-17T09:56:03Z</time>
      </trkpt>
      <trkpt lat="45.26771" lon="7.14982">
        <ele>2707.11</ele>
        <time>2015-08-17T09:56:11Z</time>
      </trkpt>
      <trkpt lat="45.2677" lon="7.14976">
        <ele>2708.07</ele>
        <time>2015-08-17T09:56:20Z</time>
      </trkpt>
      <trkpt lat="45.26767" lon="7.14971">
        <ele>2709.35</ele>
        <time>2015-08-17T09:56:29Z</time>
      </trkpt>
      <trkpt lat="45.26767" lon="7.14966">
        <ele>2710.31</ele>
        <time>2015-08-17T09:56:36Z</time>
      </trkpt>
      <trkpt lat="45.26768" lon="7.14964">
        <ele>2710.46</ele>
        <time>2015-08-17T09:56:38Z</time>
      </trkpt>
      <trkpt lat="45.2677" lon="7.1496">
        <ele>2710.92</ele>
        <time>2015-08-17T09:56:46Z</time>
      </trkpt>
      <trkpt lat="45.26769" lon="7.14962">
        <ele>2710.71</ele>
        <time>2015-08-17T09:57:14Z</time>
      </trkpt>
      <trkpt lat="45.26768" lon="7.14963">
        <ele>2711.24</ele>
        <time>2015-08-17T09:57:44Z</time>
      </trkpt>
      <trkpt lat="45.26768" lon="7.14963">
        <ele>2711.69</ele>
        <time>2015-08-17T09:58:45Z</time>
      </trkpt>
      <trkpt lat="45.26768" lon="7.14964">
        <ele>2712.18</ele>
        <time>2015-08-17T09:59:52Z</time>
      </trkpt>
      <trkpt lat="45.26768" lon="7.14965">
        <ele>2712.27</ele>
        <time>2015-08-17T10:00:40Z</time>
      </trkpt>
      <trkpt lat="45.26769" lon="7.14963">
        <ele>2712.33</ele>
        <time>2015-08-17T10:01:26Z</time>
      </trkpt>
      <trkpt lat="45.26769" lon="7.14962">
        <ele>2712.43</ele>
        <time>2015-08-17T10:02:16Z</time>
      </trkpt>
      <trkpt lat="45.26768" lon="7.14962">
        <ele>2712.54</ele>
        <time>2015-08-17T10:02:59Z</time>
      </trkpt>
      <trkpt lat="45.26768" lon="7.14964">
        <ele>2713.07</ele>
        <time>2015-08-17T10:03:59Z</time>
      </trkpt>
      <trkpt lat="45.26769" lon="7.14964">
        <ele>2713.59</ele>
        <time>2015-08-17T10:04:46Z</time>
      </trkpt>
      <trkpt lat="45.26768" lon="7.14963">
        <ele>2713.2</ele>
        <time>2015-08-17T10:05:26Z</time>
      </trkpt>
      <trkpt lat="45.26767" lon="7.14962">
        <ele>2713.76</ele>
        <time>2015-08-17T10:06:58Z</time>
      </trkpt>
      <trkpt lat="45.26766" lon="7.14963">
        <ele>2714.03</ele>
        <time>2015-08-17T10:08:17Z</time>
      </trkpt>
      <trkpt lat="45.26767" lon="7.14962">
        <ele>2713.93</ele>
        <time>2015-08-17T10:08:41Z</time>
      </trkpt>
      <trkpt lat="45.26766" lon="7.14961">
        <ele>2714.19</ele>
        <time>2015-08-17T10:09:57Z</time>
      </trkpt>
      <trkpt lat="45.26765" lon="7.14961">
        <ele>2714.32</ele>
        <time>2015-08-17T10:10:26Z</time>
      </trkpt>
      <trkpt lat="45.26766" lon="7.1496">
        <ele>2713.95</ele>
        <time>2015-08-17T10:11:03Z</time>
      </trkpt>
      <trkpt lat="45.26766" lon="7.14959">
        <ele>2714.07</ele>
        <time>2015-08-17T10:11:08Z</time>
      </trkpt>
      <trkpt lat="45.26764" lon="7.14954">
        <ele>2714.13</ele>
        <time>2015-08-17T10:11:11Z</time>
      </trkpt>
      <trkpt lat="45.26764" lon="7.1495">
        <ele>2714.11</ele>
        <time>2015-08-17T10:11:12Z</time>
      </trkpt>
      <trkpt lat="45.26765" lon="7.14947">
        <ele>2714.05</ele>
        <time>2015-08-17T10:11:13Z</time>
      </trkpt>
      <trkpt lat="45.26766" lon="7.14944">
        <ele>2713.98</ele>
        <time>2015-08-17T10:11:14Z</time>
      </trkpt>
      <trkpt lat="45.26766" lon="7.14941">
        <ele>2713.9</ele>
        <time>2015-08-17T10:11:15Z</time>
      </trkpt>
      <trkpt lat="45.26765" lon="7.1494">
        <ele>2713.63</ele>
        <time>2015-08-17T10:11:20Z</time>
      </trkpt>
      <trkpt lat="45.26765" lon="7.14942">
        <ele>2713.71</ele>
        <time>2015-08-17T10:11:38Z</time>
      </trkpt>
      <trkpt lat="45.26765" lon="7.14941">
        <ele>2713.67</ele>
        <time>2015-08-17T10:11:45Z</time>
      </trkpt>
      <trkpt lat="45.26765" lon="7.14942">
        <ele>2713.31</ele>
        <time>2015-08-17T10:12:06Z</time>
      </trkpt>
      <trkpt lat="45.26764" lon="7.14941">
        <ele>2713.44</ele>
        <time>2015-08-17T10:12:29Z</time>
      </trkpt>
      <trkpt lat="45.26764" lon="7.14944">
        <ele>2713.18</ele>
        <time>2015-08-17T10:12:45Z</time>
      </trkpt>
      <trkpt lat="45.26762" lon="7.14943">
        <ele>2713.56</ele>
        <time>2015-08-17T10:12:56Z</time>
      </trkpt>
      <trkpt lat="45.26762" lon="7.14941">
        <ele>2713.57</ele>
        <time>2015-08-17T10:12:57Z</time>
      </trkpt>
      <trkpt lat="45.26761" lon="7.1494">
        <ele>2713.58</ele>
        <time>2015-08-17T10:12:58Z</time>
      </trkpt>
      <trkpt lat="45.2676" lon="7.14938">
        <ele>2713.59</ele>
        <time>2015-08-17T10:12:59Z</time>
      </trkpt>
      <trkpt lat="45.26759" lon="7.14936">
        <ele>2713.58</ele>
        <time>2015-08-17T10:13:00Z</time>
      </trkpt>
      <trkpt lat="45.26751" lon="7.14911">
        <ele>2713.36</ele>
        <time>2015-08-17T10:13:07Z</time>
      </trkpt>
      <trkpt lat="45.26745" lon="7.14881">
        <ele>2712.68</ele>
        <time>2015-08-17T10:13:11Z</time>
      </trkpt>
      <trkpt lat="45.2674" lon="7.14865">
        <ele>2711.84</ele>
        <time>2015-08-17T10:13:13Z</time>
      </trkpt>
      <trkpt lat="45.26737" lon="7.14859">
        <ele>2711.38</ele>
        <time>2015-08-17T10:13:14Z</time>
      </trkpt>
      <trkpt lat="45.26724" lon="7.14835">
        <ele>2710.1</ele>
        <time>2015-08-17T10:13:20Z</time>
      </trkpt>
      <trkpt lat="45.26713" lon="7.14822">
        <ele>2709.78</ele>
        <time>2015-08-17T10:13:27Z</time>
      </trkpt>
      <trkpt lat="45.26701" lon="7.14812">
        <ele>2709.65</ele>
        <time>2015-08-17T10:13:35Z</time>
      </trkpt>
      <trkpt lat="45.26686" lon="7.14806">
        <ele>2709.28</ele>
        <time>2015-08-17T10:13:43Z</time>
      </trkpt>
      <trkpt lat="45.26673" lon="7.14803">
        <ele>2709.39</ele>
        <time>2015-08-17T10:13:49Z</time>
      </trkpt>
      <trkpt lat="45.26658" lon="7.148">
        <ele>2709.53</ele>
        <time>2015-08-17T10:13:57Z</time>
      </trkpt>
      <trkpt lat="45.26657" lon="7.14802">
        <ele>2709.84</ele>
        <time>2015-08-17T10:14:03Z</time>
      </trkpt>
      <trkpt lat="45.26656" lon="7.14801">
        <ele>2710.22</ele>
        <time>2015-08-17T10:14:14Z</time>
      </trkpt>
      <trkpt lat="45.26656" lon="7.14802">
        <ele>2710.38</ele>
        <time>2015-08-17T10:14:27Z</time>
      </trkpt>
      <trkpt lat="45.26656" lon="7.14803">
        <ele>2710.7</ele>
        <time>2015-08-17T10:14:40Z</time>
      </trkpt>
      <trkpt lat="45.26656" lon="7.14804">
        <ele>2710.51</ele>
        <time>2015-08-17T10:15:01Z</time>
      </trkpt>
      <trkpt lat="45.26657" lon="7.14805">
        <ele>2710.42</ele>
        <time>2015-08-17T10:15:25Z</time>
      </trkpt>
      <trkpt lat="45.26657" lon="7.14805">
        <ele>2710.06</ele>
        <time>2015-08-17T10:15:41Z</time>
      </trkpt>
      <trkpt lat="45.26654" lon="7.14803">
        <ele>2710.08</ele>
        <time>2015-08-17T10:15:46Z</time>
      </trkpt>
      <trkpt lat="45.26652" lon="7.14804">
        <ele>2710.15</ele>
        <time>2015-08-17T10:15:48Z</time>
      </trkpt>
      <trkpt lat="45.26643" lon="7.14806">
        <ele>2711.65</ele>
        <time>2015-08-17T10:16:00Z</time>
      </trkpt>
      <trkpt lat="45.26637" lon="7.1481">
        <ele>2712.96</ele>
        <time>2015-08-17T10:16:10Z</time>
      </trkpt>
      <trkpt lat="45.26633" lon="7.14812">
        <ele>2713.53</ele>
        <time>2015-08-17T10:16:20Z</time>
      </trkpt>
      <trkpt lat="45.26632" lon="7.14815">
        <ele>2714.57</ele>
        <time>2015-08-17T10:16:28Z</time>
      </trkpt>
      <trkpt lat="45.26633" lon="7.14816">
        <ele>2715.16</ele>
        <time>2015-08-17T10:16:50Z</time>
      </trkpt>
      <trkpt lat="45.26634" lon="7.14816">
        <ele>2715.46</ele>
        <time>2015-08-17T10:16:57Z</time>
      </trkpt>
      <trkpt lat="45.2663" lon="7.14818">
        <ele>2716.01</ele>
        <time>2015-08-17T10:17:05Z</time>
      </trkpt>
      <trkpt lat="45.26625" lon="7.14824">
        <ele>2717.62</ele>
        <time>2015-08-17T10:17:15Z</time>
      </trkpt>
      <trkpt lat="45.2662" lon="7.14829">
        <ele>2719.04</ele>
        <time>2015-08-17T10:17:24Z</time>
      </trkpt>
      <trkpt lat="45.26611" lon="7.14834">
        <ele>2720.85</ele>
        <time>2015-08-17T10:17:37Z</time>
      </trkpt>
      <trkpt lat="45.26606" lon="7.14834">
        <ele>2722.08</ele>
        <time>2015-08-17T10:17:47Z</time>
      </trkpt>
      <trkpt lat="45.26605" lon="7.14834">
        <ele>2722.13</ele>
        <time>2015-08-17T10:17:48Z</time>
      </trkpt>
      <trkpt lat="45.26604" lon="7.14834">
        <ele>2722.17</ele>
        <time>2015-08-17T10:17:49Z</time>
      </trkpt>
      <trkpt lat="45.26603" lon="7.14834">
        <ele>2722.2</ele>
        <time>2015-08-17T10:17:50Z</time>
      </trkpt>
      <trkpt lat="45.26602" lon="7.14834">
        <ele>2722.24</ele>
        <time>2015-08-17T10:17:51Z</time>
      </trkpt>
      <trkpt lat="45.266" lon="7.14833">
        <ele>2722.3</ele>
        <time>2015-08-17T10:17:52Z</time>
      </trkpt>
      <trkpt lat="45.2659" lon="7.14837">
        <ele>2722.11</ele>
        <time>2015-08-17T10:18:01Z</time>
      </trkpt>
      <trkpt lat="45.26588" lon="7.1484">
        <ele>2721.71</ele>
        <time>2015-08-17T10:18:04Z</time>
      </trkpt>
      <trkpt lat="45.26581" lon="7.14844">
        <ele>2720.88</ele>
        <time>2015-08-17T10:18:12Z</time>
      </trkpt>
      <trkpt lat="45.2658" lon="7.14844">
        <ele>2720.82</ele>
        <time>2015-08-17T10:18:13Z</time>
      </trkpt>
      <trkpt lat="45.26578" lon="7.14844">
        <ele>2720.78</ele>
        <time>2015-08-17T10:18:14Z</time>
      </trkpt>
      <trkpt lat="45.26573" lon="7.14851">
        <ele>2721.02</ele>
        <time>2015-08-17T10:18:22Z</time>
      </trkpt>
      <trkpt lat="45.26571" lon="7.14852">
        <ele>2721.49</ele>
        <time>2015-08-17T10:18:25Z</time>
      </trkpt>
      <trkpt lat="45.26562" lon="7.14853">
        <ele>2722.35</ele>
        <time>2015-08-17T10:18:34Z</time>
      </trkpt>
      <trkpt lat="45.26554" lon="7.14856">
        <ele>2721.88</ele>
        <time>2015-08-17T10:18:44Z</time>
      </trkpt>
      <trkpt lat="45.2655" lon="7.14856">
        <ele>2721.52</ele>
        <time>2015-08-17T10:18:51Z</time>
      </trkpt>
      <trkpt lat="45.26546" lon="7.14856">
        <ele>2721.41</ele>
        <time>2015-08-17T10:18:59Z</time>
      </trkpt>
      <trkpt lat="45.26541" lon="7.14857">
        <ele>2721.48</ele>
        <time>2015-08-17T10:19:08Z</time>
      </trkpt>
      <trkpt lat="45.26536" lon="7.14855">
        <ele>2721.27</ele>
        <time>2015-08-17T10:19:18Z</time>
      </trkpt>
      <trkpt lat="45.26531" lon="7.14851">
        <ele>2719.72</ele>
        <time>2015-08-17T10:19:27Z</time>
      </trkpt>
      <trkpt lat="45.26525" lon="7.14852">
        <ele>2718.42</ele>
        <time>2015-08-17T10:19:33Z</time>
      </trkpt>
      <trkpt lat="45.26518" lon="7.14855">
        <ele>2716.77</ele>
        <time>2015-08-17T10:19:41Z</time>
      </trkpt>
      <trkpt lat="45.26517" lon="7.14856">
        <ele>2716.41</ele>
        <time>2015-08-17T10:19:43Z</time>
      </trkpt>
      <trkpt lat="45.26515" lon="7.14858">
        <ele>2714.7</ele>
        <time>2015-08-17T10:19:52Z</time>
      </trkpt>
      <trkpt lat="45.26511" lon="7.14857">
        <ele>2713.42</ele>
        <time>2015-08-17T10:20:02Z</time>
      </trkpt>
      <trkpt lat="45.26507" lon="7.14857">
        <ele>2711.82</ele>
        <time>2015-08-17T10:20:13Z</time>
      </trkpt>
      <trkpt lat="45.26503" lon="7.14856">
        <ele>2710.74</ele>
        <time>2015-08-17T10:20:21Z</time>
      </trkpt>
      <trkpt lat="45.265" lon="7.14856">
        <ele>2709.59</ele>
        <time>2015-08-17T10:20:29Z</time>
      </trkpt>
      <trkpt lat="45.26495" lon="7.14854">
        <ele>2708.69</ele>
        <time>2015-08-17T10:20:38Z</time>
      </trkpt>
      <trkpt lat="45.26494" lon="7.14853">
        <ele>2708.57</ele>
        <time>2015-08-17T10:20:52Z</time>
      </trkpt>
      <trkpt lat="45.26492" lon="7.14851">
        <ele>2708.38</ele>
        <time>2015-08-17T10:21:07Z</time>
      </trkpt>
      <trkpt lat="45.26488" lon="7.14849">
        <ele>2708.37</ele>
        <time>2015-08-17T10:21:14Z</time>
      </trkpt>
      <trkpt lat="45.26483" lon="7.14847">
        <ele>2708.74</ele>
        <time>2015-08-17T10:21:22Z</time>
      </trkpt>
      <trkpt lat="45.2648" lon="7.14848">
        <ele>2709.75</ele>
        <time>2015-08-17T10:21:30Z</time>
      </trkpt>
      <trkpt lat="45.26475" lon="7.14848">
        <ele>2710.57</ele>
        <time>2015-08-17T10:21:47Z</time>
      </trkpt>
      <trkpt lat="45.26466" lon="7.14847">
        <ele>2710.7</ele>
        <time>2015-08-17T10:21:54Z</time>
      </trkpt>
      <trkpt lat="45.2645" lon="7.14843">
        <ele>2711.09</ele>
        <time>2015-08-17T10:22:03Z</time>
      </trkpt>
      <trkpt lat="45.26435" lon="7.14848">
        <ele>2711.22</ele>
        <time>2015-08-17T10:22:11Z</time>
      </trkpt>
      <trkpt lat="45.26421" lon="7.14853">
        <ele>2711.11</ele>
        <time>2015-08-17T10:22:19Z</time>
      </trkpt>
      <trkpt lat="45.26407" lon="7.14859">
        <ele>2711.16</ele>
        <time>2015-08-17T10:22:29Z</time>
      </trkpt>
      <trkpt lat="45.26405" lon="7.14862">
        <ele>2710.96</ele>
        <time>2015-08-17T10:22:39Z</time>
      </trkpt>
      <trkpt lat="45.26397" lon="7.14864">
        <ele>2710.17</ele>
        <time>2015-08-17T10:22:52Z</time>
      </trkpt>
      <trkpt lat="45.26395" lon="7.14862">
        <ele>2709.57</ele>
        <time>2015-08-17T10:22:58Z</time>
      </trkpt>
      <trkpt lat="45.26391" lon="7.14868">
        <ele>2709.35</ele>
        <time>2015-08-17T10:23:06Z</time>
      </trkpt>
      <trkpt lat="45.26388" lon="7.14873">
        <ele>2709.44</ele>
        <time>2015-08-17T10:23:14Z</time>
      </trkpt>
      <trkpt lat="45.26386" lon="7.14876">
        <ele>2709.91</ele>
        <time>2015-08-17T10:23:22Z</time>
      </trkpt>
      <trkpt lat="45.26382" lon="7.1488">
        <ele>2709.93</ele>
        <time>2015-08-17T10:23:32Z</time>
      </trkpt>
      <trkpt lat="45.26381" lon="7.1488">
        <ele>2709.95</ele>
        <time>2015-08-17T10:23:33Z</time>
      </trkpt>
      <trkpt lat="45.26377" lon="7.14885">
        <ele>2709.89</ele>
        <time>2015-08-17T10:23:40Z</time>
      </trkpt>
      <trkpt lat="45.26374" lon="7.14891">
        <ele>2709.38</ele>
        <time>2015-08-17T10:23:48Z</time>
      </trkpt>
      <trkpt lat="45.26374" lon="7.14892">
        <ele>2709.28</ele>
        <time>2015-08-17T10:23:49Z</time>
      </trkpt>
      <trkpt lat="45.26373" lon="7.14894">
        <ele>2709.11</ele>
        <time>2015-08-17T10:23:50Z</time>
      </trkpt>
      <trkpt lat="45.26374" lon="7.14896">
        <ele>2709.04</ele>
        <time>2015-08-17T10:23:51Z</time>
      </trkpt>
      <trkpt lat="45.26374" lon="7.14897">
        <ele>2708.98</ele>
        <time>2015-08-17T10:23:52Z</time>
      </trkpt>
      <trkpt lat="45.26371" lon="7.14907">
        <ele>2709.2</ele>
        <time>2015-08-17T10:24:00Z</time>
      </trkpt>
      <trkpt lat="45.26372" lon="7.14916">
        <ele>2709.79</ele>
        <time>2015-08-17T10:24:08Z</time>
      </trkpt>
      <trkpt lat="45.26373" lon="7.14918">
        <ele>2709.93</ele>
        <time>2015-08-17T10:24:10Z</time>
      </trkpt>
      <trkpt lat="45.26379" lon="7.14924">
        <ele>2711.07</ele>
        <time>2015-08-17T10:24:18Z</time>
      </trkpt>
      <trkpt lat="45.26379" lon="7.14925">
        <ele>2711.16</ele>
        <time>2015-08-17T10:24:19Z</time>
      </trkpt>
      <trkpt lat="45.26382" lon="7.14927">
        <ele>2711.78</ele>
        <time>2015-08-17T10:24:25Z</time>
      </trkpt>
      <trkpt lat="45.26385" lon="7.14927">
        <ele>2713</ele>
        <time>2015-08-17T10:24:34Z</time>
      </trkpt>
      <trkpt lat="45.2639" lon="7.14931">
        <ele>2714.08</ele>
        <time>2015-08-17T10:24:43Z</time>
      </trkpt>
      <trkpt lat="45.26395" lon="7.14935">
        <ele>2713.94</ele>
        <time>2015-08-17T10:24:51Z</time>
      </trkpt>
      <trkpt lat="45.26396" lon="7.14936">
        <ele>2713.85</ele>
        <time>2015-08-17T10:24:52Z</time>
      </trkpt>
      <trkpt lat="45.26404" lon="7.1494">
        <ele>2712.62</ele>
        <time>2015-08-17T10:25:01Z</time>
      </trkpt>
      <trkpt lat="45.26409" lon="7.14942">
        <ele>2711.48</ele>
        <time>2015-08-17T10:25:10Z</time>
      </trkpt>
      <trkpt lat="45.26415" lon="7.14948">
        <ele>2710.12</ele>
        <time>2015-08-17T10:25:19Z</time>
      </trkpt>
      <trkpt lat="45.26417" lon="7.1495">
        <ele>2709.61</ele>
        <time>2015-08-17T10:25:22Z</time>
      </trkpt>
      <trkpt lat="45.26417" lon="7.14957">
        <ele>2709.14</ele>
        <time>2015-08-17T10:25:30Z</time>
      </trkpt>
      <trkpt lat="45.26414" lon="7.14965">
        <ele>2709.62</ele>
        <time>2015-08-17T10:25:38Z</time>
      </trkpt>
      <trkpt lat="45.26411" lon="7.14973">
        <ele>2710.28</ele>
        <time>2015-08-17T10:25:49Z</time>
      </trkpt>
      <trkpt lat="45.26408" lon="7.1498">
        <ele>2710.81</ele>
        <time>2015-08-17T10:25:58Z</time>
      </trkpt>
      <trkpt lat="45.26405" lon="7.14987">
        <ele>2711.69</ele>
        <time>2015-08-17T10:26:08Z</time>
      </trkpt>
      <trkpt lat="45.26399" lon="7.14994">
        <ele>2712.6</ele>
        <time>2015-08-17T10:26:17Z</time>
      </trkpt>
      <trkpt lat="45.26395" lon="7.14998">
        <ele>2712.65</ele>
        <time>2015-08-17T10:26:21Z</time>
      </trkpt>
      <trkpt lat="45.26393" lon="7.15001">
        <ele>2712.74</ele>
        <time>2015-08-17T10:26:25Z</time>
      </trkpt>
      <trkpt lat="45.26392" lon="7.15002">
        <ele>2712.71</ele>
        <time>2015-08-17T10:26:26Z</time>
      </trkpt>
      <trkpt lat="45.26391" lon="7.15003">
        <ele>2712.67</ele>
        <time>2015-08-17T10:26:27Z</time>
      </trkpt>
      <trkpt lat="45.26387" lon="7.15006">
        <ele>2712.5</ele>
        <time>2015-08-17T10:26:34Z</time>
      </trkpt>
      <trkpt lat="45.26385" lon="7.15007">
        <ele>2712.83</ele>
        <time>2015-08-17T10:26:37Z</time>
      </trkpt>
      <trkpt lat="45.2638" lon="7.15011">
        <ele>2713.13</ele>
        <time>2015-08-17T10:26:42Z</time>
      </trkpt>
      <trkpt lat="45.26375" lon="7.15016">
        <ele>2712.18</ele>
        <time>2015-08-17T10:26:49Z</time>
      </trkpt>
      <trkpt lat="45.26373" lon="7.15016">
        <ele>2712.02</ele>
        <time>2015-08-17T10:26:50Z</time>
      </trkpt>
      <trkpt lat="45.26365" lon="7.15021">
        <ele>2711.48</ele>
        <time>2015-08-17T10:27:03Z</time>
      </trkpt>
      <trkpt lat="45.26358" lon="7.15026">
        <ele>2711.3</ele>
        <time>2015-08-17T10:27:11Z</time>
      </trkpt>
      <trkpt lat="45.26355" lon="7.15027">
        <ele>2711.09</ele>
        <time>2015-08-17T10:27:14Z</time>
      </trkpt>
      <trkpt lat="45.26354" lon="7.15028">
        <ele>2711.09</ele>
        <time>2015-08-17T10:27:15Z</time>
      </trkpt>
      <trkpt lat="45.26353" lon="7.15028">
        <ele>2711.1</ele>
        <time>2015-08-17T10:27:16Z</time>
      </trkpt>
      <trkpt lat="45.26347" lon="7.15032">
        <ele>2710.99</ele>
        <time>2015-08-17T10:27:23Z</time>
      </trkpt>
      <trkpt lat="45.2634" lon="7.15039">
        <ele>2711.43</ele>
        <time>2015-08-17T10:27:33Z</time>
      </trkpt>
      <trkpt lat="45.26338" lon="7.1504">
        <ele>2711.5</ele>
        <time>2015-08-17T10:27:35Z</time>
      </trkpt>
      <trkpt lat="45.26337" lon="7.1504">
        <ele>2711.51</ele>
        <time>2015-08-17T10:27:36Z</time>
      </trkpt>
      <trkpt lat="45.26336" lon="7.15041">
        <ele>2711.48</ele>
        <time>2015-08-17T10:27:37Z</time>
      </trkpt>
      <trkpt lat="45.26335" lon="7.15042">
        <ele>2711.44</ele>
        <time>2015-08-17T10:27:38Z</time>
      </trkpt>
      <trkpt lat="45.2633" lon="7.15046">
        <ele>2711.09</ele>
        <time>2015-08-17T10:27:45Z</time>
      </trkpt>
      <trkpt lat="45.26328" lon="7.15047">
        <ele>2710.49</ele>
        <time>2015-08-17T10:27:49Z</time>
      </trkpt>
      <trkpt lat="45.26323" lon="7.15045">
        <ele>2709.58</ele>
        <time>2015-08-17T10:27:54Z</time>
      </trkpt>
      <trkpt lat="45.26321" lon="7.15038">
        <ele>2709.13</ele>
        <time>2015-08-17T10:28:00Z</time>
      </trkpt>
      <trkpt lat="45.26318" lon="7.15033">
        <ele>2709.29</ele>
        <time>2015-08-17T10:28:28Z</time>
      </trkpt>
      <trkpt lat="45.2632" lon="7.15038">
        <ele>2709.26</ele>
        <time>2015-08-17T10:29:19Z</time>
      </trkpt>
      <trkpt lat="45.26316" lon="7.15035">
        <ele>2709.9</ele>
        <time>2015-08-17T10:30:10Z</time>
      </trkpt>
      <trkpt lat="45.26313" lon="7.15031">
        <ele>2710.26</ele>
        <time>2015-08-17T10:30:40Z</time>
      </trkpt>
      <trkpt lat="45.26305" lon="7.15027">
        <ele>2710.43</ele>
        <time>2015-08-17T10:30:46Z</time>
      </trkpt>
      <trkpt lat="45.26303" lon="7.15027">
        <ele>2710.43</ele>
        <time>2015-08-17T10:30:47Z</time>
      </trkpt>
      <trkpt lat="45.26302" lon="7.15028">
        <ele>2710.42</ele>
        <time>2015-08-17T10:30:48Z</time>
      </trkpt>
      <trkpt lat="45.26301" lon="7.15028">
        <ele>2710.42</ele>
        <time>2015-08-17T10:30:49Z</time>
      </trkpt>
      <trkpt lat="45.263" lon="7.15027">
        <ele>2710.44</ele>
        <time>2015-08-17T10:30:50Z</time>
      </trkpt>
      <trkpt lat="45.26299" lon="7.15026">
        <ele>2710.46</ele>
        <time>2015-08-17T10:30:51Z</time>
      </trkpt>
      <trkpt lat="45.26298" lon="7.15024">
        <ele>2710.47</ele>
        <time>2015-08-17T10:30:52Z</time>
      </trkpt>
      <trkpt lat="45.26296" lon="7.15023">
        <ele>2710.38</ele>
        <time>2015-08-17T10:30:57Z</time>
      </trkpt>
      <trkpt lat="45.26289" lon="7.15014">
        <ele>2710.36</ele>
        <time>2015-08-17T10:31:07Z</time>
      </trkpt>
      <trkpt lat="45.26288" lon="7.15015">
        <ele>2711.18</ele>
        <time>2015-08-17T10:31:25Z</time>
      </trkpt>
      <trkpt lat="45.26288" lon="7.15015">
        <ele>2711.07</ele>
        <time>2015-08-17T10:31:41Z</time>
      </trkpt>
      <trkpt lat="45.26288" lon="7.15013">
        <ele>2711.12</ele>
        <time>2015-08-17T10:31:52Z</time>
      </trkpt>
      <trkpt lat="45.26286" lon="7.15011">
        <ele>2711.67</ele>
        <time>2015-08-17T10:31:59Z</time>
      </trkpt>
      <trkpt lat="45.26283" lon="7.15009">
        <ele>2712.91</ele>
        <time>2015-08-17T10:32:08Z</time>
      </trkpt>
      <trkpt lat="45.2628" lon="7.15007">
        <ele>2714.11</ele>
        <time>2015-08-17T10:32:16Z</time>
      </trkpt>
      <trkpt lat="45.26276" lon="7.15007">
        <ele>2715.77</ele>
        <time>2015-08-17T10:32:26Z</time>
      </trkpt>
      <trkpt lat="45.26275" lon="7.15004">
        <ele>2716.28</ele>
        <time>2015-08-17T10:32:37Z</time>
      </trkpt>
      <trkpt lat="45.26269" lon="7.15001">
        <ele>2717.27</ele>
        <time>2015-08-17T10:32:48Z</time>
      </trkpt>
      <trkpt lat="45.26263" lon="7.15002">
        <ele>2718.39</ele>
        <time>2015-08-17T10:32:57Z</time>
      </trkpt>
      <trkpt lat="45.26255" lon="7.15003">
        <ele>2719.57</ele>
        <time>2015-08-17T10:33:07Z</time>
      </trkpt>
      <trkpt lat="45.26249" lon="7.15001">
        <ele>2720.4</ele>
        <time>2015-08-17T10:33:14Z</time>
      </trkpt>
      <trkpt lat="45.26248" lon="7.15002">
        <ele>2720.49</ele>
        <time>2015-08-17T10:33:15Z</time>
      </trkpt>
      <trkpt lat="45.26241" lon="7.15001">
        <ele>2721.35</ele>
        <time>2015-08-17T10:33:23Z</time>
      </trkpt>
      <trkpt lat="45.26233" lon="7.15">
        <ele>2722.35</ele>
        <time>2015-08-17T10:33:33Z</time>
      </trkpt>
      <trkpt lat="45.26227" lon="7.15">
        <ele>2723.12</ele>
        <time>2015-08-17T10:33:40Z</time>
      </trkpt>
      <trkpt lat="45.26223" lon="7.15001">
        <ele>2724.04</ele>
        <time>2015-08-17T10:33:47Z</time>
      </trkpt>
      <trkpt lat="45.2622" lon="7.14999">
        <ele>2724.59</ele>
        <time>2015-08-17T10:33:56Z</time>
      </trkpt>
      <trkpt lat="45.26219" lon="7.14995">
        <ele>2724.32</ele>
        <time>2015-08-17T10:34:04Z</time>
      </trkpt>
      <trkpt lat="45.26219" lon="7.14991">
        <ele>2724.39</ele>
        <time>2015-08-17T10:34:12Z</time>
      </trkpt>
      <trkpt lat="45.26218" lon="7.1499">
        <ele>2724.09</ele>
        <time>2015-08-17T10:34:19Z</time>
      </trkpt>
      <trkpt lat="45.26213" lon="7.14988">
        <ele>2724.59</ele>
        <time>2015-08-17T10:34:26Z</time>
      </trkpt>
      <trkpt lat="45.26209" lon="7.14988">
        <ele>2725.78</ele>
        <time>2015-08-17T10:34:33Z</time>
      </trkpt>
      <trkpt lat="45.26203" lon="7.1499">
        <ele>2727.25</ele>
        <time>2015-08-17T10:34:43Z</time>
      </trkpt>
      <trkpt lat="45.262" lon="7.14991">
        <ele>2727.42</ele>
        <time>2015-08-17T10:34:46Z</time>
      </trkpt>
      <trkpt lat="45.26195" lon="7.1499">
        <ele>2727.26</ele>
        <time>2015-08-17T10:34:54Z</time>
      </trkpt>
      <trkpt lat="45.26182" lon="7.14989">
        <ele>2726.45</ele>
        <time>2015-08-17T10:35:04Z</time>
      </trkpt>
      <trkpt lat="45.26181" lon="7.14989">
        <ele>2726.39</ele>
        <time>2015-08-17T10:35:05Z</time>
      </trkpt>
      <trkpt lat="45.26175" lon="7.14982">
        <ele>2726.26</ele>
        <time>2015-08-17T10:35:13Z</time>
      </trkpt>
      <trkpt lat="45.26167" lon="7.14971">
        <ele>2726.2</ele>
        <time>2015-08-17T10:35:22Z</time>
      </trkpt>
      <trkpt lat="45.26161" lon="7.14965">
        <ele>2726.01</ele>
        <time>2015-08-17T10:35:28Z</time>
      </trkpt>
      <trkpt lat="45.26157" lon="7.14957">
        <ele>2726.05</ele>
        <time>2015-08-17T10:35:37Z</time>
      </trkpt>
      <trkpt lat="45.26153" lon="7.14957">
        <ele>2726.12</ele>
        <time>2015-08-17T10:35:43Z</time>
      </trkpt>
      <trkpt lat="45.26147" lon="7.14953">
        <ele>2725.47</ele>
        <time>2015-08-17T10:35:51Z</time>
      </trkpt>
      <trkpt lat="45.26148" lon="7.14955">
        <ele>2725.82</ele>
        <time>2015-08-17T10:36:06Z</time>
      </trkpt>
      <trkpt lat="45.26145" lon="7.14957">
        <ele>2725.7</ele>
        <time>2015-08-17T10:36:08Z</time>
      </trkpt>
      <trkpt lat="45.26137" lon="7.14957">
        <ele>2725.22</ele>
        <time>2015-08-17T10:36:16Z</time>
      </trkpt>
      <trkpt lat="45.26131" lon="7.14955">
        <ele>2725.46</ele>
        <time>2015-08-17T10:36:23Z</time>
      </trkpt>
      <trkpt lat="45.26124" lon="7.1495">
        <ele>2726.18</ele>
        <time>2015-08-17T10:36:30Z</time>
      </trkpt>
      <trkpt lat="45.26123" lon="7.14949">
        <ele>2726.24</ele>
        <time>2015-08-17T10:36:31Z</time>
      </trkpt>
      <trkpt lat="45.26116" lon="7.14943">
        <ele>2726.35</ele>
        <time>2015-08-17T10:36:39Z</time>
      </trkpt>
      <trkpt lat="45.26112" lon="7.14942">
        <ele>2726.94</ele>
        <time>2015-08-17T10:36:48Z</time>
      </trkpt>
      <trkpt lat="45.26112" lon="7.14941">
        <ele>2727.48</ele>
        <time>2015-08-17T10:36:57Z</time>
      </trkpt>
      <trkpt lat="45.26107" lon="7.1494">
        <ele>2728.07</ele>
        <time>2015-08-17T10:37:05Z</time>
      </trkpt>
      <trkpt lat="45.26102" lon="7.14939">
        <ele>2729.07</ele>
        <time>2015-08-17T10:37:14Z</time>
      </trkpt>
      <trkpt lat="45.26098" lon="7.14933">
        <ele>2730.14</ele>
        <time>2015-08-17T10:37:23Z</time>
      </trkpt>
      <trkpt lat="45.26098" lon="7.14932">
        <ele>2730.21</ele>
        <time>2015-08-17T10:37:24Z</time>
      </trkpt>
      <trkpt lat="45.26096" lon="7.1493">
        <ele>2730.32</ele>
        <time>2015-08-17T10:37:26Z</time>
      </trkpt>
      <trkpt lat="45.26092" lon="7.14935">
        <ele>2730.65</ele>
        <time>2015-08-17T10:37:33Z</time>
      </trkpt>
      <trkpt lat="45.26087" lon="7.14926">
        <ele>2730.5</ele>
        <time>2015-08-17T10:37:42Z</time>
      </trkpt>
      <trkpt lat="45.26087" lon="7.14924">
        <ele>2730.74</ele>
        <time>2015-08-17T10:37:44Z</time>
      </trkpt>
      <trkpt lat="45.26081" lon="7.14917">
        <ele>2731.21</ele>
        <time>2015-08-17T10:37:53Z</time>
      </trkpt>
      <trkpt lat="45.2608" lon="7.14912">
        <ele>2731.18</ele>
        <time>2015-08-17T10:37:56Z</time>
      </trkpt>
      <trkpt lat="45.26074" lon="7.14905">
        <ele>2731</ele>
        <time>2015-08-17T10:38:04Z</time>
      </trkpt>
      <trkpt lat="45.26071" lon="7.14895">
        <ele>2731.06</ele>
        <time>2015-08-17T10:38:12Z</time>
      </trkpt>
      <trkpt lat="45.26068" lon="7.14888">
        <ele>2731.52</ele>
        <time>2015-08-17T10:38:19Z</time>
      </trkpt>
      <trkpt lat="45.26067" lon="7.14887">
        <ele>2731.61</ele>
        <time>2015-08-17T10:38:20Z</time>
      </trkpt>
      <trkpt lat="45.26061" lon="7.14886">
        <ele>2732.01</ele>
        <time>2015-08-17T10:38:28Z</time>
      </trkpt>
      <trkpt lat="45.26052" lon="7.14886">
        <ele>2732.24</ele>
        <time>2015-08-17T10:38:36Z</time>
      </trkpt>
      <trkpt lat="45.26046" lon="7.14883">
        <ele>2732.95</ele>
        <time>2015-08-17T10:38:45Z</time>
      </trkpt>
      <trkpt lat="45.26039" lon="7.14888">
        <ele>2734.51</ele>
        <time>2015-08-17T10:38:56Z</time>
      </trkpt>
      <trkpt lat="45.26033" lon="7.14892">
        <ele>2734.61</ele>
        <time>2015-08-17T10:39:04Z</time>
      </trkpt>
      <trkpt lat="45.26028" lon="7.14897">
        <ele>2734.32</ele>
        <time>2015-08-17T10:39:12Z</time>
      </trkpt>
      <trkpt lat="45.26022" lon="7.14901">
        <ele>2735.3</ele>
        <time>2015-08-17T10:39:22Z</time>
      </trkpt>
      <trkpt lat="45.26016" lon="7.149">
        <ele>2736.43</ele>
        <time>2015-08-17T10:39:33Z</time>
      </trkpt>
      <trkpt lat="45.26016" lon="7.14899">
        <ele>2737.21</ele>
        <time>2015-08-17T10:39:45Z</time>
      </trkpt>
      <trkpt lat="45.26013" lon="7.14896">
        <ele>2737.34</ele>
        <time>2015-08-17T10:40:03Z</time>
      </trkpt>
      <trkpt lat="45.26012" lon="7.14902">
        <ele>2737.73</ele>
        <time>2015-08-17T10:40:24Z</time>
      </trkpt>
      <trkpt lat="45.26013" lon="7.14901">
        <ele>2738.02</ele>
        <time>2015-08-17T10:40:36Z</time>
      </trkpt>
      <trkpt lat="45.26013" lon="7.14901">
        <ele>2738.08</ele>
        <time>2015-08-17T10:40:59Z</time>
      </trkpt>
      <trkpt lat="45.26012" lon="7.14898">
        <ele>2738.34</ele>
        <time>2015-08-17T10:41:11Z</time>
      </trkpt>
      <trkpt lat="45.26011" lon="7.14894">
        <ele>2738.86</ele>
        <time>2015-08-17T10:41:18Z</time>
      </trkpt>
      <trkpt lat="45.2601" lon="7.14891">
        <ele>2739.81</ele>
        <time>2015-08-17T10:41:25Z</time>
      </trkpt>
      <trkpt lat="45.26007" lon="7.1489">
        <ele>2741.38</ele>
        <time>2015-08-17T10:41:34Z</time>
      </trkpt>
      <trkpt lat="45.26001" lon="7.14888">
        <ele>2743.91</ele>
        <time>2015-08-17T10:41:49Z</time>
      </trkpt>
      <trkpt lat="45.25998" lon="7.14885">
        <ele>2744.84</ele>
        <time>2015-08-17T10:41:56Z</time>
      </trkpt>
      <trkpt lat="45.25998" lon="7.14879">
        <ele>2746.4</ele>
        <time>2015-08-17T10:42:05Z</time>
      </trkpt>
      <trkpt lat="45.25998" lon="7.14874">
        <ele>2747.64</ele>
        <time>2015-08-17T10:42:12Z</time>
      </trkpt>
      <trkpt lat="45.25996" lon="7.14871">
        <ele>2748.4</ele>
        <time>2015-08-17T10:42:19Z</time>
      </trkpt>
      <trkpt lat="45.25994" lon="7.1487">
        <ele>2749.11</ele>
        <time>2015-08-17T10:42:27Z</time>
      </trkpt>
      <trkpt lat="45.25992" lon="7.14866">
        <ele>2749.97</ele>
        <time>2015-08-17T10:42:35Z</time>
      </trkpt>
      <trkpt lat="45.25988" lon="7.14862">
        <ele>2750.77</ele>
        <time>2015-08-17T10:42:43Z</time>
      </trkpt>
      <trkpt lat="45.25986" lon="7.14857">
        <ele>2751.65</ele>
        <time>2015-08-17T10:42:51Z</time>
      </trkpt>
      <trkpt lat="45.25983" lon="7.14854">
        <ele>2752.23</ele>
        <time>2015-08-17T10:42:58Z</time>
      </trkpt>
      <trkpt lat="45.25978" lon="7.14851">
        <ele>2753.03</ele>
        <time>2015-08-17T10:43:05Z</time>
      </trkpt>
      <trkpt lat="45.25974" lon="7.14851">
        <ele>2754.39</ele>
        <time>2015-08-17T10:43:14Z</time>
      </trkpt>
      <trkpt lat="45.25971" lon="7.14847">
        <ele>2754.79</ele>
        <time>2015-08-17T10:43:21Z</time>
      </trkpt>
      <trkpt lat="45.25966" lon="7.14846">
        <ele>2755.85</ele>
        <time>2015-08-17T10:43:31Z</time>
      </trkpt>
      <trkpt lat="45.25959" lon="7.14846">
        <ele>2756.87</ele>
        <time>2015-08-17T10:43:41Z</time>
      </trkpt>
      <trkpt lat="45.25957" lon="7.14844">
        <ele>2758.12</ele>
        <time>2015-08-17T10:43:50Z</time>
      </trkpt>
      <trkpt lat="45.25953" lon="7.14844">
        <ele>2759.39</ele>
        <time>2015-08-17T10:43:58Z</time>
      </trkpt>
      <trkpt lat="45.25948" lon="7.14846">
        <ele>2760.52</ele>
        <time>2015-08-17T10:44:06Z</time>
      </trkpt>
      <trkpt lat="45.25942" lon="7.14851">
        <ele>2761.2</ele>
        <time>2015-08-17T10:44:15Z</time>
      </trkpt>
      <trkpt lat="45.25937" lon="7.14857">
        <ele>2762.4</ele>
        <time>2015-08-17T10:44:25Z</time>
      </trkpt>
      <trkpt lat="45.25934" lon="7.14862">
        <ele>2763.54</ele>
        <time>2015-08-17T10:44:34Z</time>
      </trkpt>
      <trkpt lat="45.25933" lon="7.14865">
        <ele>2764.62</ele>
        <time>2015-08-17T10:44:42Z</time>
      </trkpt>
      <trkpt lat="45.2593" lon="7.14864">
        <ele>2765.84</ele>
        <time>2015-08-17T10:44:50Z</time>
      </trkpt>
      <trkpt lat="45.25927" lon="7.14862">
        <ele>2767.37</ele>
        <time>2015-08-17T10:44:59Z</time>
      </trkpt>
      <trkpt lat="45.25923" lon="7.14862">
        <ele>2768.08</ele>
        <time>2015-08-17T10:45:07Z</time>
      </trkpt>
      <trkpt lat="45.2592" lon="7.14859">
        <ele>2769.15</ele>
        <time>2015-08-17T10:45:18Z</time>
      </trkpt>
      <trkpt lat="45.25917" lon="7.14858">
        <ele>2769.74</ele>
        <time>2015-08-17T10:45:25Z</time>
      </trkpt>
      <trkpt lat="45.25914" lon="7.14859">
        <ele>2770.59</ele>
        <time>2015-08-17T10:45:33Z</time>
      </trkpt>
      <trkpt lat="45.25911" lon="7.14856">
        <ele>2772.02</ele>
        <time>2015-08-17T10:45:43Z</time>
      </trkpt>
      <trkpt lat="45.25908" lon="7.14854">
        <ele>2773.12</ele>
        <time>2015-08-17T10:45:52Z</time>
      </trkpt>
      <trkpt lat="45.25906" lon="7.14853">
        <ele>2774.23</ele>
        <time>2015-08-17T10:45:59Z</time>
      </trkpt>
      <trkpt lat="45.25904" lon="7.14851">
        <ele>2775.19</ele>
        <time>2015-08-17T10:46:08Z</time>
      </trkpt>
      <trkpt lat="45.25901" lon="7.1485">
        <ele>2775.53</ele>
        <time>2015-08-17T10:46:21Z</time>
      </trkpt>
      <trkpt lat="45.259" lon="7.1485">
        <ele>2775.55</ele>
        <time>2015-08-17T10:46:22Z</time>
      </trkpt>
      <trkpt lat="45.25895" lon="7.14853">
        <ele>2775.91</ele>
        <time>2015-08-17T10:46:32Z</time>
      </trkpt>
      <trkpt lat="45.25892" lon="7.14853">
        <ele>2776.68</ele>
        <time>2015-08-17T10:46:40Z</time>
      </trkpt>
      <trkpt lat="45.25888" lon="7.14856">
        <ele>2776.86</ele>
        <time>2015-08-17T10:46:48Z</time>
      </trkpt>
      <trkpt lat="45.25884" lon="7.14862">
        <ele>2778.22</ele>
        <time>2015-08-17T10:46:59Z</time>
      </trkpt>
      <trkpt lat="45.25882" lon="7.14867">
        <ele>2779.33</ele>
        <time>2015-08-17T10:47:07Z</time>
      </trkpt>
      <trkpt lat="45.25881" lon="7.14868">
        <ele>2780.71</ele>
        <time>2015-08-17T10:47:15Z</time>
      </trkpt>
      <trkpt lat="45.25882" lon="7.14868">
        <ele>2781.14</ele>
        <time>2015-08-17T10:47:34Z</time>
      </trkpt>
      <trkpt lat="45.25881" lon="7.14873">
        <ele>2781.66</ele>
        <time>2015-08-17T10:47:43Z</time>
      </trkpt>
      <trkpt lat="45.25879" lon="7.14873">
        <ele>2782.26</ele>
        <time>2015-08-17T10:47:53Z</time>
      </trkpt>
      <trkpt lat="45.25877" lon="7.14877">
        <ele>2782.54</ele>
        <time>2015-08-17T10:48:01Z</time>
      </trkpt>
      <trkpt lat="45.25878" lon="7.14877">
        <ele>2783.24</ele>
        <time>2015-08-17T10:48:12Z</time>
      </trkpt>
      <trkpt lat="45.25878" lon="7.14877">
        <ele>2783.73</ele>
        <time>2015-08-17T10:48:22Z</time>
      </trkpt>
      <trkpt lat="45.25877" lon="7.14881">
        <ele>2785.23</ele>
        <time>2015-08-17T10:48:33Z</time>
      </trkpt>
      <trkpt lat="45.25876" lon="7.14882">
        <ele>2787.14</ele>
        <time>2015-08-17T10:48:43Z</time>
      </trkpt>
      <trkpt lat="45.25875" lon="7.14883">
        <ele>2787.82</ele>
        <time>2015-08-17T10:48:50Z</time>
      </trkpt>
      <trkpt lat="45.25874" lon="7.14883">
        <ele>2787.77</ele>
        <time>2015-08-17T10:48:58Z</time>
      </trkpt>
      <trkpt lat="45.25873" lon="7.14881">
        <ele>2787.72</ele>
        <time>2015-08-17T10:49:10Z</time>
      </trkpt>
      <trkpt lat="45.25872" lon="7.14881">
        <ele>2787.88</ele>
        <time>2015-08-17T10:49:20Z</time>
      </trkpt>
      <trkpt lat="45.25872" lon="7.1488">
        <ele>2787.84</ele>
        <time>2015-08-17T10:49:30Z</time>
      </trkpt>
      <trkpt lat="45.25872" lon="7.14881">
        <ele>2787.95</ele>
        <time>2015-08-17T10:49:43Z</time>
      </trkpt>
      <trkpt lat="45.2587" lon="7.14882">
        <ele>2789.02</ele>
        <time>2015-08-17T10:49:52Z</time>
      </trkpt>
      <trkpt lat="45.25869" lon="7.14879">
        <ele>2790.3</ele>
        <time>2015-08-17T10:50:02Z</time>
      </trkpt>
      <trkpt lat="45.25865" lon="7.1488">
        <ele>2791.72</ele>
        <time>2015-08-17T10:50:10Z</time>
      </trkpt>
      <trkpt lat="45.25862" lon="7.14887">
        <ele>2793.28</ele>
        <time>2015-08-17T10:50:19Z</time>
      </trkpt>
      <trkpt lat="45.2586" lon="7.14896">
        <ele>2794.48</ele>
        <time>2015-08-17T10:50:29Z</time>
      </trkpt>
      <trkpt lat="45.25859" lon="7.14899">
        <ele>2795.29</ele>
        <time>2015-08-17T10:50:38Z</time>
      </trkpt>
      <trkpt lat="45.25856" lon="7.14904">
        <ele>2796.32</ele>
        <time>2015-08-17T10:50:45Z</time>
      </trkpt>
      <trkpt lat="45.25855" lon="7.14912">
        <ele>2797.64</ele>
        <time>2015-08-17T10:50:56Z</time>
      </trkpt>
      <trkpt lat="45.25854" lon="7.14911">
        <ele>2798.2</ele>
        <time>2015-08-17T10:51:10Z</time>
      </trkpt>
      <trkpt lat="45.25854" lon="7.14909">
        <ele>2798.07</ele>
        <time>2015-08-17T10:51:27Z</time>
      </trkpt>
      <trkpt lat="45.25852" lon="7.14908">
        <ele>2798.36</ele>
        <time>2015-08-17T10:51:40Z</time>
      </trkpt>
      <trkpt lat="45.25849" lon="7.14909">
        <ele>2798.97</ele>
        <time>2015-08-17T10:51:47Z</time>
      </trkpt>
      <trkpt lat="45.25847" lon="7.14911">
        <ele>2799.87</ele>
        <time>2015-08-17T10:51:54Z</time>
      </trkpt>
      <trkpt lat="45.25849" lon="7.14919">
        <ele>2800.97</ele>
        <time>2015-08-17T10:52:03Z</time>
      </trkpt>
      <trkpt lat="45.25848" lon="7.14923">
        <ele>2801.94</ele>
        <time>2015-08-17T10:52:11Z</time>
      </trkpt>
      <trkpt lat="45.25848" lon="7.14925">
        <ele>2802.74</ele>
        <time>2015-08-17T10:52:18Z</time>
      </trkpt>
      <trkpt lat="45.25844" lon="7.14926">
        <ele>2803.8</ele>
        <time>2015-08-17T10:52:26Z</time>
      </trkpt>
      <trkpt lat="45.2584" lon="7.14929">
        <ele>2805.17</ele>
        <time>2015-08-17T10:52:35Z</time>
      </trkpt>
      <trkpt lat="45.25838" lon="7.14929">
        <ele>2806.61</ele>
        <time>2015-08-17T10:52:43Z</time>
      </trkpt>
      <trkpt lat="45.25836" lon="7.14929">
        <ele>2806.77</ele>
        <time>2015-08-17T10:52:58Z</time>
      </trkpt>
      <trkpt lat="45.25835" lon="7.1493">
        <ele>2806.94</ele>
        <time>2015-08-17T10:53:13Z</time>
      </trkpt>
      <trkpt lat="45.25834" lon="7.14929">
        <ele>2808.47</ele>
        <time>2015-08-17T10:53:24Z</time>
      </trkpt>
      <trkpt lat="45.25833" lon="7.14928">
        <ele>2809.69</ele>
        <time>2015-08-17T10:53:32Z</time>
      </trkpt>
      <trkpt lat="45.2583" lon="7.14929">
        <ele>2811.36</ele>
        <time>2015-08-17T10:53:41Z</time>
      </trkpt>
      <trkpt lat="45.25828" lon="7.14928">
        <ele>2812.6</ele>
        <time>2015-08-17T10:53:48Z</time>
      </trkpt>
      <trkpt lat="45.25826" lon="7.14923">
        <ele>2814.25</ele>
        <time>2015-08-17T10:53:57Z</time>
      </trkpt>
      <trkpt lat="45.25826" lon="7.14923">
        <ele>2814.58</ele>
        <time>2015-08-17T10:54:19Z</time>
      </trkpt>
      <trkpt lat="45.25826" lon="7.14922">
        <ele>2814.94</ele>
        <time>2015-08-17T10:54:31Z</time>
      </trkpt>
      <trkpt lat="45.25826" lon="7.14918">
        <ele>2815.83</ele>
        <time>2015-08-17T10:54:40Z</time>
      </trkpt>
      <trkpt lat="45.25824" lon="7.14915">
        <ele>2817.29</ele>
        <time>2015-08-17T10:54:49Z</time>
      </trkpt>
      <trkpt lat="45.25823" lon="7.14914">
        <ele>2818.17</ele>
        <time>2015-08-17T10:54:56Z</time>
      </trkpt>
      <trkpt lat="45.25821" lon="7.14912">
        <ele>2819.77</ele>
        <time>2015-08-17T10:55:05Z</time>
      </trkpt>
      <trkpt lat="45.2582" lon="7.1491">
        <ele>2820.79</ele>
        <time>2015-08-17T10:55:12Z</time>
      </trkpt>
      <trkpt lat="45.25819" lon="7.14912">
        <ele>2821.58</ele>
        <time>2015-08-17T10:55:20Z</time>
      </trkpt>
      <trkpt lat="45.25819" lon="7.14911">
        <ele>2821.55</ele>
        <time>2015-08-17T10:55:48Z</time>
      </trkpt>
      <trkpt lat="45.25817" lon="7.14911">
        <ele>2822.84</ele>
        <time>2015-08-17T10:55:57Z</time>
      </trkpt>
      <trkpt lat="45.25815" lon="7.1491">
        <ele>2824.29</ele>
        <time>2015-08-17T10:56:06Z</time>
      </trkpt>
      <trkpt lat="45.25812" lon="7.14907">
        <ele>2825.83</ele>
        <time>2015-08-17T10:56:14Z</time>
      </trkpt>
      <trkpt lat="45.25809" lon="7.14909">
        <ele>2827.19</ele>
        <time>2015-08-17T10:56:23Z</time>
      </trkpt>
      <trkpt lat="45.25805" lon="7.14908">
        <ele>2828.54</ele>
        <time>2015-08-17T10:56:32Z</time>
      </trkpt>
      <trkpt lat="45.25804" lon="7.14909">
        <ele>2830.34</ele>
        <time>2015-08-17T10:56:46Z</time>
      </trkpt>
      <trkpt lat="45.25803" lon="7.14914">
        <ele>2830.35</ele>
        <time>2015-08-17T10:57:08Z</time>
      </trkpt>
      <trkpt lat="45.25804" lon="7.14922">
        <ele>2831.67</ele>
        <time>2015-08-17T10:57:18Z</time>
      </trkpt>
      <trkpt lat="45.25805" lon="7.14925">
        <ele>2833.2</ele>
        <time>2015-08-17T10:57:26Z</time>
      </trkpt>
      <trkpt lat="45.25803" lon="7.14929">
        <ele>2834.22</ele>
        <time>2015-08-17T10:57:32Z</time>
      </trkpt>
      <trkpt lat="45.25799" lon="7.14931">
        <ele>2835.54</ele>
        <time>2015-08-17T10:57:40Z</time>
      </trkpt>
      <trkpt lat="45.25792" lon="7.1493">
        <ele>2836.44</ele>
        <time>2015-08-17T10:57:49Z</time>
      </trkpt>
      <trkpt lat="45.25787" lon="7.14928">
        <ele>2836.95</ele>
        <time>2015-08-17T10:57:58Z</time>
      </trkpt>
      <trkpt lat="45.25783" lon="7.14926">
        <ele>2837.45</ele>
        <time>2015-08-17T10:58:05Z</time>
      </trkpt>
      <trkpt lat="45.25779" lon="7.14926">
        <ele>2838.56</ele>
        <time>2015-08-17T10:58:14Z</time>
      </trkpt>
      <trkpt lat="45.25774" lon="7.14928">
        <ele>2840.14</ele>
        <time>2015-08-17T10:58:24Z</time>
      </trkpt>
      <trkpt lat="45.25768" lon="7.14929">
        <ele>2840.86</ele>
        <time>2015-08-17T10:58:33Z</time>
      </trkpt>
      <trkpt lat="45.25766" lon="7.14935">
        <ele>2841.64</ele>
        <time>2015-08-17T10:58:41Z</time>
      </trkpt>
      <trkpt lat="45.25763" lon="7.14935">
        <ele>2842.23</ele>
        <time>2015-08-17T10:58:47Z</time>
      </trkpt>
      <trkpt lat="45.25758" lon="7.14934">
        <ele>2843.13</ele>
        <time>2015-08-17T10:58:57Z</time>
      </trkpt>
      <trkpt lat="45.25756" lon="7.14934">
        <ele>2843.64</ele>
        <time>2015-08-17T10:59:01Z</time>
      </trkpt>
      <trkpt lat="45.25751" lon="7.14937">
        <ele>2844.91</ele>
        <time>2015-08-17T10:59:09Z</time>
      </trkpt>
      <trkpt lat="45.25747" lon="7.14936">
        <ele>2845.93</ele>
        <time>2015-08-17T10:59:17Z</time>
      </trkpt>
      <trkpt lat="45.25744" lon="7.14933">
        <ele>2846.61</ele>
        <time>2015-08-17T10:59:24Z</time>
      </trkpt>
      <trkpt lat="45.25742" lon="7.14938">
        <ele>2847.28</ele>
        <time>2015-08-17T10:59:31Z</time>
      </trkpt>
      <trkpt lat="45.25738" lon="7.14937">
        <ele>2849.13</ele>
        <time>2015-08-17T10:59:39Z</time>
      </trkpt>
      <trkpt lat="45.25739" lon="7.1494">
        <ele>2850.16</ele>
        <time>2015-08-17T10:59:45Z</time>
      </trkpt>
      <trkpt lat="45.25739" lon="7.14942">
        <ele>2850.6</ele>
        <time>2015-08-17T11:00:03Z</time>
      </trkpt>
      <trkpt lat="45.25739" lon="7.14941">
        <ele>2851.03</ele>
        <time>2015-08-17T11:00:18Z</time>
      </trkpt>
      <trkpt lat="45.25738" lon="7.14944">
        <ele>2850.93</ele>
        <time>2015-08-17T11:00:24Z</time>
      </trkpt>
      <trkpt lat="45.25741" lon="7.14953">
        <ele>2851.61</ele>
        <time>2015-08-17T11:00:33Z</time>
      </trkpt>
      <trkpt lat="45.25741" lon="7.14957">
        <ele>2852.67</ele>
        <time>2015-08-17T11:00:41Z</time>
      </trkpt>
      <trkpt lat="45.25741" lon="7.14964">
        <ele>2853.91</ele>
        <time>2015-08-17T11:00:50Z</time>
      </trkpt>
      <trkpt lat="45.25738" lon="7.14962">
        <ele>2854.93</ele>
        <time>2015-08-17T11:00:58Z</time>
      </trkpt>
      <trkpt lat="45.25733" lon="7.14962">
        <ele>2856.33</ele>
        <time>2015-08-17T11:01:07Z</time>
      </trkpt>
      <trkpt lat="45.25729" lon="7.1496">
        <ele>2857.11</ele>
        <time>2015-08-17T11:01:13Z</time>
      </trkpt>
      <trkpt lat="45.25721" lon="7.14962">
        <ele>2858.14</ele>
        <time>2015-08-17T11:01:23Z</time>
      </trkpt>
      <trkpt lat="45.25718" lon="7.14963">
        <ele>2859.24</ele>
        <time>2015-08-17T11:01:35Z</time>
      </trkpt>
      <trkpt lat="45.25717" lon="7.14964">
        <ele>2859.86</ele>
        <time>2015-08-17T11:01:56Z</time>
      </trkpt>
      <trkpt lat="45.25713" lon="7.14967">
        <ele>2859.9</ele>
        <time>2015-08-17T11:02:02Z</time>
      </trkpt>
      <trkpt lat="45.25711" lon="7.14968">
        <ele>2860.49</ele>
        <time>2015-08-17T11:02:08Z</time>
      </trkpt>
      <trkpt lat="45.25706" lon="7.1497">
        <ele>2861.23</ele>
        <time>2015-08-17T11:02:15Z</time>
      </trkpt>
      <trkpt lat="45.25704" lon="7.14973">
        <ele>2860.89</ele>
        <time>2015-08-17T11:02:21Z</time>
      </trkpt>
      <trkpt lat="45.25699" lon="7.14978">
        <ele>2861.26</ele>
        <time>2015-08-17T11:02:31Z</time>
      </trkpt>
      <trkpt lat="45.25691" lon="7.14984">
        <ele>2862.18</ele>
        <time>2015-08-17T11:02:43Z</time>
      </trkpt>
      <trkpt lat="45.25683" lon="7.14991">
        <ele>2863.15</ele>
        <time>2015-08-17T11:02:54Z</time>
      </trkpt>
      <trkpt lat="45.2568" lon="7.14993">
        <ele>2863.04</ele>
        <time>2015-08-17T11:02:57Z</time>
      </trkpt>
      <trkpt lat="45.25674" lon="7.14996">
        <ele>2862.85</ele>
        <time>2015-08-17T11:03:05Z</time>
      </trkpt>
      <trkpt lat="45.25672" lon="7.14997">
        <ele>2863.02</ele>
        <time>2015-08-17T11:03:11Z</time>
      </trkpt>
      <trkpt lat="45.25672" lon="7.14996">
        <ele>2863.28</ele>
        <time>2015-08-17T11:03:19Z</time>
      </trkpt>
      <trkpt lat="45.25672" lon="7.15">
        <ele>2863.3</ele>
        <time>2015-08-17T11:03:26Z</time>
      </trkpt>
      <trkpt lat="45.25666" lon="7.1501">
        <ele>2863.32</ele>
        <time>2015-08-17T11:03:36Z</time>
      </trkpt>
      <trkpt lat="45.25661" lon="7.15007">
        <ele>2863.67</ele>
        <time>2015-08-17T11:03:44Z</time>
      </trkpt>
      <trkpt lat="45.2566" lon="7.15006">
        <ele>2863.65</ele>
        <time>2015-08-17T11:03:45Z</time>
      </trkpt>
      <trkpt lat="45.25658" lon="7.15003">
        <ele>2863.5</ele>
        <time>2015-08-17T11:03:48Z</time>
      </trkpt>
      <trkpt lat="45.25654" lon="7.14999">
        <ele>2863.4</ele>
        <time>2015-08-17T11:03:56Z</time>
      </trkpt>
      <trkpt lat="45.25648" lon="7.14996">
        <ele>2864.43</ele>
        <time>2015-08-17T11:04:05Z</time>
      </trkpt>
      <trkpt lat="45.25644" lon="7.14991">
        <ele>2865.31</ele>
        <time>2015-08-17T11:04:11Z</time>
      </trkpt>
      <trkpt lat="45.25636" lon="7.14992">
        <ele>2865.95</ele>
        <time>2015-08-17T11:04:20Z</time>
      </trkpt>
      <trkpt lat="45.25631" lon="7.14996">
        <ele>2866.87</ele>
        <time>2015-08-17T11:04:28Z</time>
      </trkpt>
      <trkpt lat="45.25626" lon="7.15002">
        <ele>2868.61</ele>
        <time>2015-08-17T11:04:37Z</time>
      </trkpt>
      <trkpt lat="45.25623" lon="7.15007">
        <ele>2870</ele>
        <time>2015-08-17T11:04:46Z</time>
      </trkpt>
      <trkpt lat="45.25622" lon="7.15007">
        <ele>2870.92</ele>
        <time>2015-08-17T11:04:57Z</time>
      </trkpt>
      <trkpt lat="45.25619" lon="7.15009">
        <ele>2871.43</ele>
        <time>2015-08-17T11:05:04Z</time>
      </trkpt>
      <trkpt lat="45.25617" lon="7.15011">
        <ele>2872.62</ele>
        <time>2015-08-17T11:05:12Z</time>
      </trkpt>
      <trkpt lat="45.25616" lon="7.15011">
        <ele>2872.71</ele>
        <time>2015-08-17T11:05:13Z</time>
      </trkpt>
      <trkpt lat="45.25615" lon="7.15013">
        <ele>2873.2</ele>
        <time>2015-08-17T11:05:19Z</time>
      </trkpt>
      <trkpt lat="45.25615" lon="7.15013">
        <ele>2873.49</ele>
        <time>2015-08-17T11:05:35Z</time>
      </trkpt>
      <trkpt lat="45.25611" lon="7.15014">
        <ele>2874.08</ele>
        <time>2015-08-17T11:05:44Z</time>
      </trkpt>
      <trkpt lat="45.25608" lon="7.15018">
        <ele>2875.47</ele>
        <time>2015-08-17T11:05:53Z</time>
      </trkpt>
      <trkpt lat="45.25604" lon="7.15021">
        <ele>2877.17</ele>
        <time>2015-08-17T11:06:04Z</time>
      </trkpt>
      <trkpt lat="45.25599" lon="7.15023">
        <ele>2878.98</ele>
        <time>2015-08-17T11:06:15Z</time>
      </trkpt>
      <trkpt lat="45.25596" lon="7.15023">
        <ele>2880.52</ele>
        <time>2015-08-17T11:06:25Z</time>
      </trkpt>
      <trkpt lat="45.25595" lon="7.15023">
        <ele>2881.21</ele>
        <time>2015-08-17T11:06:45Z</time>
      </trkpt>
      <trkpt lat="45.25595" lon="7.15025">
        <ele>2881.55</ele>
        <time>2015-08-17T11:06:53Z</time>
      </trkpt>
      <trkpt lat="45.25595" lon="7.15024">
        <ele>2881.65</ele>
        <time>2015-08-17T11:07:06Z</time>
      </trkpt>
      <trkpt lat="45.25591" lon="7.15025">
        <ele>2882.64</ele>
        <time>2015-08-17T11:07:15Z</time>
      </trkpt>
      <trkpt lat="45.25588" lon="7.15033">
        <ele>2884.36</ele>
        <time>2015-08-17T11:07:25Z</time>
      </trkpt>
      <trkpt lat="45.25587" lon="7.15035">
        <ele>2886.07</ele>
        <time>2015-08-17T11:07:34Z</time>
      </trkpt>
      <trkpt lat="45.25584" lon="7.15033">
        <ele>2887.24</ele>
        <time>2015-08-17T11:07:42Z</time>
      </trkpt>
      <trkpt lat="45.2558" lon="7.15036">
        <ele>2888.75</ele>
        <time>2015-08-17T11:07:50Z</time>
      </trkpt>
      <trkpt lat="45.25577" lon="7.15037">
        <ele>2890.11</ele>
        <time>2015-08-17T11:07:58Z</time>
      </trkpt>
      <trkpt lat="45.25576" lon="7.15036">
        <ele>2891.08</ele>
        <time>2015-08-17T11:08:12Z</time>
      </trkpt>
      <trkpt lat="45.25573" lon="7.15038">
        <ele>2891.46</ele>
        <time>2015-08-17T11:08:34Z</time>
      </trkpt>
      <trkpt lat="45.25572" lon="7.15042">
        <ele>2892.48</ele>
        <time>2015-08-17T11:08:41Z</time>
      </trkpt>
      <trkpt lat="45.2557" lon="7.15041">
        <ele>2894.43</ele>
        <time>2015-08-17T11:08:52Z</time>
      </trkpt>
      <trkpt lat="45.25566" lon="7.15043">
        <ele>2895.86</ele>
        <time>2015-08-17T11:09:00Z</time>
      </trkpt>
      <trkpt lat="45.25564" lon="7.15044">
        <ele>2897.41</ele>
        <time>2015-08-17T11:09:08Z</time>
      </trkpt>
      <trkpt lat="45.2556" lon="7.15045">
        <ele>2898.92</ele>
        <time>2015-08-17T11:09:17Z</time>
      </trkpt>
      <trkpt lat="45.25558" lon="7.15052">
        <ele>2900.17</ele>
        <time>2015-08-17T11:09:25Z</time>
      </trkpt>
      <trkpt lat="45.25557" lon="7.15056">
        <ele>2901.35</ele>
        <time>2015-08-17T11:09:33Z</time>
      </trkpt>
      <trkpt lat="45.25555" lon="7.15059">
        <ele>2901.59</ele>
        <time>2015-08-17T11:09:38Z</time>
      </trkpt>
      <trkpt lat="45.25549" lon="7.15064">
        <ele>2902.3</ele>
        <time>2015-08-17T11:09:48Z</time>
      </trkpt>
      <trkpt lat="45.25544" lon="7.15071">
        <ele>2903.17</ele>
        <time>2015-08-17T11:09:58Z</time>
      </trkpt>
      <trkpt lat="45.25539" lon="7.15077">
        <ele>2903.55</ele>
        <time>2015-08-17T11:10:07Z</time>
      </trkpt>
      <trkpt lat="45.25538" lon="7.15076">
        <ele>2903.45</ele>
        <time>2015-08-17T11:10:41Z</time>
      </trkpt>
      <trkpt lat="45.25538" lon="7.15075">
        <ele>2903.59</ele>
        <time>2015-08-17T11:11:15Z</time>
      </trkpt>
      <trkpt lat="45.25538" lon="7.15076">
        <ele>2903.24</ele>
        <time>2015-08-17T11:12:30Z</time>
      </trkpt>
      <trkpt lat="45.25537" lon="7.15075">
        <ele>2903.32</ele>
        <time>2015-08-17T11:13:40Z</time>
      </trkpt>
      <trkpt lat="45.25538" lon="7.15076">
        <ele>2903.17</ele>
        <time>2015-08-17T11:14:35Z</time>
      </trkpt>
      <trkpt lat="45.25537" lon="7.15076">
        <ele>2903.36</ele>
        <time>2015-08-17T11:16:13Z</time>
      </trkpt>
      <trkpt lat="45.25537" lon="7.15076">
        <ele>2903.14</ele>
        <time>2015-08-17T11:16:59Z</time>
      </trkpt>
      <trkpt lat="45.2554" lon="7.15076">
        <ele>2903.86</ele>
        <time>2015-08-17T11:17:38Z</time>
      </trkpt>
      <trkpt lat="45.25545" lon="7.15071">
        <ele>2904</ele>
        <time>2015-08-17T11:17:47Z</time>
      </trkpt>
      <trkpt lat="45.25546" lon="7.15063">
        <ele>2904.29</ele>
        <time>2015-08-17T11:17:55Z</time>
      </trkpt>
      <trkpt lat="45.25543" lon="7.1506">
        <ele>2904.58</ele>
        <time>2015-08-17T11:18:02Z</time>
      </trkpt>
      <trkpt lat="45.25541" lon="7.15061">
        <ele>2904.37</ele>
        <time>2015-08-17T11:18:20Z</time>
      </trkpt>
      <trkpt lat="45.25541" lon="7.15061">
        <ele>2904.59</ele>
        <time>2015-08-17T11:18:31Z</time>
      </trkpt>
      <trkpt lat="45.25542" lon="7.15062">
        <ele>2904.52</ele>
        <time>2015-08-17T11:19:48Z</time>
      </trkpt>
      <trkpt lat="45.25542" lon="7.15062">
        <ele>2905.16</ele>
        <time>2015-08-17T11:21:05Z</time>
      </trkpt>
      <trkpt lat="45.25541" lon="7.1506">
        <ele>2959.66</ele>
        <time>2015-08-17T11:21:15Z</time>
      </trkpt>
      <trkpt lat="45.25527" lon="7.1506">
        <ele>2850.39</ele>
        <time>2015-08-17T11:21:32Z</time>
      </trkpt>
      <trkpt lat="45.25534" lon="7.15058">
        <ele>2850.52</ele>
        <time>2015-08-17T11:21:37Z</time>
      </trkpt>
      <trkpt lat="45.25538" lon="7.15058">
        <ele>2850.05</ele>
        <time>2015-08-17T11:21:49Z</time>
      </trkpt>
      <trkpt lat="45.25539" lon="7.15058">
        <ele>2850.49</ele>
        <time>2015-08-17T11:22:09Z</time>
      </trkpt>
      <trkpt lat="45.25537" lon="7.15058">
        <ele>2850.94</ele>
        <time>2015-08-17T11:22:29Z</time>
      </trkpt>
      <trkpt lat="45.25537" lon="7.15058">
        <ele>2852.66</ele>
        <time>2015-08-17T11:22:30Z</time>
      </trkpt>
      <trkpt lat="45.25541" lon="7.1506">
        <ele>2851.16</ele>
        <time>2015-08-17T11:56:35Z</time>
      </trkpt>
      <trkpt lat="45.2554" lon="7.15067">
        <ele>2904.58</ele>
        <time>2015-08-17T11:56:36Z</time>
      </trkpt>
      <trkpt lat="45.25538" lon="7.15069">
        <ele>2904.58</ele>
        <time>2015-08-17T11:56:37Z</time>
      </trkpt>
      <trkpt lat="45.25538" lon="7.15071">
        <ele>2904.58</ele>
        <time>2015-08-17T11:56:39Z</time>
      </trkpt>
      <trkpt lat="45.25537" lon="7.15072">
        <ele>2897.8</ele>
        <time>2015-08-17T11:56:41Z</time>
      </trkpt>
      <trkpt lat="45.25536" lon="7.15073">
        <ele>2892.37</ele>
        <time>2015-08-17T11:56:42Z</time>
      </trkpt>
      <trkpt lat="45.25535" lon="7.15074">
        <ele>2887.88</ele>
        <time>2015-08-17T11:56:43Z</time>
      </trkpt>
      <trkpt lat="45.25532" lon="7.15076">
        <ele>2884.31</ele>
        <time>2015-08-17T11:56:44Z</time>
      </trkpt>
      <trkpt lat="45.2553" lon="7.15077">
        <ele>2879.08</ele>
        <time>2015-08-17T11:56:47Z</time>
      </trkpt>
      <trkpt lat="45.25525" lon="7.15081">
        <ele>2875.67</ele>
        <time>2015-08-17T11:56:49Z</time>
      </trkpt>
      <trkpt lat="45.25531" lon="7.15075">
        <ele>2872.22</ele>
        <time>2015-08-17T11:56:53Z</time>
      </trkpt>
      <trkpt lat="45.25539" lon="7.15065">
        <ele>2870.61</ele>
        <time>2015-08-17T11:57:09Z</time>
      </trkpt>
      <trkpt lat="45.25541" lon="7.15061">
        <ele>2871.37</ele>
        <time>2015-08-17T11:57:53Z</time>
      </trkpt>
      <trkpt lat="45.25542" lon="7.15059">
        <ele>2871.55</ele>
        <time>2015-08-17T11:58:00Z</time>
      </trkpt>
      <trkpt lat="45.25545" lon="7.15058">
        <ele>2871.42</ele>
        <time>2015-08-17T11:58:02Z</time>
      </trkpt>
      <trkpt lat="45.25549" lon="7.15055">
        <ele>2870.97</ele>
        <time>2015-08-17T11:58:06Z</time>
      </trkpt>
      <trkpt lat="45.2555" lon="7.15052">
        <ele>2870.17</ele>
        <time>2015-08-17T11:58:14Z</time>
      </trkpt>
      <trkpt lat="45.25551" lon="7.15052">
        <ele>2870.08</ele>
        <time>2015-08-17T11:58:35Z</time>
      </trkpt>
      <trkpt lat="45.25548" lon="7.15051">
        <ele>2870.1</ele>
        <time>2015-08-17T11:58:39Z</time>
      </trkpt>
      <trkpt lat="45.25543" lon="7.1505">
        <ele>2870.35</ele>
        <time>2015-08-17T11:58:46Z</time>
      </trkpt>
      <trkpt lat="45.25541" lon="7.15054">
        <ele>2871.24</ele>
        <time>2015-08-17T11:58:54Z</time>
      </trkpt>
      <trkpt lat="45.25541" lon="7.15053">
        <ele>2871.64</ele>
        <time>2015-08-17T11:59:06Z</time>
      </trkpt>
      <trkpt lat="45.25541" lon="7.15054">
        <ele>2872.59</ele>
        <time>2015-08-17T11:59:30Z</time>
      </trkpt>
      <trkpt lat="45.25541" lon="7.15053">
        <ele>2872.58</ele>
        <time>2015-08-17T11:59:53Z</time>
      </trkpt>
      <trkpt lat="45.2554" lon="7.15054">
        <ele>2873</ele>
        <time>2015-08-17T12:00:12Z</time>
      </trkpt>
      <trkpt lat="45.25541" lon="7.15054">
        <ele>2873.2</ele>
        <time>2015-08-17T12:00:32Z</time>
      </trkpt>
      <trkpt lat="45.25542" lon="7.15054">
        <ele>2873.71</ele>
        <time>2015-08-17T12:00:56Z</time>
      </trkpt>
      <trkpt lat="45.25542" lon="7.15051">
        <ele>2873.84</ele>
        <time>2015-08-17T12:01:00Z</time>
      </trkpt>
      <trkpt lat="45.2554" lon="7.15051">
        <ele>2873.83</ele>
        <time>2015-08-17T12:01:08Z</time>
      </trkpt>
      <trkpt lat="45.25541" lon="7.15051">
        <ele>2873.6</ele>
        <time>2015-08-17T12:01:18Z</time>
      </trkpt>
      <trkpt lat="45.25542" lon="7.15053">
        <ele>2873.62</ele>
        <time>2015-08-17T12:01:20Z</time>
      </trkpt>
      <trkpt lat="45.25543" lon="7.15057">
        <ele>2874.03</ele>
        <time>2015-08-17T12:01:29Z</time>
      </trkpt>
      <trkpt lat="45.2554" lon="7.15055">
        <ele>2874.17</ele>
        <time>2015-08-17T12:01:35Z</time>
      </trkpt>
      <trkpt lat="45.25547" lon="7.15061">
        <ele>2874.29</ele>
        <time>2015-08-17T12:01:43Z</time>
      </trkpt>
      <trkpt lat="45.25548" lon="7.15063">
        <ele>2874.32</ele>
        <time>2015-08-17T12:01:45Z</time>
      </trkpt>
      <trkpt lat="45.25549" lon="7.15068">
        <ele>2874.45</ele>
        <time>2015-08-17T12:01:53Z</time>
      </trkpt>
      <trkpt lat="45.25548" lon="7.15071">
        <ele>2874.6</ele>
        <time>2015-08-17T12:01:58Z</time>
      </trkpt>
      <trkpt lat="45.25541" lon="7.15077">
        <ele>2874.63</ele>
        <time>2015-08-17T12:02:06Z</time>
      </trkpt>
      <trkpt lat="45.25531" lon="7.15084">
        <ele>2874.13</ele>
        <time>2015-08-17T12:02:12Z</time>
      </trkpt>
      <trkpt lat="45.25519" lon="7.15092">
        <ele>2872.94</ele>
        <time>2015-08-17T12:02:19Z</time>
      </trkpt>
      <trkpt lat="45.25507" lon="7.15104">
        <ele>2871.6</ele>
        <time>2015-08-17T12:02:25Z</time>
      </trkpt>
      <trkpt lat="45.25501" lon="7.15109">
        <ele>2870.39</ele>
        <time>2015-08-17T12:02:28Z</time>
      </trkpt>
      <trkpt lat="45.25501" lon="7.15111">
        <ele>2870</ele>
        <time>2015-08-17T12:02:29Z</time>
      </trkpt>
      <trkpt lat="45.255" lon="7.15113">
        <ele>2869.65</ele>
        <time>2015-08-17T12:02:30Z</time>
      </trkpt>
      <trkpt lat="45.25499" lon="7.15114">
        <ele>2869.32</ele>
        <time>2015-08-17T12:02:31Z</time>
      </trkpt>
      <trkpt lat="45.25498" lon="7.15116">
        <ele>2868.98</ele>
        <time>2015-08-17T12:02:32Z</time>
      </trkpt>
      <trkpt lat="45.25497" lon="7.15118">
        <ele>2868.66</ele>
        <time>2015-08-17T12:02:33Z</time>
      </trkpt>
      <trkpt lat="45.25495" lon="7.15119">
        <ele>2868.34</ele>
        <time>2015-08-17T12:02:34Z</time>
      </trkpt>
      <trkpt lat="45.25494" lon="7.15121">
        <ele>2868.03</ele>
        <time>2015-08-17T12:02:35Z</time>
      </trkpt>
      <trkpt lat="45.25493" lon="7.15123">
        <ele>2867.65</ele>
        <time>2015-08-17T12:02:36Z</time>
      </trkpt>
      <trkpt lat="45.25491" lon="7.15127">
        <ele>2866.14</ele>
        <time>2015-08-17T12:02:41Z</time>
      </trkpt>
      <trkpt lat="45.25489" lon="7.15131">
        <ele>2865.63</ele>
        <time>2015-08-17T12:02:45Z</time>
      </trkpt>
      <trkpt lat="45.25489" lon="7.15133">
        <ele>2865.51</ele>
        <time>2015-08-17T12:02:46Z</time>
      </trkpt>
      <trkpt lat="45.25487" lon="7.15137">
        <ele>2865.09</ele>
        <time>2015-08-17T12:02:50Z</time>
      </trkpt>
      <trkpt lat="45.25486" lon="7.15137">
        <ele>2864.97</ele>
        <time>2015-08-17T12:02:51Z</time>
      </trkpt>
      <trkpt lat="45.25485" lon="7.15138">
        <ele>2864.83</ele>
        <time>2015-08-17T12:02:52Z</time>
      </trkpt>
      <trkpt lat="45.25483" lon="7.15139">
        <ele>2863.73</ele>
        <time>2015-08-17T12:02:58Z</time>
      </trkpt>
      <trkpt lat="45.2548" lon="7.15144">
        <ele>2863.21</ele>
        <time>2015-08-17T12:03:03Z</time>
      </trkpt>
      <trkpt lat="45.25475" lon="7.15146">
        <ele>2862.13</ele>
        <time>2015-08-17T12:03:09Z</time>
      </trkpt>
      <trkpt lat="45.25472" lon="7.15149">
        <ele>2861.64</ele>
        <time>2015-08-17T12:03:11Z</time>
      </trkpt>
      <trkpt lat="45.25471" lon="7.1515">
        <ele>2861.38</ele>
        <time>2015-08-17T12:03:12Z</time>
      </trkpt>
      <trkpt lat="45.25469" lon="7.15151">
        <ele>2861.11</ele>
        <time>2015-08-17T12:03:13Z</time>
      </trkpt>
      <trkpt lat="45.25461" lon="7.15154">
        <ele>2859.58</ele>
        <time>2015-08-17T12:03:20Z</time>
      </trkpt>
      <trkpt lat="45.25458" lon="7.15156">
        <ele>2858.76</ele>
        <time>2015-08-17T12:03:28Z</time>
      </trkpt>
      <trkpt lat="45.25454" lon="7.15157">
        <ele>2858.52</ele>
        <time>2015-08-17T12:03:34Z</time>
      </trkpt>
      <trkpt lat="45.25446" lon="7.15163">
        <ele>2857.6</ele>
        <time>2015-08-17T12:03:44Z</time>
      </trkpt>
      <trkpt lat="45.25441" lon="7.15168">
        <ele>2856.11</ele>
        <time>2015-08-17T12:03:53Z</time>
      </trkpt>
      <trkpt lat="45.25435" lon="7.15172">
        <ele>2854.26</ele>
        <time>2015-08-17T12:04:02Z</time>
      </trkpt>
      <trkpt lat="45.25433" lon="7.15172">
        <ele>2853.41</ele>
        <time>2015-08-17T12:04:05Z</time>
      </trkpt>
      <trkpt lat="45.25432" lon="7.15173">
        <ele>2853.12</ele>
        <time>2015-08-17T12:04:06Z</time>
      </trkpt>
      <trkpt lat="45.25431" lon="7.15174">
        <ele>2852.59</ele>
        <time>2015-08-17T12:04:07Z</time>
      </trkpt>
      <trkpt lat="45.25429" lon="7.15181">
        <ele>2851.62</ele>
        <time>2015-08-17T12:04:13Z</time>
      </trkpt>
      <trkpt lat="45.25427" lon="7.15183">
        <ele>2851.55</ele>
        <time>2015-08-17T12:04:15Z</time>
      </trkpt>
      <trkpt lat="45.25425" lon="7.15184">
        <ele>2851.6</ele>
        <time>2015-08-17T12:04:17Z</time>
      </trkpt>
      <trkpt lat="45.25422" lon="7.15185">
        <ele>2852.03</ele>
        <time>2015-08-17T12:04:21Z</time>
      </trkpt>
      <trkpt lat="45.25421" lon="7.15186">
        <ele>2852.15</ele>
        <time>2015-08-17T12:04:22Z</time>
      </trkpt>
      <trkpt lat="45.2542" lon="7.15187">
        <ele>2852.23</ele>
        <time>2015-08-17T12:04:23Z</time>
      </trkpt>
      <trkpt lat="45.25419" lon="7.15187">
        <ele>2852.28</ele>
        <time>2015-08-17T12:04:24Z</time>
      </trkpt>
      <trkpt lat="45.25418" lon="7.15188">
        <ele>2852.29</ele>
        <time>2015-08-17T12:04:25Z</time>
      </trkpt>
      <trkpt lat="45.25414" lon="7.15187">
        <ele>2852.09</ele>
        <time>2015-08-17T12:04:28Z</time>
      </trkpt>
      <trkpt lat="45.25406" lon="7.15184">
        <ele>2852.14</ele>
        <time>2015-08-17T12:04:38Z</time>
      </trkpt>
      <trkpt lat="45.25405" lon="7.15184">
        <ele>2852.17</ele>
        <time>2015-08-17T12:04:39Z</time>
      </trkpt>
      <trkpt lat="45.25399" lon="7.15186">
        <ele>2851.98</ele>
        <time>2015-08-17T12:04:48Z</time>
      </trkpt>
      <trkpt lat="45.25398" lon="7.15187">
        <ele>2850.98</ele>
        <time>2015-08-17T12:05:00Z</time>
      </trkpt>
      <trkpt lat="45.25398" lon="7.15189">
        <ele>2849.72</ele>
        <time>2015-08-17T12:05:08Z</time>
      </trkpt>
      <trkpt lat="45.25399" lon="7.15194">
        <ele>2848.57</ele>
        <time>2015-08-17T12:05:16Z</time>
      </trkpt>
      <trkpt lat="45.25396" lon="7.15197">
        <ele>2846.78</ele>
        <time>2015-08-17T12:05:23Z</time>
      </trkpt>
      <trkpt lat="45.25391" lon="7.15197">
        <ele>2845.42</ele>
        <time>2015-08-17T12:05:30Z</time>
      </trkpt>
      <trkpt lat="45.25388" lon="7.15196">
        <ele>2844.49</ele>
        <time>2015-08-17T12:05:34Z</time>
      </trkpt>
      <trkpt lat="45.25386" lon="7.15195">
        <ele>2844.35</ele>
        <time>2015-08-17T12:05:35Z</time>
      </trkpt>
      <trkpt lat="45.25383" lon="7.15194">
        <ele>2844.24</ele>
        <time>2015-08-17T12:05:36Z</time>
      </trkpt>
      <trkpt lat="45.2538" lon="7.15194">
        <ele>2844.11</ele>
        <time>2015-08-17T12:05:37Z</time>
      </trkpt>
      <trkpt lat="45.25378" lon="7.15193">
        <ele>2843.92</ele>
        <time>2015-08-17T12:05:38Z</time>
      </trkpt>
      <trkpt lat="45.25376" lon="7.15192">
        <ele>2843.71</ele>
        <time>2015-08-17T12:05:39Z</time>
      </trkpt>
      <trkpt lat="45.25372" lon="7.15191">
        <ele>2843.22</ele>
        <time>2015-08-17T12:05:41Z</time>
      </trkpt>
      <trkpt lat="45.25371" lon="7.15191">
        <ele>2842.95</ele>
        <time>2015-08-17T12:05:42Z</time>
      </trkpt>
      <trkpt lat="45.25366" lon="7.15189">
        <ele>2840.98</ele>
        <time>2015-08-17T12:05:48Z</time>
      </trkpt>
      <trkpt lat="45.25359" lon="7.15186">
        <ele>2839.88</ele>
        <time>2015-08-17T12:05:53Z</time>
      </trkpt>
      <trkpt lat="45.25354" lon="7.15184">
        <ele>2839.17</ele>
        <time>2015-08-17T12:05:58Z</time>
      </trkpt>
      <trkpt lat="45.2535" lon="7.15179">
        <ele>2838.97</ele>
        <time>2015-08-17T12:06:05Z</time>
      </trkpt>
      <trkpt lat="45.2535" lon="7.15177">
        <ele>2839.08</ele>
        <time>2015-08-17T12:06:13Z</time>
      </trkpt>
      <trkpt lat="45.25347" lon="7.15179">
        <ele>2839.77</ele>
        <time>2015-08-17T12:06:57Z</time>
      </trkpt>
      <trkpt lat="45.25347" lon="7.15177">
        <ele>2840.18</ele>
        <time>2015-08-17T12:07:32Z</time>
      </trkpt>
      <trkpt lat="45.25348" lon="7.15175">
        <ele>2841.08</ele>
        <time>2015-08-17T12:08:12Z</time>
      </trkpt>
      <trkpt lat="45.25344" lon="7.15174">
        <ele>2841.13</ele>
        <time>2015-08-17T12:08:17Z</time>
      </trkpt>
      <trkpt lat="45.25333" lon="7.15169">
        <ele>2840.31</ele>
        <time>2015-08-17T12:08:26Z</time>
      </trkpt>
      <trkpt lat="45.25331" lon="7.15167">
        <ele>2839.8</ele>
        <time>2015-08-17T12:08:29Z</time>
      </trkpt>
      <trkpt lat="45.2533" lon="7.15166">
        <ele>2839.63</ele>
        <time>2015-08-17T12:08:30Z</time>
      </trkpt>
      <trkpt lat="45.25328" lon="7.15163">
        <ele>2839.5</ele>
        <time>2015-08-17T12:08:32Z</time>
      </trkpt>
      <trkpt lat="45.25327" lon="7.15163">
        <ele>2839.41</ele>
        <time>2015-08-17T12:08:33Z</time>
      </trkpt>
      <trkpt lat="45.25325" lon="7.15163">
        <ele>2839.32</ele>
        <time>2015-08-17T12:08:34Z</time>
      </trkpt>
      <trkpt lat="45.25321" lon="7.15165">
        <ele>2838.58</ele>
        <time>2015-08-17T12:08:39Z</time>
      </trkpt>
      <trkpt lat="45.25316" lon="7.15161">
        <ele>2836.78</ele>
        <time>2015-08-17T12:08:46Z</time>
      </trkpt>
      <trkpt lat="45.2531" lon="7.15157">
        <ele>2834.59</ele>
        <time>2015-08-17T12:08:54Z</time>
      </trkpt>
      <trkpt lat="45.25305" lon="7.15153">
        <ele>2832.81</ele>
        <time>2015-08-17T12:09:02Z</time>
      </trkpt>
      <trkpt lat="45.25302" lon="7.15152">
        <ele>2831.12</ele>
        <time>2015-08-17T12:09:10Z</time>
      </trkpt>
      <trkpt lat="45.253" lon="7.1515">
        <ele>2829.49</ele>
        <time>2015-08-17T12:09:19Z</time>
      </trkpt>
      <trkpt lat="45.25293" lon="7.15146">
        <ele>2827.81</ele>
        <time>2015-08-17T12:09:29Z</time>
      </trkpt>
      <trkpt lat="45.25287" lon="7.15143">
        <ele>2825.54</ele>
        <time>2015-08-17T12:09:38Z</time>
      </trkpt>
      <trkpt lat="45.25286" lon="7.15143">
        <ele>2825.34</ele>
        <time>2015-08-17T12:09:39Z</time>
      </trkpt>
      <trkpt lat="45.25281" lon="7.15139">
        <ele>2823.62</ele>
        <time>2015-08-17T12:09:47Z</time>
      </trkpt>
      <trkpt lat="45.2528" lon="7.15138">
        <ele>2823.06</ele>
        <time>2015-08-17T12:10:01Z</time>
      </trkpt>
      <trkpt lat="45.25278" lon="7.15137">
        <ele>2822.77</ele>
        <time>2015-08-17T12:10:04Z</time>
      </trkpt>
      <trkpt lat="45.25273" lon="7.15135">
        <ele>2820.46</ele>
        <time>2015-08-17T12:10:12Z</time>
      </trkpt>
      <trkpt lat="45.25272" lon="7.15134">
        <ele>2818.79</ele>
        <time>2015-08-17T12:10:23Z</time>
      </trkpt>
      <trkpt lat="45.25271" lon="7.15132">
        <ele>2818.82</ele>
        <time>2015-08-17T12:10:27Z</time>
      </trkpt>
      <trkpt lat="45.25269" lon="7.15131">
        <ele>2818.8</ele>
        <time>2015-08-17T12:10:28Z</time>
      </trkpt>
      <trkpt lat="45.25267" lon="7.1513">
        <ele>2818.74</ele>
        <time>2015-08-17T12:10:29Z</time>
      </trkpt>
      <trkpt lat="45.25261" lon="7.15121">
        <ele>2817.07</ele>
        <time>2015-08-17T12:10:35Z</time>
      </trkpt>
      <trkpt lat="45.25258" lon="7.15117">
        <ele>2814.8</ele>
        <time>2015-08-17T12:10:40Z</time>
      </trkpt>
      <trkpt lat="45.25254" lon="7.15109">
        <ele>2813.95</ele>
        <time>2015-08-17T12:10:43Z</time>
      </trkpt>
      <trkpt lat="45.2525" lon="7.15096">
        <ele>2812</ele>
        <time>2015-08-17T12:10:49Z</time>
      </trkpt>
      <trkpt lat="45.25248" lon="7.15095">
        <ele>2809.92</ele>
        <time>2015-08-17T12:10:55Z</time>
      </trkpt>
      <trkpt lat="45.25246" lon="7.15093">
        <ele>2808.93</ele>
        <time>2015-08-17T12:11:00Z</time>
      </trkpt>
      <trkpt lat="45.25246" lon="7.1509">
        <ele>2808.1</ele>
        <time>2015-08-17T12:11:08Z</time>
      </trkpt>
      <trkpt lat="45.25244" lon="7.15088">
        <ele>2808.14</ele>
        <time>2015-08-17T12:11:16Z</time>
      </trkpt>
      <trkpt lat="45.25244" lon="7.15087">
        <ele>2808.26</ele>
        <time>2015-08-17T12:11:24Z</time>
      </trkpt>
      <trkpt lat="45.25244" lon="7.15086">
        <ele>2808.36</ele>
        <time>2015-08-17T12:11:32Z</time>
      </trkpt>
      <trkpt lat="45.25243" lon="7.15079">
        <ele>2808.1</ele>
        <time>2015-08-17T12:11:40Z</time>
      </trkpt>
      <trkpt lat="45.25242" lon="7.15077">
        <ele>2807.95</ele>
        <time>2015-08-17T12:11:48Z</time>
      </trkpt>
      <trkpt lat="45.25242" lon="7.15076">
        <ele>2807.95</ele>
        <time>2015-08-17T12:11:52Z</time>
      </trkpt>
      <trkpt lat="45.25241" lon="7.15072">
        <ele>2808.01</ele>
        <time>2015-08-17T12:11:59Z</time>
      </trkpt>
      <trkpt lat="45.25241" lon="7.15071">
        <ele>2808.04</ele>
        <time>2015-08-17T12:12:03Z</time>
      </trkpt>
      <trkpt lat="45.2524" lon="7.15054">
        <ele>2808.03</ele>
        <time>2015-08-17T12:12:13Z</time>
      </trkpt>
      <trkpt lat="45.25237" lon="7.15045">
        <ele>2807.9</ele>
        <time>2015-08-17T12:12:20Z</time>
      </trkpt>
      <trkpt lat="45.25236" lon="7.15044">
        <ele>2807.69</ele>
        <time>2015-08-17T12:12:29Z</time>
      </trkpt>
      <trkpt lat="45.25238" lon="7.15039">
        <ele>2807.62</ele>
        <time>2015-08-17T12:12:37Z</time>
      </trkpt>
      <trkpt lat="45.25238" lon="7.15041">
        <ele>2807.73</ele>
        <time>2015-08-17T12:12:49Z</time>
      </trkpt>
      <trkpt lat="45.25239" lon="7.15043">
        <ele>2807.7</ele>
        <time>2015-08-17T12:12:51Z</time>
      </trkpt>
      <trkpt lat="45.25242" lon="7.15055">
        <ele>2808.07</ele>
        <time>2015-08-17T12:12:59Z</time>
      </trkpt>
      <trkpt lat="45.25243" lon="7.15063">
        <ele>2808.27</ele>
        <time>2015-08-17T12:13:04Z</time>
      </trkpt>
      <trkpt lat="45.25242" lon="7.15073">
        <ele>2808.08</ele>
        <time>2015-08-17T12:13:09Z</time>
      </trkpt>
      <trkpt lat="45.25243" lon="7.15076">
        <ele>2808.15</ele>
        <time>2015-08-17T12:13:11Z</time>
      </trkpt>
      <trkpt lat="45.25243" lon="7.15085">
        <ele>2808.67</ele>
        <time>2015-08-17T12:13:17Z</time>
      </trkpt>
      <trkpt lat="45.25247" lon="7.15095">
        <ele>2808.83</ele>
        <time>2015-08-17T12:13:24Z</time>
      </trkpt>
      <trkpt lat="45.25249" lon="7.15105">
        <ele>2809.59</ele>
        <time>2015-08-17T12:13:32Z</time>
      </trkpt>
      <trkpt lat="45.25248" lon="7.15108">
        <ele>2810.04</ele>
        <time>2015-08-17T12:13:39Z</time>
      </trkpt>
      <trkpt lat="45.25249" lon="7.15115">
        <ele>2809.37</ele>
        <time>2015-08-17T12:13:47Z</time>
      </trkpt>
      <trkpt lat="45.25251" lon="7.1512">
        <ele>2808.74</ele>
        <time>2015-08-17T12:13:51Z</time>
      </trkpt>
      <trkpt lat="45.25252" lon="7.15127">
        <ele>2808.34</ele>
        <time>2015-08-17T12:13:55Z</time>
      </trkpt>
      <trkpt lat="45.25254" lon="7.15132">
        <ele>2808.25</ele>
        <time>2015-08-17T12:14:01Z</time>
      </trkpt>
      <trkpt lat="45.25254" lon="7.15135">
        <ele>2809.1</ele>
        <time>2015-08-17T12:14:09Z</time>
      </trkpt>
      <trkpt lat="45.25258" lon="7.15139">
        <ele>2810.13</ele>
        <time>2015-08-17T12:14:17Z</time>
      </trkpt>
      <trkpt lat="45.25259" lon="7.15137">
        <ele>2810.98</ele>
        <time>2015-08-17T12:14:32Z</time>
      </trkpt>
      <trkpt lat="45.2526" lon="7.15142">
        <ele>2810.64</ele>
        <time>2015-08-17T12:14:43Z</time>
      </trkpt>
      <trkpt lat="45.25259" lon="7.15141">
        <ele>2810.15</ele>
        <time>2015-08-17T12:14:56Z</time>
      </trkpt>
      <trkpt lat="45.25257" lon="7.15142">
        <ele>2809.39</ele>
        <time>2015-08-17T12:15:04Z</time>
      </trkpt>
      <trkpt lat="45.25258" lon="7.15144">
        <ele>2808.38</ele>
        <time>2015-08-17T12:15:13Z</time>
      </trkpt>
      <trkpt lat="45.25259" lon="7.15147">
        <ele>2808.03</ele>
        <time>2015-08-17T12:15:22Z</time>
      </trkpt>
      <trkpt lat="45.25258" lon="7.1515">
        <ele>2806.58</ele>
        <time>2015-08-17T12:15:34Z</time>
      </trkpt>
      <trkpt lat="45.25258" lon="7.15149">
        <ele>2805.64</ele>
        <time>2015-08-17T12:15:41Z</time>
      </trkpt>
      <trkpt lat="45.25253" lon="7.15154">
        <ele>2805.3</ele>
        <time>2015-08-17T12:15:50Z</time>
      </trkpt>
      <trkpt lat="45.25249" lon="7.15154">
        <ele>2803.86</ele>
        <time>2015-08-17T12:15:57Z</time>
      </trkpt>
      <trkpt lat="45.25248" lon="7.15155">
        <ele>2803.6</ele>
        <time>2015-08-17T12:15:58Z</time>
      </trkpt>
      <trkpt lat="45.25246" lon="7.15154">
        <ele>2800.79</ele>
        <time>2015-08-17T12:16:08Z</time>
      </trkpt>
      <trkpt lat="45.25243" lon="7.15151">
        <ele>2799.4</ele>
        <time>2015-08-17T12:16:14Z</time>
      </trkpt>
      <trkpt lat="45.25242" lon="7.15146">
        <ele>2797.46</ele>
        <time>2015-08-17T12:16:21Z</time>
      </trkpt>
      <trkpt lat="45.25243" lon="7.15141">
        <ele>2796.22</ele>
        <time>2015-08-17T12:16:27Z</time>
      </trkpt>
      <trkpt lat="45.2524" lon="7.15135">
        <ele>2794.3</ele>
        <time>2015-08-17T12:16:33Z</time>
      </trkpt>
      <trkpt lat="45.2524" lon="7.15135">
        <ele>2794.11</ele>
        <time>2015-08-17T12:16:34Z</time>
      </trkpt>
      <trkpt lat="45.25237" lon="7.15137">
        <ele>2792.79</ele>
        <time>2015-08-17T12:16:40Z</time>
      </trkpt>
      <trkpt lat="45.25239" lon="7.15138">
        <ele>2791.46</ele>
        <time>2015-08-17T12:16:53Z</time>
      </trkpt>
      <trkpt lat="45.25239" lon="7.15138">
        <ele>2791.79</ele>
        <time>2015-08-17T12:17:08Z</time>
      </trkpt>
      <trkpt lat="45.25237" lon="7.15137">
        <ele>2791.73</ele>
        <time>2015-08-17T12:17:16Z</time>
      </trkpt>
      <trkpt lat="45.25235" lon="7.15135">
        <ele>2790.95</ele>
        <time>2015-08-17T12:17:22Z</time>
      </trkpt>
      <trkpt lat="45.25229" lon="7.1513">
        <ele>2789.29</ele>
        <time>2015-08-17T12:17:30Z</time>
      </trkpt>
      <trkpt lat="45.25228" lon="7.15128">
        <ele>2788.78</ele>
        <time>2015-08-17T12:17:32Z</time>
      </trkpt>
      <trkpt lat="45.25225" lon="7.15127">
        <ele>2786.6</ele>
        <time>2015-08-17T12:17:39Z</time>
      </trkpt>
      <trkpt lat="45.25224" lon="7.15123">
        <ele>2785.59</ele>
        <time>2015-08-17T12:17:42Z</time>
      </trkpt>
      <trkpt lat="45.25222" lon="7.15119">
        <ele>2784.6</ele>
        <time>2015-08-17T12:17:47Z</time>
      </trkpt>
      <trkpt lat="45.25216" lon="7.15121">
        <ele>2782.59</ele>
        <time>2015-08-17T12:17:54Z</time>
      </trkpt>
      <trkpt lat="45.25216" lon="7.15122">
        <ele>2780.76</ele>
        <time>2015-08-17T12:18:01Z</time>
      </trkpt>
      <trkpt lat="45.25217" lon="7.15122">
        <ele>2779.9</ele>
        <time>2015-08-17T12:18:10Z</time>
      </trkpt>
      <trkpt lat="45.25215" lon="7.15122">
        <ele>2780.07</ele>
        <time>2015-08-17T12:18:22Z</time>
      </trkpt>
      <trkpt lat="45.25216" lon="7.15123">
        <ele>2780.5</ele>
        <time>2015-08-17T12:18:30Z</time>
      </trkpt>
      <trkpt lat="45.25218" lon="7.15121">
        <ele>2780.4</ele>
        <time>2015-08-17T12:18:52Z</time>
      </trkpt>
      <trkpt lat="45.25215" lon="7.15116">
        <ele>2780.48</ele>
        <time>2015-08-17T12:19:26Z</time>
      </trkpt>
      <trkpt lat="45.25215" lon="7.15116">
        <ele>2780.48</ele>
        <time>2015-08-17T12:19:49Z</time>
      </trkpt>
      <trkpt lat="45.25218" lon="7.15117">
        <ele>2780.8</ele>
        <time>2015-08-17T12:20:24Z</time>
      </trkpt>
      <trkpt lat="45.2522" lon="7.1512">
        <ele>2781.01</ele>
        <time>2015-08-17T12:20:49Z</time>
      </trkpt>
      <trkpt lat="45.25216" lon="7.15116">
        <ele>2781.03</ele>
        <time>2015-08-17T12:20:56Z</time>
      </trkpt>
      <trkpt lat="45.25212" lon="7.15111">
        <ele>2780.26</ele>
        <time>2015-08-17T12:21:04Z</time>
      </trkpt>
      <trkpt lat="45.2521" lon="7.15108">
        <ele>2779.08</ele>
        <time>2015-08-17T12:21:12Z</time>
      </trkpt>
      <trkpt lat="45.25205" lon="7.15106">
        <ele>2777.75</ele>
        <time>2015-08-17T12:21:19Z</time>
      </trkpt>
      <trkpt lat="45.25201" lon="7.15108">
        <ele>2776.94</ele>
        <time>2015-08-17T12:21:27Z</time>
      </trkpt>
      <trkpt lat="45.252" lon="7.15109">
        <ele>2776.11</ele>
        <time>2015-08-17T12:21:34Z</time>
      </trkpt>
      <trkpt lat="45.25201" lon="7.15106">
        <ele>2775.24</ele>
        <time>2015-08-17T12:21:41Z</time>
      </trkpt>
      <trkpt lat="45.252" lon="7.15104">
        <ele>2774.79</ele>
        <time>2015-08-17T12:21:47Z</time>
      </trkpt>
      <trkpt lat="45.25197" lon="7.15103">
        <ele>2773.97</ele>
        <time>2015-08-17T12:21:54Z</time>
      </trkpt>
      <trkpt lat="45.25197" lon="7.15101">
        <ele>2773.37</ele>
        <time>2015-08-17T12:21:58Z</time>
      </trkpt>
      <trkpt lat="45.25194" lon="7.15097">
        <ele>2772.38</ele>
        <time>2015-08-17T12:22:04Z</time>
      </trkpt>
      <trkpt lat="45.25192" lon="7.15094">
        <ele>2770.92</ele>
        <time>2015-08-17T12:22:23Z</time>
      </trkpt>
      <trkpt lat="45.25194" lon="7.15095">
        <ele>2771.26</ele>
        <time>2015-08-17T12:22:58Z</time>
      </trkpt>
      <trkpt lat="45.25195" lon="7.15095">
        <ele>2771.34</ele>
        <time>2015-08-17T12:23:17Z</time>
      </trkpt>
      <trkpt lat="45.25196" lon="7.15092">
        <ele>2771.25</ele>
        <time>2015-08-17T12:23:30Z</time>
      </trkpt>
      <trkpt lat="45.25193" lon="7.15085">
        <ele>2770.92</ele>
        <time>2015-08-17T12:23:39Z</time>
      </trkpt>
      <trkpt lat="45.25189" lon="7.15083">
        <ele>2770.23</ele>
        <time>2015-08-17T12:23:46Z</time>
      </trkpt>
      <trkpt lat="45.25186" lon="7.15077">
        <ele>2768.44</ele>
        <time>2015-08-17T12:23:54Z</time>
      </trkpt>
      <trkpt lat="45.25187" lon="7.15074">
        <ele>2767.82</ele>
        <time>2015-08-17T12:23:57Z</time>
      </trkpt>
      <trkpt lat="45.25186" lon="7.15068">
        <ele>2765.76</ele>
        <time>2015-08-17T12:24:05Z</time>
      </trkpt>
      <trkpt lat="45.25185" lon="7.15067">
        <ele>2765.58</ele>
        <time>2015-08-17T12:24:06Z</time>
      </trkpt>
      <trkpt lat="45.25181" lon="7.15065">
        <ele>2763.9</ele>
        <time>2015-08-17T12:24:11Z</time>
      </trkpt>
      <trkpt lat="45.2518" lon="7.15064">
        <ele>2763.7</ele>
        <time>2015-08-17T12:24:12Z</time>
      </trkpt>
      <trkpt lat="45.25175" lon="7.15063">
        <ele>2762.11</ele>
        <time>2015-08-17T12:24:21Z</time>
      </trkpt>
      <trkpt lat="45.2517" lon="7.15059">
        <ele>2760.68</ele>
        <time>2015-08-17T12:24:31Z</time>
      </trkpt>
      <trkpt lat="45.25167" lon="7.15055">
        <ele>2759.81</ele>
        <time>2015-08-17T12:24:35Z</time>
      </trkpt>
      <trkpt lat="45.25165" lon="7.15051">
        <ele>2759.02</ele>
        <time>2015-08-17T12:24:38Z</time>
      </trkpt>
      <trkpt lat="45.2516" lon="7.15039">
        <ele>2757.21</ele>
        <time>2015-08-17T12:24:48Z</time>
      </trkpt>
      <trkpt lat="45.25158" lon="7.15033">
        <ele>2757.75</ele>
        <time>2015-08-17T12:24:54Z</time>
      </trkpt>
      <trkpt lat="45.25156" lon="7.15029">
        <ele>2757.91</ele>
        <time>2015-08-17T12:24:57Z</time>
      </trkpt>
      <trkpt lat="45.25148" lon="7.15027">
        <ele>2758.17</ele>
        <time>2015-08-17T12:25:06Z</time>
      </trkpt>
      <trkpt lat="45.25143" lon="7.1502">
        <ele>2759.45</ele>
        <time>2015-08-17T12:25:15Z</time>
      </trkpt>
      <trkpt lat="45.25135" lon="7.15019">
        <ele>2760.48</ele>
        <time>2015-08-17T12:25:24Z</time>
      </trkpt>
      <trkpt lat="45.2513" lon="7.15016">
        <ele>2761.16</ele>
        <time>2015-08-17T12:25:32Z</time>
      </trkpt>
      <trkpt lat="45.25131" lon="7.15015">
        <ele>2761.4</ele>
        <time>2015-08-17T12:25:49Z</time>
      </trkpt>
      <trkpt lat="45.25131" lon="7.15015">
        <ele>2761.32</ele>
        <time>2015-08-17T12:26:06Z</time>
      </trkpt>
      <trkpt lat="45.25124" lon="7.15011">
        <ele>2761.86</ele>
        <time>2015-08-17T12:26:15Z</time>
      </trkpt>
      <trkpt lat="45.25121" lon="7.15009">
        <ele>2762.11</ele>
        <time>2015-08-17T12:26:19Z</time>
      </trkpt>
      <trkpt lat="45.25117" lon="7.15002">
        <ele>2762.42</ele>
        <time>2015-08-17T12:26:27Z</time>
      </trkpt>
      <trkpt lat="45.25115" lon="7.14998">
        <ele>2762.65</ele>
        <time>2015-08-17T12:26:31Z</time>
      </trkpt>
      <trkpt lat="45.25114" lon="7.14995">
        <ele>2762.69</ele>
        <time>2015-08-17T12:26:33Z</time>
      </trkpt>
      <trkpt lat="45.25112" lon="7.14991">
        <ele>2762.69</ele>
        <time>2015-08-17T12:26:34Z</time>
      </trkpt>
      <trkpt lat="45.25111" lon="7.14987">
        <ele>2762.67</ele>
        <time>2015-08-17T12:26:35Z</time>
      </trkpt>
      <trkpt lat="45.25109" lon="7.14983">
        <ele>2762.6</ele>
        <time>2015-08-17T12:26:36Z</time>
      </trkpt>
      <trkpt lat="45.25108" lon="7.14978">
        <ele>2762.18</ele>
        <time>2015-08-17T12:26:37Z</time>
      </trkpt>
      <trkpt lat="45.25105" lon="7.14972">
        <ele>2761.71</ele>
        <time>2015-08-17T12:26:39Z</time>
      </trkpt>
      <trkpt lat="45.25094" lon="7.1496">
        <ele>2760.67</ele>
        <time>2015-08-17T12:26:45Z</time>
      </trkpt>
      <trkpt lat="45.25087" lon="7.14949">
        <ele>2760.46</ele>
        <time>2015-08-17T12:26:51Z</time>
      </trkpt>
      <trkpt lat="45.25087" lon="7.14946">
        <ele>2760.45</ele>
        <time>2015-08-17T12:26:52Z</time>
      </trkpt>
      <trkpt lat="45.25086" lon="7.14944">
        <ele>2760.45</ele>
        <time>2015-08-17T12:26:53Z</time>
      </trkpt>
      <trkpt lat="45.25085" lon="7.14942">
        <ele>2760.49</ele>
        <time>2015-08-17T12:26:54Z</time>
      </trkpt>
      <trkpt lat="45.25084" lon="7.1494">
        <ele>2760.53</ele>
        <time>2015-08-17T12:26:55Z</time>
      </trkpt>
      <trkpt lat="45.25083" lon="7.14939">
        <ele>2760.61</ele>
        <time>2015-08-17T12:26:56Z</time>
      </trkpt>
      <trkpt lat="45.25082" lon="7.14938">
        <ele>2760.69</ele>
        <time>2015-08-17T12:26:57Z</time>
      </trkpt>
      <trkpt lat="45.25077" lon="7.14934">
        <ele>2760.86</ele>
        <time>2015-08-17T12:27:00Z</time>
      </trkpt>
      <trkpt lat="45.25075" lon="7.14934">
        <ele>2760.91</ele>
        <time>2015-08-17T12:27:01Z</time>
      </trkpt>
      <trkpt lat="45.25074" lon="7.14933">
        <ele>2761.01</ele>
        <time>2015-08-17T12:27:02Z</time>
      </trkpt>
      <trkpt lat="45.25072" lon="7.14932">
        <ele>2761.1</ele>
        <time>2015-08-17T12:27:03Z</time>
      </trkpt>
      <trkpt lat="45.25071" lon="7.14931">
        <ele>2761.2</ele>
        <time>2015-08-17T12:27:04Z</time>
      </trkpt>
      <trkpt lat="45.25068" lon="7.14931">
        <ele>2761.82</ele>
        <time>2015-08-17T12:27:09Z</time>
      </trkpt>
      <trkpt lat="45.25062" lon="7.14935">
        <ele>2762.47</ele>
        <time>2015-08-17T12:27:15Z</time>
      </trkpt>
      <trkpt lat="45.25058" lon="7.14933">
        <ele>2763.14</ele>
        <time>2015-08-17T12:27:22Z</time>
      </trkpt>
      <trkpt lat="45.25057" lon="7.14933">
        <ele>2763.5</ele>
        <time>2015-08-17T12:27:39Z</time>
      </trkpt>
      <trkpt lat="45.25055" lon="7.14932">
        <ele>2763.29</ele>
        <time>2015-08-17T12:27:51Z</time>
      </trkpt>
      <trkpt lat="45.25053" lon="7.14932">
        <ele>2763.01</ele>
        <time>2015-08-17T12:27:59Z</time>
      </trkpt>
      <trkpt lat="45.25053" lon="7.14932">
        <ele>2762.68</ele>
        <time>2015-08-17T12:28:11Z</time>
      </trkpt>
      <trkpt lat="45.25054" lon="7.14933">
        <ele>2762.95</ele>
        <time>2015-08-17T12:28:35Z</time>
      </trkpt>
      <trkpt lat="45.25055" lon="7.14932">
        <ele>2762.95</ele>
        <time>2015-08-17T12:28:37Z</time>
      </trkpt>
      <trkpt lat="45.25056" lon="7.14931">
        <ele>2762.94</ele>
        <time>2015-08-17T12:28:38Z</time>
      </trkpt>
      <trkpt lat="45.25055" lon="7.14926">
        <ele>2762.8</ele>
        <time>2015-08-17T12:28:43Z</time>
      </trkpt>
      <trkpt lat="45.25055" lon="7.14925">
        <ele>2762.53</ele>
        <time>2015-08-17T12:28:51Z</time>
      </trkpt>
      <trkpt lat="45.25054" lon="7.14925">
        <ele>2762.51</ele>
        <time>2015-08-17T12:29:05Z</time>
      </trkpt>
      <trkpt lat="45.25053" lon="7.14927">
        <ele>2762.14</ele>
        <time>2015-08-17T12:29:12Z</time>
      </trkpt>
      <trkpt lat="45.25052" lon="7.14929">
        <ele>2761.25</ele>
        <time>2015-08-17T12:29:20Z</time>
      </trkpt>
      <trkpt lat="45.25048" lon="7.14927">
        <ele>2760.63</ele>
        <time>2015-08-17T12:29:27Z</time>
      </trkpt>
      <trkpt lat="45.25047" lon="7.14925">
        <ele>2760.16</ele>
        <time>2015-08-17T12:29:28Z</time>
      </trkpt>
      <trkpt lat="45.25046" lon="7.14923">
        <ele>2760.16</ele>
        <time>2015-08-17T12:29:29Z</time>
      </trkpt>
      <trkpt lat="45.25036" lon="7.14911">
        <ele>2758.21</ele>
        <time>2015-08-17T12:29:37Z</time>
      </trkpt>
      <trkpt lat="45.25032" lon="7.14908">
        <ele>2757.74</ele>
        <time>2015-08-17T12:29:39Z</time>
      </trkpt>
      <trkpt lat="45.2502" lon="7.14909">
        <ele>2755.92</ele>
        <time>2015-08-17T12:29:46Z</time>
      </trkpt>
      <trkpt lat="45.25009" lon="7.1491">
        <ele>2754.96</ele>
        <time>2015-08-17T12:29:53Z</time>
      </trkpt>
      <trkpt lat="45.25005" lon="7.14912">
        <ele>2754.32</ele>
        <time>2015-08-17T12:29:58Z</time>
      </trkpt>
      <trkpt lat="45.25003" lon="7.14912">
        <ele>2753.62</ele>
        <time>2015-08-17T12:30:01Z</time>
      </trkpt>
      <trkpt lat="45.25002" lon="7.14911">
        <ele>2753.38</ele>
        <time>2015-08-17T12:30:02Z</time>
      </trkpt>
      <trkpt lat="45.25001" lon="7.1491">
        <ele>2753.1</ele>
        <time>2015-08-17T12:30:03Z</time>
      </trkpt>
      <trkpt lat="45.25" lon="7.14909">
        <ele>2752.76</ele>
        <time>2015-08-17T12:30:04Z</time>
      </trkpt>
      <trkpt lat="45.24999" lon="7.14909">
        <ele>2752.43</ele>
        <time>2015-08-17T12:30:05Z</time>
      </trkpt>
      <trkpt lat="45.24999" lon="7.14912">
        <ele>2750.6</ele>
        <time>2015-08-17T12:30:11Z</time>
      </trkpt>
      <trkpt lat="45.24998" lon="7.14912">
        <ele>2749.41</ele>
        <time>2015-08-17T12:30:28Z</time>
      </trkpt>
      <trkpt lat="45.24996" lon="7.14915">
        <ele>2749.34</ele>
        <time>2015-08-17T12:30:32Z</time>
      </trkpt>
      <trkpt lat="45.24994" lon="7.14912">
        <ele>2748.56</ele>
        <time>2015-08-17T12:30:37Z</time>
      </trkpt>
      <trkpt lat="45.24993" lon="7.14911">
        <ele>2748.38</ele>
        <time>2015-08-17T12:30:38Z</time>
      </trkpt>
      <trkpt lat="45.24992" lon="7.1491">
        <ele>2748.23</ele>
        <time>2015-08-17T12:30:39Z</time>
      </trkpt>
      <trkpt lat="45.24991" lon="7.14909">
        <ele>2748.1</ele>
        <time>2015-08-17T12:30:40Z</time>
      </trkpt>
      <trkpt lat="45.24981" lon="7.14911">
        <ele>2746.42</ele>
        <time>2015-08-17T12:30:47Z</time>
      </trkpt>
      <trkpt lat="45.24978" lon="7.14912">
        <ele>2745.75</ele>
        <time>2015-08-17T12:30:49Z</time>
      </trkpt>
      <trkpt lat="45.24977" lon="7.14911">
        <ele>2745.33</ele>
        <time>2015-08-17T12:30:50Z</time>
      </trkpt>
      <trkpt lat="45.24975" lon="7.1491">
        <ele>2744.87</ele>
        <time>2015-08-17T12:30:51Z</time>
      </trkpt>
      <trkpt lat="45.24974" lon="7.14909">
        <ele>2744.42</ele>
        <time>2015-08-17T12:30:52Z</time>
      </trkpt>
      <trkpt lat="45.24972" lon="7.14908">
        <ele>2743.97</ele>
        <time>2015-08-17T12:30:53Z</time>
      </trkpt>
      <trkpt lat="45.2497" lon="7.14907">
        <ele>2743.55</ele>
        <time>2015-08-17T12:30:54Z</time>
      </trkpt>
      <trkpt lat="45.2497" lon="7.14907">
        <ele>2741.88</ele>
        <time>2015-08-17T12:30:59Z</time>
      </trkpt>
      <trkpt lat="45.24965" lon="7.14906">
        <ele>2740.52</ele>
        <time>2015-08-17T12:31:08Z</time>
      </trkpt>
      <trkpt lat="45.24963" lon="7.14906">
        <ele>2740.32</ele>
        <time>2015-08-17T12:31:09Z</time>
      </trkpt>
      <trkpt lat="45.24953" lon="7.14905">
        <ele>2738.31</ele>
        <time>2015-08-17T12:31:15Z</time>
      </trkpt>
      <trkpt lat="45.24945" lon="7.14903">
        <ele>2735.15</ele>
        <time>2015-08-17T12:31:22Z</time>
      </trkpt>
      <trkpt lat="45.24944" lon="7.14901">
        <ele>2733.05</ele>
        <time>2015-08-17T12:31:30Z</time>
      </trkpt>
      <trkpt lat="45.24941" lon="7.14899">
        <ele>2731.9</ele>
        <time>2015-08-17T12:31:37Z</time>
      </trkpt>
      <trkpt lat="45.24937" lon="7.14895">
        <ele>2730.22</ele>
        <time>2015-08-17T12:31:47Z</time>
      </trkpt>
      <trkpt lat="45.24935" lon="7.14899">
        <ele>2728.4</ele>
        <time>2015-08-17T12:31:56Z</time>
      </trkpt>
      <trkpt lat="45.24934" lon="7.149">
        <ele>2728.29</ele>
        <time>2015-08-17T12:31:57Z</time>
      </trkpt>
      <trkpt lat="45.24933" lon="7.149">
        <ele>2728.07</ele>
        <time>2015-08-17T12:31:58Z</time>
      </trkpt>
      <trkpt lat="45.24932" lon="7.149">
        <ele>2727.84</ele>
        <time>2015-08-17T12:31:59Z</time>
      </trkpt>
      <trkpt lat="45.2493" lon="7.149">
        <ele>2727.52</ele>
        <time>2015-08-17T12:32:00Z</time>
      </trkpt>
      <trkpt lat="45.24929" lon="7.149">
        <ele>2727.14</ele>
        <time>2015-08-17T12:32:01Z</time>
      </trkpt>
      <trkpt lat="45.24925" lon="7.14896">
        <ele>2724.34</ele>
        <time>2015-08-17T12:32:07Z</time>
      </trkpt>
      <trkpt lat="45.24924" lon="7.14895">
        <ele>2723.99</ele>
        <time>2015-08-17T12:32:08Z</time>
      </trkpt>
      <trkpt lat="45.24924" lon="7.14894">
        <ele>2723.69</ele>
        <time>2015-08-17T12:32:09Z</time>
      </trkpt>
      <trkpt lat="45.24922" lon="7.14892">
        <ele>2723.4</ele>
        <time>2015-08-17T12:32:10Z</time>
      </trkpt>
      <trkpt lat="45.24921" lon="7.14891">
        <ele>2723.07</ele>
        <time>2015-08-17T12:32:11Z</time>
      </trkpt>
      <trkpt lat="45.2492" lon="7.1489">
        <ele>2722.73</ele>
        <time>2015-08-17T12:32:12Z</time>
      </trkpt>
      <trkpt lat="45.2492" lon="7.14886">
        <ele>2721.35</ele>
        <time>2015-08-17T12:32:15Z</time>
      </trkpt>
      <trkpt lat="45.24919" lon="7.14884">
        <ele>2720.82</ele>
        <time>2015-08-17T12:32:16Z</time>
      </trkpt>
      <trkpt lat="45.24919" lon="7.14882">
        <ele>2720.36</ele>
        <time>2015-08-17T12:32:17Z</time>
      </trkpt>
      <trkpt lat="45.24917" lon="7.14881">
        <ele>2719.92</ele>
        <time>2015-08-17T12:32:18Z</time>
      </trkpt>
      <trkpt lat="45.24917" lon="7.14879">
        <ele>2719.43</ele>
        <time>2015-08-17T12:32:19Z</time>
      </trkpt>
      <trkpt lat="45.24916" lon="7.14877">
        <ele>2718.94</ele>
        <time>2015-08-17T12:32:20Z</time>
      </trkpt>
      <trkpt lat="45.24915" lon="7.14875">
        <ele>2718.51</ele>
        <time>2015-08-17T12:32:21Z</time>
      </trkpt>
      <trkpt lat="45.24915" lon="7.14873">
        <ele>2717.63</ele>
        <time>2015-08-17T12:32:22Z</time>
      </trkpt>
      <trkpt lat="45.2491" lon="7.1486">
        <ele>2715.17</ele>
        <time>2015-08-17T12:32:28Z</time>
      </trkpt>
      <trkpt lat="45.24907" lon="7.14854">
        <ele>2713.24</ele>
        <time>2015-08-17T12:32:36Z</time>
      </trkpt>
      <trkpt lat="45.24906" lon="7.1485">
        <ele>2712.34</ele>
        <time>2015-08-17T12:32:42Z</time>
      </trkpt>
      <trkpt lat="45.24905" lon="7.14848">
        <ele>2712.26</ele>
        <time>2015-08-17T12:32:43Z</time>
      </trkpt>
      <trkpt lat="45.24901" lon="7.14846">
        <ele>2711.82</ele>
        <time>2015-08-17T12:32:50Z</time>
      </trkpt>
      <trkpt lat="45.249" lon="7.14845">
        <ele>2711.76</ele>
        <time>2015-08-17T12:32:51Z</time>
      </trkpt>
      <trkpt lat="45.24898" lon="7.14844">
        <ele>2711.68</ele>
        <time>2015-08-17T12:32:52Z</time>
      </trkpt>
      <trkpt lat="45.24893" lon="7.14839">
        <ele>2710.65</ele>
        <time>2015-08-17T12:32:58Z</time>
      </trkpt>
      <trkpt lat="45.24894" lon="7.14839">
        <ele>2709.46</ele>
        <time>2015-08-17T12:33:10Z</time>
      </trkpt>
      <trkpt lat="45.24893" lon="7.1484">
        <ele>2709.76</ele>
        <time>2015-08-17T12:33:34Z</time>
      </trkpt>
      <trkpt lat="45.2489" lon="7.14839">
        <ele>2709.64</ele>
        <time>2015-08-17T12:33:43Z</time>
      </trkpt>
      <trkpt lat="45.24888" lon="7.14839">
        <ele>2709.63</ele>
        <time>2015-08-17T12:33:44Z</time>
      </trkpt>
      <trkpt lat="45.24887" lon="7.14838">
        <ele>2709.6</ele>
        <time>2015-08-17T12:33:45Z</time>
      </trkpt>
      <trkpt lat="45.24886" lon="7.14836">
        <ele>2709.53</ele>
        <time>2015-08-17T12:33:46Z</time>
      </trkpt>
      <trkpt lat="45.24886" lon="7.14834">
        <ele>2709.39</ele>
        <time>2015-08-17T12:33:47Z</time>
      </trkpt>
      <trkpt lat="45.24885" lon="7.14832">
        <ele>2709.21</ele>
        <time>2015-08-17T12:33:48Z</time>
      </trkpt>
      <trkpt lat="45.24884" lon="7.14829">
        <ele>2709.01</ele>
        <time>2015-08-17T12:33:49Z</time>
      </trkpt>
      <trkpt lat="45.24883" lon="7.14828">
        <ele>2708.81</ele>
        <time>2015-08-17T12:33:50Z</time>
      </trkpt>
      <trkpt lat="45.24882" lon="7.14826">
        <ele>2708.55</ele>
        <time>2015-08-17T12:33:51Z</time>
      </trkpt>
      <trkpt lat="45.24881" lon="7.14824">
        <ele>2708.21</ele>
        <time>2015-08-17T12:33:52Z</time>
      </trkpt>
      <trkpt lat="45.24881" lon="7.14822">
        <ele>2707.84</ele>
        <time>2015-08-17T12:33:53Z</time>
      </trkpt>
      <trkpt lat="45.2488" lon="7.1482">
        <ele>2707.45</ele>
        <time>2015-08-17T12:33:54Z</time>
      </trkpt>
      <trkpt lat="45.24871" lon="7.14801">
        <ele>2704.53</ele>
        <time>2015-08-17T12:34:00Z</time>
      </trkpt>
      <trkpt lat="45.24865" lon="7.1479">
        <ele>2701.19</ele>
        <time>2015-08-17T12:34:04Z</time>
      </trkpt>
      <trkpt lat="45.24861" lon="7.1478">
        <ele>2698.42</ele>
        <time>2015-08-17T12:34:10Z</time>
      </trkpt>
      <trkpt lat="45.24863" lon="7.14781">
        <ele>2696.35</ele>
        <time>2015-08-17T12:34:42Z</time>
      </trkpt>
      <trkpt lat="45.24862" lon="7.1478">
        <ele>2696.14</ele>
        <time>2015-08-17T12:34:56Z</time>
      </trkpt>
      <trkpt lat="45.24863" lon="7.14781">
        <ele>2696.56</ele>
        <time>2015-08-17T12:35:15Z</time>
      </trkpt>
      <trkpt lat="45.24865" lon="7.14776">
        <ele>2695.99</ele>
        <time>2015-08-17T12:35:25Z</time>
      </trkpt>
      <trkpt lat="45.24866" lon="7.14775">
        <ele>2694.87</ele>
        <time>2015-08-17T12:35:31Z</time>
      </trkpt>
      <trkpt lat="45.24866" lon="7.14771">
        <ele>2694.05</ele>
        <time>2015-08-17T12:35:37Z</time>
      </trkpt>
      <trkpt lat="45.24864" lon="7.14764">
        <ele>2693.1</ele>
        <time>2015-08-17T12:35:44Z</time>
      </trkpt>
      <trkpt lat="45.24864" lon="7.14763">
        <ele>2693.07</ele>
        <time>2015-08-17T12:35:45Z</time>
      </trkpt>
      <trkpt lat="45.24863" lon="7.14763">
        <ele>2693.03</ele>
        <time>2015-08-17T12:35:46Z</time>
      </trkpt>
      <trkpt lat="45.24861" lon="7.14763">
        <ele>2693.01</ele>
        <time>2015-08-17T12:35:47Z</time>
      </trkpt>
      <trkpt lat="45.2486" lon="7.14763">
        <ele>2693</ele>
        <time>2015-08-17T12:35:48Z</time>
      </trkpt>
      <trkpt lat="45.24854" lon="7.1476">
        <ele>2692.87</ele>
        <time>2015-08-17T12:35:56Z</time>
      </trkpt>
      <trkpt lat="45.24853" lon="7.1476">
        <ele>2692.82</ele>
        <time>2015-08-17T12:35:57Z</time>
      </trkpt>
      <trkpt lat="45.2485" lon="7.14758">
        <ele>2692.51</ele>
        <time>2015-08-17T12:36:02Z</time>
      </trkpt>
      <trkpt lat="45.24849" lon="7.14757">
        <ele>2692.4</ele>
        <time>2015-08-17T12:36:03Z</time>
      </trkpt>
      <trkpt lat="45.24847" lon="7.14756">
        <ele>2692.16</ele>
        <time>2015-08-17T12:36:04Z</time>
      </trkpt>
      <trkpt lat="45.24845" lon="7.14749">
        <ele>2690.83</ele>
        <time>2015-08-17T12:36:12Z</time>
      </trkpt>
      <trkpt lat="45.2484" lon="7.14744">
        <ele>2689.91</ele>
        <time>2015-08-17T12:36:19Z</time>
      </trkpt>
      <trkpt lat="45.24836" lon="7.14743">
        <ele>2689.46</ele>
        <time>2015-08-17T12:36:26Z</time>
      </trkpt>
      <trkpt lat="45.24837" lon="7.14745">
        <ele>2687.37</ele>
        <time>2015-08-17T12:36:35Z</time>
      </trkpt>
      <trkpt lat="45.24834" lon="7.14747">
        <ele>2685.84</ele>
        <time>2015-08-17T12:36:44Z</time>
      </trkpt>
      <trkpt lat="45.24832" lon="7.14749">
        <ele>2684.29</ele>
        <time>2015-08-17T12:36:54Z</time>
      </trkpt>
      <trkpt lat="45.24836" lon="7.14755">
        <ele>2682.69</ele>
        <time>2015-08-17T12:37:03Z</time>
      </trkpt>
      <trkpt lat="45.24837" lon="7.14758">
        <ele>2680.8</ele>
        <time>2015-08-17T12:37:12Z</time>
      </trkpt>
      <trkpt lat="45.24831" lon="7.14758">
        <ele>2679.56</ele>
        <time>2015-08-17T12:37:22Z</time>
      </trkpt>
      <trkpt lat="45.2483" lon="7.14759">
        <ele>2678.28</ele>
        <time>2015-08-17T12:37:28Z</time>
      </trkpt>
      <trkpt lat="45.24828" lon="7.14757">
        <ele>2678.07</ele>
        <time>2015-08-17T12:37:29Z</time>
      </trkpt>
      <trkpt lat="45.24825" lon="7.14756">
        <ele>2677.25</ele>
        <time>2015-08-17T12:37:34Z</time>
      </trkpt>
      <trkpt lat="45.24826" lon="7.14766">
        <ele>2675.34</ele>
        <time>2015-08-17T12:37:42Z</time>
      </trkpt>
      <trkpt lat="45.24828" lon="7.14776">
        <ele>2672.44</ele>
        <time>2015-08-17T12:37:53Z</time>
      </trkpt>
      <trkpt lat="45.24827" lon="7.1478">
        <ele>2671.05</ele>
        <time>2015-08-17T12:38:00Z</time>
      </trkpt>
      <trkpt lat="45.24827" lon="7.14784">
        <ele>2669.6</ele>
        <time>2015-08-17T12:38:10Z</time>
      </trkpt>
      <trkpt lat="45.24827" lon="7.14787">
        <ele>2668.32</ele>
        <time>2015-08-17T12:38:19Z</time>
      </trkpt>
      <trkpt lat="45.24826" lon="7.14795">
        <ele>2667.27</ele>
        <time>2015-08-17T12:38:28Z</time>
      </trkpt>
      <trkpt lat="45.24825" lon="7.14802">
        <ele>2666.54</ele>
        <time>2015-08-17T12:38:35Z</time>
      </trkpt>
      <trkpt lat="45.24826" lon="7.14807">
        <ele>2665.13</ele>
        <time>2015-08-17T12:38:42Z</time>
      </trkpt>
      <trkpt lat="45.24826" lon="7.14816">
        <ele>2662.92</ele>
        <time>2015-08-17T12:38:52Z</time>
      </trkpt>
      <trkpt lat="45.24823" lon="7.14821">
        <ele>2661.27</ele>
        <time>2015-08-17T12:39:01Z</time>
      </trkpt>
      <trkpt lat="45.24819" lon="7.14829">
        <ele>2658.13</ele>
        <time>2015-08-17T12:39:11Z</time>
      </trkpt>
      <trkpt lat="45.24818" lon="7.1483">
        <ele>2655.58</ele>
        <time>2015-08-17T12:39:20Z</time>
      </trkpt>
      <trkpt lat="45.24814" lon="7.14833">
        <ele>2655.04</ele>
        <time>2015-08-17T12:39:34Z</time>
      </trkpt>
      <trkpt lat="45.24807" lon="7.14837">
        <ele>2653.09</ele>
        <time>2015-08-17T12:39:44Z</time>
      </trkpt>
      <trkpt lat="45.24802" lon="7.14838">
        <ele>2650.94</ele>
        <time>2015-08-17T12:39:53Z</time>
      </trkpt>
      <trkpt lat="45.24799" lon="7.14842">
        <ele>2649.54</ele>
        <time>2015-08-17T12:39:59Z</time>
      </trkpt>
      <trkpt lat="45.24796" lon="7.14843">
        <ele>2648.47</ele>
        <time>2015-08-17T12:40:08Z</time>
      </trkpt>
      <trkpt lat="45.24787" lon="7.14841">
        <ele>2646.16</ele>
        <time>2015-08-17T12:40:19Z</time>
      </trkpt>
      <trkpt lat="45.24788" lon="7.14834">
        <ele>2643.56</ele>
        <time>2015-08-17T12:40:29Z</time>
      </trkpt>
      <trkpt lat="45.24784" lon="7.14823">
        <ele>2640.34</ele>
        <time>2015-08-17T12:40:40Z</time>
      </trkpt>
      <trkpt lat="45.24782" lon="7.14814">
        <ele>2637.76</ele>
        <time>2015-08-17T12:40:52Z</time>
      </trkpt>
      <trkpt lat="45.24781" lon="7.14813">
        <ele>2637.54</ele>
        <time>2015-08-17T12:40:53Z</time>
      </trkpt>
      <trkpt lat="45.24778" lon="7.14803">
        <ele>2636.44</ele>
        <time>2015-08-17T12:41:00Z</time>
      </trkpt>
      <trkpt lat="45.24778" lon="7.14802">
        <ele>2636.34</ele>
        <time>2015-08-17T12:41:01Z</time>
      </trkpt>
      <trkpt lat="45.2477" lon="7.14798">
        <ele>2635.75</ele>
        <time>2015-08-17T12:41:06Z</time>
      </trkpt>
      <trkpt lat="45.24768" lon="7.14797">
        <ele>2635.54</ele>
        <time>2015-08-17T12:41:07Z</time>
      </trkpt>
      <trkpt lat="45.24767" lon="7.14796">
        <ele>2635.3</ele>
        <time>2015-08-17T12:41:08Z</time>
      </trkpt>
      <trkpt lat="45.24766" lon="7.14795">
        <ele>2635.01</ele>
        <time>2015-08-17T12:41:09Z</time>
      </trkpt>
      <trkpt lat="45.24764" lon="7.14793">
        <ele>2634.69</ele>
        <time>2015-08-17T12:41:10Z</time>
      </trkpt>
      <trkpt lat="45.24763" lon="7.1479">
        <ele>2634.38</ele>
        <time>2015-08-17T12:41:11Z</time>
      </trkpt>
      <trkpt lat="45.24762" lon="7.14786">
        <ele>2634.03</ele>
        <time>2015-08-17T12:41:12Z</time>
      </trkpt>
      <trkpt lat="45.24762" lon="7.14784">
        <ele>2633.68</ele>
        <time>2015-08-17T12:41:13Z</time>
      </trkpt>
      <trkpt lat="45.24761" lon="7.14782">
        <ele>2633.36</ele>
        <time>2015-08-17T12:41:14Z</time>
      </trkpt>
      <trkpt lat="45.24759" lon="7.14781">
        <ele>2633.07</ele>
        <time>2015-08-17T12:41:15Z</time>
      </trkpt>
      <trkpt lat="45.24758" lon="7.1478">
        <ele>2632.12</ele>
        <time>2015-08-17T12:41:19Z</time>
      </trkpt>
      <trkpt lat="45.24757" lon="7.14775">
        <ele>2631.37</ele>
        <time>2015-08-17T12:41:27Z</time>
      </trkpt>
      <trkpt lat="45.24752" lon="7.14769">
        <ele>2630.79</ele>
        <time>2015-08-17T12:41:35Z</time>
      </trkpt>
      <trkpt lat="45.24741" lon="7.14756">
        <ele>2629.6</ele>
        <time>2015-08-17T12:41:42Z</time>
      </trkpt>
      <trkpt lat="45.24738" lon="7.14752">
        <ele>2628.68</ele>
        <time>2015-08-17T12:41:45Z</time>
      </trkpt>
      <trkpt lat="45.24737" lon="7.1475">
        <ele>2628.38</ele>
        <time>2015-08-17T12:41:46Z</time>
      </trkpt>
      <trkpt lat="45.24736" lon="7.14748">
        <ele>2628.12</ele>
        <time>2015-08-17T12:41:47Z</time>
      </trkpt>
      <trkpt lat="45.24735" lon="7.14746">
        <ele>2627.88</ele>
        <time>2015-08-17T12:41:48Z</time>
      </trkpt>
      <trkpt lat="45.24733" lon="7.14743">
        <ele>2627.65</ele>
        <time>2015-08-17T12:41:49Z</time>
      </trkpt>
      <trkpt lat="45.24731" lon="7.14741">
        <ele>2627.42</ele>
        <time>2015-08-17T12:41:50Z</time>
      </trkpt>
      <trkpt lat="45.24729" lon="7.1474">
        <ele>2627.18</ele>
        <time>2015-08-17T12:41:51Z</time>
      </trkpt>
      <trkpt lat="45.24727" lon="7.14738">
        <ele>2626.61</ele>
        <time>2015-08-17T12:41:52Z</time>
      </trkpt>
      <trkpt lat="45.24726" lon="7.14736">
        <ele>2626.25</ele>
        <time>2015-08-17T12:41:53Z</time>
      </trkpt>
      <trkpt lat="45.24725" lon="7.14733">
        <ele>2625.9</ele>
        <time>2015-08-17T12:41:54Z</time>
      </trkpt>
      <trkpt lat="45.24725" lon="7.1473">
        <ele>2625.59</ele>
        <time>2015-08-17T12:41:55Z</time>
      </trkpt>
      <trkpt lat="45.24723" lon="7.14728">
        <ele>2625.26</ele>
        <time>2015-08-17T12:41:56Z</time>
      </trkpt>
      <trkpt lat="45.24722" lon="7.14726">
        <ele>2624.91</ele>
        <time>2015-08-17T12:41:57Z</time>
      </trkpt>
      <trkpt lat="45.24721" lon="7.14725">
        <ele>2624.6</ele>
        <time>2015-08-17T12:41:58Z</time>
      </trkpt>
      <trkpt lat="45.2472" lon="7.14723">
        <ele>2624.3</ele>
        <time>2015-08-17T12:41:59Z</time>
      </trkpt>
      <trkpt lat="45.24717" lon="7.14722">
        <ele>2623.98</ele>
        <time>2015-08-17T12:42:00Z</time>
      </trkpt>
      <trkpt lat="45.24715" lon="7.14721">
        <ele>2623.66</ele>
        <time>2015-08-17T12:42:01Z</time>
      </trkpt>
      <trkpt lat="45.24713" lon="7.1472">
        <ele>2623.3</ele>
        <time>2015-08-17T12:42:02Z</time>
      </trkpt>
      <trkpt lat="45.24702" lon="7.14721">
        <ele>2621.05</ele>
        <time>2015-08-17T12:42:08Z</time>
      </trkpt>
      <trkpt lat="45.247" lon="7.14721">
        <ele>2620.77</ele>
        <time>2015-08-17T12:42:09Z</time>
      </trkpt>
      <trkpt lat="45.24699" lon="7.14721">
        <ele>2619.88</ele>
        <time>2015-08-17T12:42:14Z</time>
      </trkpt>
      <trkpt lat="45.24699" lon="7.1472">
        <ele>2618.98</ele>
        <time>2015-08-17T12:42:24Z</time>
      </trkpt>
      <trkpt lat="45.24697" lon="7.14721">
        <ele>2618.81</ele>
        <time>2015-08-17T12:43:02Z</time>
      </trkpt>
      <trkpt lat="45.24701" lon="7.14723">
        <ele>2619.05</ele>
        <time>2015-08-17T12:43:36Z</time>
      </trkpt>
      <trkpt lat="45.24699" lon="7.14723">
        <ele>2619.13</ele>
        <time>2015-08-17T12:43:39Z</time>
      </trkpt>
      <trkpt lat="45.24697" lon="7.14724">
        <ele>2619.18</ele>
        <time>2015-08-17T12:43:40Z</time>
      </trkpt>
      <trkpt lat="45.24696" lon="7.14727">
        <ele>2619.2</ele>
        <time>2015-08-17T12:43:41Z</time>
      </trkpt>
      <trkpt lat="45.24695" lon="7.1473">
        <ele>2619.22</ele>
        <time>2015-08-17T12:43:42Z</time>
      </trkpt>
      <trkpt lat="45.24694" lon="7.14732">
        <ele>2619.23</ele>
        <time>2015-08-17T12:43:43Z</time>
      </trkpt>
      <trkpt lat="45.24692" lon="7.14733">
        <ele>2619.23</ele>
        <time>2015-08-17T12:43:44Z</time>
      </trkpt>
      <trkpt lat="45.24691" lon="7.14733">
        <ele>2619.21</ele>
        <time>2015-08-17T12:43:45Z</time>
      </trkpt>
      <trkpt lat="45.24689" lon="7.14734">
        <ele>2619.17</ele>
        <time>2015-08-17T12:43:46Z</time>
      </trkpt>
      <trkpt lat="45.24688" lon="7.14734">
        <ele>2619.05</ele>
        <time>2015-08-17T12:43:47Z</time>
      </trkpt>
      <trkpt lat="45.24686" lon="7.14733">
        <ele>2618.91</ele>
        <time>2015-08-17T12:43:48Z</time>
      </trkpt>
      <trkpt lat="45.24684" lon="7.1473">
        <ele>2618.5</ele>
        <time>2015-08-17T12:43:53Z</time>
      </trkpt>
      <trkpt lat="45.24682" lon="7.14728">
        <ele>2618.49</ele>
        <time>2015-08-17T12:43:54Z</time>
      </trkpt>
      <trkpt lat="45.24683" lon="7.14713">
        <ele>2618.39</ele>
        <time>2015-08-17T12:44:01Z</time>
      </trkpt>
      <trkpt lat="45.24681" lon="7.14694">
        <ele>2618.61</ele>
        <time>2015-08-17T12:44:09Z</time>
      </trkpt>
      <trkpt lat="45.24681" lon="7.14696">
        <ele>2618.43</ele>
        <time>2015-08-17T12:44:18Z</time>
      </trkpt>
      <trkpt lat="45.24681" lon="7.14699">
        <ele>2618.52</ele>
        <time>2015-08-17T12:44:36Z</time>
      </trkpt>
      <trkpt lat="45.24681" lon="7.14698">
        <ele>2618.3</ele>
        <time>2015-08-17T12:44:53Z</time>
      </trkpt>
      <trkpt lat="45.2468" lon="7.14696">
        <ele>2618.41</ele>
        <time>2015-08-17T12:45:14Z</time>
      </trkpt>
      <trkpt lat="45.24683" lon="7.147">
        <ele>2618.43</ele>
        <time>2015-08-17T12:45:22Z</time>
      </trkpt>
      <trkpt lat="45.24682" lon="7.14701">
        <ele>2618.92</ele>
        <time>2015-08-17T12:45:31Z</time>
      </trkpt>
      <trkpt lat="45.24683" lon="7.147">
        <ele>2619.11</ele>
        <time>2015-08-17T12:45:46Z</time>
      </trkpt>
      <trkpt lat="45.24686" lon="7.14697">
        <ele>2619.08</ele>
        <time>2015-08-17T12:46:00Z</time>
      </trkpt>
      <trkpt lat="45.24684" lon="7.14695">
        <ele>2619.12</ele>
        <time>2015-08-17T12:46:13Z</time>
      </trkpt>
      <trkpt lat="45.24682" lon="7.14703">
        <ele>2619.13</ele>
        <time>2015-08-17T12:46:22Z</time>
      </trkpt>
      <trkpt lat="45.24682" lon="7.14705">
        <ele>2619.12</ele>
        <time>2015-08-17T12:46:23Z</time>
      </trkpt>
      <trkpt lat="45.24682" lon="7.14707">
        <ele>2619.12</ele>
        <time>2015-08-17T12:46:24Z</time>
      </trkpt>
      <trkpt lat="45.24682" lon="7.14709">
        <ele>2619.12</ele>
        <time>2015-08-17T12:46:25Z</time>
      </trkpt>
      <trkpt lat="45.24682" lon="7.14711">
        <ele>2619.1</ele>
        <time>2015-08-17T12:46:26Z</time>
      </trkpt>
      <trkpt lat="45.24683" lon="7.14717">
        <ele>2619.05</ele>
        <time>2015-08-17T12:46:29Z</time>
      </trkpt>
      <trkpt lat="45.24684" lon="7.14718">
        <ele>2619.11</ele>
        <time>2015-08-17T12:46:35Z</time>
      </trkpt>
      <trkpt lat="45.24681" lon="7.14717">
        <ele>2619.32</ele>
        <time>2015-08-17T12:46:52Z</time>
      </trkpt>
      <trkpt lat="45.24679" lon="7.1472">
        <ele>2619.24</ele>
        <time>2015-08-17T12:47:09Z</time>
      </trkpt>
      <trkpt lat="45.24679" lon="7.14719">
        <ele>2619.78</ele>
        <time>2015-08-17T12:47:24Z</time>
      </trkpt>
      <trkpt lat="45.24679" lon="7.14717">
        <ele>2619.62</ele>
        <time>2015-08-17T12:47:41Z</time>
      </trkpt>
      <trkpt lat="45.24677" lon="7.14716">
        <ele>2619.53</ele>
        <time>2015-08-17T12:47:59Z</time>
      </trkpt>
      <trkpt lat="45.24674" lon="7.14716">
        <ele>2619.82</ele>
        <time>2015-08-17T12:48:15Z</time>
      </trkpt>
      <trkpt lat="45.24679" lon="7.14711">
        <ele>2619.73</ele>
        <time>2015-08-17T12:48:33Z</time>
      </trkpt>
      <trkpt lat="45.24679" lon="7.14711">
        <ele>2619.98</ele>
        <time>2015-08-17T12:48:41Z</time>
      </trkpt>
      <trkpt lat="45.24674" lon="7.14713">
        <ele>2619.89</ele>
        <time>2015-08-17T12:49:05Z</time>
      </trkpt>
      <trkpt lat="45.24676" lon="7.14709">
        <ele>2619.74</ele>
        <time>2015-08-17T12:49:23Z</time>
      </trkpt>
      <trkpt lat="45.24679" lon="7.14708">
        <ele>2619.65</ele>
        <time>2015-08-17T12:49:40Z</time>
      </trkpt>
      <trkpt lat="45.24677" lon="7.14706">
        <ele>2620.02</ele>
        <time>2015-08-17T12:50:04Z</time>
      </trkpt>
      <trkpt lat="45.24674" lon="7.14706">
        <ele>2619.75</ele>
        <time>2015-08-17T12:50:33Z</time>
      </trkpt>
      <trkpt lat="45.24671" lon="7.14705">
        <ele>2619.77</ele>
        <time>2015-08-17T12:51:08Z</time>
      </trkpt>
      <trkpt lat="45.24673" lon="7.14702">
        <ele>2619.43</ele>
        <time>2015-08-17T12:51:34Z</time>
      </trkpt>
      <trkpt lat="45.24666" lon="7.14703">
        <ele>2619.52</ele>
        <time>2015-08-17T12:52:02Z</time>
      </trkpt>
      <trkpt lat="45.24661" lon="7.14702">
        <ele>2619.19</ele>
        <time>2015-08-17T12:52:17Z</time>
      </trkpt>
      <trkpt lat="45.24652" lon="7.14698">
        <ele>2618.74</ele>
        <time>2015-08-17T12:52:48Z</time>
      </trkpt>
      <trkpt lat="45.24652" lon="7.14698">
        <ele>2618.22</ele>
        <time>2015-08-17T12:53:21Z</time>
      </trkpt>
      <trkpt lat="45.24652" lon="7.14698">
        <ele>2617.84</ele>
        <time>2015-08-17T12:53:45Z</time>
      </trkpt>
      <trkpt lat="45.24657" lon="7.14698">
        <ele>2617.67</ele>
        <time>2015-08-17T12:54:01Z</time>
      </trkpt>
      <trkpt lat="45.24655" lon="7.14697">
        <ele>2617.28</ele>
        <time>2015-08-17T12:54:17Z</time>
      </trkpt>
      <trkpt lat="45.24647" lon="7.14694">
        <ele>2616.69</ele>
        <time>2015-08-17T12:54:38Z</time>
      </trkpt>
      <trkpt lat="45.24636" lon="7.14697">
        <ele>2616.33</ele>
        <time>2015-08-17T12:54:54Z</time>
      </trkpt>
      <trkpt lat="45.24635" lon="7.14697">
        <ele>2615.91</ele>
        <time>2015-08-17T12:55:11Z</time>
      </trkpt>
      <trkpt lat="45.2464" lon="7.14694">
        <ele>2615.47</ele>
        <time>2015-08-17T12:55:30Z</time>
      </trkpt>
      <trkpt lat="45.24636" lon="7.14693">
        <ele>2615.1</ele>
        <time>2015-08-17T12:55:46Z</time>
      </trkpt>
      <trkpt lat="45.24638" lon="7.14691">
        <ele>2614.57</ele>
        <time>2015-08-17T12:56:04Z</time>
      </trkpt>
      <trkpt lat="45.24632" lon="7.14692">
        <ele>2614.15</ele>
        <time>2015-08-17T12:56:17Z</time>
      </trkpt>
      <trkpt lat="45.2463" lon="7.14692">
        <ele>2613.87</ele>
        <time>2015-08-17T12:56:32Z</time>
      </trkpt>
      <trkpt lat="45.24629" lon="7.1469">
        <ele>2613.62</ele>
        <time>2015-08-17T12:56:50Z</time>
      </trkpt>
      <trkpt lat="45.24634" lon="7.14687">
        <ele>2613.34</ele>
        <time>2015-08-17T12:57:06Z</time>
      </trkpt>
      <trkpt lat="45.24632" lon="7.14685">
        <ele>2612.96</ele>
        <time>2015-08-17T12:57:25Z</time>
      </trkpt>
      <trkpt lat="45.24625" lon="7.1469">
        <ele>2612.18</ele>
        <time>2015-08-17T12:57:42Z</time>
      </trkpt>
      <trkpt lat="45.24623" lon="7.14688">
        <ele>2611.48</ele>
        <time>2015-08-17T12:57:58Z</time>
      </trkpt>
      <trkpt lat="45.24616" lon="7.1469">
        <ele>2610.97</ele>
        <time>2015-08-17T12:58:15Z</time>
      </trkpt>
      <trkpt lat="45.24612" lon="7.14691">
        <ele>2610.37</ele>
        <time>2015-08-17T12:58:32Z</time>
      </trkpt>
      <trkpt lat="45.24609" lon="7.1469">
        <ele>2609.78</ele>
        <time>2015-08-17T12:58:49Z</time>
      </trkpt>
      <trkpt lat="45.24605" lon="7.14691">
        <ele>2609.1</ele>
        <time>2015-08-17T12:59:06Z</time>
      </trkpt>
      <trkpt lat="45.24618" lon="7.14686">
        <ele>2608.3</ele>
        <time>2015-08-17T12:59:22Z</time>
      </trkpt>
      <trkpt lat="45.24622" lon="7.14684">
        <ele>2607.97</ele>
        <time>2015-08-17T12:59:37Z</time>
      </trkpt>
      <trkpt lat="45.24627" lon="7.14684">
        <ele>2607.29</ele>
        <time>2015-08-17T12:59:55Z</time>
      </trkpt>
      <trkpt lat="45.2463" lon="7.14684">
        <ele>2606.48</ele>
        <time>2015-08-17T13:00:13Z</time>
      </trkpt>
      <trkpt lat="45.24632" lon="7.14684">
        <ele>2605.9</ele>
        <time>2015-08-17T13:00:29Z</time>
      </trkpt>
      <trkpt lat="45.24631" lon="7.14688">
        <ele>2605.22</ele>
        <time>2015-08-17T13:00:48Z</time>
      </trkpt>
      <trkpt lat="45.2462" lon="7.14696">
        <ele>2605.25</ele>
        <time>2015-08-17T13:01:03Z</time>
      </trkpt>
      <trkpt lat="45.24617" lon="7.14698">
        <ele>2604.82</ele>
        <time>2015-08-17T13:01:19Z</time>
      </trkpt>
      <trkpt lat="45.24631" lon="7.14693">
        <ele>2604.4</ele>
        <time>2015-08-17T13:01:30Z</time>
      </trkpt>
      <trkpt lat="45.24656" lon="7.14696">
        <ele>2603.62</ele>
        <time>2015-08-17T13:01:43Z</time>
      </trkpt>
      <trkpt lat="45.24668" lon="7.14702">
        <ele>2603.61</ele>
        <time>2015-08-17T13:01:51Z</time>
      </trkpt>
      <trkpt lat="45.24671" lon="7.14704">
        <ele>2603.44</ele>
        <time>2015-08-17T13:02:06Z</time>
      </trkpt>
      <trkpt lat="45.24673" lon="7.14705">
        <ele>2602.98</ele>
        <time>2015-08-17T13:02:22Z</time>
      </trkpt>
      <trkpt lat="45.24677" lon="7.14708">
        <ele>2603.14</ele>
        <time>2015-08-17T13:02:40Z</time>
      </trkpt>
      <trkpt lat="45.24679" lon="7.14709">
        <ele>2602.98</ele>
        <time>2015-08-17T13:02:56Z</time>
      </trkpt>
      <trkpt lat="45.2468" lon="7.14712">
        <ele>2602.88</ele>
        <time>2015-08-17T13:03:15Z</time>
      </trkpt>
      <trkpt lat="45.24682" lon="7.14713">
        <ele>2602.99</ele>
        <time>2015-08-17T13:03:31Z</time>
      </trkpt>
      <trkpt lat="45.2468" lon="7.14714">
        <ele>2603.09</ele>
        <time>2015-08-17T13:03:39Z</time>
      </trkpt>
      <trkpt lat="45.2468" lon="7.14715">
        <ele>2603.02</ele>
        <time>2015-08-17T13:03:51Z</time>
      </trkpt>
      <trkpt lat="45.24679" lon="7.14717">
        <ele>2603.02</ele>
        <time>2015-08-17T13:03:53Z</time>
      </trkpt>
      <trkpt lat="45.24677" lon="7.14728">
        <ele>2603.02</ele>
        <time>2015-08-17T13:03:57Z</time>
      </trkpt>
      <trkpt lat="45.24677" lon="7.14732">
        <ele>2603.01</ele>
        <time>2015-08-17T13:03:58Z</time>
      </trkpt>
      <trkpt lat="45.24678" lon="7.14736">
        <ele>2602.98</ele>
        <time>2015-08-17T13:03:59Z</time>
      </trkpt>
      <trkpt lat="45.24679" lon="7.1474">
        <ele>2602.92</ele>
        <time>2015-08-17T13:04:00Z</time>
      </trkpt>
      <trkpt lat="45.24679" lon="7.14746">
        <ele>2602.81</ele>
        <time>2015-08-17T13:04:01Z</time>
      </trkpt>
      <trkpt lat="45.24679" lon="7.14752">
        <ele>2602.7</ele>
        <time>2015-08-17T13:04:02Z</time>
      </trkpt>
      <trkpt lat="45.24678" lon="7.14782">
        <ele>2601.32</ele>
        <time>2015-08-17T13:04:08Z</time>
      </trkpt>
      <trkpt lat="45.24679" lon="7.14794">
        <ele>2599.97</ele>
        <time>2015-08-17T13:04:13Z</time>
      </trkpt>
      <trkpt lat="45.24679" lon="7.14802">
        <ele>2599.56</ele>
        <time>2015-08-17T13:04:18Z</time>
      </trkpt>
      <trkpt lat="45.2468" lon="7.14813">
        <ele>2599.42</ele>
        <time>2015-08-17T13:04:24Z</time>
      </trkpt>
      <trkpt lat="45.24681" lon="7.14821">
        <ele>2599.09</ele>
        <time>2015-08-17T13:04:32Z</time>
      </trkpt>
      <trkpt lat="45.24681" lon="7.14827">
        <ele>2599.18</ele>
        <time>2015-08-17T13:04:39Z</time>
      </trkpt>
      <trkpt lat="45.2468" lon="7.14829">
        <ele>2599.26</ele>
        <time>2015-08-17T13:04:41Z</time>
      </trkpt>
      <trkpt lat="45.24678" lon="7.1484">
        <ele>2599.42</ele>
        <time>2015-08-17T13:04:45Z</time>
      </trkpt>
      <trkpt lat="45.24673" lon="7.14863">
        <ele>2598.35</ele>
        <time>2015-08-17T13:04:52Z</time>
      </trkpt>
      <trkpt lat="45.24669" lon="7.14887">
        <ele>2596.78</ele>
        <time>2015-08-17T13:04:58Z</time>
      </trkpt>
      <trkpt lat="45.24662" lon="7.14904">
        <ele>2596.25</ele>
        <time>2015-08-17T13:05:05Z</time>
      </trkpt>
      <trkpt lat="45.24656" lon="7.14923">
        <ele>2595.76</ele>
        <time>2015-08-17T13:05:11Z</time>
      </trkpt>
      <trkpt lat="45.24651" lon="7.14942">
        <ele>2595.18</ele>
        <time>2015-08-17T13:05:17Z</time>
      </trkpt>
      <trkpt lat="45.24645" lon="7.14961">
        <ele>2594.4</ele>
        <time>2015-08-17T13:05:24Z</time>
      </trkpt>
      <trkpt lat="45.24637" lon="7.14974">
        <ele>2594.1</ele>
        <time>2015-08-17T13:05:32Z</time>
      </trkpt>
      <trkpt lat="45.24637" lon="7.14975">
        <ele>2594.05</ele>
        <time>2015-08-17T13:05:33Z</time>
      </trkpt>
      <trkpt lat="45.24634" lon="7.14981">
        <ele>2593.54</ele>
        <time>2015-08-17T13:05:37Z</time>
      </trkpt>
      <trkpt lat="45.24623" lon="7.14998">
        <ele>2591.62</ele>
        <time>2015-08-17T13:05:45Z</time>
      </trkpt>
      <trkpt lat="45.24614" lon="7.15012">
        <ele>2590.91</ele>
        <time>2015-08-17T13:05:52Z</time>
      </trkpt>
      <trkpt lat="45.24608" lon="7.15025">
        <ele>2591.37</ele>
        <time>2015-08-17T13:05:59Z</time>
      </trkpt>
      <trkpt lat="45.24607" lon="7.15027">
        <ele>2592.25</ele>
        <time>2015-08-17T13:06:05Z</time>
      </trkpt>
      <trkpt lat="45.24604" lon="7.15029">
        <ele>2593.11</ele>
        <time>2015-08-17T13:06:17Z</time>
      </trkpt>
      <trkpt lat="45.24603" lon="7.15029">
        <ele>2593.16</ele>
        <time>2015-08-17T13:06:18Z</time>
      </trkpt>
      <trkpt lat="45.24599" lon="7.1503">
        <ele>2593.36</ele>
        <time>2015-08-17T13:06:22Z</time>
      </trkpt>
      <trkpt lat="45.24588" lon="7.15042">
        <ele>2594.04</ele>
        <time>2015-08-17T13:06:33Z</time>
      </trkpt>
      <trkpt lat="45.24581" lon="7.15049">
        <ele>2595.13</ele>
        <time>2015-08-17T13:06:41Z</time>
      </trkpt>
      <trkpt lat="45.24575" lon="7.15059">
        <ele>2596.25</ele>
        <time>2015-08-17T13:06:50Z</time>
      </trkpt>
      <trkpt lat="45.24571" lon="7.15067">
        <ele>2597.93</ele>
        <time>2015-08-17T13:07:01Z</time>
      </trkpt>
      <trkpt lat="45.24567" lon="7.15073">
        <ele>2599.31</ele>
        <time>2015-08-17T13:07:09Z</time>
      </trkpt>
      <trkpt lat="45.24565" lon="7.15077">
        <ele>2600.45</ele>
        <time>2015-08-17T13:07:16Z</time>
      </trkpt>
      <trkpt lat="45.2456" lon="7.15086">
        <ele>2600.3</ele>
        <time>2015-08-17T13:07:22Z</time>
      </trkpt>
      <trkpt lat="45.24551" lon="7.15085">
        <ele>2598.45</ele>
        <time>2015-08-17T13:07:28Z</time>
      </trkpt>
      <trkpt lat="45.24548" lon="7.15077">
        <ele>2596.8</ele>
        <time>2015-08-17T13:07:32Z</time>
      </trkpt>
      <trkpt lat="45.24543" lon="7.15075">
        <ele>2595.02</ele>
        <time>2015-08-17T13:07:37Z</time>
      </trkpt>
      <trkpt lat="45.24539" lon="7.15095">
        <ele>2592.6</ele>
        <time>2015-08-17T13:07:44Z</time>
      </trkpt>
      <trkpt lat="45.24537" lon="7.15105">
        <ele>2591.31</ele>
        <time>2015-08-17T13:07:47Z</time>
      </trkpt>
      <trkpt lat="45.24535" lon="7.15108">
        <ele>2589.36</ele>
        <time>2015-08-17T13:07:50Z</time>
      </trkpt>
      <trkpt lat="45.24535" lon="7.15103">
        <ele>2588.45</ele>
        <time>2015-08-17T13:07:52Z</time>
      </trkpt>
      <trkpt lat="45.24529" lon="7.15084">
        <ele>2585.9</ele>
        <time>2015-08-17T13:07:59Z</time>
      </trkpt>
      <trkpt lat="45.24526" lon="7.15091">
        <ele>2583.94</ele>
        <time>2015-08-17T13:08:04Z</time>
      </trkpt>
      <trkpt lat="45.24523" lon="7.15101">
        <ele>2583.06</ele>
        <time>2015-08-17T13:08:07Z</time>
      </trkpt>
      <trkpt lat="45.24519" lon="7.15113">
        <ele>2580.37</ele>
        <time>2015-08-17T13:08:13Z</time>
      </trkpt>
      <trkpt lat="45.24518" lon="7.15118">
        <ele>2577.37</ele>
        <time>2015-08-17T13:08:21Z</time>
      </trkpt>
      <trkpt lat="45.24515" lon="7.15124">
        <ele>2575.49</ele>
        <time>2015-08-17T13:08:29Z</time>
      </trkpt>
      <trkpt lat="45.24512" lon="7.15129">
        <ele>2573.61</ele>
        <time>2015-08-17T13:08:37Z</time>
      </trkpt>
      <trkpt lat="45.24512" lon="7.15142">
        <ele>2572.47</ele>
        <time>2015-08-17T13:08:41Z</time>
      </trkpt>
      <trkpt lat="45.24512" lon="7.1518">
        <ele>2568.98</ele>
        <time>2015-08-17T13:08:49Z</time>
      </trkpt>
      <trkpt lat="45.24512" lon="7.15185">
        <ele>2567.75</ele>
        <time>2015-08-17T13:08:54Z</time>
      </trkpt>
      <trkpt lat="45.24513" lon="7.15193">
        <ele>2566.33</ele>
        <time>2015-08-17T13:09:02Z</time>
      </trkpt>
      <trkpt lat="45.24513" lon="7.152">
        <ele>2564.45</ele>
        <time>2015-08-17T13:09:10Z</time>
      </trkpt>
      <trkpt lat="45.24511" lon="7.15207">
        <ele>2561.93</ele>
        <time>2015-08-17T13:09:20Z</time>
      </trkpt>
      <trkpt lat="45.24512" lon="7.15216">
        <ele>2560.36</ele>
        <time>2015-08-17T13:09:26Z</time>
      </trkpt>
      <trkpt lat="45.24512" lon="7.15222">
        <ele>2558.4</ele>
        <time>2015-08-17T13:09:34Z</time>
      </trkpt>
      <trkpt lat="45.24511" lon="7.15227">
        <ele>2557.07</ele>
        <time>2015-08-17T13:09:42Z</time>
      </trkpt>
      <trkpt lat="45.24505" lon="7.15233">
        <ele>2555.27</ele>
        <time>2015-08-17T13:09:51Z</time>
      </trkpt>
      <trkpt lat="45.24503" lon="7.15228">
        <ele>2553.32</ele>
        <time>2015-08-17T13:09:58Z</time>
      </trkpt>
      <trkpt lat="45.24499" lon="7.1523">
        <ele>2551.41</ele>
        <time>2015-08-17T13:10:06Z</time>
      </trkpt>
      <trkpt lat="45.24499" lon="7.15225">
        <ele>2549.68</ele>
        <time>2015-08-17T13:10:15Z</time>
      </trkpt>
      <trkpt lat="45.24496" lon="7.15224">
        <ele>2547.54</ele>
        <time>2015-08-17T13:10:24Z</time>
      </trkpt>
      <trkpt lat="45.24496" lon="7.15221">
        <ele>2545.74</ele>
        <time>2015-08-17T13:10:32Z</time>
      </trkpt>
      <trkpt lat="45.24492" lon="7.15223">
        <ele>2544.59</ele>
        <time>2015-08-17T13:10:38Z</time>
      </trkpt>
      <trkpt lat="45.24489" lon="7.15228">
        <ele>2542.27</ele>
        <time>2015-08-17T13:10:48Z</time>
      </trkpt>
      <trkpt lat="45.24486" lon="7.15226">
        <ele>2540.64</ele>
        <time>2015-08-17T13:10:56Z</time>
      </trkpt>
      <trkpt lat="45.24485" lon="7.15232">
        <ele>2539.45</ele>
        <time>2015-08-17T13:11:04Z</time>
      </trkpt>
      <trkpt lat="45.24486" lon="7.15243">
        <ele>2537.78</ele>
        <time>2015-08-17T13:11:12Z</time>
      </trkpt>
      <trkpt lat="45.24486" lon="7.15247">
        <ele>2536.06</ele>
        <time>2015-08-17T13:11:20Z</time>
      </trkpt>
      <trkpt lat="45.24487" lon="7.15253">
        <ele>2534.99</ele>
        <time>2015-08-17T13:11:26Z</time>
      </trkpt>
      <trkpt lat="45.24488" lon="7.15261">
        <ele>2532.68</ele>
        <time>2015-08-17T13:11:34Z</time>
      </trkpt>
      <trkpt lat="45.24488" lon="7.15267">
        <ele>2530.43</ele>
        <time>2015-08-17T13:11:42Z</time>
      </trkpt>
      <trkpt lat="45.24489" lon="7.15271">
        <ele>2529.4</ele>
        <time>2015-08-17T13:11:46Z</time>
      </trkpt>
      <trkpt lat="45.24489" lon="7.15277">
        <ele>2527.98</ele>
        <time>2015-08-17T13:11:51Z</time>
      </trkpt>
      <trkpt lat="45.24489" lon="7.15292">
        <ele>2525.48</ele>
        <time>2015-08-17T13:11:58Z</time>
      </trkpt>
      <trkpt lat="45.24488" lon="7.15297">
        <ele>2524.2</ele>
        <time>2015-08-17T13:12:04Z</time>
      </trkpt>
      <trkpt lat="45.24489" lon="7.15305">
        <ele>2523.72</ele>
        <time>2015-08-17T13:12:08Z</time>
      </trkpt>
      <trkpt lat="45.24489" lon="7.15324">
        <ele>2521.58</ele>
        <time>2015-08-17T13:12:15Z</time>
      </trkpt>
      <trkpt lat="45.24489" lon="7.15327">
        <ele>2521.19</ele>
        <time>2015-08-17T13:12:16Z</time>
      </trkpt>
      <trkpt lat="45.24488" lon="7.15343">
        <ele>2518.65</ele>
        <time>2015-08-17T13:12:22Z</time>
      </trkpt>
      <trkpt lat="45.24489" lon="7.15356">
        <ele>2516.95</ele>
        <time>2015-08-17T13:12:27Z</time>
      </trkpt>
      <trkpt lat="45.24491" lon="7.1536">
        <ele>2516.33</ele>
        <time>2015-08-17T13:12:29Z</time>
      </trkpt>
      <trkpt lat="45.24494" lon="7.15362">
        <ele>2515.83</ele>
        <time>2015-08-17T13:12:31Z</time>
      </trkpt>
      <trkpt lat="45.24506" lon="7.15377">
        <ele>2513.56</ele>
        <time>2015-08-17T13:12:39Z</time>
      </trkpt>
      <trkpt lat="45.24508" lon="7.15383">
        <ele>2512.1</ele>
        <time>2015-08-17T13:12:44Z</time>
      </trkpt>
      <trkpt lat="45.2451" lon="7.15394">
        <ele>2509.97</ele>
        <time>2015-08-17T13:12:51Z</time>
      </trkpt>
      <trkpt lat="45.2451" lon="7.15396">
        <ele>2507.75</ele>
        <time>2015-08-17T13:12:59Z</time>
      </trkpt>
      <trkpt lat="45.24509" lon="7.15396">
        <ele>2506.86</ele>
        <time>2015-08-17T13:13:16Z</time>
      </trkpt>
      <trkpt lat="45.24506" lon="7.15397">
        <ele>2506.27</ele>
        <time>2015-08-17T13:13:21Z</time>
      </trkpt>
      <trkpt lat="45.24514" lon="7.15409">
        <ele>2504.78</ele>
        <time>2015-08-17T13:13:27Z</time>
      </trkpt>
      <trkpt lat="45.24518" lon="7.15423">
        <ele>2502.57</ele>
        <time>2015-08-17T13:13:34Z</time>
      </trkpt>
      <trkpt lat="45.24519" lon="7.15433">
        <ele>2500.21</ele>
        <time>2015-08-17T13:13:39Z</time>
      </trkpt>
      <trkpt lat="45.2452" lon="7.15439">
        <ele>2497.51</ele>
        <time>2015-08-17T13:13:45Z</time>
      </trkpt>
      <trkpt lat="45.24517" lon="7.15436">
        <ele>2495</ele>
        <time>2015-08-17T13:13:55Z</time>
      </trkpt>
      <trkpt lat="45.24513" lon="7.15432">
        <ele>2493.1</ele>
        <time>2015-08-17T13:14:05Z</time>
      </trkpt>
      <trkpt lat="45.24512" lon="7.15432">
        <ele>2492.57</ele>
        <time>2015-08-17T13:14:08Z</time>
      </trkpt>
      <trkpt lat="45.24506" lon="7.15433">
        <ele>2491.06</ele>
        <time>2015-08-17T13:14:16Z</time>
      </trkpt>
      <trkpt lat="45.24509" lon="7.15442">
        <ele>2488.39</ele>
        <time>2015-08-17T13:14:26Z</time>
      </trkpt>
      <trkpt lat="45.24509" lon="7.15446">
        <ele>2486.73</ele>
        <time>2015-08-17T13:14:32Z</time>
      </trkpt>
      <trkpt lat="45.24513" lon="7.15459">
        <ele>2485.29</ele>
        <time>2015-08-17T13:14:38Z</time>
      </trkpt>
      <trkpt lat="45.24514" lon="7.1548">
        <ele>2481.85</ele>
        <time>2015-08-17T13:14:46Z</time>
      </trkpt>
      <trkpt lat="45.24513" lon="7.15498">
        <ele>2478.69</ele>
        <time>2015-08-17T13:14:52Z</time>
      </trkpt>
      <trkpt lat="45.24512" lon="7.155">
        <ele>2477.11</ele>
        <time>2015-08-17T13:14:57Z</time>
      </trkpt>
      <trkpt lat="45.2451" lon="7.15499">
        <ele>2475.77</ele>
        <time>2015-08-17T13:15:05Z</time>
      </trkpt>
      <trkpt lat="45.24507" lon="7.15491">
        <ele>2474.88</ele>
        <time>2015-08-17T13:15:19Z</time>
      </trkpt>
      <trkpt lat="45.24504" lon="7.15483">
        <ele>2473.03</ele>
        <time>2015-08-17T13:15:28Z</time>
      </trkpt>
      <trkpt lat="45.24503" lon="7.15478">
        <ele>2471.47</ele>
        <time>2015-08-17T13:15:36Z</time>
      </trkpt>
      <trkpt lat="45.24499" lon="7.15471">
        <ele>2468.82</ele>
        <time>2015-08-17T13:15:46Z</time>
      </trkpt>
      <trkpt lat="45.24497" lon="7.15472">
        <ele>2468.06</ele>
        <time>2015-08-17T13:15:49Z</time>
      </trkpt>
      <trkpt lat="45.24496" lon="7.15478">
        <ele>2466.78</ele>
        <time>2015-08-17T13:15:55Z</time>
      </trkpt>
      <trkpt lat="45.24493" lon="7.15481">
        <ele>2463.89</ele>
        <time>2015-08-17T13:16:06Z</time>
      </trkpt>
      <trkpt lat="45.2449" lon="7.15475">
        <ele>2462.06</ele>
        <time>2015-08-17T13:16:15Z</time>
      </trkpt>
      <trkpt lat="45.24487" lon="7.15468">
        <ele>2459.61</ele>
        <time>2015-08-17T13:16:26Z</time>
      </trkpt>
      <trkpt lat="45.24483" lon="7.15476">
        <ele>2457.36</ele>
        <time>2015-08-17T13:16:33Z</time>
      </trkpt>
      <trkpt lat="45.24485" lon="7.15484">
        <ele>2455.65</ele>
        <time>2015-08-17T13:16:42Z</time>
      </trkpt>
      <trkpt lat="45.24488" lon="7.15503">
        <ele>2453.58</ele>
        <time>2015-08-17T13:16:52Z</time>
      </trkpt>
      <trkpt lat="45.2449" lon="7.15511">
        <ele>2451.56</ele>
        <time>2015-08-17T13:17:01Z</time>
      </trkpt>
      <trkpt lat="45.24491" lon="7.15515">
        <ele>2449.68</ele>
        <time>2015-08-17T13:17:10Z</time>
      </trkpt>
      <trkpt lat="45.2449" lon="7.1552">
        <ele>2447.77</ele>
        <time>2015-08-17T13:17:19Z</time>
      </trkpt>
      <trkpt lat="45.24489" lon="7.15525">
        <ele>2445.28</ele>
        <time>2015-08-17T13:17:28Z</time>
      </trkpt>
      <trkpt lat="45.24484" lon="7.15533">
        <ele>2442.63</ele>
        <time>2015-08-17T13:17:37Z</time>
      </trkpt>
      <trkpt lat="45.24482" lon="7.15543">
        <ele>2440</ele>
        <time>2015-08-17T13:17:47Z</time>
      </trkpt>
      <trkpt lat="45.2448" lon="7.15551">
        <ele>2437.82</ele>
        <time>2015-08-17T13:17:56Z</time>
      </trkpt>
      <trkpt lat="45.24484" lon="7.15557">
        <ele>2435.59</ele>
        <time>2015-08-17T13:18:06Z</time>
      </trkpt>
      <trkpt lat="45.24485" lon="7.15563">
        <ele>2433.74</ele>
        <time>2015-08-17T13:18:12Z</time>
      </trkpt>
      <trkpt lat="45.24487" lon="7.15573">
        <ele>2431.19</ele>
        <time>2015-08-17T13:18:21Z</time>
      </trkpt>
      <trkpt lat="45.24489" lon="7.15578">
        <ele>2429.32</ele>
        <time>2015-08-17T13:18:29Z</time>
      </trkpt>
      <trkpt lat="45.24489" lon="7.15579">
        <ele>2429.15</ele>
        <time>2015-08-17T13:18:30Z</time>
      </trkpt>
      <trkpt lat="45.24491" lon="7.15594">
        <ele>2427.57</ele>
        <time>2015-08-17T13:18:36Z</time>
      </trkpt>
      <trkpt lat="45.2449" lon="7.15607">
        <ele>2425.75</ele>
        <time>2015-08-17T13:18:41Z</time>
      </trkpt>
      <trkpt lat="45.24489" lon="7.1561">
        <ele>2425.37</ele>
        <time>2015-08-17T13:18:42Z</time>
      </trkpt>
      <trkpt lat="45.24485" lon="7.15625">
        <ele>2423.07</ele>
        <time>2015-08-17T13:18:47Z</time>
      </trkpt>
      <trkpt lat="45.2448" lon="7.15637">
        <ele>2421.33</ele>
        <time>2015-08-17T13:18:51Z</time>
      </trkpt>
      <trkpt lat="45.24473" lon="7.15661">
        <ele>2417.83</ele>
        <time>2015-08-17T13:18:58Z</time>
      </trkpt>
      <trkpt lat="45.24472" lon="7.15666">
        <ele>2415.95</ele>
        <time>2015-08-17T13:19:03Z</time>
      </trkpt>
      <trkpt lat="45.24471" lon="7.15669">
        <ele>2415.21</ele>
        <time>2015-08-17T13:19:06Z</time>
      </trkpt>
      <trkpt lat="45.24466" lon="7.15678">
        <ele>2414.44</ele>
        <time>2015-08-17T13:19:10Z</time>
      </trkpt>
      <trkpt lat="45.24463" lon="7.15685">
        <ele>2413.84</ele>
        <time>2015-08-17T13:19:13Z</time>
      </trkpt>
      <trkpt lat="45.24457" lon="7.15703">
        <ele>2412.23</ele>
        <time>2015-08-17T13:19:20Z</time>
      </trkpt>
      <trkpt lat="45.24454" lon="7.15714">
        <ele>2410.45</ele>
        <time>2015-08-17T13:19:26Z</time>
      </trkpt>
      <trkpt lat="45.24453" lon="7.15717">
        <ele>2409.13</ele>
        <time>2015-08-17T13:19:35Z</time>
      </trkpt>
      <trkpt lat="45.24452" lon="7.15717">
        <ele>2408.53</ele>
        <time>2015-08-17T13:19:58Z</time>
      </trkpt>
      <trkpt lat="45.2445" lon="7.15724">
        <ele>2408.71</ele>
        <time>2015-08-17T13:20:06Z</time>
      </trkpt>
      <trkpt lat="45.2445" lon="7.15726">
        <ele>2408.7</ele>
        <time>2015-08-17T13:20:07Z</time>
      </trkpt>
      <trkpt lat="45.24448" lon="7.15741">
        <ele>2407.84</ele>
        <time>2015-08-17T13:20:15Z</time>
      </trkpt>
      <trkpt lat="45.24445" lon="7.15751">
        <ele>2406.85</ele>
        <time>2015-08-17T13:20:20Z</time>
      </trkpt>
      <trkpt lat="45.24444" lon="7.15753">
        <ele>2406.48</ele>
        <time>2015-08-17T13:20:22Z</time>
      </trkpt>
      <trkpt lat="45.2444" lon="7.1577">
        <ele>2404.99</ele>
        <time>2015-08-17T13:20:31Z</time>
      </trkpt>
      <trkpt lat="45.24439" lon="7.15778">
        <ele>2403.66</ele>
        <time>2015-08-17T13:20:38Z</time>
      </trkpt>
      <trkpt lat="45.2447" lon="7.15784">
        <ele>2402.69</ele>
        <time>2015-08-17T13:20:54Z</time>
      </trkpt>
      <trkpt lat="45.24466" lon="7.15785">
        <ele>2402.65</ele>
        <time>2015-08-17T13:20:58Z</time>
      </trkpt>
      <trkpt lat="45.2445" lon="7.15802">
        <ele>2402</ele>
        <time>2015-08-17T13:21:03Z</time>
      </trkpt>
      <trkpt lat="45.24441" lon="7.15821">
        <ele>2398.97</ele>
        <time>2015-08-17T13:21:10Z</time>
      </trkpt>
      <trkpt lat="45.24432" lon="7.1584">
        <ele>2396.33</ele>
        <time>2015-08-17T13:21:16Z</time>
      </trkpt>
      <trkpt lat="45.24427" lon="7.15858">
        <ele>2393.49</ele>
        <time>2015-08-17T13:21:23Z</time>
      </trkpt>
      <trkpt lat="45.24425" lon="7.15858">
        <ele>2391.35</ele>
        <time>2015-08-17T13:21:28Z</time>
      </trkpt>
      <trkpt lat="45.24421" lon="7.15857">
        <ele>2390.03</ele>
        <time>2015-08-17T13:21:33Z</time>
      </trkpt>
      <trkpt lat="45.24416" lon="7.15846">
        <ele>2388.42</ele>
        <time>2015-08-17T13:21:39Z</time>
      </trkpt>
      <trkpt lat="45.2441" lon="7.15833">
        <ele>2386.41</ele>
        <time>2015-08-17T13:21:47Z</time>
      </trkpt>
      <trkpt lat="45.24405" lon="7.15837">
        <ele>2384.48</ele>
        <time>2015-08-17T13:21:54Z</time>
      </trkpt>
      <trkpt lat="45.24405" lon="7.15837">
        <ele>2383.27</ele>
        <time>2015-08-17T13:22:02Z</time>
      </trkpt>
      <trkpt lat="45.24406" lon="7.15839">
        <ele>2383.18</ele>
        <time>2015-08-17T13:22:48Z</time>
      </trkpt>
      <trkpt lat="45.24406" lon="7.1584">
        <ele>2383.55</ele>
        <time>2015-08-17T13:23:21Z</time>
      </trkpt>
      <trkpt lat="45.24404" lon="7.15839">
        <ele>2383.32</ele>
        <time>2015-08-17T13:23:51Z</time>
      </trkpt>
      <trkpt lat="45.24404" lon="7.15838">
        <ele>2383.59</ele>
        <time>2015-08-17T13:24:22Z</time>
      </trkpt>
      <trkpt lat="45.24403" lon="7.15836">
        <ele>2383.7</ele>
        <time>2015-08-17T13:24:53Z</time>
      </trkpt>
      <trkpt lat="45.24401" lon="7.15836">
        <ele>2383.92</ele>
        <time>2015-08-17T13:25:15Z</time>
      </trkpt>
      <trkpt lat="45.24404" lon="7.15839">
        <ele>2384.04</ele>
        <time>2015-08-17T13:25:40Z</time>
      </trkpt>
      <trkpt lat="45.24404" lon="7.15839">
        <ele>2384.29</ele>
        <time>2015-08-17T13:26:00Z</time>
      </trkpt>
      <trkpt lat="45.24404" lon="7.1584">
        <ele>2384.59</ele>
        <time>2015-08-17T13:26:13Z</time>
      </trkpt>
      <trkpt lat="45.24403" lon="7.15841">
        <ele>2384.54</ele>
        <time>2015-08-17T13:26:32Z</time>
      </trkpt>
      <trkpt lat="45.24402" lon="7.15846">
        <ele>2384.22</ele>
        <time>2015-08-17T13:26:38Z</time>
      </trkpt>
      <trkpt lat="45.24403" lon="7.1585">
        <ele>2383.75</ele>
        <time>2015-08-17T13:26:43Z</time>
      </trkpt>
      <trkpt lat="45.24401" lon="7.15866">
        <ele>2383.11</ele>
        <time>2015-08-17T13:26:48Z</time>
      </trkpt>
      <trkpt lat="45.24401" lon="7.15886">
        <ele>2381.59</ele>
        <time>2015-08-17T13:26:55Z</time>
      </trkpt>
      <trkpt lat="45.24399" lon="7.15891">
        <ele>2380.53</ele>
        <time>2015-08-17T13:27:01Z</time>
      </trkpt>
      <trkpt lat="45.24398" lon="7.15893">
        <ele>2380.11</ele>
        <time>2015-08-17T13:27:03Z</time>
      </trkpt>
      <trkpt lat="45.24395" lon="7.15904">
        <ele>2378.8</ele>
        <time>2015-08-17T13:27:12Z</time>
      </trkpt>
      <trkpt lat="45.24392" lon="7.15912">
        <ele>2377.71</ele>
        <time>2015-08-17T13:27:19Z</time>
      </trkpt>
      <trkpt lat="45.24392" lon="7.15913">
        <ele>2377.18</ele>
        <time>2015-08-17T13:27:22Z</time>
      </trkpt>
      <trkpt lat="45.2439" lon="7.15915">
        <ele>2376.37</ele>
        <time>2015-08-17T13:27:27Z</time>
      </trkpt>
      <trkpt lat="45.2439" lon="7.15918">
        <ele>2375.83</ele>
        <time>2015-08-17T13:27:30Z</time>
      </trkpt>
      <trkpt lat="45.24387" lon="7.15933">
        <ele>2374.14</ele>
        <time>2015-08-17T13:27:37Z</time>
      </trkpt>
      <trkpt lat="45.24386" lon="7.15938">
        <ele>2373.73</ele>
        <time>2015-08-17T13:27:39Z</time>
      </trkpt>
      <trkpt lat="45.24377" lon="7.15958">
        <ele>2372.3</ele>
        <time>2015-08-17T13:27:46Z</time>
      </trkpt>
      <trkpt lat="45.2437" lon="7.15966">
        <ele>2369.89</ele>
        <time>2015-08-17T13:27:52Z</time>
      </trkpt>
      <trkpt lat="45.24368" lon="7.15969">
        <ele>2368.97</ele>
        <time>2015-08-17T13:27:54Z</time>
      </trkpt>
      <trkpt lat="45.24372" lon="7.15989">
        <ele>2365.86</ele>
        <time>2015-08-17T13:28:02Z</time>
      </trkpt>
      <trkpt lat="45.24375" lon="7.15998">
        <ele>2364.24</ele>
        <time>2015-08-17T13:28:06Z</time>
      </trkpt>
      <trkpt lat="45.24377" lon="7.16001">
        <ele>2363.03</ele>
        <time>2015-08-17T13:28:10Z</time>
      </trkpt>
      <trkpt lat="45.24379" lon="7.16011">
        <ele>2362.21</ele>
        <time>2015-08-17T13:28:19Z</time>
      </trkpt>
      <trkpt lat="45.24379" lon="7.16013">
        <ele>2361.51</ele>
        <time>2015-08-17T13:28:24Z</time>
      </trkpt>
      <trkpt lat="45.24381" lon="7.1602">
        <ele>2361.01</ele>
        <time>2015-08-17T13:28:27Z</time>
      </trkpt>
      <trkpt lat="45.24381" lon="7.16029">
        <ele>2360.26</ele>
        <time>2015-08-17T13:28:32Z</time>
      </trkpt>
      <trkpt lat="45.24384" lon="7.16049">
        <ele>2359.3</ele>
        <time>2015-08-17T13:28:39Z</time>
      </trkpt>
      <trkpt lat="45.24385" lon="7.16062">
        <ele>2358.37</ele>
        <time>2015-08-17T13:28:43Z</time>
      </trkpt>
      <trkpt lat="45.24384" lon="7.16084">
        <ele>2356.2</ele>
        <time>2015-08-17T13:28:50Z</time>
      </trkpt>
      <trkpt lat="45.24383" lon="7.16105">
        <ele>2354.03</ele>
        <time>2015-08-17T13:28:56Z</time>
      </trkpt>
      <trkpt lat="45.24381" lon="7.16119">
        <ele>2352.42</ele>
        <time>2015-08-17T13:29:01Z</time>
      </trkpt>
      <trkpt lat="45.2438" lon="7.16128">
        <ele>2350.28</ele>
        <time>2015-08-17T13:29:06Z</time>
      </trkpt>
      <trkpt lat="45.24377" lon="7.16125">
        <ele>2348.17</ele>
        <time>2015-08-17T13:29:15Z</time>
      </trkpt>
      <trkpt lat="45.24372" lon="7.16115">
        <ele>2347.39</ele>
        <time>2015-08-17T13:29:20Z</time>
      </trkpt>
      <trkpt lat="45.24363" lon="7.16095">
        <ele>2345.1</ele>
        <time>2015-08-17T13:29:27Z</time>
      </trkpt>
      <trkpt lat="45.24353" lon="7.16078">
        <ele>2342.11</ele>
        <time>2015-08-17T13:29:33Z</time>
      </trkpt>
      <trkpt lat="45.24348" lon="7.16073">
        <ele>2340.03</ele>
        <time>2015-08-17T13:29:36Z</time>
      </trkpt>
      <trkpt lat="45.24342" lon="7.16081">
        <ele>2336.72</ele>
        <time>2015-08-17T13:29:43Z</time>
      </trkpt>
      <trkpt lat="45.24335" lon="7.16092">
        <ele>2333.69</ele>
        <time>2015-08-17T13:29:49Z</time>
      </trkpt>
      <trkpt lat="45.24332" lon="7.161">
        <ele>2331</ele>
        <time>2015-08-17T13:29:54Z</time>
      </trkpt>
      <trkpt lat="45.24331" lon="7.16103">
        <ele>2330.27</ele>
        <time>2015-08-17T13:29:56Z</time>
      </trkpt>
      <trkpt lat="45.24325" lon="7.16108">
        <ele>2328.99</ele>
        <time>2015-08-17T13:30:01Z</time>
      </trkpt>
      <trkpt lat="45.2432" lon="7.16117">
        <ele>2327.13</ele>
        <time>2015-08-17T13:30:06Z</time>
      </trkpt>
      <trkpt lat="45.24316" lon="7.16123">
        <ele>2325.32</ele>
        <time>2015-08-17T13:30:12Z</time>
      </trkpt>
      <trkpt lat="45.24313" lon="7.16121">
        <ele>2324.62</ele>
        <time>2015-08-17T13:30:19Z</time>
      </trkpt>
      <trkpt lat="45.24312" lon="7.16121">
        <ele>2324.61</ele>
        <time>2015-08-17T13:30:21Z</time>
      </trkpt>
      <trkpt lat="45.24305" lon="7.16118">
        <ele>2324.16</ele>
        <time>2015-08-17T13:30:31Z</time>
      </trkpt>
      <trkpt lat="45.24305" lon="7.16118">
        <ele>2323.47</ele>
        <time>2015-08-17T13:30:42Z</time>
      </trkpt>
      <trkpt lat="45.24305" lon="7.16116">
        <ele>2323.09</ele>
        <time>2015-08-17T13:30:49Z</time>
      </trkpt>
      <trkpt lat="45.24303" lon="7.16109">
        <ele>2323.58</ele>
        <time>2015-08-17T13:30:57Z</time>
      </trkpt>
      <trkpt lat="45.24302" lon="7.16105">
        <ele>2324.09</ele>
        <time>2015-08-17T13:31:06Z</time>
      </trkpt>
      <trkpt lat="45.24301" lon="7.16107">
        <ele>2324.37</ele>
        <time>2015-08-17T13:31:14Z</time>
      </trkpt>
      <trkpt lat="45.24299" lon="7.16106">
        <ele>2324.51</ele>
        <time>2015-08-17T13:31:21Z</time>
      </trkpt>
      <trkpt lat="45.24296" lon="7.16103">
        <ele>2326.38</ele>
        <time>2015-08-17T13:31:30Z</time>
      </trkpt>
      <trkpt lat="45.24292" lon="7.16102">
        <ele>2328.88</ele>
        <time>2015-08-17T13:31:40Z</time>
      </trkpt>
      <trkpt lat="45.24292" lon="7.161">
        <ele>2329.27</ele>
        <time>2015-08-17T13:31:42Z</time>
      </trkpt>
      <trkpt lat="45.24289" lon="7.161">
        <ele>2329.86</ele>
        <time>2015-08-17T13:31:46Z</time>
      </trkpt>
      <trkpt lat="45.24287" lon="7.1611">
        <ele>2330.46</ele>
        <time>2015-08-17T13:31:55Z</time>
      </trkpt>
      <trkpt lat="45.24287" lon="7.16114">
        <ele>2330.52</ele>
        <time>2015-08-17T13:32:00Z</time>
      </trkpt>
      <trkpt lat="45.24287" lon="7.16113">
        <ele>2330</ele>
        <time>2015-08-17T13:32:12Z</time>
      </trkpt>
      <trkpt lat="45.24287" lon="7.16117">
        <ele>2330.03</ele>
        <time>2015-08-17T13:32:21Z</time>
      </trkpt>
      <trkpt lat="45.24287" lon="7.16118">
        <ele>2330</ele>
        <time>2015-08-17T13:32:22Z</time>
      </trkpt>
      <trkpt lat="45.24288" lon="7.16123">
        <ele>2329.78</ele>
        <time>2015-08-17T13:32:30Z</time>
      </trkpt>
      <trkpt lat="45.24288" lon="7.16125">
        <ele>2329.64</ele>
        <time>2015-08-17T13:32:43Z</time>
      </trkpt>
      <trkpt lat="45.24288" lon="7.16122">
        <ele>2329.64</ele>
        <time>2015-08-17T13:33:05Z</time>
      </trkpt>
      <trkpt lat="45.24287" lon="7.16121">
        <ele>2329.28</ele>
        <time>2015-08-17T13:33:24Z</time>
      </trkpt>
      <trkpt lat="45.24287" lon="7.16123">
        <ele>2328.96</ele>
        <time>2015-08-17T13:33:37Z</time>
      </trkpt>
      <trkpt lat="45.24287" lon="7.16123">
        <ele>2329.27</ele>
        <time>2015-08-17T13:34:06Z</time>
      </trkpt>
      <trkpt lat="45.24285" lon="7.16118">
        <ele>2329.45</ele>
        <time>2015-08-17T13:34:10Z</time>
      </trkpt>
      <trkpt lat="45.24279" lon="7.16116">
        <ele>2328.93</ele>
        <time>2015-08-17T13:34:17Z</time>
      </trkpt>
      <trkpt lat="45.2427" lon="7.16117">
        <ele>2327.96</ele>
        <time>2015-08-17T13:34:22Z</time>
      </trkpt>
      <trkpt lat="45.24263" lon="7.16119">
        <ele>2327.08</ele>
        <time>2015-08-17T13:34:25Z</time>
      </trkpt>
      <trkpt lat="45.24251" lon="7.1612">
        <ele>2324.83</ele>
        <time>2015-08-17T13:34:32Z</time>
      </trkpt>
      <trkpt lat="45.24248" lon="7.16125">
        <ele>2323.87</ele>
        <time>2015-08-17T13:34:40Z</time>
      </trkpt>
      <trkpt lat="45.24247" lon="7.16126">
        <ele>2323.51</ele>
        <time>2015-08-17T13:34:42Z</time>
      </trkpt>
      <trkpt lat="45.24245" lon="7.16132">
        <ele>2322.06</ele>
        <time>2015-08-17T13:34:49Z</time>
      </trkpt>
      <trkpt lat="45.24241" lon="7.16143">
        <ele>2321.14</ele>
        <time>2015-08-17T13:34:54Z</time>
      </trkpt>
      <trkpt lat="45.2424" lon="7.16148">
        <ele>2320.56</ele>
        <time>2015-08-17T13:34:56Z</time>
      </trkpt>
      <trkpt lat="45.24236" lon="7.16158">
        <ele>2317.86</ele>
        <time>2015-08-17T13:35:01Z</time>
      </trkpt>
      <trkpt lat="45.24225" lon="7.16173">
        <ele>2315.92</ele>
        <time>2015-08-17T13:35:07Z</time>
      </trkpt>
      <trkpt lat="45.24218" lon="7.16185">
        <ele>2314.03</ele>
        <time>2015-08-17T13:35:12Z</time>
      </trkpt>
      <trkpt lat="45.24216" lon="7.16186">
        <ele>2313.6</ele>
        <time>2015-08-17T13:35:13Z</time>
      </trkpt>
      <trkpt lat="45.24213" lon="7.16192">
        <ele>2311.14</ele>
        <time>2015-08-17T13:35:19Z</time>
      </trkpt>
      <trkpt lat="45.24213" lon="7.16198">
        <ele>2309.64</ele>
        <time>2015-08-17T13:35:25Z</time>
      </trkpt>
      <trkpt lat="45.24209" lon="7.16203">
        <ele>2308.16</ele>
        <time>2015-08-17T13:35:32Z</time>
      </trkpt>
      <trkpt lat="45.24207" lon="7.16208">
        <ele>2306.74</ele>
        <time>2015-08-17T13:35:38Z</time>
      </trkpt>
      <trkpt lat="45.24204" lon="7.16211">
        <ele>2306.37</ele>
        <time>2015-08-17T13:35:42Z</time>
      </trkpt>
      <trkpt lat="45.24199" lon="7.16221">
        <ele>2305.92</ele>
        <time>2015-08-17T13:35:50Z</time>
      </trkpt>
      <trkpt lat="45.24192" lon="7.1623">
        <ele>2304.49</ele>
        <time>2015-08-17T13:36:01Z</time>
      </trkpt>
      <trkpt lat="45.24193" lon="7.16232">
        <ele>2303.34</ele>
        <time>2015-08-17T13:36:08Z</time>
      </trkpt>
      <trkpt lat="45.24194" lon="7.1623">
        <ele>2302.32</ele>
        <time>2015-08-17T13:36:18Z</time>
      </trkpt>
      <trkpt lat="45.24197" lon="7.16229">
        <ele>2302.03</ele>
        <time>2015-08-17T13:36:32Z</time>
      </trkpt>
      <trkpt lat="45.24197" lon="7.1623">
        <ele>2301.21</ele>
        <time>2015-08-17T13:36:42Z</time>
      </trkpt>
      <trkpt lat="45.24198" lon="7.1623">
        <ele>2300.84</ele>
        <time>2015-08-17T13:37:02Z</time>
      </trkpt>
      <trkpt lat="45.24198" lon="7.16234">
        <ele>2300.23</ele>
        <time>2015-08-17T13:37:08Z</time>
      </trkpt>
      <trkpt lat="45.24192" lon="7.16243">
        <ele>2298.58</ele>
        <time>2015-08-17T13:37:17Z</time>
      </trkpt>
      <trkpt lat="45.24189" lon="7.16245">
        <ele>2297.43</ele>
        <time>2015-08-17T13:37:22Z</time>
      </trkpt>
      <trkpt lat="45.24186" lon="7.16246">
        <ele>2295.5</ele>
        <time>2015-08-17T13:37:30Z</time>
      </trkpt>
      <trkpt lat="45.24182" lon="7.16243">
        <ele>2294.5</ele>
        <time>2015-08-17T13:37:39Z</time>
      </trkpt>
      <trkpt lat="45.2418" lon="7.16243">
        <ele>2294.16</ele>
        <time>2015-08-17T13:37:41Z</time>
      </trkpt>
      <trkpt lat="45.24174" lon="7.16243">
        <ele>2292.21</ele>
        <time>2015-08-17T13:37:49Z</time>
      </trkpt>
      <trkpt lat="45.24166" lon="7.16247">
        <ele>2290.79</ele>
        <time>2015-08-17T13:37:53Z</time>
      </trkpt>
      <trkpt lat="45.24154" lon="7.16252">
        <ele>2289.31</ele>
        <time>2015-08-17T13:37:57Z</time>
      </trkpt>
      <trkpt lat="45.24151" lon="7.16257">
        <ele>2288.48</ele>
        <time>2015-08-17T13:37:59Z</time>
      </trkpt>
      <trkpt lat="45.24144" lon="7.1626">
        <ele>2286.23</ele>
        <time>2015-08-17T13:38:05Z</time>
      </trkpt>
      <trkpt lat="45.24142" lon="7.16261">
        <ele>2284.76</ele>
        <time>2015-08-17T13:38:11Z</time>
      </trkpt>
      <trkpt lat="45.2414" lon="7.16264">
        <ele>2284.18</ele>
        <time>2015-08-17T13:38:17Z</time>
      </trkpt>
      <trkpt lat="45.24132" lon="7.16279">
        <ele>2283.01</ele>
        <time>2015-08-17T13:38:24Z</time>
      </trkpt>
      <trkpt lat="45.24124" lon="7.16294">
        <ele>2279.59</ele>
        <time>2015-08-17T13:38:31Z</time>
      </trkpt>
      <trkpt lat="45.24123" lon="7.16296">
        <ele>2277</ele>
        <time>2015-08-17T13:38:37Z</time>
      </trkpt>
      <trkpt lat="45.24122" lon="7.16303">
        <ele>2275.2</ele>
        <time>2015-08-17T13:38:44Z</time>
      </trkpt>
      <trkpt lat="45.24118" lon="7.16309">
        <ele>2272.92</ele>
        <time>2015-08-17T13:38:52Z</time>
      </trkpt>
      <trkpt lat="45.24115" lon="7.16312">
        <ele>2271.12</ele>
        <time>2015-08-17T13:38:59Z</time>
      </trkpt>
      <trkpt lat="45.24114" lon="7.16312">
        <ele>2270.8</ele>
        <time>2015-08-17T13:39:01Z</time>
      </trkpt>
      <trkpt lat="45.24106" lon="7.16316">
        <ele>2269.03</ele>
        <time>2015-08-17T13:39:09Z</time>
      </trkpt>
      <trkpt lat="45.24104" lon="7.16325">
        <ele>2266.87</ele>
        <time>2015-08-17T13:39:18Z</time>
      </trkpt>
      <trkpt lat="45.24104" lon="7.16329">
        <ele>2266.11</ele>
        <time>2015-08-17T13:39:22Z</time>
      </trkpt>
      <trkpt lat="45.241" lon="7.16344">
        <ele>2262.81</ele>
        <time>2015-08-17T13:39:33Z</time>
      </trkpt>
      <trkpt lat="45.24098" lon="7.16351">
        <ele>2261.26</ele>
        <time>2015-08-17T13:39:40Z</time>
      </trkpt>
      <trkpt lat="45.24095" lon="7.16357">
        <ele>2259.19</ele>
        <time>2015-08-17T13:39:49Z</time>
      </trkpt>
      <trkpt lat="45.24092" lon="7.16361">
        <ele>2257.18</ele>
        <time>2015-08-17T13:39:56Z</time>
      </trkpt>
      <trkpt lat="45.24088" lon="7.16369">
        <ele>2254.35</ele>
        <time>2015-08-17T13:40:07Z</time>
      </trkpt>
      <trkpt lat="45.24086" lon="7.1638">
        <ele>2252.16</ele>
        <time>2015-08-17T13:40:16Z</time>
      </trkpt>
      <trkpt lat="45.24082" lon="7.16388">
        <ele>2249.22</ele>
        <time>2015-08-17T13:40:26Z</time>
      </trkpt>
      <trkpt lat="45.24079" lon="7.16395">
        <ele>2247</ele>
        <time>2015-08-17T13:40:34Z</time>
      </trkpt>
      <trkpt lat="45.24078" lon="7.16396">
        <ele>2246.45</ele>
        <time>2015-08-17T13:40:36Z</time>
      </trkpt>
      <trkpt lat="45.24074" lon="7.16403">
        <ele>2244.72</ele>
        <time>2015-08-17T13:40:43Z</time>
      </trkpt>
      <trkpt lat="45.24067" lon="7.16409">
        <ele>2242.63</ele>
        <time>2015-08-17T13:40:51Z</time>
      </trkpt>
      <trkpt lat="45.24059" lon="7.1641">
        <ele>2240.26</ele>
        <time>2015-08-17T13:41:01Z</time>
      </trkpt>
      <trkpt lat="45.2405" lon="7.16407">
        <ele>2237.89</ele>
        <time>2015-08-17T13:41:11Z</time>
      </trkpt>
      <trkpt lat="45.2405" lon="7.16408">
        <ele>2237.68</ele>
        <time>2015-08-17T13:41:12Z</time>
      </trkpt>
      <trkpt lat="45.24043" lon="7.16415">
        <ele>2235.34</ele>
        <time>2015-08-17T13:41:22Z</time>
      </trkpt>
      <trkpt lat="45.2404" lon="7.16421">
        <ele>2232.98</ele>
        <time>2015-08-17T13:41:31Z</time>
      </trkpt>
      <trkpt lat="45.24037" lon="7.16428">
        <ele>2230.4</ele>
        <time>2015-08-17T13:41:40Z</time>
      </trkpt>
      <trkpt lat="45.24033" lon="7.16432">
        <ele>2228.19</ele>
        <time>2015-08-17T13:41:49Z</time>
      </trkpt>
      <trkpt lat="45.24033" lon="7.16436">
        <ele>2226.04</ele>
        <time>2015-08-17T13:41:57Z</time>
      </trkpt>
      <trkpt lat="45.24036" lon="7.16438">
        <ele>2224.67</ele>
        <time>2015-08-17T13:42:04Z</time>
      </trkpt>
      <trkpt lat="45.24039" lon="7.16438">
        <ele>2223.78</ele>
        <time>2015-08-17T13:42:09Z</time>
      </trkpt>
      <trkpt lat="45.24045" lon="7.1644">
        <ele>2221.71</ele>
        <time>2015-08-17T13:42:19Z</time>
      </trkpt>
      <trkpt lat="45.24041" lon="7.16445">
        <ele>2219.19</ele>
        <time>2015-08-17T13:42:28Z</time>
      </trkpt>
      <trkpt lat="45.24039" lon="7.16448">
        <ele>2217.6</ele>
        <time>2015-08-17T13:42:35Z</time>
      </trkpt>
      <trkpt lat="45.24036" lon="7.16455">
        <ele>2216.39</ele>
        <time>2015-08-17T13:42:42Z</time>
      </trkpt>
      <trkpt lat="45.24034" lon="7.1646">
        <ele>2215.36</ele>
        <time>2015-08-17T13:42:46Z</time>
      </trkpt>
      <trkpt lat="45.24027" lon="7.16465">
        <ele>2212.92</ele>
        <time>2015-08-17T13:42:55Z</time>
      </trkpt>
      <trkpt lat="45.24023" lon="7.16467">
        <ele>2211.22</ele>
        <time>2015-08-17T13:43:01Z</time>
      </trkpt>
      <trkpt lat="45.24023" lon="7.16472">
        <ele>2209.43</ele>
        <time>2015-08-17T13:43:07Z</time>
      </trkpt>
      <trkpt lat="45.24026" lon="7.16476">
        <ele>2207.12</ele>
        <time>2015-08-17T13:43:15Z</time>
      </trkpt>
      <trkpt lat="45.24032" lon="7.16481">
        <ele>2203.93</ele>
        <time>2015-08-17T13:43:25Z</time>
      </trkpt>
      <trkpt lat="45.24036" lon="7.16482">
        <ele>2202.19</ele>
        <time>2015-08-17T13:43:33Z</time>
      </trkpt>
      <trkpt lat="45.24041" lon="7.16484">
        <ele>2200.3</ele>
        <time>2015-08-17T13:43:42Z</time>
      </trkpt>
      <trkpt lat="45.24041" lon="7.16485">
        <ele>2200.09</ele>
        <time>2015-08-17T13:43:43Z</time>
      </trkpt>
      <trkpt lat="45.24042" lon="7.16488">
        <ele>2198.33</ele>
        <time>2015-08-17T13:43:49Z</time>
      </trkpt>
      <trkpt lat="45.24036" lon="7.16493">
        <ele>2196.2</ele>
        <time>2015-08-17T13:43:57Z</time>
      </trkpt>
      <trkpt lat="45.24029" lon="7.165">
        <ele>2193.17</ele>
        <time>2015-08-17T13:44:07Z</time>
      </trkpt>
      <trkpt lat="45.24022" lon="7.16506">
        <ele>2190.61</ele>
        <time>2015-08-17T13:44:17Z</time>
      </trkpt>
      <trkpt lat="45.24021" lon="7.16516">
        <ele>2188.46</ele>
        <time>2015-08-17T13:44:26Z</time>
      </trkpt>
      <trkpt lat="45.24021" lon="7.16521">
        <ele>2185.88</ele>
        <time>2015-08-17T13:44:33Z</time>
      </trkpt>
      <trkpt lat="45.24021" lon="7.16522">
        <ele>2185.63</ele>
        <time>2015-08-17T13:44:34Z</time>
      </trkpt>
      <trkpt lat="45.24021" lon="7.16526">
        <ele>2185.16</ele>
        <time>2015-08-17T13:44:36Z</time>
      </trkpt>
      <trkpt lat="45.24019" lon="7.16549">
        <ele>2182.3</ele>
        <time>2015-08-17T13:44:44Z</time>
      </trkpt>
      <trkpt lat="45.24014" lon="7.16568">
        <ele>2179.78</ele>
        <time>2015-08-17T13:44:49Z</time>
      </trkpt>
      <trkpt lat="45.24016" lon="7.1658">
        <ele>2176.08</ele>
        <time>2015-08-17T13:44:56Z</time>
      </trkpt>
      <trkpt lat="45.24016" lon="7.16584">
        <ele>2174.41</ele>
        <time>2015-08-17T13:45:00Z</time>
      </trkpt>
      <trkpt lat="45.24017" lon="7.16589">
        <ele>2173.77</ele>
        <time>2015-08-17T13:45:02Z</time>
      </trkpt>
      <trkpt lat="45.24017" lon="7.16604">
        <ele>2171.7</ele>
        <time>2015-08-17T13:45:08Z</time>
      </trkpt>
      <trkpt lat="45.24012" lon="7.16616">
        <ele>2168.74</ele>
        <time>2015-08-17T13:45:15Z</time>
      </trkpt>
      <trkpt lat="45.24011" lon="7.16619">
        <ele>2167.79</ele>
        <time>2015-08-17T13:45:17Z</time>
      </trkpt>
      <trkpt lat="45.2401" lon="7.16624">
        <ele>2165.98</ele>
        <time>2015-08-17T13:45:20Z</time>
      </trkpt>
      <trkpt lat="45.24008" lon="7.16632">
        <ele>2162.98</ele>
        <time>2015-08-17T13:45:26Z</time>
      </trkpt>
      <trkpt lat="45.24007" lon="7.16637">
        <ele>2161.66</ele>
        <time>2015-08-17T13:45:30Z</time>
      </trkpt>
      <trkpt lat="45.24005" lon="7.16642">
        <ele>2160.43</ele>
        <time>2015-08-17T13:45:33Z</time>
      </trkpt>
      <trkpt lat="45.24" lon="7.1666">
        <ele>2156.52</ele>
        <time>2015-08-17T13:45:42Z</time>
      </trkpt>
      <trkpt lat="45.23999" lon="7.16663">
        <ele>2154.28</ele>
        <time>2015-08-17T13:45:49Z</time>
      </trkpt>
      <trkpt lat="45.24002" lon="7.1667">
        <ele>2152.56</ele>
        <time>2015-08-17T13:45:56Z</time>
      </trkpt>
      <trkpt lat="45.24" lon="7.16674">
        <ele>2150.22</ele>
        <time>2015-08-17T13:46:03Z</time>
      </trkpt>
      <trkpt lat="45.23996" lon="7.16679">
        <ele>2147.68</ele>
        <time>2015-08-17T13:46:10Z</time>
      </trkpt>
      <trkpt lat="45.23994" lon="7.16685">
        <ele>2144.97</ele>
        <time>2015-08-17T13:46:18Z</time>
      </trkpt>
      <trkpt lat="45.24004" lon="7.16686">
        <ele>2143.15</ele>
        <time>2015-08-17T13:46:25Z</time>
      </trkpt>
      <trkpt lat="45.24003" lon="7.16688">
        <ele>2142.03</ele>
        <time>2015-08-17T13:46:28Z</time>
      </trkpt>
      <trkpt lat="45.23996" lon="7.16697">
        <ele>2139.05</ele>
        <time>2015-08-17T13:46:36Z</time>
      </trkpt>
      <trkpt lat="45.23986" lon="7.16703">
        <ele>2135.75</ele>
        <time>2015-08-17T13:46:43Z</time>
      </trkpt>
      <trkpt lat="45.23982" lon="7.16704">
        <ele>2134.28</ele>
        <time>2015-08-17T13:46:46Z</time>
      </trkpt>
      <trkpt lat="45.23976" lon="7.16708">
        <ele>2131.56</ele>
        <time>2015-08-17T13:46:51Z</time>
      </trkpt>
      <trkpt lat="45.23972" lon="7.16712">
        <ele>2129.46</ele>
        <time>2015-08-17T13:46:55Z</time>
      </trkpt>
      <trkpt lat="45.23968" lon="7.16716">
        <ele>2126.25</ele>
        <time>2015-08-17T13:47:00Z</time>
      </trkpt>
      <trkpt lat="45.23971" lon="7.16719">
        <ele>2124.61</ele>
        <time>2015-08-17T13:47:03Z</time>
      </trkpt>
      <trkpt lat="45.23983" lon="7.16723">
        <ele>2122.2</ele>
        <time>2015-08-17T13:47:08Z</time>
      </trkpt>
      <trkpt lat="45.2399" lon="7.16725">
        <ele>2120.01</ele>
        <time>2015-08-17T13:47:13Z</time>
      </trkpt>
      <trkpt lat="45.23996" lon="7.16729">
        <ele>2117.13</ele>
        <time>2015-08-17T13:47:20Z</time>
      </trkpt>
      <trkpt lat="45.23995" lon="7.1673">
        <ele>2116.11</ele>
        <time>2015-08-17T13:47:22Z</time>
      </trkpt>
      <trkpt lat="45.23991" lon="7.16731">
        <ele>2115.48</ele>
        <time>2015-08-17T13:47:25Z</time>
      </trkpt>
      <trkpt lat="45.23989" lon="7.16734">
        <ele>2113.8</ele>
        <time>2015-08-17T13:47:32Z</time>
      </trkpt>
      <trkpt lat="45.23991" lon="7.16735">
        <ele>2113.02</ele>
        <time>2015-08-17T13:47:35Z</time>
      </trkpt>
      <trkpt lat="45.23999" lon="7.16739">
        <ele>2111.28</ele>
        <time>2015-08-17T13:47:41Z</time>
      </trkpt>
      <trkpt lat="45.24013" lon="7.16743">
        <ele>2108.26</ele>
        <time>2015-08-17T13:47:48Z</time>
      </trkpt>
      <trkpt lat="45.24019" lon="7.16745">
        <ele>2106.05</ele>
        <time>2015-08-17T13:47:51Z</time>
      </trkpt>
      <trkpt lat="45.24022" lon="7.1675">
        <ele>2103.8</ele>
        <time>2015-08-17T13:47:56Z</time>
      </trkpt>
      <trkpt lat="45.24013" lon="7.16755">
        <ele>2100.94</ele>
        <time>2015-08-17T13:48:02Z</time>
      </trkpt>
      <trkpt lat="45.24002" lon="7.16763">
        <ele>2097.86</ele>
        <time>2015-08-17T13:48:08Z</time>
      </trkpt>
      <trkpt lat="45.23989" lon="7.16773">
        <ele>2093.79</ele>
        <time>2015-08-17T13:48:14Z</time>
      </trkpt>
      <trkpt lat="45.23987" lon="7.16774">
        <ele>2093.22</ele>
        <time>2015-08-17T13:48:15Z</time>
      </trkpt>
      <trkpt lat="45.23978" lon="7.16777">
        <ele>2090.64</ele>
        <time>2015-08-17T13:48:20Z</time>
      </trkpt>
      <trkpt lat="45.23974" lon="7.16781">
        <ele>2088.74</ele>
        <time>2015-08-17T13:48:24Z</time>
      </trkpt>
      <trkpt lat="45.23971" lon="7.16788">
        <ele>2086.47</ele>
        <time>2015-08-17T13:48:31Z</time>
      </trkpt>
      <trkpt lat="45.23967" lon="7.16794">
        <ele>2083.96</ele>
        <time>2015-08-17T13:48:38Z</time>
      </trkpt>
      <trkpt lat="45.23967" lon="7.16794">
        <ele>2083.7</ele>
        <time>2015-08-17T13:48:39Z</time>
      </trkpt>
      <trkpt lat="45.23963" lon="7.16795">
        <ele>2082.38</ele>
        <time>2015-08-17T13:48:44Z</time>
      </trkpt>
      <trkpt lat="45.2395" lon="7.16802">
        <ele>2080.15</ele>
        <time>2015-08-17T13:48:51Z</time>
      </trkpt>
      <trkpt lat="45.23945" lon="7.16805">
        <ele>2079.07</ele>
        <time>2015-08-17T13:48:54Z</time>
      </trkpt>
      <trkpt lat="45.23935" lon="7.16811">
        <ele>2076.89</ele>
        <time>2015-08-17T13:49:00Z</time>
      </trkpt>
      <trkpt lat="45.23932" lon="7.16812">
        <ele>2074.56</ele>
        <time>2015-08-17T13:49:13Z</time>
      </trkpt>
      <trkpt lat="45.23932" lon="7.16812">
        <ele>2074.42</ele>
        <time>2015-08-17T13:49:25Z</time>
      </trkpt>
      <trkpt lat="45.23931" lon="7.16818">
        <ele>2074.34</ele>
        <time>2015-08-17T13:49:32Z</time>
      </trkpt>
      <trkpt lat="45.23929" lon="7.16819">
        <ele>2073.41</ele>
        <time>2015-08-17T13:49:38Z</time>
      </trkpt>
      <trkpt lat="45.23925" lon="7.16819">
        <ele>2072.26</ele>
        <time>2015-08-17T13:49:47Z</time>
      </trkpt>
      <trkpt lat="45.23925" lon="7.16819">
        <ele>2071.89</ele>
        <time>2015-08-17T13:50:08Z</time>
      </trkpt>
      <trkpt lat="45.23922" lon="7.16818">
        <ele>2071.88</ele>
        <time>2015-08-17T13:50:23Z</time>
      </trkpt>
      <trkpt lat="45.23917" lon="7.1682">
        <ele>2070.63</ele>
        <time>2015-08-17T13:50:31Z</time>
      </trkpt>
      <trkpt lat="45.23914" lon="7.16826">
        <ele>2069.39</ele>
        <time>2015-08-17T13:50:39Z</time>
      </trkpt>
      <trkpt lat="45.23914" lon="7.16833">
        <ele>2068.95</ele>
        <time>2015-08-17T13:50:45Z</time>
      </trkpt>
      <trkpt lat="45.23916" lon="7.16841">
        <ele>2066.53</ele>
        <time>2015-08-17T13:50:54Z</time>
      </trkpt>
      <trkpt lat="45.23916" lon="7.16848">
        <ele>2064.94</ele>
        <time>2015-08-17T13:51:01Z</time>
      </trkpt>
      <trkpt lat="45.23916" lon="7.16857">
        <ele>2063.29</ele>
        <time>2015-08-17T13:51:09Z</time>
      </trkpt>
      <trkpt lat="45.23914" lon="7.16862">
        <ele>2061.64</ele>
        <time>2015-08-17T13:51:15Z</time>
      </trkpt>
      <trkpt lat="45.23911" lon="7.16863">
        <ele>2060.03</ele>
        <time>2015-08-17T13:51:20Z</time>
      </trkpt>
      <trkpt lat="45.23908" lon="7.16869">
        <ele>2058.89</ele>
        <time>2015-08-17T13:51:26Z</time>
      </trkpt>
      <trkpt lat="45.23909" lon="7.16879">
        <ele>2057.37</ele>
        <time>2015-08-17T13:51:34Z</time>
      </trkpt>
      <trkpt lat="45.2391" lon="7.16882">
        <ele>2056.22</ele>
        <time>2015-08-17T13:51:38Z</time>
      </trkpt>
      <trkpt lat="45.23915" lon="7.16897">
        <ele>2055.12</ele>
        <time>2015-08-17T13:51:43Z</time>
      </trkpt>
      <trkpt lat="45.23916" lon="7.16903">
        <ele>2054.44</ele>
        <time>2015-08-17T13:51:45Z</time>
      </trkpt>
      <trkpt lat="45.23913" lon="7.16911">
        <ele>2052.95</ele>
        <time>2015-08-17T13:51:49Z</time>
      </trkpt>
      <trkpt lat="45.23909" lon="7.16922">
        <ele>2050.27</ele>
        <time>2015-08-17T13:51:55Z</time>
      </trkpt>
      <trkpt lat="45.23911" lon="7.16922">
        <ele>2048.87</ele>
        <time>2015-08-17T13:51:57Z</time>
      </trkpt>
      <trkpt lat="45.2392" lon="7.16919">
        <ele>2047.25</ele>
        <time>2015-08-17T13:52:01Z</time>
      </trkpt>
      <trkpt lat="45.23923" lon="7.16916">
        <ele>2046.17</ele>
        <time>2015-08-17T13:52:04Z</time>
      </trkpt>
      <trkpt lat="45.23931" lon="7.16904">
        <ele>2044.65</ele>
        <time>2015-08-17T13:52:09Z</time>
      </trkpt>
      <trkpt lat="45.23933" lon="7.16904">
        <ele>2043.58</ele>
        <time>2015-08-17T13:52:12Z</time>
      </trkpt>
      <trkpt lat="45.23936" lon="7.1691">
        <ele>2041.13</ele>
        <time>2015-08-17T13:52:18Z</time>
      </trkpt>
      <trkpt lat="45.23935" lon="7.16925">
        <ele>2038.22</ele>
        <time>2015-08-17T13:52:25Z</time>
      </trkpt>
      <trkpt lat="45.23937" lon="7.1694">
        <ele>2036.01</ele>
        <time>2015-08-17T13:52:31Z</time>
      </trkpt>
      <trkpt lat="45.23937" lon="7.16943">
        <ele>2035.65</ele>
        <time>2015-08-17T13:52:32Z</time>
      </trkpt>
      <trkpt lat="45.23931" lon="7.16953">
        <ele>2032.8</ele>
        <time>2015-08-17T13:52:38Z</time>
      </trkpt>
      <trkpt lat="45.23926" lon="7.16962">
        <ele>2030.65</ele>
        <time>2015-08-17T13:52:43Z</time>
      </trkpt>
      <trkpt lat="45.23926" lon="7.16967">
        <ele>2029.45</ele>
        <time>2015-08-17T13:52:45Z</time>
      </trkpt>
      <trkpt lat="45.23927" lon="7.16973">
        <ele>2027.28</ele>
        <time>2015-08-17T13:52:48Z</time>
      </trkpt>
      <trkpt lat="45.23921" lon="7.16986">
        <ele>2024.67</ele>
        <time>2015-08-17T13:52:53Z</time>
      </trkpt>
      <trkpt lat="45.23913" lon="7.17007">
        <ele>2020.84</ele>
        <time>2015-08-17T13:53:00Z</time>
      </trkpt>
      <trkpt lat="45.23907" lon="7.17018">
        <ele>2018.38</ele>
        <time>2015-08-17T13:53:06Z</time>
      </trkpt>
      <trkpt lat="45.23904" lon="7.17029">
        <ele>2016.54</ele>
        <time>2015-08-17T13:53:11Z</time>
      </trkpt>
      <trkpt lat="45.23895" lon="7.17037">
        <ele>2015.03</ele>
        <time>2015-08-17T13:53:17Z</time>
      </trkpt>
      <trkpt lat="45.23893" lon="7.17054">
        <ele>2013.95</ele>
        <time>2015-08-17T13:53:21Z</time>
      </trkpt>
      <trkpt lat="45.23888" lon="7.17067">
        <ele>2012.58</ele>
        <time>2015-08-17T13:53:24Z</time>
      </trkpt>
      <trkpt lat="45.23881" lon="7.17077">
        <ele>2011.09</ele>
        <time>2015-08-17T13:53:29Z</time>
      </trkpt>
      <trkpt lat="45.23874" lon="7.17093">
        <ele>2010.86</ele>
        <time>2015-08-17T13:53:37Z</time>
      </trkpt>
      <trkpt lat="45.23865" lon="7.17102">
        <ele>2011.84</ele>
        <time>2015-08-17T13:53:46Z</time>
      </trkpt>
      <trkpt lat="45.23861" lon="7.17108">
        <ele>2012.43</ele>
        <time>2015-08-17T13:53:54Z</time>
      </trkpt>
      <trkpt lat="45.23861" lon="7.17108">
        <ele>2012.49</ele>
        <time>2015-08-17T13:53:55Z</time>
      </trkpt>
      <trkpt lat="45.23853" lon="7.17115">
        <ele>2012.91</ele>
        <time>2015-08-17T13:54:04Z</time>
      </trkpt>
      <trkpt lat="45.23852" lon="7.17115">
        <ele>2013.07</ele>
        <time>2015-08-17T13:54:05Z</time>
      </trkpt>
      <trkpt lat="45.23846" lon="7.17122">
        <ele>2014.58</ele>
        <time>2015-08-17T13:54:15Z</time>
      </trkpt>
      <trkpt lat="45.23839" lon="7.17127">
        <ele>2015.34</ele>
        <time>2015-08-17T13:54:24Z</time>
      </trkpt>
      <trkpt lat="45.23837" lon="7.17127">
        <ele>2015.42</ele>
        <time>2015-08-17T13:54:27Z</time>
      </trkpt>
      <trkpt lat="45.23828" lon="7.17125">
        <ele>2013.47</ele>
        <time>2015-08-17T13:54:36Z</time>
      </trkpt>
      <trkpt lat="45.23828" lon="7.17126">
        <ele>2012.24</ele>
        <time>2015-08-17T13:54:44Z</time>
      </trkpt>
      <trkpt lat="45.23827" lon="7.17121">
        <ele>2011.94</ele>
        <time>2015-08-17T13:54:58Z</time>
      </trkpt>
      <trkpt lat="45.2382" lon="7.17114">
        <ele>2011.37</ele>
        <time>2015-08-17T13:55:04Z</time>
      </trkpt>
      <trkpt lat="45.23813" lon="7.17106">
        <ele>2011.56</ele>
        <time>2015-08-17T13:55:13Z</time>
      </trkpt>
      <trkpt lat="45.23802" lon="7.17101">
        <ele>2012.38</ele>
        <time>2015-08-17T13:55:22Z</time>
      </trkpt>
      <trkpt lat="45.23793" lon="7.17097">
        <ele>2012.23</ele>
        <time>2015-08-17T13:55:30Z</time>
      </trkpt>
      <trkpt lat="45.23787" lon="7.17099">
        <ele>2012.07</ele>
        <time>2015-08-17T13:55:36Z</time>
      </trkpt>
      <trkpt lat="45.23777" lon="7.171">
        <ele>2010.82</ele>
        <time>2015-08-17T13:55:45Z</time>
      </trkpt>
      <trkpt lat="45.23773" lon="7.17101">
        <ele>2009.91</ele>
        <time>2015-08-17T13:55:50Z</time>
      </trkpt>
      <trkpt lat="45.23771" lon="7.17101">
        <ele>2009.55</ele>
        <time>2015-08-17T13:55:53Z</time>
      </trkpt>
      <trkpt lat="45.23762" lon="7.171">
        <ele>2009.37</ele>
        <time>2015-08-17T13:56:01Z</time>
      </trkpt>
      <trkpt lat="45.23755" lon="7.171">
        <ele>2009.32</ele>
        <time>2015-08-17T13:56:08Z</time>
      </trkpt>
      <trkpt lat="45.23753" lon="7.171">
        <ele>2009.38</ele>
        <time>2015-08-17T13:56:11Z</time>
      </trkpt>
      <trkpt lat="45.23751" lon="7.17101">
        <ele>2009.69</ele>
        <time>2015-08-17T13:56:13Z</time>
      </trkpt>
      <trkpt lat="45.23743" lon="7.17099">
        <ele>2010.68</ele>
        <time>2015-08-17T13:56:22Z</time>
      </trkpt>
      <trkpt lat="45.23736" lon="7.17098">
        <ele>2011.75</ele>
        <time>2015-08-17T13:56:29Z</time>
      </trkpt>
      <trkpt lat="45.23733" lon="7.17099">
        <ele>2012.18</ele>
        <time>2015-08-17T13:56:32Z</time>
      </trkpt>
      <trkpt lat="45.23731" lon="7.17098">
        <ele>2012.46</ele>
        <time>2015-08-17T13:56:34Z</time>
      </trkpt>
      <trkpt lat="45.23723" lon="7.171">
        <ele>2013.38</ele>
        <time>2015-08-17T13:56:41Z</time>
      </trkpt>
      <trkpt lat="45.23717" lon="7.17104">
        <ele>2013.48</ele>
        <time>2015-08-17T13:56:47Z</time>
      </trkpt>
      <trkpt lat="45.23712" lon="7.17103">
        <ele>2013.12</ele>
        <time>2015-08-17T13:56:52Z</time>
      </trkpt>
      <trkpt lat="45.23708" lon="7.17107">
        <ele>2012.58</ele>
        <time>2015-08-17T13:56:56Z</time>
      </trkpt>
      <trkpt lat="45.23698" lon="7.17106">
        <ele>2012.7</ele>
        <time>2015-08-17T13:57:06Z</time>
      </trkpt>
      <trkpt lat="45.23696" lon="7.17107">
        <ele>2012.84</ele>
        <time>2015-08-17T13:57:08Z</time>
      </trkpt>
      <trkpt lat="45.23686" lon="7.17103">
        <ele>2013.23</ele>
        <time>2015-08-17T13:57:18Z</time>
      </trkpt>
      <trkpt lat="45.2368" lon="7.17101">
        <ele>2013.02</ele>
        <time>2015-08-17T13:57:25Z</time>
      </trkpt>
      <trkpt lat="45.23678" lon="7.17105">
        <ele>2011.69</ele>
        <time>2015-08-17T13:57:32Z</time>
      </trkpt>
      <trkpt lat="45.23679" lon="7.17106">
        <ele>2011.51</ele>
        <time>2015-08-17T13:57:33Z</time>
      </trkpt>
      <trkpt lat="45.23675" lon="7.17105">
        <ele>2011.1</ele>
        <time>2015-08-17T13:57:39Z</time>
      </trkpt>
      <trkpt lat="45.23673" lon="7.17105">
        <ele>2011.12</ele>
        <time>2015-08-17T13:57:41Z</time>
      </trkpt>
      <trkpt lat="45.2367" lon="7.1711">
        <ele>2011.33</ele>
        <time>2015-08-17T13:57:48Z</time>
      </trkpt>
      <trkpt lat="45.23669" lon="7.1711">
        <ele>2011.23</ele>
        <time>2015-08-17T13:57:49Z</time>
      </trkpt>
      <trkpt lat="45.23663" lon="7.17113">
        <ele>2010.55</ele>
        <time>2015-08-17T13:57:57Z</time>
      </trkpt>
      <trkpt lat="45.23657" lon="7.17114">
        <ele>2010.56</ele>
        <time>2015-08-17T13:58:05Z</time>
      </trkpt>
      <trkpt lat="45.23653" lon="7.1712">
        <ele>2010.28</ele>
        <time>2015-08-17T13:58:13Z</time>
      </trkpt>
      <trkpt lat="45.23648" lon="7.1712">
        <ele>2011.31</ele>
        <time>2015-08-17T13:58:21Z</time>
      </trkpt>
      <trkpt lat="45.23648" lon="7.17121">
        <ele>2011.48</ele>
        <time>2015-08-17T13:58:22Z</time>
      </trkpt>
      <trkpt lat="45.23646" lon="7.17131">
        <ele>2012</ele>
        <time>2015-08-17T13:58:29Z</time>
      </trkpt>
      <trkpt lat="45.23646" lon="7.17133">
        <ele>2011.32</ele>
        <time>2015-08-17T13:58:37Z</time>
      </trkpt>
      <trkpt lat="45.23646" lon="7.17131">
        <ele>2009.8</ele>
        <time>2015-08-17T13:59:02Z</time>
      </trkpt>
      <trkpt lat="45.23647" lon="7.17128">
        <ele>2009.73</ele>
        <time>2015-08-17T13:59:27Z</time>
      </trkpt>
      <trkpt lat="45.23646" lon="7.17127">
        <ele>2009.7</ele>
        <time>2015-08-17T14:00:03Z</time>
      </trkpt>
      <trkpt lat="45.23645" lon="7.17127">
        <ele>2008.95</ele>
        <time>2015-08-17T14:01:20Z</time>
      </trkpt>
      <trkpt lat="45.23645" lon="7.17129">
        <ele>2008.47</ele>
        <time>2015-08-17T14:02:03Z</time>
      </trkpt>
      <trkpt lat="45.23646" lon="7.17131">
        <ele>2007.87</ele>
        <time>2015-08-17T14:02:47Z</time>
      </trkpt>
      <trkpt lat="45.23646" lon="7.17132">
        <ele>2007.88</ele>
        <time>2015-08-17T14:02:48Z</time>
      </trkpt>
      <trkpt lat="45.23647" lon="7.17141">
        <ele>2007.49</ele>
        <time>2015-08-17T14:02:55Z</time>
      </trkpt>
      <trkpt lat="45.2365" lon="7.17151">
        <ele>2004.99</ele>
        <time>2015-08-17T14:03:04Z</time>
      </trkpt>
      <trkpt lat="45.23651" lon="7.17156">
        <ele>2003.64</ele>
        <time>2015-08-17T14:03:10Z</time>
      </trkpt>
      <trkpt lat="45.23651" lon="7.17166">
        <ele>2001.62</ele>
        <time>2015-08-17T14:03:18Z</time>
      </trkpt>
      <trkpt lat="45.23652" lon="7.17166">
        <ele>2001.42</ele>
        <time>2015-08-17T14:03:19Z</time>
      </trkpt>
      <trkpt lat="45.23652" lon="7.1717">
        <ele>1998.93</ele>
        <time>2015-08-17T14:03:26Z</time>
      </trkpt>
      <trkpt lat="45.23652" lon="7.17174">
        <ele>1998.35</ele>
        <time>2015-08-17T14:03:28Z</time>
      </trkpt>
      <trkpt lat="45.23655" lon="7.17184">
        <ele>1996.25</ele>
        <time>2015-08-17T14:03:35Z</time>
      </trkpt>
      <trkpt lat="45.23657" lon="7.17192">
        <ele>1994.8</ele>
        <time>2015-08-17T14:03:40Z</time>
      </trkpt>
      <trkpt lat="45.23655" lon="7.17198">
        <ele>1993.29</ele>
        <time>2015-08-17T14:03:44Z</time>
      </trkpt>
      <trkpt lat="45.23653" lon="7.17208">
        <ele>1991.21</ele>
        <time>2015-08-17T14:03:49Z</time>
      </trkpt>
      <trkpt lat="45.23664" lon="7.17206">
        <ele>1988.45</ele>
        <time>2015-08-17T14:03:55Z</time>
      </trkpt>
      <trkpt lat="45.2367" lon="7.172">
        <ele>1985.73</ele>
        <time>2015-08-17T14:04:00Z</time>
      </trkpt>
      <trkpt lat="45.23673" lon="7.17199">
        <ele>1982.69</ele>
        <time>2015-08-17T14:04:08Z</time>
      </trkpt>
      <trkpt lat="45.23678" lon="7.17203">
        <ele>1980.58</ele>
        <time>2015-08-17T14:04:17Z</time>
      </trkpt>
      <trkpt lat="45.23679" lon="7.17207">
        <ele>1978.47</ele>
        <time>2015-08-17T14:04:24Z</time>
      </trkpt>
      <trkpt lat="45.23683" lon="7.17215">
        <ele>1975.51</ele>
        <time>2015-08-17T14:04:33Z</time>
      </trkpt>
      <trkpt lat="45.23684" lon="7.1722">
        <ele>1972.57</ele>
        <time>2015-08-17T14:04:41Z</time>
      </trkpt>
      <trkpt lat="45.23682" lon="7.17224">
        <ele>1971.19</ele>
        <time>2015-08-17T14:04:45Z</time>
      </trkpt>
      <trkpt lat="45.2368" lon="7.1723">
        <ele>1970</ele>
        <time>2015-08-17T14:04:48Z</time>
      </trkpt>
      <trkpt lat="45.23677" lon="7.17237">
        <ele>1966.96</ele>
        <time>2015-08-17T14:04:56Z</time>
      </trkpt>
      <trkpt lat="45.23683" lon="7.17241">
        <ele>1963.82</ele>
        <time>2015-08-17T14:05:04Z</time>
      </trkpt>
      <trkpt lat="45.23683" lon="7.17246">
        <ele>1961.49</ele>
        <time>2015-08-17T14:05:10Z</time>
      </trkpt>
      <trkpt lat="45.23677" lon="7.17257">
        <ele>1958.96</ele>
        <time>2015-08-17T14:05:18Z</time>
      </trkpt>
      <trkpt lat="45.23677" lon="7.17258">
        <ele>1958.65</ele>
        <time>2015-08-17T14:05:19Z</time>
      </trkpt>
      <trkpt lat="45.23676" lon="7.17265">
        <ele>1956.33</ele>
        <time>2015-08-17T14:05:26Z</time>
      </trkpt>
      <trkpt lat="45.23674" lon="7.17276">
        <ele>1954.6</ele>
        <time>2015-08-17T14:05:34Z</time>
      </trkpt>
      <trkpt lat="45.23674" lon="7.17282">
        <ele>1953.17</ele>
        <time>2015-08-17T14:05:40Z</time>
      </trkpt>
      <trkpt lat="45.23674" lon="7.17285">
        <ele>1950.95</ele>
        <time>2015-08-17T14:05:47Z</time>
      </trkpt>
      <trkpt lat="45.23672" lon="7.17295">
        <ele>1949.04</ele>
        <time>2015-08-17T14:05:54Z</time>
      </trkpt>
      <trkpt lat="45.23669" lon="7.17299">
        <ele>1947.83</ele>
        <time>2015-08-17T14:05:57Z</time>
      </trkpt>
      <trkpt lat="45.23665" lon="7.17302">
        <ele>1945.21</ele>
        <time>2015-08-17T14:06:03Z</time>
      </trkpt>
      <trkpt lat="45.23661" lon="7.17304">
        <ele>1943.73</ele>
        <time>2015-08-17T14:06:09Z</time>
      </trkpt>
      <trkpt lat="45.23658" lon="7.17313">
        <ele>1942.78</ele>
        <time>2015-08-17T14:06:15Z</time>
      </trkpt>
      <trkpt lat="45.23658" lon="7.17315">
        <ele>1942.48</ele>
        <time>2015-08-17T14:06:16Z</time>
      </trkpt>
      <trkpt lat="45.23661" lon="7.17329">
        <ele>1941.42</ele>
        <time>2015-08-17T14:06:24Z</time>
      </trkpt>
      <trkpt lat="45.23663" lon="7.17338">
        <ele>1940.05</ele>
        <time>2015-08-17T14:06:29Z</time>
      </trkpt>
      <trkpt lat="45.23656" lon="7.17355">
        <ele>1937.49</ele>
        <time>2015-08-17T14:06:37Z</time>
      </trkpt>
      <trkpt lat="45.23654" lon="7.1736">
        <ele>1935.86</ele>
        <time>2015-08-17T14:06:41Z</time>
      </trkpt>
      <trkpt lat="45.23655" lon="7.17362">
        <ele>1933.66</ele>
        <time>2015-08-17T14:06:48Z</time>
      </trkpt>
      <trkpt lat="45.23655" lon="7.17367">
        <ele>1933.28</ele>
        <time>2015-08-17T14:06:50Z</time>
      </trkpt>
      <trkpt lat="45.23654" lon="7.17388">
        <ele>1931.73</ele>
        <time>2015-08-17T14:06:56Z</time>
      </trkpt>
      <trkpt lat="45.23652" lon="7.17403">
        <ele>1929.94</ele>
        <time>2015-08-17T14:07:00Z</time>
      </trkpt>
      <trkpt lat="45.23647" lon="7.17428">
        <ele>1925.95</ele>
        <time>2015-08-17T14:07:06Z</time>
      </trkpt>
      <trkpt lat="45.23644" lon="7.17446">
        <ele>1922.48</ele>
        <time>2015-08-17T14:07:11Z</time>
      </trkpt>
      <trkpt lat="45.23641" lon="7.17458">
        <ele>1918.92</ele>
        <time>2015-08-17T14:07:16Z</time>
      </trkpt>
      <trkpt lat="45.2364" lon="7.17471">
        <ele>1915.54</ele>
        <time>2015-08-17T14:07:20Z</time>
      </trkpt>
      <trkpt lat="45.23635" lon="7.17487">
        <ele>1911.57</ele>
        <time>2015-08-17T14:07:25Z</time>
      </trkpt>
      <trkpt lat="45.23632" lon="7.17503">
        <ele>1907.93</ele>
        <time>2015-08-17T14:07:29Z</time>
      </trkpt>
      <trkpt lat="45.23629" lon="7.17517">
        <ele>1904.35</ele>
        <time>2015-08-17T14:07:32Z</time>
      </trkpt>
      <trkpt lat="45.23623" lon="7.17532">
        <ele>1901.17</ele>
        <time>2015-08-17T14:07:36Z</time>
      </trkpt>
      <trkpt lat="45.2362" lon="7.17539">
        <ele>1898.98</ele>
        <time>2015-08-17T14:07:39Z</time>
      </trkpt>
      <trkpt lat="45.23617" lon="7.17555">
        <ele>1894.85</ele>
        <time>2015-08-17T14:07:45Z</time>
      </trkpt>
      <trkpt lat="45.23614" lon="7.17562">
        <ele>1891.87</ele>
        <time>2015-08-17T14:07:49Z</time>
      </trkpt>
      <trkpt lat="45.23608" lon="7.17562">
        <ele>1888.8</ele>
        <time>2015-08-17T14:07:53Z</time>
      </trkpt>
      <trkpt lat="45.23603" lon="7.17566">
        <ele>1885.75</ele>
        <time>2015-08-17T14:07:56Z</time>
      </trkpt>
      <trkpt lat="45.23601" lon="7.1757">
        <ele>1884.06</ele>
        <time>2015-08-17T14:07:58Z</time>
      </trkpt>
      <trkpt lat="45.236" lon="7.17583">
        <ele>1879.85</ele>
        <time>2015-08-17T14:08:03Z</time>
      </trkpt>
      <trkpt lat="45.236" lon="7.17584">
        <ele>1878.95</ele>
        <time>2015-08-17T14:08:04Z</time>
      </trkpt>
      <trkpt lat="45.23606" lon="7.17587">
        <ele>1874.87</ele>
        <time>2015-08-17T14:08:09Z</time>
      </trkpt>
      <trkpt lat="45.23606" lon="7.1759">
        <ele>1873.61</ele>
        <time>2015-08-17T14:08:11Z</time>
      </trkpt>
      <trkpt lat="45.23607" lon="7.17607">
        <ele>1869.8</ele>
        <time>2015-08-17T14:08:18Z</time>
      </trkpt>
      <trkpt lat="45.23608" lon="7.1761">
        <ele>1867.84</ele>
        <time>2015-08-17T14:08:20Z</time>
      </trkpt>
      <trkpt lat="45.23615" lon="7.17619">
        <ele>1864.82</ele>
        <time>2015-08-17T14:08:25Z</time>
      </trkpt>
      <trkpt lat="45.23618" lon="7.17626">
        <ele>1862.12</ele>
        <time>2015-08-17T14:08:29Z</time>
      </trkpt>
      <trkpt lat="45.23621" lon="7.17633">
        <ele>1857.71</ele>
        <time>2015-08-17T14:08:35Z</time>
      </trkpt>
      <trkpt lat="45.23621" lon="7.17635">
        <ele>1856.94</ele>
        <time>2015-08-17T14:08:36Z</time>
      </trkpt>
      <trkpt lat="45.23622" lon="7.17654">
        <ele>1852.14</ele>
        <time>2015-08-17T14:08:43Z</time>
      </trkpt>
      <trkpt lat="45.23625" lon="7.17662">
        <ele>1849.08</ele>
        <time>2015-08-17T14:08:46Z</time>
      </trkpt>
      <trkpt lat="45.2363" lon="7.17677">
        <ele>1845.79</ele>
        <time>2015-08-17T14:08:51Z</time>
      </trkpt>
      <trkpt lat="45.2363" lon="7.17696">
        <ele>1841.83</ele>
        <time>2015-08-17T14:08:56Z</time>
      </trkpt>
      <trkpt lat="45.23631" lon="7.17699">
        <ele>1838.09</ele>
        <time>2015-08-17T14:09:03Z</time>
      </trkpt>
      <trkpt lat="45.23632" lon="7.17697">
        <ele>1836.89</ele>
        <time>2015-08-17T14:09:21Z</time>
      </trkpt>
      <trkpt lat="45.23635" lon="7.1769">
        <ele>1837.35</ele>
        <time>2015-08-17T14:09:29Z</time>
      </trkpt>
      <trkpt lat="45.23636" lon="7.17684">
        <ele>1837.08</ele>
        <time>2015-08-17T14:09:37Z</time>
      </trkpt>
      <trkpt lat="45.23636" lon="7.17683">
        <ele>1836.96</ele>
        <time>2015-08-17T14:09:45Z</time>
      </trkpt>
      <trkpt lat="45.23639" lon="7.17685">
        <ele>1836.26</ele>
        <time>2015-08-17T14:10:56Z</time>
      </trkpt>
      <trkpt lat="45.2364" lon="7.17684">
        <ele>1836.12</ele>
        <time>2015-08-17T14:11:25Z</time>
      </trkpt>
      <trkpt lat="45.23639" lon="7.17687">
        <ele>1835.88</ele>
        <time>2015-08-17T14:12:07Z</time>
      </trkpt>
      <trkpt lat="45.23638" lon="7.17687">
        <ele>1835.27</ele>
        <time>2015-08-17T14:12:47Z</time>
      </trkpt>
      <trkpt lat="45.23639" lon="7.17689">
        <ele>1835.55</ele>
        <time>2015-08-17T14:13:15Z</time>
      </trkpt>
      <trkpt lat="45.23637" lon="7.17697">
        <ele>1835.56</ele>
        <time>2015-08-17T14:13:20Z</time>
      </trkpt>
      <trkpt lat="45.23635" lon="7.17705">
        <ele>1835.61</ele>
        <time>2015-08-17T14:13:25Z</time>
      </trkpt>
      <trkpt lat="45.23634" lon="7.1772">
        <ele>1835.58</ele>
        <time>2015-08-17T14:13:35Z</time>
      </trkpt>
      <trkpt lat="45.23634" lon="7.17727">
        <ele>1835.57</ele>
        <time>2015-08-17T14:13:43Z</time>
      </trkpt>
      <trkpt lat="45.23634" lon="7.17728">
        <ele>1835.48</ele>
        <time>2015-08-17T14:13:46Z</time>
      </trkpt>
      <trkpt lat="45.23633" lon="7.17735">
        <ele>1835.36</ele>
        <time>2015-08-17T14:13:50Z</time>
      </trkpt>
      <trkpt lat="45.23639" lon="7.17759">
        <ele>1835.08</ele>
        <time>2015-08-17T14:13:57Z</time>
      </trkpt>
      <trkpt lat="45.23653" lon="7.17781">
        <ele>1834.87</ele>
        <time>2015-08-17T14:14:04Z</time>
      </trkpt>
      <trkpt lat="45.23662" lon="7.17799">
        <ele>1834.88</ele>
        <time>2015-08-17T14:14:10Z</time>
      </trkpt>
      <trkpt lat="45.23666" lon="7.17827">
        <ele>1834.97</ele>
        <time>2015-08-17T14:14:18Z</time>
      </trkpt>
      <trkpt lat="45.23667" lon="7.17833">
        <ele>1834.84</ele>
        <time>2015-08-17T14:14:24Z</time>
      </trkpt>
      <trkpt lat="45.23669" lon="7.17837">
        <ele>1834.83</ele>
        <time>2015-08-17T14:14:28Z</time>
      </trkpt>
      <trkpt lat="45.2367" lon="7.17847">
        <ele>1835.05</ele>
        <time>2015-08-17T14:14:36Z</time>
      </trkpt>
      <trkpt lat="45.23671" lon="7.17859">
        <ele>1834.98</ele>
        <time>2015-08-17T14:14:44Z</time>
      </trkpt>
      <trkpt lat="45.23673" lon="7.17873">
        <ele>1834.72</ele>
        <time>2015-08-17T14:14:52Z</time>
      </trkpt>
      <trkpt lat="45.23674" lon="7.17884">
        <ele>1834.71</ele>
        <time>2015-08-17T14:14:58Z</time>
      </trkpt>
      <trkpt lat="45.23674" lon="7.17888">
        <ele>1834.76</ele>
        <time>2015-08-17T14:15:03Z</time>
      </trkpt>
      <trkpt lat="45.23676" lon="7.17897">
        <ele>1834.85</ele>
        <time>2015-08-17T14:15:12Z</time>
      </trkpt>
      <trkpt lat="45.23676" lon="7.17899">
        <ele>1834.56</ele>
        <time>2015-08-17T14:15:24Z</time>
      </trkpt>
      <trkpt lat="45.23676" lon="7.17898">
        <ele>1834.76</ele>
        <time>2015-08-17T14:15:31Z</time>
      </trkpt>
      <trkpt lat="45.23675" lon="7.17896">
        <ele>1834.78</ele>
        <time>2015-08-17T14:15:33Z</time>
      </trkpt>
      <trkpt lat="45.23675" lon="7.17886">
        <ele>1834.65</ele>
        <time>2015-08-17T14:15:39Z</time>
      </trkpt>
      <trkpt lat="45.23672" lon="7.17859">
        <ele>1834.25</ele>
        <time>2015-08-17T14:15:50Z</time>
      </trkpt>
      <trkpt lat="45.23671" lon="7.17843">
        <ele>1834.11</ele>
        <time>2015-08-17T14:15:58Z</time>
      </trkpt>
      <trkpt lat="45.23671" lon="7.17843">
        <ele>1833.98</ele>
        <time>2015-08-17T14:16:10Z</time>
      </trkpt>
      <trkpt lat="45.23671" lon="7.17842">
        <ele>1834.04</ele>
        <time>2015-08-17T14:16:24Z</time>
      </trkpt>
      <trkpt lat="45.23672" lon="7.17844">
        <ele>1834.07</ele>
        <time>2015-08-17T14:16:47Z</time>
      </trkpt>
      <trkpt lat="45.2367" lon="7.17848">
        <ele>1834.22</ele>
        <time>2015-08-17T14:16:56Z</time>
      </trkpt>
      <trkpt lat="45.23671" lon="7.1785">
        <ele>1834.24</ele>
        <time>2015-08-17T14:17:01Z</time>
      </trkpt>
      <trkpt lat="45.23672" lon="7.17858">
        <ele>1833.91</ele>
        <time>2015-08-17T14:17:10Z</time>
      </trkpt>
      <trkpt lat="45.23673" lon="7.17875">
        <ele>1833.81</ele>
        <time>2015-08-17T14:17:18Z</time>
      </trkpt>
      <trkpt lat="45.23675" lon="7.17898">
        <ele>1833.78</ele>
        <time>2015-08-17T14:17:26Z</time>
      </trkpt>
      <trkpt lat="45.23676" lon="7.17917">
        <ele>1833.75</ele>
        <time>2015-08-17T14:17:34Z</time>
      </trkpt>
      <trkpt lat="45.23676" lon="7.17931">
        <ele>1833.78</ele>
        <time>2015-08-17T14:17:41Z</time>
      </trkpt>
      <trkpt lat="45.23676" lon="7.17942">
        <ele>1833.63</ele>
        <time>2015-08-17T14:17:48Z</time>
      </trkpt>
      <trkpt lat="45.23676" lon="7.17959">
        <ele>1833.41</ele>
        <time>2015-08-17T14:17:55Z</time>
      </trkpt>
      <trkpt lat="45.23679" lon="7.17981">
        <ele>1833.54</ele>
        <time>2015-08-17T14:18:03Z</time>
      </trkpt>
      <trkpt lat="45.2368" lon="7.18003">
        <ele>1833.28</ele>
        <time>2015-08-17T14:18:10Z</time>
      </trkpt>
      <trkpt lat="45.23683" lon="7.18026">
        <ele>1833.09</ele>
        <time>2015-08-17T14:18:18Z</time>
      </trkpt>
      <trkpt lat="45.23686" lon="7.18045">
        <ele>1833.01</ele>
        <time>2015-08-17T14:18:26Z</time>
      </trkpt>
      <trkpt lat="45.23686" lon="7.18049">
        <ele>1832.99</ele>
        <time>2015-08-17T14:18:30Z</time>
      </trkpt>
      <trkpt lat="45.23685" lon="7.18068">
        <ele>1833.06</ele>
        <time>2015-08-17T14:18:40Z</time>
      </trkpt>
      <trkpt lat="45.23683" lon="7.1807">
        <ele>1833.05</ele>
        <time>2015-08-17T14:18:43Z</time>
      </trkpt>
      <trkpt lat="45.2368" lon="7.18075">
        <ele>1832.98</ele>
        <time>2015-08-17T14:18:47Z</time>
      </trkpt>
      <trkpt lat="45.23671" lon="7.18085">
        <ele>1832.71</ele>
        <time>2015-08-17T14:18:53Z</time>
      </trkpt>
      <trkpt lat="45.23669" lon="7.18088">
        <ele>1832.61</ele>
        <time>2015-08-17T14:18:59Z</time>
      </trkpt>
      <trkpt lat="45.23668" lon="7.1809">
        <ele>1832.51</ele>
        <time>2015-08-17T14:19:03Z</time>
      </trkpt>
      <trkpt lat="45.23653" lon="7.18106">
        <ele>1832.63</ele>
        <time>2015-08-17T14:19:12Z</time>
      </trkpt>
      <trkpt lat="45.23644" lon="7.18121">
        <ele>1832.76</ele>
        <time>2015-08-17T14:19:19Z</time>
      </trkpt>
      <trkpt lat="45.23642" lon="7.18138">
        <ele>1832.67</ele>
        <time>2015-08-17T14:19:25Z</time>
      </trkpt>
      <trkpt lat="45.23641" lon="7.18155">
        <ele>1832.56</ele>
        <time>2015-08-17T14:19:32Z</time>
      </trkpt>
      <trkpt lat="45.2364" lon="7.18173">
        <ele>1832.44</ele>
        <time>2015-08-17T14:19:39Z</time>
      </trkpt>
      <trkpt lat="45.23638" lon="7.18191">
        <ele>1832.49</ele>
        <time>2015-08-17T14:19:45Z</time>
      </trkpt>
      <trkpt lat="45.23633" lon="7.1821">
        <ele>1832.73</ele>
        <time>2015-08-17T14:19:54Z</time>
      </trkpt>
      <trkpt lat="45.23626" lon="7.18225">
        <ele>1832.6</ele>
        <time>2015-08-17T14:20:01Z</time>
      </trkpt>
      <trkpt lat="45.23616" lon="7.18242">
        <ele>1832.42</ele>
        <time>2015-08-17T14:20:09Z</time>
      </trkpt>
      <trkpt lat="45.23611" lon="7.18251">
        <ele>1832.43</ele>
        <time>2015-08-17T14:20:14Z</time>
      </trkpt>
      <trkpt lat="45.23607" lon="7.18268">
        <ele>1832.39</ele>
        <time>2015-08-17T14:20:21Z</time>
      </trkpt>
      <trkpt lat="45.23606" lon="7.1827">
        <ele>1832.39</ele>
        <time>2015-08-17T14:20:22Z</time>
      </trkpt>
      <trkpt lat="45.23599" lon="7.18281">
        <ele>1832.46</ele>
        <time>2015-08-17T14:20:30Z</time>
      </trkpt>
      <trkpt lat="45.23595" lon="7.1829">
        <ele>1832.36</ele>
        <time>2015-08-17T14:20:39Z</time>
      </trkpt>
      <trkpt lat="45.23583" lon="7.18297">
        <ele>1832.42</ele>
        <time>2015-08-17T14:20:48Z</time>
      </trkpt>
      <trkpt lat="45.23574" lon="7.18298">
        <ele>1832.25</ele>
        <time>2015-08-17T14:20:55Z</time>
      </trkpt>
      <trkpt lat="45.23562" lon="7.18298">
        <ele>1832.09</ele>
        <time>2015-08-17T14:21:02Z</time>
      </trkpt>
      <trkpt lat="45.23556" lon="7.183">
        <ele>1831.96</ele>
        <time>2015-08-17T14:21:05Z</time>
      </trkpt>
      <trkpt lat="45.23544" lon="7.18313">
        <ele>1831.81</ele>
        <time>2015-08-17T14:21:14Z</time>
      </trkpt>
      <trkpt lat="45.23534" lon="7.18325">
        <ele>1831.63</ele>
        <time>2015-08-17T14:21:22Z</time>
      </trkpt>
      <trkpt lat="45.23521" lon="7.18338">
        <ele>1831.69</ele>
        <time>2015-08-17T14:21:30Z</time>
      </trkpt>
      <trkpt lat="45.23509" lon="7.18349">
        <ele>1831.75</ele>
        <time>2015-08-17T14:21:37Z</time>
      </trkpt>
      <trkpt lat="45.23498" lon="7.1836">
        <ele>1831.78</ele>
        <time>2015-08-17T14:21:44Z</time>
      </trkpt>
      <trkpt lat="45.23488" lon="7.18369">
        <ele>1831.79</ele>
        <time>2015-08-17T14:21:51Z</time>
      </trkpt>
      <trkpt lat="45.23481" lon="7.18377">
        <ele>1831.52</ele>
        <time>2015-08-17T14:21:59Z</time>
      </trkpt>
      <trkpt lat="45.23471" lon="7.18389">
        <ele>1831.31</ele>
        <time>2015-08-17T14:22:05Z</time>
      </trkpt>
      <trkpt lat="45.23463" lon="7.18406">
        <ele>1831.19</ele>
        <time>2015-08-17T14:22:12Z</time>
      </trkpt>
      <trkpt lat="45.23453" lon="7.18423">
        <ele>1830.98</ele>
        <time>2015-08-17T14:22:20Z</time>
      </trkpt>
      <trkpt lat="45.23441" lon="7.18446">
        <ele>1831.16</ele>
        <time>2015-08-17T14:22:28Z</time>
      </trkpt>
      <trkpt lat="45.23429" lon="7.18462">
        <ele>1830.98</ele>
        <time>2015-08-17T14:22:35Z</time>
      </trkpt>
      <trkpt lat="45.23416" lon="7.18482">
        <ele>1830.96</ele>
        <time>2015-08-17T14:22:45Z</time>
      </trkpt>
      <trkpt lat="45.23414" lon="7.18487">
        <ele>1830.73</ele>
        <time>2015-08-17T14:22:50Z</time>
      </trkpt>
      <trkpt lat="45.23405" lon="7.18508">
        <ele>1830.54</ele>
        <time>2015-08-17T14:22:58Z</time>
      </trkpt>
      <trkpt lat="45.23394" lon="7.18529">
        <ele>1830.54</ele>
        <time>2015-08-17T14:23:06Z</time>
      </trkpt>
      <trkpt lat="45.23389" lon="7.18549">
        <ele>1830.65</ele>
        <time>2015-08-17T14:23:12Z</time>
      </trkpt>
      <trkpt lat="45.23384" lon="7.1857">
        <ele>1830.42</ele>
        <time>2015-08-17T14:23:20Z</time>
      </trkpt>
      <trkpt lat="45.23378" lon="7.1859">
        <ele>1830.3</ele>
        <time>2015-08-17T14:23:27Z</time>
      </trkpt>
      <trkpt lat="45.23377" lon="7.18595">
        <ele>1830.23</ele>
        <time>2015-08-17T14:23:32Z</time>
      </trkpt>
      <trkpt lat="45.23372" lon="7.18609">
        <ele>1830.26</ele>
        <time>2015-08-17T14:23:40Z</time>
      </trkpt>
      <trkpt lat="45.2337" lon="7.18626">
        <ele>1830.53</ele>
        <time>2015-08-17T14:23:49Z</time>
      </trkpt>
      <trkpt lat="45.23367" lon="7.18636">
        <ele>1830.72</ele>
        <time>2015-08-17T14:23:55Z</time>
      </trkpt>
      <trkpt lat="45.23354" lon="7.18647">
        <ele>1830.99</ele>
        <time>2015-08-17T14:24:02Z</time>
      </trkpt>
      <trkpt lat="45.23343" lon="7.18654">
        <ele>1830.95</ele>
        <time>2015-08-17T14:24:09Z</time>
      </trkpt>
      <trkpt lat="45.23335" lon="7.18667">
        <ele>1830.94</ele>
        <time>2015-08-17T14:24:16Z</time>
      </trkpt>
      <trkpt lat="45.23324" lon="7.18689">
        <ele>1830.76</ele>
        <time>2015-08-17T14:24:24Z</time>
      </trkpt>
      <trkpt lat="45.23311" lon="7.18712">
        <ele>1830.56</ele>
        <time>2015-08-17T14:24:33Z</time>
      </trkpt>
      <trkpt lat="45.2331" lon="7.18715">
        <ele>1830.75</ele>
        <time>2015-08-17T14:24:39Z</time>
      </trkpt>
      <trkpt lat="45.23307" lon="7.18719">
        <ele>1830.71</ele>
        <time>2015-08-17T14:24:48Z</time>
      </trkpt>
      <trkpt lat="45.23307" lon="7.18719">
        <ele>1830.74</ele>
        <time>2015-08-17T14:25:03Z</time>
      </trkpt>
      <trkpt lat="45.23306" lon="7.18719">
        <ele>1830.43</ele>
        <time>2015-08-17T14:25:23Z</time>
      </trkpt>
      <trkpt lat="45.23307" lon="7.18721">
        <ele>1830.59</ele>
        <time>2015-08-17T14:25:37Z</time>
      </trkpt>
      <trkpt lat="45.23309" lon="7.18721">
        <ele>1829.77</ele>
        <time>2015-08-17T14:26:05Z</time>
      </trkpt>
      <trkpt lat="45.23307" lon="7.1872">
        <ele>1829.65</ele>
        <time>2015-08-17T14:26:18Z</time>
      </trkpt>
      <trkpt lat="45.23294" lon="7.18722">
        <ele>1830.17</ele>
        <time>2015-08-17T14:26:26Z</time>
      </trkpt>
      <trkpt lat="45.23285" lon="7.18727">
        <ele>1830.31</ele>
        <time>2015-08-17T14:26:31Z</time>
      </trkpt>
      <trkpt lat="45.23277" lon="7.18743">
        <ele>1830.26</ele>
        <time>2015-08-17T14:26:37Z</time>
      </trkpt>
      <trkpt lat="45.23275" lon="7.18749">
        <ele>1830.23</ele>
        <time>2015-08-17T14:26:42Z</time>
      </trkpt>
      <trkpt lat="45.23272" lon="7.18757">
        <ele>1830.04</ele>
        <time>2015-08-17T14:26:51Z</time>
      </trkpt>
      <trkpt lat="45.23267" lon="7.18774">
        <ele>1830</ele>
        <time>2015-08-17T14:26:57Z</time>
      </trkpt>
      <trkpt lat="45.23262" lon="7.18795">
        <ele>1829.74</ele>
        <time>2015-08-17T14:27:04Z</time>
      </trkpt>
      <trkpt lat="45.2326" lon="7.18815">
        <ele>1829.98</ele>
        <time>2015-08-17T14:27:12Z</time>
      </trkpt>
      <trkpt lat="45.23259" lon="7.18834">
        <ele>1829.9</ele>
        <time>2015-08-17T14:27:19Z</time>
      </trkpt>
      <trkpt lat="45.23256" lon="7.18844">
        <ele>1829.94</ele>
        <time>2015-08-17T14:27:24Z</time>
      </trkpt>
      <trkpt lat="45.23255" lon="7.18853">
        <ele>1829.9</ele>
        <time>2015-08-17T14:27:29Z</time>
      </trkpt>
      <trkpt lat="45.23252" lon="7.18864">
        <ele>1830.13</ele>
        <time>2015-08-17T14:27:33Z</time>
      </trkpt>
      <trkpt lat="45.23244" lon="7.18885">
        <ele>1829.93</ele>
        <time>2015-08-17T14:27:41Z</time>
      </trkpt>
      <trkpt lat="45.23233" lon="7.18903">
        <ele>1829.76</ele>
        <time>2015-08-17T14:27:49Z</time>
      </trkpt>
      <trkpt lat="45.23226" lon="7.18916">
        <ele>1829.68</ele>
        <time>2015-08-17T14:27:56Z</time>
      </trkpt>
      <trkpt lat="45.23217" lon="7.18938">
        <ele>1829.76</ele>
        <time>2015-08-17T14:28:05Z</time>
      </trkpt>
      <trkpt lat="45.2321" lon="7.18956">
        <ele>1829.7</ele>
        <time>2015-08-17T14:28:12Z</time>
      </trkpt>
      <trkpt lat="45.23201" lon="7.18976">
        <ele>1829.6</ele>
        <time>2015-08-17T14:28:20Z</time>
      </trkpt>
      <trkpt lat="45.23197" lon="7.18992">
        <ele>1829.72</ele>
        <time>2015-08-17T14:28:26Z</time>
      </trkpt>
      <trkpt lat="45.2319" lon="7.19013">
        <ele>1829.71</ele>
        <time>2015-08-17T14:28:34Z</time>
      </trkpt>
      <trkpt lat="45.23185" lon="7.1903">
        <ele>1829.69</ele>
        <time>2015-08-17T14:28:41Z</time>
      </trkpt>
      <trkpt lat="45.23182" lon="7.19056">
        <ele>1829.5</ele>
        <time>2015-08-17T14:28:49Z</time>
      </trkpt>
      <trkpt lat="45.2318" lon="7.19089">
        <ele>1829.64</ele>
        <time>2015-08-17T14:29:00Z</time>
      </trkpt>
      <trkpt lat="45.23181" lon="7.19095">
        <ele>1829.58</ele>
        <time>2015-08-17T14:29:06Z</time>
      </trkpt>
      <trkpt lat="45.23181" lon="7.19102">
        <ele>1829.44</ele>
        <time>2015-08-17T14:29:10Z</time>
      </trkpt>
      <trkpt lat="45.23177" lon="7.19114">
        <ele>1829.31</ele>
        <time>2015-08-17T14:29:17Z</time>
      </trkpt>
      <trkpt lat="45.23173" lon="7.19126">
        <ele>1829.19</ele>
        <time>2015-08-17T14:29:25Z</time>
      </trkpt>
      <trkpt lat="45.2317" lon="7.19126">
        <ele>1829.29</ele>
        <time>2015-08-17T14:29:32Z</time>
      </trkpt>
      <trkpt lat="45.23166" lon="7.19126">
        <ele>1829.36</ele>
        <time>2015-08-17T14:29:36Z</time>
      </trkpt>
      <trkpt lat="45.23156" lon="7.19125">
        <ele>1829.23</ele>
        <time>2015-08-17T14:29:43Z</time>
      </trkpt>
      <trkpt lat="45.23144" lon="7.19128">
        <ele>1829.03</ele>
        <time>2015-08-17T14:29:51Z</time>
      </trkpt>
      <trkpt lat="45.23137" lon="7.19132">
        <ele>1829.2</ele>
        <time>2015-08-17T14:29:57Z</time>
      </trkpt>
      <trkpt lat="45.23134" lon="7.19133">
        <ele>1829.7</ele>
        <time>2015-08-17T14:30:06Z</time>
      </trkpt>
      <trkpt lat="45.23134" lon="7.19134">
        <ele>1829.65</ele>
        <time>2015-08-17T14:30:20Z</time>
      </trkpt>
      <trkpt lat="45.23135" lon="7.19136">
        <ele>1829.51</ele>
        <time>2015-08-17T14:30:39Z</time>
      </trkpt>
      <trkpt lat="45.23138" lon="7.19137">
        <ele>1829.31</ele>
        <time>2015-08-17T14:30:47Z</time>
      </trkpt>
      <trkpt lat="45.23139" lon="7.19142">
        <ele>1829.03</ele>
        <time>2015-08-17T14:30:51Z</time>
      </trkpt>
      <trkpt lat="45.23145" lon="7.1916">
        <ele>1825.73</ele>
        <time>2015-08-17T14:31:01Z</time>
      </trkpt>
      <trkpt lat="45.23145" lon="7.19161">
        <ele>1824.07</ele>
        <time>2015-08-17T14:31:11Z</time>
      </trkpt>
      <trkpt lat="45.23147" lon="7.19164">
        <ele>1823.89</ele>
        <time>2015-08-17T14:31:14Z</time>
      </trkpt>
      <trkpt lat="45.23149" lon="7.19169">
        <ele>1823.21</ele>
        <time>2015-08-17T14:31:22Z</time>
      </trkpt>
      <trkpt lat="45.2315" lon="7.19169">
        <ele>1823.1</ele>
        <time>2015-08-17T14:31:24Z</time>
      </trkpt>
      <trkpt lat="45.23154" lon="7.19177">
        <ele>1822.67</ele>
        <time>2015-08-17T14:31:30Z</time>
      </trkpt>
      <trkpt lat="45.23154" lon="7.19182">
        <ele>1821.82</ele>
        <time>2015-08-17T14:31:36Z</time>
      </trkpt>
      <trkpt lat="45.23153" lon="7.19182">
        <ele>1821.75</ele>
        <time>2015-08-17T14:31:45Z</time>
      </trkpt>
      <trkpt lat="45.23152" lon="7.19183">
        <ele>1821.58</ele>
        <time>2015-08-17T14:31:54Z</time>
      </trkpt>
      <trkpt lat="45.2315" lon="7.19182">
        <ele>1820.66</ele>
        <time>2015-08-17T14:32:08Z</time>
      </trkpt>
      <trkpt lat="45.23147" lon="7.19184">
        <ele>1817.93</ele>
        <time>2015-08-17T14:32:18Z</time>
      </trkpt>
      <trkpt lat="45.23145" lon="7.19184">
        <ele>1817.27</ele>
        <time>2015-08-17T14:32:24Z</time>
      </trkpt>
      <trkpt lat="45.23145" lon="7.19184">
        <ele>1816.11</ele>
        <time>2015-08-17T14:32:30Z</time>
      </trkpt>
      <trkpt lat="45.23145" lon="7.19182">
        <ele>1815.09</ele>
        <time>2015-08-17T14:32:38Z</time>
      </trkpt>
      <trkpt lat="45.23145" lon="7.19181">
        <ele>1815.23</ele>
        <time>2015-08-17T14:33:15Z</time>
      </trkpt>
      <trkpt lat="45.23145" lon="7.19181">
        <ele>1814.89</ele>
        <time>2015-08-17T14:33:47Z</time>
      </trkpt>
      <trkpt lat="45.23145" lon="7.19182">
        <ele>1814.94</ele>
        <time>2015-08-17T14:34:24Z</time>
      </trkpt>
      <trkpt lat="45.23145" lon="7.19182">
        <ele>1814.57</ele>
        <time>2015-08-17T14:35:04Z</time>
      </trkpt>
      <trkpt lat="45.23144" lon="7.19183">
        <ele>1814.39</ele>
        <time>2015-08-17T14:35:33Z</time>
      </trkpt>
      <trkpt lat="45.23144" lon="7.19183">
        <ele>1814.64</ele>
        <time>2015-08-17T14:36:04Z</time>
      </trkpt>
      <trkpt lat="45.23143" lon="7.19183">
        <ele>1814.33</ele>
        <time>2015-08-17T14:36:41Z</time>
      </trkpt>
      <trkpt lat="45.23143" lon="7.1918">
        <ele>1814.19</ele>
        <time>2015-08-17T14:37:18Z</time>
      </trkpt>
      <trkpt lat="45.23144" lon="7.19181">
        <ele>1814.38</ele>
        <time>2015-08-17T14:37:51Z</time>
      </trkpt>
      <trkpt lat="45.23144" lon="7.19182">
        <ele>1814.63</ele>
        <time>2015-08-17T14:38:32Z</time>
      </trkpt>
      <trkpt lat="45.23145" lon="7.19181">
        <ele>1814.3</ele>
        <time>2015-08-17T14:38:58Z</time>
      </trkpt>
      <trkpt lat="45.23144" lon="7.19183">
        <ele>1814.32</ele>
        <time>2015-08-17T14:39:42Z</time>
      </trkpt>
      <trkpt lat="45.23144" lon="7.19183">
        <ele>1814.41</ele>
        <time>2015-08-17T14:40:28Z</time>
      </trkpt>
      <trkpt lat="45.23143" lon="7.19183">
        <ele>1814.43</ele>
        <time>2015-08-17T14:41:01Z</time>
      </trkpt>
      <trkpt lat="45.23143" lon="7.19183">
        <ele>1814.23</ele>
        <time>2015-08-17T14:41:30Z</time>
      </trkpt>
      <trkpt lat="45.23144" lon="7.19181">
        <ele>1814.26</ele>
        <time>2015-08-17T14:42:09Z</time>
      </trkpt>
      <trkpt lat="45.23144" lon="7.19181">
        <ele>1814.82</ele>
        <time>2015-08-17T14:42:33Z</time>
      </trkpt>
      <trkpt lat="45.23141" lon="7.19173">
        <ele>1814.93</ele>
        <time>2015-08-17T14:42:37Z</time>
      </trkpt>
      <trkpt lat="45.23129" lon="7.19156">
        <ele>1814.84</ele>
        <time>2015-08-17T14:42:48Z</time>
      </trkpt>
      <trkpt lat="45.2312" lon="7.19145">
        <ele>1814.88</ele>
        <time>2015-08-17T14:42:56Z</time>
      </trkpt>
      <trkpt lat="45.23113" lon="7.19135">
        <ele>1814.82</ele>
        <time>2015-08-17T14:43:04Z</time>
      </trkpt>
      <trkpt lat="45.23112" lon="7.19135">
        <ele>1814.79</ele>
        <time>2015-08-17T14:43:05Z</time>
      </trkpt>
      <trkpt lat="45.23107" lon="7.19127">
        <ele>1814.68</ele>
        <time>2015-08-17T14:43:11Z</time>
      </trkpt>
      <trkpt lat="45.23104" lon="7.19112">
        <ele>1814.67</ele>
        <time>2015-08-17T14:43:20Z</time>
      </trkpt>
      <trkpt lat="45.23099" lon="7.19094">
        <ele>1814.73</ele>
        <time>2015-08-17T14:43:31Z</time>
      </trkpt>
      <trkpt lat="45.23094" lon="7.19082">
        <ele>1814.73</ele>
        <time>2015-08-17T14:43:39Z</time>
      </trkpt>
      <trkpt lat="45.23089" lon="7.1907">
        <ele>1814.71</ele>
        <time>2015-08-17T14:43:48Z</time>
      </trkpt>
      <trkpt lat="45.23083" lon="7.19056">
        <ele>1814.58</ele>
        <time>2015-08-17T14:43:58Z</time>
      </trkpt>
      <trkpt lat="45.23078" lon="7.19044">
        <ele>1814.54</ele>
        <time>2015-08-17T14:44:06Z</time>
      </trkpt>
      <trkpt lat="45.23075" lon="7.19031">
        <ele>1814.52</ele>
        <time>2015-08-17T14:44:14Z</time>
      </trkpt>
      <trkpt lat="45.23072" lon="7.19018">
        <ele>1814.53</ele>
        <time>2015-08-17T14:44:22Z</time>
      </trkpt>
      <trkpt lat="45.23069" lon="7.19002">
        <ele>1814.53</ele>
        <time>2015-08-17T14:44:31Z</time>
      </trkpt>
      <trkpt lat="45.23067" lon="7.18994">
        <ele>1814.29</ele>
        <time>2015-08-17T14:44:39Z</time>
      </trkpt>
      <trkpt lat="45.23064" lon="7.1899">
        <ele>1814.11</ele>
        <time>2015-08-17T14:44:45Z</time>
      </trkpt>
      <trkpt lat="45.23062" lon="7.18984">
        <ele>1814.01</ele>
        <time>2015-08-17T14:44:51Z</time>
      </trkpt>
      <trkpt lat="45.23057" lon="7.18973">
        <ele>1814.09</ele>
        <time>2015-08-17T14:44:59Z</time>
      </trkpt>
      <trkpt lat="45.23054" lon="7.18959">
        <ele>1814.18</ele>
        <time>2015-08-17T14:45:07Z</time>
      </trkpt>
      <trkpt lat="45.23049" lon="7.18943">
        <ele>1814.03</ele>
        <time>2015-08-17T14:45:16Z</time>
      </trkpt>
      <trkpt lat="45.23046" lon="7.18928">
        <ele>1814.09</ele>
        <time>2015-08-17T14:45:25Z</time>
      </trkpt>
      <trkpt lat="45.23042" lon="7.18913">
        <ele>1814.45</ele>
        <time>2015-08-17T14:45:34Z</time>
      </trkpt>
      <trkpt lat="45.2304" lon="7.18899">
        <ele>1814.3</ele>
        <time>2015-08-17T14:45:42Z</time>
      </trkpt>
      <trkpt lat="45.23038" lon="7.18884">
        <ele>1814.13</ele>
        <time>2015-08-17T14:45:51Z</time>
      </trkpt>
      <trkpt lat="45.23037" lon="7.18873">
        <ele>1813.94</ele>
        <time>2015-08-17T14:45:58Z</time>
      </trkpt>
      <trkpt lat="45.23034" lon="7.18859">
        <ele>1814.06</ele>
        <time>2015-08-17T14:46:07Z</time>
      </trkpt>
      <trkpt lat="45.23031" lon="7.18846">
        <ele>1814.19</ele>
        <time>2015-08-17T14:46:16Z</time>
      </trkpt>
      <trkpt lat="45.23026" lon="7.18833">
        <ele>1814.11</ele>
        <time>2015-08-17T14:46:26Z</time>
      </trkpt>
      <trkpt lat="45.23024" lon="7.18831">
        <ele>1813.95</ele>
        <time>2015-08-17T14:46:35Z</time>
      </trkpt>
      <trkpt lat="45.23023" lon="7.18833">
        <ele>1812.98</ele>
        <time>2015-08-17T14:46:46Z</time>
      </trkpt>
      <trkpt lat="45.23023" lon="7.18834">
        <ele>1812.86</ele>
        <time>2015-08-17T14:46:49Z</time>
      </trkpt>
      <trkpt lat="45.23019" lon="7.18846">
        <ele>1811.66</ele>
        <time>2015-08-17T14:46:55Z</time>
      </trkpt>
      <trkpt lat="45.23019" lon="7.18852">
        <ele>1810.22</ele>
        <time>2015-08-17T14:46:58Z</time>
      </trkpt>
      <trkpt lat="45.23016" lon="7.18862">
        <ele>1806.77</ele>
        <time>2015-08-17T14:47:04Z</time>
      </trkpt>
      <trkpt lat="45.23016" lon="7.18864">
        <ele>1806.77</ele>
        <time>2015-08-17T14:47:05Z</time>
      </trkpt>
      <trkpt lat="45.23015" lon="7.18868">
        <ele>1804.63</ele>
        <time>2015-08-17T14:47:08Z</time>
      </trkpt>
      <trkpt lat="45.23015" lon="7.18875">
        <ele>1801.27</ele>
        <time>2015-08-17T14:47:14Z</time>
      </trkpt>
      <trkpt lat="45.23013" lon="7.18876">
        <ele>1799.72</ele>
        <time>2015-08-17T14:47:18Z</time>
      </trkpt>
      <trkpt lat="45.23005" lon="7.18874">
        <ele>1797.63</ele>
        <time>2015-08-17T14:47:24Z</time>
      </trkpt>
      <trkpt lat="45.22998" lon="7.1888">
        <ele>1795.15</ele>
        <time>2015-08-17T14:47:29Z</time>
      </trkpt>
      <trkpt lat="45.22993" lon="7.18886">
        <ele>1792.62</ele>
        <time>2015-08-17T14:47:32Z</time>
      </trkpt>
      <trkpt lat="45.22989" lon="7.18889">
        <ele>1791.35</ele>
        <time>2015-08-17T14:47:34Z</time>
      </trkpt>
      <trkpt lat="45.22979" lon="7.18911">
        <ele>1787.39</ele>
        <time>2015-08-17T14:47:39Z</time>
      </trkpt>
      <trkpt lat="45.22977" lon="7.18916">
        <ele>1786.61</ele>
        <time>2015-08-17T14:47:40Z</time>
      </trkpt>
      <trkpt lat="45.22973" lon="7.18925">
        <ele>1784.96</ele>
        <time>2015-08-17T14:47:42Z</time>
      </trkpt>
      <trkpt lat="45.22973" lon="7.18937">
        <ele>1781.01</ele>
        <time>2015-08-17T14:47:47Z</time>
      </trkpt>
      <trkpt lat="45.22974" lon="7.18949">
        <ele>1778.27</ele>
        <time>2015-08-17T14:47:52Z</time>
      </trkpt>
      <trkpt lat="45.22974" lon="7.18958">
        <ele>1775.58</ele>
        <time>2015-08-17T14:47:56Z</time>
      </trkpt>
      <trkpt lat="45.22961" lon="7.18962">
        <ele>1772.33</ele>
        <time>2015-08-17T14:48:02Z</time>
      </trkpt>
      <trkpt lat="45.2295" lon="7.18982">
        <ele>1769.29</ele>
        <time>2015-08-17T14:48:07Z</time>
      </trkpt>
      <trkpt lat="45.22947" lon="7.18996">
        <ele>1767.51</ele>
        <time>2015-08-17T14:48:11Z</time>
      </trkpt>
      <trkpt lat="45.22942" lon="7.19008">
        <ele>1766.31</ele>
        <time>2015-08-17T14:48:14Z</time>
      </trkpt>
      <trkpt lat="45.22931" lon="7.19025">
        <ele>1763.06</ele>
        <time>2015-08-17T14:48:20Z</time>
      </trkpt>
      <trkpt lat="45.22932" lon="7.19023">
        <ele>1761.03</ele>
        <time>2015-08-17T14:48:42Z</time>
      </trkpt>
      <trkpt lat="45.22932" lon="7.19023">
        <ele>1760.96</ele>
        <time>2015-08-17T14:49:17Z</time>
      </trkpt>
      <trkpt lat="45.22932" lon="7.19025">
        <ele>1760.91</ele>
        <time>2015-08-17T14:49:19Z</time>
      </trkpt>
      <trkpt lat="45.22929" lon="7.1903">
        <ele>1760.75</ele>
        <time>2015-08-17T14:49:22Z</time>
      </trkpt>
      <trkpt lat="45.22925" lon="7.19037">
        <ele>1760.41</ele>
        <time>2015-08-17T14:49:25Z</time>
      </trkpt>
      <trkpt lat="45.22909" lon="7.19038">
        <ele>1759.03</ele>
        <time>2015-08-17T14:49:31Z</time>
      </trkpt>
      <trkpt lat="45.22903" lon="7.19038">
        <ele>1757.44</ele>
        <time>2015-08-17T14:49:34Z</time>
      </trkpt>
      <trkpt lat="45.22899" lon="7.19038">
        <ele>1755.09</ele>
        <time>2015-08-17T14:49:40Z</time>
      </trkpt>
      <trkpt lat="45.22893" lon="7.19038">
        <ele>1753.68</ele>
        <time>2015-08-17T14:49:44Z</time>
      </trkpt>
      <trkpt lat="45.2289" lon="7.19039">
        <ele>1752.92</ele>
        <time>2015-08-17T14:49:46Z</time>
      </trkpt>
      <trkpt lat="45.22878" lon="7.19039">
        <ele>1750.25</ele>
        <time>2015-08-17T14:49:52Z</time>
      </trkpt>
      <trkpt lat="45.22867" lon="7.19037">
        <ele>1747.76</ele>
        <time>2015-08-17T14:49:56Z</time>
      </trkpt>
      <trkpt lat="45.22854" lon="7.19026">
        <ele>1743.89</ele>
        <time>2015-08-17T14:50:00Z</time>
      </trkpt>
      <trkpt lat="45.22846" lon="7.19024">
        <ele>1742.32</ele>
        <time>2015-08-17T14:50:02Z</time>
      </trkpt>
      <trkpt lat="45.22834" lon="7.19029">
        <ele>1739.28</ele>
        <time>2015-08-17T14:50:06Z</time>
      </trkpt>
      <trkpt lat="45.22816" lon="7.19038">
        <ele>1735.55</ele>
        <time>2015-08-17T14:50:12Z</time>
      </trkpt>
      <trkpt lat="45.22803" lon="7.19048">
        <ele>1732.17</ele>
        <time>2015-08-17T14:50:17Z</time>
      </trkpt>
      <trkpt lat="45.22796" lon="7.19049">
        <ele>1728.07</ele>
        <time>2015-08-17T14:50:22Z</time>
      </trkpt>
      <trkpt lat="45.22796" lon="7.19049">
        <ele>1728.07</ele>
        <time>2015-08-17T14:50:23Z</time>
      </trkpt>
      <trkpt lat="45.22795" lon="7.19048">
        <ele>1724.75</ele>
        <time>2015-08-17T14:50:28Z</time>
      </trkpt>
      <trkpt lat="45.22794" lon="7.19047">
        <ele>1723.41</ele>
        <time>2015-08-17T14:50:35Z</time>
      </trkpt>
      <trkpt lat="45.22784" lon="7.19037">
        <ele>1722.99</ele>
        <time>2015-08-17T14:50:40Z</time>
      </trkpt>
      <trkpt lat="45.22767" lon="7.19035">
        <ele>1720.57</ele>
        <time>2015-08-17T14:50:47Z</time>
      </trkpt>
      <trkpt lat="45.22754" lon="7.19039">
        <ele>1717.6</ele>
        <time>2015-08-17T14:50:53Z</time>
      </trkpt>
      <trkpt lat="45.22746" lon="7.19038">
        <ele>1714.78</ele>
        <time>2015-08-17T14:50:58Z</time>
      </trkpt>
      <trkpt lat="45.22741" lon="7.19036">
        <ele>1713.49</ele>
        <time>2015-08-17T14:51:00Z</time>
      </trkpt>
      <trkpt lat="45.22722" lon="7.19042">
        <ele>1709.37</ele>
        <time>2015-08-17T14:51:06Z</time>
      </trkpt>
      <trkpt lat="45.22712" lon="7.19055">
        <ele>1705.67</ele>
        <time>2015-08-17T14:51:12Z</time>
      </trkpt>
      <trkpt lat="45.22711" lon="7.19057">
        <ele>1704.86</ele>
        <time>2015-08-17T14:51:13Z</time>
      </trkpt>
      <trkpt lat="45.22706" lon="7.19057">
        <ele>1702.46</ele>
        <time>2015-08-17T14:51:19Z</time>
      </trkpt>
      <trkpt lat="45.22703" lon="7.19056">
        <ele>1701.06</ele>
        <time>2015-08-17T14:51:24Z</time>
      </trkpt>
      <trkpt lat="45.22698" lon="7.19053">
        <ele>1699.2</ele>
        <time>2015-08-17T14:51:31Z</time>
      </trkpt>
      <trkpt lat="45.22696" lon="7.19053">
        <ele>1698.58</ele>
        <time>2015-08-17T14:51:33Z</time>
      </trkpt>
      <trkpt lat="45.22694" lon="7.19053">
        <ele>1697.96</ele>
        <time>2015-08-17T14:51:35Z</time>
      </trkpt>
      <trkpt lat="45.22687" lon="7.19052">
        <ele>1695.26</ele>
        <time>2015-08-17T14:51:42Z</time>
      </trkpt>
      <trkpt lat="45.22683" lon="7.19052">
        <ele>1693.32</ele>
        <time>2015-08-17T14:51:47Z</time>
      </trkpt>
      <trkpt lat="45.22679" lon="7.19054">
        <ele>1691.98</ele>
        <time>2015-08-17T14:51:50Z</time>
      </trkpt>
      <trkpt lat="45.22669" lon="7.1905">
        <ele>1689.11</ele>
        <time>2015-08-17T14:51:56Z</time>
      </trkpt>
      <trkpt lat="45.22666" lon="7.19046">
        <ele>1688.19</ele>
        <time>2015-08-17T14:51:58Z</time>
      </trkpt>
      <trkpt lat="45.22654" lon="7.19037">
        <ele>1684.73</ele>
        <time>2015-08-17T14:52:04Z</time>
      </trkpt>
      <trkpt lat="45.22634" lon="7.19024">
        <ele>1680.93</ele>
        <time>2015-08-17T14:52:10Z</time>
      </trkpt>
      <trkpt lat="45.22632" lon="7.19022">
        <ele>1680.29</ele>
        <time>2015-08-17T14:52:11Z</time>
      </trkpt>
      <trkpt lat="45.22626" lon="7.19011">
        <ele>1677.24</ele>
        <time>2015-08-17T14:52:17Z</time>
      </trkpt>
      <trkpt lat="45.2262" lon="7.19003">
        <ele>1674.01</ele>
        <time>2015-08-17T14:52:25Z</time>
      </trkpt>
      <trkpt lat="45.22607" lon="7.1898">
        <ele>1670.52</ele>
        <time>2015-08-17T14:52:33Z</time>
      </trkpt>
      <trkpt lat="45.226" lon="7.18969">
        <ele>1668.81</ele>
        <time>2015-08-17T14:52:37Z</time>
      </trkpt>
      <trkpt lat="45.2259" lon="7.1897">
        <ele>1665.69</ele>
        <time>2015-08-17T14:52:44Z</time>
      </trkpt>
      <trkpt lat="45.22586" lon="7.18971">
        <ele>1663.95</ele>
        <time>2015-08-17T14:52:47Z</time>
      </trkpt>
      <trkpt lat="45.22584" lon="7.18977">
        <ele>1661.13</ele>
        <time>2015-08-17T14:52:51Z</time>
      </trkpt>
      <trkpt lat="45.22581" lon="7.18979">
        <ele>1659.42</ele>
        <time>2015-08-17T14:52:54Z</time>
      </trkpt>
      <trkpt lat="45.22578" lon="7.18978">
        <ele>1656.55</ele>
        <time>2015-08-17T14:53:01Z</time>
      </trkpt>
      <trkpt lat="45.22578" lon="7.18976">
        <ele>1655.22</ele>
        <time>2015-08-17T14:53:21Z</time>
      </trkpt>
      <trkpt lat="45.22576" lon="7.18977">
        <ele>1655.13</ele>
        <time>2015-08-17T14:53:43Z</time>
      </trkpt>
      <trkpt lat="45.22575" lon="7.18978">
        <ele>1654.58</ele>
        <time>2015-08-17T14:54:12Z</time>
      </trkpt>
      <trkpt lat="45.22573" lon="7.18981">
        <ele>1654.67</ele>
        <time>2015-08-17T14:54:44Z</time>
      </trkpt>
      <trkpt lat="45.22571" lon="7.18983">
        <ele>1654.57</ele>
        <time>2015-08-17T14:55:16Z</time>
      </trkpt>
      <trkpt lat="45.22572" lon="7.18979">
        <ele>1654.63</ele>
        <time>2015-08-17T14:55:46Z</time>
      </trkpt>
      <trkpt lat="45.22571" lon="7.18982">
        <ele>1654.75</ele>
        <time>2015-08-17T14:55:50Z</time>
      </trkpt>
      <trkpt lat="45.2257" lon="7.18984">
        <ele>1654.81</ele>
        <time>2015-08-17T14:55:52Z</time>
      </trkpt>
      <trkpt lat="45.2257" lon="7.18988">
        <ele>1654.57</ele>
        <time>2015-08-17T14:55:54Z</time>
      </trkpt>
      <trkpt lat="45.22571" lon="7.19">
        <ele>1653.55</ele>
        <time>2015-08-17T14:55:57Z</time>
      </trkpt>
      <trkpt lat="45.22567" lon="7.1901">
        <ele>1650.23</ele>
        <time>2015-08-17T14:56:02Z</time>
      </trkpt>
      <trkpt lat="45.22557" lon="7.18997">
        <ele>1646.25</ele>
        <time>2015-08-17T14:56:08Z</time>
      </trkpt>
      <trkpt lat="45.22555" lon="7.18994">
        <ele>1645.08</ele>
        <time>2015-08-17T14:56:10Z</time>
      </trkpt>
      <trkpt lat="45.2255" lon="7.18993">
        <ele>1643.38</ele>
        <time>2015-08-17T14:56:13Z</time>
      </trkpt>
      <trkpt lat="45.22544" lon="7.18994">
        <ele>1640.2</ele>
        <time>2015-08-17T14:56:18Z</time>
      </trkpt>
      <trkpt lat="45.22538" lon="7.18991">
        <ele>1637.02</ele>
        <time>2015-08-17T14:56:24Z</time>
      </trkpt>
      <trkpt lat="45.22532" lon="7.1899">
        <ele>1634.92</ele>
        <time>2015-08-17T14:56:33Z</time>
      </trkpt>
      <trkpt lat="45.22526" lon="7.18991">
        <ele>1633.9</ele>
        <time>2015-08-17T14:56:38Z</time>
      </trkpt>
      <trkpt lat="45.2252" lon="7.18994">
        <ele>1632.16</ele>
        <time>2015-08-17T14:56:45Z</time>
      </trkpt>
      <trkpt lat="45.22517" lon="7.18993">
        <ele>1631.74</ele>
        <time>2015-08-17T14:56:47Z</time>
      </trkpt>
      <trkpt lat="45.22494" lon="7.18992">
        <ele>1628.29</ele>
        <time>2015-08-17T14:56:55Z</time>
      </trkpt>
      <trkpt lat="45.2249" lon="7.18993">
        <ele>1627.08</ele>
        <time>2015-08-17T14:56:57Z</time>
      </trkpt>
      <trkpt lat="45.22486" lon="7.18992">
        <ele>1625.46</ele>
        <time>2015-08-17T14:57:00Z</time>
      </trkpt>
      <trkpt lat="45.22483" lon="7.18992">
        <ele>1623.86</ele>
        <time>2015-08-17T14:57:03Z</time>
      </trkpt>
      <trkpt lat="45.22481" lon="7.19004">
        <ele>1620.26</ele>
        <time>2015-08-17T14:57:09Z</time>
      </trkpt>
      <trkpt lat="45.22486" lon="7.1902">
        <ele>1616.7</ele>
        <time>2015-08-17T14:57:15Z</time>
      </trkpt>
      <trkpt lat="45.22493" lon="7.19035">
        <ele>1615.14</ele>
        <time>2015-08-17T14:57:18Z</time>
      </trkpt>
      <trkpt lat="45.22498" lon="7.19045">
        <ele>1613.09</ele>
        <time>2015-08-17T14:57:22Z</time>
      </trkpt>
      <trkpt lat="45.22501" lon="7.19054">
        <ele>1610</ele>
        <time>2015-08-17T14:57:28Z</time>
      </trkpt>
      <trkpt lat="45.22505" lon="7.19061">
        <ele>1608.52</ele>
        <time>2015-08-17T14:57:31Z</time>
      </trkpt>
      <trkpt lat="45.22509" lon="7.19078">
        <ele>1607.06</ele>
        <time>2015-08-17T14:57:35Z</time>
      </trkpt>
      <trkpt lat="45.22507" lon="7.19082">
        <ele>1604.01</ele>
        <time>2015-08-17T14:57:40Z</time>
      </trkpt>
      <trkpt lat="45.22508" lon="7.19084">
        <ele>1601</ele>
        <time>2015-08-17T14:57:59Z</time>
      </trkpt>
      <trkpt lat="45.22497" lon="7.19083">
        <ele>1600.74</ele>
        <time>2015-08-17T14:58:08Z</time>
      </trkpt>
      <trkpt lat="45.22489" lon="7.19079">
        <ele>1599.58</ele>
        <time>2015-08-17T14:58:12Z</time>
      </trkpt>
      <trkpt lat="45.22485" lon="7.19076">
        <ele>1598.17</ele>
        <time>2015-08-17T14:58:16Z</time>
      </trkpt>
      <trkpt lat="45.22468" lon="7.19064">
        <ele>1595.1</ele>
        <time>2015-08-17T14:58:23Z</time>
      </trkpt>
      <trkpt lat="45.22452" lon="7.19046">
        <ele>1591.81</ele>
        <time>2015-08-17T14:58:28Z</time>
      </trkpt>
      <trkpt lat="45.22437" lon="7.19032">
        <ele>1588.48</ele>
        <time>2015-08-17T14:58:33Z</time>
      </trkpt>
      <trkpt lat="45.22427" lon="7.19021">
        <ele>1585.5</ele>
        <time>2015-08-17T14:58:37Z</time>
      </trkpt>
      <trkpt lat="45.22423" lon="7.19015">
        <ele>1583.42</ele>
        <time>2015-08-17T14:58:40Z</time>
      </trkpt>
      <trkpt lat="45.22408" lon="7.19">
        <ele>1579.5</ele>
        <time>2015-08-17T14:58:47Z</time>
      </trkpt>
      <trkpt lat="45.224" lon="7.18998">
        <ele>1576.98</ele>
        <time>2015-08-17T14:58:51Z</time>
      </trkpt>
      <trkpt lat="45.22392" lon="7.1899">
        <ele>1573.22</ele>
        <time>2015-08-17T14:58:56Z</time>
      </trkpt>
      <trkpt lat="45.22384" lon="7.18988">
        <ele>1570.51</ele>
        <time>2015-08-17T14:59:01Z</time>
      </trkpt>
      <trkpt lat="45.22377" lon="7.18986">
        <ele>1568.45</ele>
        <time>2015-08-17T14:59:05Z</time>
      </trkpt>
      <trkpt lat="45.22367" lon="7.1898">
        <ele>1565.03</ele>
        <time>2015-08-17T14:59:11Z</time>
      </trkpt>
      <trkpt lat="45.22361" lon="7.18973">
        <ele>1563.56</ele>
        <time>2015-08-17T14:59:14Z</time>
      </trkpt>
      <trkpt lat="45.22344" lon="7.18961">
        <ele>1559.48</ele>
        <time>2015-08-17T14:59:20Z</time>
      </trkpt>
      <trkpt lat="45.22328" lon="7.18955">
        <ele>1556.35</ele>
        <time>2015-08-17T14:59:27Z</time>
      </trkpt>
      <trkpt lat="45.22327" lon="7.18955">
        <ele>1556</ele>
        <time>2015-08-17T14:59:28Z</time>
      </trkpt>
      <trkpt lat="45.2232" lon="7.18957">
        <ele>1554.99</ele>
        <time>2015-08-17T14:59:31Z</time>
      </trkpt>
      <trkpt lat="45.22315" lon="7.18955">
        <ele>1551.96</ele>
        <time>2015-08-17T14:59:38Z</time>
      </trkpt>
      <trkpt lat="45.22312" lon="7.18956">
        <ele>1549.48</ele>
        <time>2015-08-17T15:00:03Z</time>
      </trkpt>
      <trkpt lat="45.22312" lon="7.18953">
        <ele>1549.27</ele>
        <time>2015-08-17T15:00:10Z</time>
      </trkpt>
      <trkpt lat="45.22312" lon="7.18936">
        <ele>1548.23</ele>
        <time>2015-08-17T15:00:17Z</time>
      </trkpt>
      <trkpt lat="45.22315" lon="7.18932">
        <ele>1546.91</ele>
        <time>2015-08-17T15:00:22Z</time>
      </trkpt>
      <trkpt lat="45.22317" lon="7.18919">
        <ele>1545.84</ele>
        <time>2015-08-17T15:00:27Z</time>
      </trkpt>
      <trkpt lat="45.22315" lon="7.18914">
        <ele>1544.43</ele>
        <time>2015-08-17T15:00:30Z</time>
      </trkpt>
      <trkpt lat="45.22311" lon="7.18911">
        <ele>1541.77</ele>
        <time>2015-08-17T15:00:36Z</time>
      </trkpt>
      <trkpt lat="45.2231" lon="7.18909">
        <ele>1540.31</ele>
        <time>2015-08-17T15:00:39Z</time>
      </trkpt>
      <trkpt lat="45.22308" lon="7.18906">
        <ele>1539.35</ele>
        <time>2015-08-17T15:00:42Z</time>
      </trkpt>
      <trkpt lat="45.22304" lon="7.18899">
        <ele>1536.78</ele>
        <time>2015-08-17T15:00:50Z</time>
      </trkpt>
      <trkpt lat="45.22297" lon="7.18894">
        <ele>1534.83</ele>
        <time>2015-08-17T15:01:00Z</time>
      </trkpt>
      <trkpt lat="45.22296" lon="7.18893">
        <ele>1534.53</ele>
        <time>2015-08-17T15:01:01Z</time>
      </trkpt>
      <trkpt lat="45.22285" lon="7.18892">
        <ele>1531.64</ele>
        <time>2015-08-17T15:01:08Z</time>
      </trkpt>
      <trkpt lat="45.22281" lon="7.1889">
        <ele>1528.78</ele>
        <time>2015-08-17T15:01:14Z</time>
      </trkpt>
      <trkpt lat="45.22273" lon="7.18888">
        <ele>1527.07</ele>
        <time>2015-08-17T15:01:19Z</time>
      </trkpt>
      <trkpt lat="45.22273" lon="7.18891">
        <ele>1525.34</ele>
        <time>2015-08-17T15:01:24Z</time>
      </trkpt>
      <trkpt lat="45.22273" lon="7.18892">
        <ele>1523.91</ele>
        <time>2015-08-17T15:01:41Z</time>
      </trkpt>
      <trkpt lat="45.22271" lon="7.18892">
        <ele>1523.46</ele>
        <time>2015-08-17T15:02:17Z</time>
      </trkpt>
      <trkpt lat="45.2227" lon="7.18892">
        <ele>1523.23</ele>
        <time>2015-08-17T15:02:33Z</time>
      </trkpt>
      <trkpt lat="45.2227" lon="7.18892">
        <ele>1522.89</ele>
        <time>2015-08-17T15:02:48Z</time>
      </trkpt>
      <trkpt lat="45.22263" lon="7.18901">
        <ele>1522.59</ele>
        <time>2015-08-17T15:02:52Z</time>
      </trkpt>
      <trkpt lat="45.22255" lon="7.1891">
        <ele>1522.07</ele>
        <time>2015-08-17T15:02:55Z</time>
      </trkpt>
      <trkpt lat="45.22245" lon="7.189">
        <ele>1519.95</ele>
        <time>2015-08-17T15:03:00Z</time>
      </trkpt>
      <trkpt lat="45.22244" lon="7.18895">
        <ele>1519.57</ele>
        <time>2015-08-17T15:03:01Z</time>
      </trkpt>
      <trkpt lat="45.22241" lon="7.18879">
        <ele>1518.62</ele>
        <time>2015-08-17T15:03:04Z</time>
      </trkpt>
      <trkpt lat="45.22228" lon="7.18877">
        <ele>1516.57</ele>
        <time>2015-08-17T15:03:09Z</time>
      </trkpt>
      <trkpt lat="45.22225" lon="7.1888">
        <ele>1516.15</ele>
        <time>2015-08-17T15:03:10Z</time>
      </trkpt>
      <trkpt lat="45.22209" lon="7.18893">
        <ele>1512.85</ele>
        <time>2015-08-17T15:03:16Z</time>
      </trkpt>
      <trkpt lat="45.22204" lon="7.18902">
        <ele>1511.64</ele>
        <time>2015-08-17T15:03:18Z</time>
      </trkpt>
      <trkpt lat="45.22201" lon="7.18912">
        <ele>1510.6</ele>
        <time>2015-08-17T15:03:20Z</time>
      </trkpt>
      <trkpt lat="45.22195" lon="7.18943">
        <ele>1508.32</ele>
        <time>2015-08-17T15:03:24Z</time>
      </trkpt>
      <trkpt lat="45.22186" lon="7.18979">
        <ele>1506.02</ele>
        <time>2015-08-17T15:03:28Z</time>
      </trkpt>
      <trkpt lat="45.22178" lon="7.19009">
        <ele>1503.05</ele>
        <time>2015-08-17T15:03:32Z</time>
      </trkpt>
      <trkpt lat="45.22167" lon="7.19035">
        <ele>1499.58</ele>
        <time>2015-08-17T15:03:37Z</time>
      </trkpt>
      <trkpt lat="45.22161" lon="7.19039">
        <ele>1498.06</ele>
        <time>2015-08-17T15:03:39Z</time>
      </trkpt>
      <trkpt lat="45.22161" lon="7.19054">
        <ele>1495.11</ele>
        <time>2015-08-17T15:03:43Z</time>
      </trkpt>
      <trkpt lat="45.22171" lon="7.19073">
        <ele>1492.64</ele>
        <time>2015-08-17T15:03:47Z</time>
      </trkpt>
      <trkpt lat="45.22164" lon="7.19086">
        <ele>1490.87</ele>
        <time>2015-08-17T15:03:50Z</time>
      </trkpt>
      <trkpt lat="45.22145" lon="7.19088">
        <ele>1488.93</ele>
        <time>2015-08-17T15:03:53Z</time>
      </trkpt>
      <trkpt lat="45.22118" lon="7.19084">
        <ele>1486.14</ele>
        <time>2015-08-17T15:03:57Z</time>
      </trkpt>
      <trkpt lat="45.22093" lon="7.19078">
        <ele>1483.75</ele>
        <time>2015-08-17T15:04:01Z</time>
      </trkpt>
      <trkpt lat="45.2208" lon="7.19078">
        <ele>1482.32</ele>
        <time>2015-08-17T15:04:03Z</time>
      </trkpt>
      <trkpt lat="45.22054" lon="7.19067">
        <ele>1478.84</ele>
        <time>2015-08-17T15:04:08Z</time>
      </trkpt>
      <trkpt lat="45.22043" lon="7.19048">
        <ele>1476.19</ele>
        <time>2015-08-17T15:04:12Z</time>
      </trkpt>
      <trkpt lat="45.22038" lon="7.19036">
        <ele>1475.03</ele>
        <time>2015-08-17T15:04:14Z</time>
      </trkpt>
      <trkpt lat="45.22037" lon="7.19013">
        <ele>1472.98</ele>
        <time>2015-08-17T15:04:19Z</time>
      </trkpt>
      <trkpt lat="45.22039" lon="7.19011">
        <ele>1472.24</ele>
        <time>2015-08-17T15:04:20Z</time>
      </trkpt>
      <trkpt lat="45.22052" lon="7.18995">
        <ele>1471.53</ele>
        <time>2015-08-17T15:04:28Z</time>
      </trkpt>
      <trkpt lat="45.22053" lon="7.18992">
        <ele>1471.54</ele>
        <time>2015-08-17T15:04:29Z</time>
      </trkpt>
      <trkpt lat="45.22059" lon="7.18961">
        <ele>1472.42</ele>
        <time>2015-08-17T15:04:37Z</time>
      </trkpt>
      <trkpt lat="45.22068" lon="7.18947">
        <ele>1472.56</ele>
        <time>2015-08-17T15:04:41Z</time>
      </trkpt>
      <trkpt lat="45.22062" lon="7.18929">
        <ele>1470.93</ele>
        <time>2015-08-17T15:04:47Z</time>
      </trkpt>
      <trkpt lat="45.22051" lon="7.18922">
        <ele>1470.64</ele>
        <time>2015-08-17T15:04:52Z</time>
      </trkpt>
      <trkpt lat="45.22037" lon="7.18908">
        <ele>1470.83</ele>
        <time>2015-08-17T15:04:57Z</time>
      </trkpt>
      <trkpt lat="45.22022" lon="7.18885">
        <ele>1470.21</ele>
        <time>2015-08-17T15:05:01Z</time>
      </trkpt>
      <trkpt lat="45.22006" lon="7.18866">
        <ele>1468.24</ele>
        <time>2015-08-17T15:05:05Z</time>
      </trkpt>
      <trkpt lat="45.22002" lon="7.18864">
        <ele>1467.61</ele>
        <time>2015-08-17T15:05:06Z</time>
      </trkpt>
      <trkpt lat="45.21999" lon="7.18862">
        <ele>1466.99</ele>
        <time>2015-08-17T15:05:07Z</time>
      </trkpt>
      <trkpt lat="45.21995" lon="7.18861">
        <ele>1466.36</ele>
        <time>2015-08-17T15:05:08Z</time>
      </trkpt>
      <trkpt lat="45.21992" lon="7.1886">
        <ele>1465.71</ele>
        <time>2015-08-17T15:05:09Z</time>
      </trkpt>
      <trkpt lat="45.2199" lon="7.18859">
        <ele>1465.03</ele>
        <time>2015-08-17T15:05:10Z</time>
      </trkpt>
      <trkpt lat="45.21989" lon="7.18859">
        <ele>1464.31</ele>
        <time>2015-08-17T15:05:11Z</time>
      </trkpt>
      <trkpt lat="45.21989" lon="7.18862">
        <ele>1462.88</ele>
        <time>2015-08-17T15:05:12Z</time>
      </trkpt>
      <trkpt lat="45.21997" lon="7.18885">
        <ele>1460.53</ele>
        <time>2015-08-17T15:05:18Z</time>
      </trkpt>
      <trkpt lat="45.21997" lon="7.18896">
        <ele>1460.01</ele>
        <time>2015-08-17T15:05:20Z</time>
      </trkpt>
      <trkpt lat="45.21993" lon="7.18909">
        <ele>1459.53</ele>
        <time>2015-08-17T15:05:22Z</time>
      </trkpt>
      <trkpt lat="45.21991" lon="7.18916">
        <ele>1459.32</ele>
        <time>2015-08-17T15:05:23Z</time>
      </trkpt>
      <trkpt lat="45.21988" lon="7.18922">
        <ele>1459.12</ele>
        <time>2015-08-17T15:05:24Z</time>
      </trkpt>
      <trkpt lat="45.21986" lon="7.18928">
        <ele>1458.93</ele>
        <time>2015-08-17T15:05:25Z</time>
      </trkpt>
      <trkpt lat="45.21983" lon="7.18933">
        <ele>1458.76</ele>
        <time>2015-08-17T15:05:26Z</time>
      </trkpt>
      <trkpt lat="45.21968" lon="7.18942">
        <ele>1457.42</ele>
        <time>2015-08-17T15:05:31Z</time>
      </trkpt>
      <trkpt lat="45.21966" lon="7.18941">
        <ele>1457.12</ele>
        <time>2015-08-17T15:05:32Z</time>
      </trkpt>
      <trkpt lat="45.21963" lon="7.18938">
        <ele>1456.81</ele>
        <time>2015-08-17T15:05:33Z</time>
      </trkpt>
      <trkpt lat="45.21961" lon="7.18934">
        <ele>1456.5</ele>
        <time>2015-08-17T15:05:34Z</time>
      </trkpt>
      <trkpt lat="45.2196" lon="7.18928">
        <ele>1456.14</ele>
        <time>2015-08-17T15:05:35Z</time>
      </trkpt>
      <trkpt lat="45.2196" lon="7.18922">
        <ele>1455.29</ele>
        <time>2015-08-17T15:05:36Z</time>
      </trkpt>
      <trkpt lat="45.2196" lon="7.18915">
        <ele>1454.83</ele>
        <time>2015-08-17T15:05:37Z</time>
      </trkpt>
      <trkpt lat="45.21959" lon="7.18907">
        <ele>1454.32</ele>
        <time>2015-08-17T15:05:38Z</time>
      </trkpt>
      <trkpt lat="45.21957" lon="7.18899">
        <ele>1453.77</ele>
        <time>2015-08-17T15:05:39Z</time>
      </trkpt>
      <trkpt lat="45.21954" lon="7.18893">
        <ele>1453.21</ele>
        <time>2015-08-17T15:05:40Z</time>
      </trkpt>
      <trkpt lat="45.21948" lon="7.1888">
        <ele>1452.04</ele>
        <time>2015-08-17T15:05:42Z</time>
      </trkpt>
      <trkpt lat="45.21945" lon="7.18876">
        <ele>1451.47</ele>
        <time>2015-08-17T15:05:43Z</time>
      </trkpt>
      <trkpt lat="45.2194" lon="7.18873">
        <ele>1450.87</ele>
        <time>2015-08-17T15:05:44Z</time>
      </trkpt>
      <trkpt lat="45.21936" lon="7.18872">
        <ele>1450.26</ele>
        <time>2015-08-17T15:05:45Z</time>
      </trkpt>
      <trkpt lat="45.2193" lon="7.18874">
        <ele>1449.66</ele>
        <time>2015-08-17T15:05:46Z</time>
      </trkpt>
      <trkpt lat="45.21925" lon="7.18876">
        <ele>1449.03</ele>
        <time>2015-08-17T15:05:47Z</time>
      </trkpt>
      <trkpt lat="45.21921" lon="7.18881">
        <ele>1448.41</ele>
        <time>2015-08-17T15:05:48Z</time>
      </trkpt>
      <trkpt lat="45.21917" lon="7.18886">
        <ele>1447.81</ele>
        <time>2015-08-17T15:05:49Z</time>
      </trkpt>
      <trkpt lat="45.21913" lon="7.18892">
        <ele>1447.22</ele>
        <time>2015-08-17T15:05:50Z</time>
      </trkpt>
      <trkpt lat="45.2191" lon="7.18899">
        <ele>1446.65</ele>
        <time>2015-08-17T15:05:51Z</time>
      </trkpt>
      <trkpt lat="45.21906" lon="7.18906">
        <ele>1446.08</ele>
        <time>2015-08-17T15:05:52Z</time>
      </trkpt>
      <trkpt lat="45.21902" lon="7.18912">
        <ele>1445.52</ele>
        <time>2015-08-17T15:05:53Z</time>
      </trkpt>
      <trkpt lat="45.21897" lon="7.18925">
        <ele>1444.52</ele>
        <time>2015-08-17T15:05:55Z</time>
      </trkpt>
      <trkpt lat="45.21895" lon="7.18931">
        <ele>1444.09</ele>
        <time>2015-08-17T15:05:56Z</time>
      </trkpt>
      <trkpt lat="45.21893" lon="7.18938">
        <ele>1443.71</ele>
        <time>2015-08-17T15:05:57Z</time>
      </trkpt>
      <trkpt lat="45.21892" lon="7.18945">
        <ele>1443.39</ele>
        <time>2015-08-17T15:05:58Z</time>
      </trkpt>
      <trkpt lat="45.21891" lon="7.18951">
        <ele>1443.12</ele>
        <time>2015-08-17T15:05:59Z</time>
      </trkpt>
      <trkpt lat="45.2189" lon="7.18957">
        <ele>1442.87</ele>
        <time>2015-08-17T15:06:00Z</time>
      </trkpt>
      <trkpt lat="45.21885" lon="7.18995">
        <ele>1442.03</ele>
        <time>2015-08-17T15:06:07Z</time>
      </trkpt>
      <trkpt lat="45.21889" lon="7.19037">
        <ele>1441.87</ele>
        <time>2015-08-17T15:06:15Z</time>
      </trkpt>
      <trkpt lat="45.21897" lon="7.19063">
        <ele>1442.41</ele>
        <time>2015-08-17T15:06:22Z</time>
      </trkpt>
      <trkpt lat="45.21896" lon="7.1907">
        <ele>1442.66</ele>
        <time>2015-08-17T15:06:24Z</time>
      </trkpt>
      <trkpt lat="45.21895" lon="7.19073">
        <ele>1442.79</ele>
        <time>2015-08-17T15:06:25Z</time>
      </trkpt>
      <trkpt lat="45.21893" lon="7.19075">
        <ele>1443.08</ele>
        <time>2015-08-17T15:06:27Z</time>
      </trkpt>
      <trkpt lat="45.21892" lon="7.19076">
        <ele>1443.14</ele>
        <time>2015-08-17T15:06:28Z</time>
      </trkpt>
      <trkpt lat="45.21891" lon="7.19078">
        <ele>1443.17</ele>
        <time>2015-08-17T15:06:29Z</time>
      </trkpt>
      <trkpt lat="45.2189" lon="7.19081">
        <ele>1443.17</ele>
        <time>2015-08-17T15:06:30Z</time>
      </trkpt>
      <trkpt lat="45.21889" lon="7.19084">
        <ele>1443.15</ele>
        <time>2015-08-17T15:06:31Z</time>
      </trkpt>
      <trkpt lat="45.2189" lon="7.1909">
        <ele>1443.14</ele>
        <time>2015-08-17T15:06:32Z</time>
      </trkpt>
      <trkpt lat="45.21893" lon="7.19107">
        <ele>1443.07</ele>
        <time>2015-08-17T15:06:35Z</time>
      </trkpt>
      <trkpt lat="45.21897" lon="7.19118">
        <ele>1442.94</ele>
        <time>2015-08-17T15:06:37Z</time>
      </trkpt>
      <trkpt lat="45.21899" lon="7.19125">
        <ele>1442.8</ele>
        <time>2015-08-17T15:06:38Z</time>
      </trkpt>
      <trkpt lat="45.21902" lon="7.19139">
        <ele>1442.44</ele>
        <time>2015-08-17T15:06:40Z</time>
      </trkpt>
      <trkpt lat="45.21914" lon="7.19177">
        <ele>1441.15</ele>
        <time>2015-08-17T15:06:45Z</time>
      </trkpt>
      <trkpt lat="45.21918" lon="7.19186">
        <ele>1440.85</ele>
        <time>2015-08-17T15:06:46Z</time>
      </trkpt>
      <trkpt lat="45.21922" lon="7.19194">
        <ele>1440.55</ele>
        <time>2015-08-17T15:06:47Z</time>
      </trkpt>
      <trkpt lat="45.21929" lon="7.19202">
        <ele>1440.26</ele>
        <time>2015-08-17T15:06:48Z</time>
      </trkpt>
      <trkpt lat="45.21935" lon="7.19208">
        <ele>1439.97</ele>
        <time>2015-08-17T15:06:49Z</time>
      </trkpt>
      <trkpt lat="45.21942" lon="7.19214">
        <ele>1439.32</ele>
        <time>2015-08-17T15:06:50Z</time>
      </trkpt>
      <trkpt lat="45.2195" lon="7.19219">
        <ele>1438.97</ele>
        <time>2015-08-17T15:06:51Z</time>
      </trkpt>
      <trkpt lat="45.21972" lon="7.19234">
        <ele>1437.68</ele>
        <time>2015-08-17T15:06:54Z</time>
      </trkpt>
      <trkpt lat="45.21977" lon="7.19241">
        <ele>1437.22</ele>
        <time>2015-08-17T15:06:55Z</time>
      </trkpt>
      <trkpt lat="45.21979" lon="7.19248">
        <ele>1436.79</ele>
        <time>2015-08-17T15:06:56Z</time>
      </trkpt>
      <trkpt lat="45.21979" lon="7.19256">
        <ele>1436.33</ele>
        <time>2015-08-17T15:06:57Z</time>
      </trkpt>
      <trkpt lat="45.21976" lon="7.19266">
        <ele>1435.84</ele>
        <time>2015-08-17T15:06:58Z</time>
      </trkpt>
      <trkpt lat="45.21972" lon="7.19275">
        <ele>1435.37</ele>
        <time>2015-08-17T15:06:59Z</time>
      </trkpt>
      <trkpt lat="45.21966" lon="7.19294">
        <ele>1434.51</ele>
        <time>2015-08-17T15:07:01Z</time>
      </trkpt>
      <trkpt lat="45.21965" lon="7.19304">
        <ele>1434.12</ele>
        <time>2015-08-17T15:07:02Z</time>
      </trkpt>
      <trkpt lat="45.21966" lon="7.19315">
        <ele>1433.76</ele>
        <time>2015-08-17T15:07:03Z</time>
      </trkpt>
      <trkpt lat="45.21967" lon="7.19327">
        <ele>1433.39</ele>
        <time>2015-08-17T15:07:04Z</time>
      </trkpt>
      <trkpt lat="45.21968" lon="7.19339">
        <ele>1433.04</ele>
        <time>2015-08-17T15:07:05Z</time>
      </trkpt>
      <trkpt lat="45.21976" lon="7.19376">
        <ele>1431.92</ele>
        <time>2015-08-17T15:07:08Z</time>
      </trkpt>
      <trkpt lat="45.21981" lon="7.19388">
        <ele>1431.46</ele>
        <time>2015-08-17T15:07:09Z</time>
      </trkpt>
      <trkpt lat="45.21986" lon="7.19398">
        <ele>1431</ele>
        <time>2015-08-17T15:07:10Z</time>
      </trkpt>
      <trkpt lat="45.21992" lon="7.19407">
        <ele>1430.55</ele>
        <time>2015-08-17T15:07:11Z</time>
      </trkpt>
      <trkpt lat="45.21998" lon="7.19416">
        <ele>1430.07</ele>
        <time>2015-08-17T15:07:12Z</time>
      </trkpt>
      <trkpt lat="45.22017" lon="7.19437">
        <ele>1428.41</ele>
        <time>2015-08-17T15:07:15Z</time>
      </trkpt>
      <trkpt lat="45.22024" lon="7.19438">
        <ele>1427.04</ele>
        <time>2015-08-17T15:07:16Z</time>
      </trkpt>
      <trkpt lat="45.22032" lon="7.19438">
        <ele>1426.25</ele>
        <time>2015-08-17T15:07:17Z</time>
      </trkpt>
      <trkpt lat="45.22039" lon="7.19435">
        <ele>1425.5</ele>
        <time>2015-08-17T15:07:18Z</time>
      </trkpt>
      <trkpt lat="45.22047" lon="7.1943">
        <ele>1424.85</ele>
        <time>2015-08-17T15:07:19Z</time>
      </trkpt>
      <trkpt lat="45.22054" lon="7.19425">
        <ele>1424.26</ele>
        <time>2015-08-17T15:07:20Z</time>
      </trkpt>
      <trkpt lat="45.22062" lon="7.19419">
        <ele>1423.66</ele>
        <time>2015-08-17T15:07:21Z</time>
      </trkpt>
      <trkpt lat="45.22077" lon="7.19411">
        <ele>1422.43</ele>
        <time>2015-08-17T15:07:23Z</time>
      </trkpt>
      <trkpt lat="45.22085" lon="7.19412">
        <ele>1421.84</ele>
        <time>2015-08-17T15:07:24Z</time>
      </trkpt>
      <trkpt lat="45.22093" lon="7.19418">
        <ele>1421.26</ele>
        <time>2015-08-17T15:07:25Z</time>
      </trkpt>
      <trkpt lat="45.221" lon="7.19427">
        <ele>1420.62</ele>
        <time>2015-08-17T15:07:26Z</time>
      </trkpt>
      <trkpt lat="45.22106" lon="7.19435">
        <ele>1419.93</ele>
        <time>2015-08-17T15:07:27Z</time>
      </trkpt>
      <trkpt lat="45.22113" lon="7.19442">
        <ele>1419.22</ele>
        <time>2015-08-17T15:07:28Z</time>
      </trkpt>
      <trkpt lat="45.2212" lon="7.19449">
        <ele>1418.5</ele>
        <time>2015-08-17T15:07:29Z</time>
      </trkpt>
      <trkpt lat="45.22125" lon="7.19456">
        <ele>1417.76</ele>
        <time>2015-08-17T15:07:30Z</time>
      </trkpt>
      <trkpt lat="45.22131" lon="7.19464">
        <ele>1416.98</ele>
        <time>2015-08-17T15:07:31Z</time>
      </trkpt>
      <trkpt lat="45.22136" lon="7.19472">
        <ele>1416.16</ele>
        <time>2015-08-17T15:07:32Z</time>
      </trkpt>
      <trkpt lat="45.22151" lon="7.19494">
        <ele>1413.54</ele>
        <time>2015-08-17T15:07:35Z</time>
      </trkpt>
      <trkpt lat="45.22156" lon="7.19499">
        <ele>1412.77</ele>
        <time>2015-08-17T15:07:36Z</time>
      </trkpt>
      <trkpt lat="45.22162" lon="7.19502">
        <ele>1412.07</ele>
        <time>2015-08-17T15:07:37Z</time>
      </trkpt>
      <trkpt lat="45.22167" lon="7.19504">
        <ele>1411.41</ele>
        <time>2015-08-17T15:07:38Z</time>
      </trkpt>
      <trkpt lat="45.22173" lon="7.19506">
        <ele>1410.76</ele>
        <time>2015-08-17T15:07:39Z</time>
      </trkpt>
      <trkpt lat="45.2218" lon="7.19508">
        <ele>1409.53</ele>
        <time>2015-08-17T15:07:40Z</time>
      </trkpt>
      <trkpt lat="45.22186" lon="7.19512">
        <ele>1408.99</ele>
        <time>2015-08-17T15:07:41Z</time>
      </trkpt>
      <trkpt lat="45.22193" lon="7.19517">
        <ele>1408.49</ele>
        <time>2015-08-17T15:07:42Z</time>
      </trkpt>
      <trkpt lat="45.22237" lon="7.19559">
        <ele>1404.9</ele>
        <time>2015-08-17T15:07:48Z</time>
      </trkpt>
      <trkpt lat="45.22246" lon="7.19564">
        <ele>1404.34</ele>
        <time>2015-08-17T15:07:49Z</time>
      </trkpt>
      <trkpt lat="45.22255" lon="7.19567">
        <ele>1403.83</ele>
        <time>2015-08-17T15:07:50Z</time>
      </trkpt>
      <trkpt lat="45.22265" lon="7.1957">
        <ele>1403.33</ele>
        <time>2015-08-17T15:07:51Z</time>
      </trkpt>
      <trkpt lat="45.22276" lon="7.19571">
        <ele>1402.85</ele>
        <time>2015-08-17T15:07:52Z</time>
      </trkpt>
      <trkpt lat="45.22286" lon="7.19574">
        <ele>1402.3</ele>
        <time>2015-08-17T15:07:53Z</time>
      </trkpt>
      <trkpt lat="45.22297" lon="7.19578">
        <ele>1401.68</ele>
        <time>2015-08-17T15:07:54Z</time>
      </trkpt>
      <trkpt lat="45.22307" lon="7.19585">
        <ele>1401.02</ele>
        <time>2015-08-17T15:07:55Z</time>
      </trkpt>
      <trkpt lat="45.22316" lon="7.19593">
        <ele>1400.39</ele>
        <time>2015-08-17T15:07:56Z</time>
      </trkpt>
      <trkpt lat="45.22325" lon="7.19603">
        <ele>1399.81</ele>
        <time>2015-08-17T15:07:57Z</time>
      </trkpt>
      <trkpt lat="45.22333" lon="7.19614">
        <ele>1399.23</ele>
        <time>2015-08-17T15:07:58Z</time>
      </trkpt>
      <trkpt lat="45.22341" lon="7.19625">
        <ele>1398.6</ele>
        <time>2015-08-17T15:07:59Z</time>
      </trkpt>
      <trkpt lat="45.22358" lon="7.19646">
        <ele>1397.32</ele>
        <time>2015-08-17T15:08:01Z</time>
      </trkpt>
      <trkpt lat="45.22368" lon="7.19655">
        <ele>1396.71</ele>
        <time>2015-08-17T15:08:02Z</time>
      </trkpt>
      <trkpt lat="45.2241" lon="7.19688">
        <ele>1393.21</ele>
        <time>2015-08-17T15:08:06Z</time>
      </trkpt>
      <trkpt lat="45.22455" lon="7.19725">
        <ele>1389.89</ele>
        <time>2015-08-17T15:08:10Z</time>
      </trkpt>
      <trkpt lat="45.22493" lon="7.19766">
        <ele>1385.87</ele>
        <time>2015-08-17T15:08:14Z</time>
      </trkpt>
      <trkpt lat="45.22518" lon="7.19793">
        <ele>1382.44</ele>
        <time>2015-08-17T15:08:17Z</time>
      </trkpt>
      <trkpt lat="45.22528" lon="7.19799">
        <ele>1381.24</ele>
        <time>2015-08-17T15:08:18Z</time>
      </trkpt>
      <trkpt lat="45.22561" lon="7.19818">
        <ele>1377.72</ele>
        <time>2015-08-17T15:08:21Z</time>
      </trkpt>
      <trkpt lat="45.22571" lon="7.19826">
        <ele>1376.66</ele>
        <time>2015-08-17T15:08:22Z</time>
      </trkpt>
      <trkpt lat="45.22582" lon="7.19836">
        <ele>1375.66</ele>
        <time>2015-08-17T15:08:23Z</time>
      </trkpt>
      <trkpt lat="45.22624" lon="7.19873">
        <ele>1371.9</ele>
        <time>2015-08-17T15:08:27Z</time>
      </trkpt>
      <trkpt lat="45.22647" lon="7.19887">
        <ele>1370.24</ele>
        <time>2015-08-17T15:08:29Z</time>
      </trkpt>
      <trkpt lat="45.22669" lon="7.19904">
        <ele>1367.6</ele>
        <time>2015-08-17T15:08:31Z</time>
      </trkpt>
      <trkpt lat="45.22679" lon="7.19916">
        <ele>1366.75</ele>
        <time>2015-08-17T15:08:32Z</time>
      </trkpt>
      <trkpt lat="45.22714" lon="7.19969">
        <ele>1363.3</ele>
        <time>2015-08-17T15:08:36Z</time>
      </trkpt>
      <trkpt lat="45.22723" lon="7.19981">
        <ele>1362.48</ele>
        <time>2015-08-17T15:08:37Z</time>
      </trkpt>
      <trkpt lat="45.22766" lon="7.20019">
        <ele>1359.08</ele>
        <time>2015-08-17T15:08:41Z</time>
      </trkpt>
      <trkpt lat="45.22777" lon="7.20026">
        <ele>1358.12</ele>
        <time>2015-08-17T15:08:42Z</time>
      </trkpt>
      <trkpt lat="45.22788" lon="7.20031">
        <ele>1357.16</ele>
        <time>2015-08-17T15:08:43Z</time>
      </trkpt>
      <trkpt lat="45.22823" lon="7.20045">
        <ele>1353.96</ele>
        <time>2015-08-17T15:08:46Z</time>
      </trkpt>
      <trkpt lat="45.22834" lon="7.20054">
        <ele>1352.92</ele>
        <time>2015-08-17T15:08:47Z</time>
      </trkpt>
      <trkpt lat="45.22845" lon="7.20065">
        <ele>1351.86</ele>
        <time>2015-08-17T15:08:48Z</time>
      </trkpt>
      <trkpt lat="45.22874" lon="7.20104">
        <ele>1348.56</ele>
        <time>2015-08-17T15:08:51Z</time>
      </trkpt>
      <trkpt lat="45.22904" lon="7.20141">
        <ele>1345.21</ele>
        <time>2015-08-17T15:08:54Z</time>
      </trkpt>
      <trkpt lat="45.2292" lon="7.20169">
        <ele>1342.38</ele>
        <time>2015-08-17T15:08:56Z</time>
      </trkpt>
      <trkpt lat="45.22925" lon="7.20184">
        <ele>1341.47</ele>
        <time>2015-08-17T15:08:57Z</time>
      </trkpt>
      <trkpt lat="45.22929" lon="7.202">
        <ele>1340.53</ele>
        <time>2015-08-17T15:08:58Z</time>
      </trkpt>
      <trkpt lat="45.22932" lon="7.20215">
        <ele>1339.63</ele>
        <time>2015-08-17T15:08:59Z</time>
      </trkpt>
      <trkpt lat="45.22936" lon="7.20231">
        <ele>1338.81</ele>
        <time>2015-08-17T15:09:00Z</time>
      </trkpt>
      <trkpt lat="45.22958" lon="7.2029">
        <ele>1335.42</ele>
        <time>2015-08-17T15:09:04Z</time>
      </trkpt>
      <trkpt lat="45.22965" lon="7.20303">
        <ele>1334.58</ele>
        <time>2015-08-17T15:09:05Z</time>
      </trkpt>
      <trkpt lat="45.22974" lon="7.20315">
        <ele>1333.79</ele>
        <time>2015-08-17T15:09:06Z</time>
      </trkpt>
      <trkpt lat="45.22983" lon="7.20326">
        <ele>1333.03</ele>
        <time>2015-08-17T15:09:07Z</time>
      </trkpt>
      <trkpt lat="45.22994" lon="7.20335">
        <ele>1332.29</ele>
        <time>2015-08-17T15:09:08Z</time>
      </trkpt>
      <trkpt lat="45.23005" lon="7.2034">
        <ele>1331.57</ele>
        <time>2015-08-17T15:09:09Z</time>
      </trkpt>
      <trkpt lat="45.23018" lon="7.20343">
        <ele>1330.87</ele>
        <time>2015-08-17T15:09:10Z</time>
      </trkpt>
      <trkpt lat="45.23066" lon="7.20357">
        <ele>1327.54</ele>
        <time>2015-08-17T15:09:14Z</time>
      </trkpt>
      <trkpt lat="45.23077" lon="7.20364">
        <ele>1326.67</ele>
        <time>2015-08-17T15:09:15Z</time>
      </trkpt>
      <trkpt lat="45.23087" lon="7.20372">
        <ele>1325.89</ele>
        <time>2015-08-17T15:09:16Z</time>
      </trkpt>
      <trkpt lat="45.23096" lon="7.20382">
        <ele>1325.21</ele>
        <time>2015-08-17T15:09:17Z</time>
      </trkpt>
      <trkpt lat="45.23104" lon="7.20393">
        <ele>1324.58</ele>
        <time>2015-08-17T15:09:18Z</time>
      </trkpt>
      <trkpt lat="45.2311" lon="7.20405">
        <ele>1324</ele>
        <time>2015-08-17T15:09:19Z</time>
      </trkpt>
      <trkpt lat="45.23116" lon="7.20418">
        <ele>1322.83</ele>
        <time>2015-08-17T15:09:20Z</time>
      </trkpt>
      <trkpt lat="45.2312" lon="7.20432">
        <ele>1322.22</ele>
        <time>2015-08-17T15:09:21Z</time>
      </trkpt>
      <trkpt lat="45.23137" lon="7.20484">
        <ele>1320.07</ele>
        <time>2015-08-17T15:09:25Z</time>
      </trkpt>
      <trkpt lat="45.23147" lon="7.20557">
        <ele>1318.07</ele>
        <time>2015-08-17T15:09:31Z</time>
      </trkpt>
      <trkpt lat="45.23152" lon="7.20648">
        <ele>1315.97</ele>
        <time>2015-08-17T15:09:38Z</time>
      </trkpt>
      <trkpt lat="45.23157" lon="7.20686">
        <ele>1314.87</ele>
        <time>2015-08-17T15:09:41Z</time>
      </trkpt>
      <trkpt lat="45.23161" lon="7.20698">
        <ele>1314.51</ele>
        <time>2015-08-17T15:09:42Z</time>
      </trkpt>
      <trkpt lat="45.23195" lon="7.20799">
        <ele>1311.46</ele>
        <time>2015-08-17T15:09:51Z</time>
      </trkpt>
      <trkpt lat="45.23205" lon="7.20835">
        <ele>1310.32</ele>
        <time>2015-08-17T15:09:55Z</time>
      </trkpt>
      <trkpt lat="45.23204" lon="7.20838">
        <ele>1310.03</ele>
        <time>2015-08-17T15:09:56Z</time>
      </trkpt>
      <trkpt lat="45.23202" lon="7.20839">
        <ele>1309.11</ele>
        <time>2015-08-17T15:09:59Z</time>
      </trkpt>
      <trkpt lat="45.232" lon="7.20841">
        <ele>1308.19</ele>
        <time>2015-08-17T15:10:03Z</time>
      </trkpt>
      <trkpt lat="45.232" lon="7.20842">
        <ele>1307.59</ele>
        <time>2015-08-17T15:10:09Z</time>
      </trkpt>
      <trkpt lat="45.23199" lon="7.20839">
        <ele>1307.45</ele>
        <time>2015-08-17T15:10:32Z</time>
      </trkpt>
      <trkpt lat="45.23199" lon="7.20839">
        <ele>1307.29</ele>
        <time>2015-08-17T15:10:37Z</time>
      </trkpt>
    </trkseg>
  </trk>
</gpx>